<?xml version="1.0" encoding="UTF-8" standalone="no" ?>
<gpx xmlns="http://www.topografix.com/GPX/1/1" xmlns:xsi="http://www.w3.org/2001/XMLSchema-instance" xsi:schemaLocation="http://www.topografix.com/GPX/1/1 http://www.topografix.com/GPX/1/1/gpx.xsd" version="1.1" creator="VisuGPX - https://www.visugpx.com">
  <metadata>
    <name>St Pierre de Curtille - St Pierre d'alvey </name>
    <desc><![CDATA[Étape 2 retour 
Sans difficulté.
Terrain assez allant dans la plaine du Rhône ]]></desc>
  </metadata>
  <trk>
    <name><![CDATA[St Pierre de Curtille - St Pierre d'alvey _1]]></name>
    <trkseg>
      <trkpt lat="45.77518" lon="5.81206">
        <ele>401</ele>
        <time>2018-09-02T09:31:24Z</time>
      </trkpt>
      <trkpt lat="45.77518" lon="5.81205">
        <ele>401</ele>
        <time>2018-09-02T09:31:24Z</time>
      </trkpt>
      <trkpt lat="45.77518" lon="5.81204">
        <ele>401</ele>
        <time>2018-09-02T09:31:24Z</time>
      </trkpt>
      <trkpt lat="45.77519" lon="5.81202">
        <ele>401</ele>
        <time>2018-09-02T09:31:24Z</time>
      </trkpt>
      <trkpt lat="45.77518" lon="5.81203">
        <ele>401</ele>
        <time>2018-09-02T09:31:24Z</time>
      </trkpt>
      <trkpt lat="45.77518" lon="5.81203">
        <ele>401</ele>
        <time>2018-09-02T09:32:56Z</time>
      </trkpt>
      <trkpt lat="45.77521" lon="5.81201">
        <ele>401</ele>
        <time>2018-09-02T09:32:56Z</time>
      </trkpt>
      <trkpt lat="45.77525" lon="5.812">
        <ele>401</ele>
        <time>2018-09-02T09:32:56Z</time>
      </trkpt>
      <trkpt lat="45.77529" lon="5.812">
        <ele>401</ele>
        <time>2018-09-02T09:32:56Z</time>
      </trkpt>
      <trkpt lat="45.77532" lon="5.81197">
        <ele>401</ele>
        <time>2018-09-02T09:32:56Z</time>
      </trkpt>
      <trkpt lat="45.77533" lon="5.81192">
        <ele>401</ele>
        <time>2018-09-02T09:33:12Z</time>
      </trkpt>
      <trkpt lat="45.77533" lon="5.81188">
        <ele>401</ele>
        <time>2018-09-02T09:33:12Z</time>
      </trkpt>
      <trkpt lat="45.77534" lon="5.81185">
        <ele>401</ele>
        <time>2018-09-02T09:33:12Z</time>
      </trkpt>
      <trkpt lat="45.77534" lon="5.81179">
        <ele>401</ele>
        <time>2018-09-02T09:33:12Z</time>
      </trkpt>
      <trkpt lat="45.77534" lon="5.81173">
        <ele>401</ele>
        <time>2018-09-02T09:33:28Z</time>
      </trkpt>
      <trkpt lat="45.77534" lon="5.81168">
        <ele>401</ele>
        <time>2018-09-02T09:33:28Z</time>
      </trkpt>
      <trkpt lat="45.77535" lon="5.81162">
        <ele>401</ele>
        <time>2018-09-02T09:33:28Z</time>
      </trkpt>
      <trkpt lat="45.77536" lon="5.81155">
        <ele>401</ele>
        <time>2018-09-02T09:33:28Z</time>
      </trkpt>
      <trkpt lat="45.77538" lon="5.81149">
        <ele>401</ele>
        <time>2018-09-02T09:33:44Z</time>
      </trkpt>
      <trkpt lat="45.77538" lon="5.81142">
        <ele>401</ele>
        <time>2018-09-02T09:33:44Z</time>
      </trkpt>
      <trkpt lat="45.77537" lon="5.81135">
        <ele>401</ele>
        <time>2018-09-02T09:33:44Z</time>
      </trkpt>
      <trkpt lat="45.77537" lon="5.81127">
        <ele>401</ele>
        <time>2018-09-02T09:33:44Z</time>
      </trkpt>
      <trkpt lat="45.77537" lon="5.8112">
        <ele>414</ele>
        <time>2018-09-02T09:34:00Z</time>
      </trkpt>
      <trkpt lat="45.77538" lon="5.81114">
        <ele>414</ele>
        <time>2018-09-02T09:34:00Z</time>
      </trkpt>
      <trkpt lat="45.7754" lon="5.81109">
        <ele>414</ele>
        <time>2018-09-02T09:34:00Z</time>
      </trkpt>
      <trkpt lat="45.77542" lon="5.81103">
        <ele>414</ele>
        <time>2018-09-02T09:34:00Z</time>
      </trkpt>
      <trkpt lat="45.77543" lon="5.81098">
        <ele>412</ele>
        <time>2018-09-02T09:34:16Z</time>
      </trkpt>
      <trkpt lat="45.77544" lon="5.81093">
        <ele>412</ele>
        <time>2018-09-02T09:34:16Z</time>
      </trkpt>
      <trkpt lat="45.77545" lon="5.81087">
        <ele>412</ele>
        <time>2018-09-02T09:34:16Z</time>
      </trkpt>
      <trkpt lat="45.77545" lon="5.81081">
        <ele>412</ele>
        <time>2018-09-02T09:34:16Z</time>
      </trkpt>
      <trkpt lat="45.77544" lon="5.81075">
        <ele>412</ele>
        <time>2018-09-02T09:34:32Z</time>
      </trkpt>
      <trkpt lat="45.77541" lon="5.81068">
        <ele>414</ele>
        <time>2018-09-02T09:34:32Z</time>
      </trkpt>
      <trkpt lat="45.77538" lon="5.81062">
        <ele>414</ele>
        <time>2018-09-02T09:34:32Z</time>
      </trkpt>
      <trkpt lat="45.77535" lon="5.81056">
        <ele>414</ele>
        <time>2018-09-02T09:34:32Z</time>
      </trkpt>
      <trkpt lat="45.77523" lon="5.81053">
        <ele>414</ele>
        <time>2018-09-02T09:35:12Z</time>
      </trkpt>
      <trkpt lat="45.77523" lon="5.81054">
        <ele>414</ele>
        <time>2018-09-02T09:35:12Z</time>
      </trkpt>
      <trkpt lat="45.77521" lon="5.81054">
        <ele>414</ele>
        <time>2018-09-02T09:35:12Z</time>
      </trkpt>
      <trkpt lat="45.77517" lon="5.81054">
        <ele>414</ele>
        <time>2018-09-02T09:35:12Z</time>
      </trkpt>
      <trkpt lat="45.77513" lon="5.81053">
        <ele>414</ele>
        <time>2018-09-02T09:35:12Z</time>
      </trkpt>
      <trkpt lat="45.77508" lon="5.81052">
        <ele>414</ele>
        <time>2018-09-02T09:35:28Z</time>
      </trkpt>
      <trkpt lat="45.77504" lon="5.81049">
        <ele>414</ele>
        <time>2018-09-02T09:35:28Z</time>
      </trkpt>
      <trkpt lat="45.77499" lon="5.81046">
        <ele>414</ele>
        <time>2018-09-02T09:35:28Z</time>
      </trkpt>
      <trkpt lat="45.77494" lon="5.81044">
        <ele>414</ele>
        <time>2018-09-02T09:35:28Z</time>
      </trkpt>
      <trkpt lat="45.7749" lon="5.81041">
        <ele>417</ele>
        <time>2018-09-02T09:35:44Z</time>
      </trkpt>
      <trkpt lat="45.77485" lon="5.81038">
        <ele>417</ele>
        <time>2018-09-02T09:35:44Z</time>
      </trkpt>
      <trkpt lat="45.7748" lon="5.81037">
        <ele>417</ele>
        <time>2018-09-02T09:35:44Z</time>
      </trkpt>
      <trkpt lat="45.77476" lon="5.81034">
        <ele>417</ele>
        <time>2018-09-02T09:35:44Z</time>
      </trkpt>
      <trkpt lat="45.77471" lon="5.81033">
        <ele>417</ele>
        <time>2018-09-02T09:36:00Z</time>
      </trkpt>
      <trkpt lat="45.77466" lon="5.81031">
        <ele>417</ele>
        <time>2018-09-02T09:36:00Z</time>
      </trkpt>
      <trkpt lat="45.77461" lon="5.81028">
        <ele>417</ele>
        <time>2018-09-02T09:36:00Z</time>
      </trkpt>
      <trkpt lat="45.77455" lon="5.81026">
        <ele>421</ele>
        <time>2018-09-02T09:36:00Z</time>
      </trkpt>
      <trkpt lat="45.7745" lon="5.81025">
        <ele>421</ele>
        <time>2018-09-02T09:36:16Z</time>
      </trkpt>
      <trkpt lat="45.77447" lon="5.81021">
        <ele>421</ele>
        <time>2018-09-02T09:36:16Z</time>
      </trkpt>
      <trkpt lat="45.77443" lon="5.81021">
        <ele>421</ele>
        <time>2018-09-02T09:36:16Z</time>
      </trkpt>
      <trkpt lat="45.77438" lon="5.8102">
        <ele>421</ele>
        <time>2018-09-02T09:36:16Z</time>
      </trkpt>
      <trkpt lat="45.77433" lon="5.81019">
        <ele>421</ele>
        <time>2018-09-02T09:36:32Z</time>
      </trkpt>
      <trkpt lat="45.77427" lon="5.81018">
        <ele>421</ele>
        <time>2018-09-02T09:36:32Z</time>
      </trkpt>
      <trkpt lat="45.77422" lon="5.81019">
        <ele>421</ele>
        <time>2018-09-02T09:36:32Z</time>
      </trkpt>
      <trkpt lat="45.77417" lon="5.81017">
        <ele>421</ele>
        <time>2018-09-02T09:36:32Z</time>
      </trkpt>
      <trkpt lat="45.77415" lon="5.81014">
        <ele>421</ele>
        <time>2018-09-02T09:36:48Z</time>
      </trkpt>
      <trkpt lat="45.77411" lon="5.81014">
        <ele>421</ele>
        <time>2018-09-02T09:36:48Z</time>
      </trkpt>
      <trkpt lat="45.77405" lon="5.81013">
        <ele>421</ele>
        <time>2018-09-02T09:36:48Z</time>
      </trkpt>
      <trkpt lat="45.77401" lon="5.81013">
        <ele>421</ele>
        <time>2018-09-02T09:36:48Z</time>
      </trkpt>
      <trkpt lat="45.77396" lon="5.81011">
        <ele>421</ele>
        <time>2018-09-02T09:37:04Z</time>
      </trkpt>
      <trkpt lat="45.77392" lon="5.81009">
        <ele>421</ele>
        <time>2018-09-02T09:37:04Z</time>
      </trkpt>
      <trkpt lat="45.77387" lon="5.81008">
        <ele>421</ele>
        <time>2018-09-02T09:37:04Z</time>
      </trkpt>
      <trkpt lat="45.77382" lon="5.81006">
        <ele>421</ele>
        <time>2018-09-02T09:37:04Z</time>
      </trkpt>
      <trkpt lat="45.77377" lon="5.81004">
        <ele>421</ele>
        <time>2018-09-02T09:37:20Z</time>
      </trkpt>
      <trkpt lat="45.77371" lon="5.81001">
        <ele>426</ele>
        <time>2018-09-02T09:37:20Z</time>
      </trkpt>
      <trkpt lat="45.77366" lon="5.80997">
        <ele>426</ele>
        <time>2018-09-02T09:37:20Z</time>
      </trkpt>
      <trkpt lat="45.77361" lon="5.80993">
        <ele>426</ele>
        <time>2018-09-02T09:37:20Z</time>
      </trkpt>
      <trkpt lat="45.77357" lon="5.80989">
        <ele>426</ele>
        <time>2018-09-02T09:37:36Z</time>
      </trkpt>
      <trkpt lat="45.77354" lon="5.80984">
        <ele>426</ele>
        <time>2018-09-02T09:37:36Z</time>
      </trkpt>
      <trkpt lat="45.77351" lon="5.80979">
        <ele>426</ele>
        <time>2018-09-02T09:37:36Z</time>
      </trkpt>
      <trkpt lat="45.77348" lon="5.80973">
        <ele>426</ele>
        <time>2018-09-02T09:37:36Z</time>
      </trkpt>
      <trkpt lat="45.77345" lon="5.80967">
        <ele>426</ele>
        <time>2018-09-02T09:37:52Z</time>
      </trkpt>
      <trkpt lat="45.77343" lon="5.8096">
        <ele>426</ele>
        <time>2018-09-02T09:37:52Z</time>
      </trkpt>
      <trkpt lat="45.77342" lon="5.80953">
        <ele>432</ele>
        <time>2018-09-02T09:37:52Z</time>
      </trkpt>
      <trkpt lat="45.77342" lon="5.80947">
        <ele>432</ele>
        <time>2018-09-02T09:37:52Z</time>
      </trkpt>
      <trkpt lat="45.77343" lon="5.80942">
        <ele>432</ele>
        <time>2018-09-02T09:38:12Z</time>
      </trkpt>
      <trkpt lat="45.77343" lon="5.80939">
        <ele>432</ele>
        <time>2018-09-02T09:38:12Z</time>
      </trkpt>
      <trkpt lat="45.77343" lon="5.80936">
        <ele>432</ele>
        <time>2018-09-02T09:38:12Z</time>
      </trkpt>
      <trkpt lat="45.77343" lon="5.80931">
        <ele>432</ele>
        <time>2018-09-02T09:38:12Z</time>
      </trkpt>
      <trkpt lat="45.77343" lon="5.80926">
        <ele>432</ele>
        <time>2018-09-02T09:38:12Z</time>
      </trkpt>
      <trkpt lat="45.77345" lon="5.80919">
        <ele>432</ele>
        <time>2018-09-02T09:38:36Z</time>
      </trkpt>
      <trkpt lat="45.77346" lon="5.80917">
        <ele>432</ele>
        <time>2018-09-02T09:38:36Z</time>
      </trkpt>
      <trkpt lat="45.77346" lon="5.80915">
        <ele>432</ele>
        <time>2018-09-02T09:38:36Z</time>
      </trkpt>
      <trkpt lat="45.77347" lon="5.80912">
        <ele>432</ele>
        <time>2018-09-02T09:38:36Z</time>
      </trkpt>
      <trkpt lat="45.77347" lon="5.80907">
        <ele>432</ele>
        <time>2018-09-02T09:38:36Z</time>
      </trkpt>
      <trkpt lat="45.77349" lon="5.80902">
        <ele>432</ele>
        <time>2018-09-02T09:38:52Z</time>
      </trkpt>
      <trkpt lat="45.7735" lon="5.80897">
        <ele>432</ele>
        <time>2018-09-02T09:38:52Z</time>
      </trkpt>
      <trkpt lat="45.77352" lon="5.80891">
        <ele>432</ele>
        <time>2018-09-02T09:38:52Z</time>
      </trkpt>
      <trkpt lat="45.77354" lon="5.80884">
        <ele>432</ele>
        <time>2018-09-02T09:38:52Z</time>
      </trkpt>
      <trkpt lat="45.77355" lon="5.80876">
        <ele>432</ele>
        <time>2018-09-02T09:39:08Z</time>
      </trkpt>
      <trkpt lat="45.77356" lon="5.80867">
        <ele>431</ele>
        <time>2018-09-02T09:39:08Z</time>
      </trkpt>
      <trkpt lat="45.77358" lon="5.80858">
        <ele>431</ele>
        <time>2018-09-02T09:39:08Z</time>
      </trkpt>
      <trkpt lat="45.77359" lon="5.80849">
        <ele>431</ele>
        <time>2018-09-02T09:39:08Z</time>
      </trkpt>
      <trkpt lat="45.7736" lon="5.80842">
        <ele>431</ele>
        <time>2018-09-02T09:39:24Z</time>
      </trkpt>
      <trkpt lat="45.77362" lon="5.80836">
        <ele>431</ele>
        <time>2018-09-02T09:39:24Z</time>
      </trkpt>
      <trkpt lat="45.77363" lon="5.80831">
        <ele>431</ele>
        <time>2018-09-02T09:39:24Z</time>
      </trkpt>
      <trkpt lat="45.77363" lon="5.80823">
        <ele>431</ele>
        <time>2018-09-02T09:39:24Z</time>
      </trkpt>
      <trkpt lat="45.77362" lon="5.80814">
        <ele>431</ele>
        <time>2018-09-02T09:39:40Z</time>
      </trkpt>
      <trkpt lat="45.77361" lon="5.80804">
        <ele>431</ele>
        <time>2018-09-02T09:39:40Z</time>
      </trkpt>
      <trkpt lat="45.77359" lon="5.80793">
        <ele>431</ele>
        <time>2018-09-02T09:39:40Z</time>
      </trkpt>
      <trkpt lat="45.77355" lon="5.80784">
        <ele>418</ele>
        <time>2018-09-02T09:39:40Z</time>
      </trkpt>
      <trkpt lat="45.77351" lon="5.80775">
        <ele>418</ele>
        <time>2018-09-02T09:39:56Z</time>
      </trkpt>
      <trkpt lat="45.77346" lon="5.80768">
        <ele>418</ele>
        <time>2018-09-02T09:39:56Z</time>
      </trkpt>
      <trkpt lat="45.77344" lon="5.80759">
        <ele>418</ele>
        <time>2018-09-02T09:39:56Z</time>
      </trkpt>
      <trkpt lat="45.77342" lon="5.80751">
        <ele>418</ele>
        <time>2018-09-02T09:39:56Z</time>
      </trkpt>
      <trkpt lat="45.77341" lon="5.80745">
        <ele>418</ele>
        <time>2018-09-02T09:40:12Z</time>
      </trkpt>
      <trkpt lat="45.7734" lon="5.80738">
        <ele>418</ele>
        <time>2018-09-02T09:40:12Z</time>
      </trkpt>
      <trkpt lat="45.77339" lon="5.80733">
        <ele>418</ele>
        <time>2018-09-02T09:40:12Z</time>
      </trkpt>
      <trkpt lat="45.77339" lon="5.80732">
        <ele>418</ele>
        <time>2018-09-02T09:40:12Z</time>
      </trkpt>
      <trkpt lat="45.77339" lon="5.80731">
        <ele>418</ele>
        <time>2018-09-02T09:40:28Z</time>
      </trkpt>
      <trkpt lat="45.77337" lon="5.80728">
        <ele>418</ele>
        <time>2018-09-02T09:40:28Z</time>
      </trkpt>
      <trkpt lat="45.77333" lon="5.80721">
        <ele>418</ele>
        <time>2018-09-02T09:40:28Z</time>
      </trkpt>
      <trkpt lat="45.77329" lon="5.80715">
        <ele>418</ele>
        <time>2018-09-02T09:40:28Z</time>
      </trkpt>
      <trkpt lat="45.77327" lon="5.80707">
        <ele>407</ele>
        <time>2018-09-02T09:40:44Z</time>
      </trkpt>
      <trkpt lat="45.77326" lon="5.807">
        <ele>407</ele>
        <time>2018-09-02T09:40:44Z</time>
      </trkpt>
      <trkpt lat="45.77325" lon="5.80693">
        <ele>407</ele>
        <time>2018-09-02T09:40:44Z</time>
      </trkpt>
      <trkpt lat="45.77324" lon="5.80686">
        <ele>407</ele>
        <time>2018-09-02T09:40:44Z</time>
      </trkpt>
      <trkpt lat="45.77323" lon="5.80682">
        <ele>407</ele>
        <time>2018-09-02T09:41:00Z</time>
      </trkpt>
      <trkpt lat="45.77319" lon="5.80677">
        <ele>407</ele>
        <time>2018-09-02T09:41:00Z</time>
      </trkpt>
      <trkpt lat="45.77317" lon="5.80669">
        <ele>407</ele>
        <time>2018-09-02T09:41:00Z</time>
      </trkpt>
      <trkpt lat="45.77316" lon="5.80663">
        <ele>407</ele>
        <time>2018-09-02T09:41:00Z</time>
      </trkpt>
      <trkpt lat="45.77315" lon="5.80657">
        <ele>407</ele>
        <time>2018-09-02T09:41:16Z</time>
      </trkpt>
      <trkpt lat="45.77315" lon="5.80648">
        <ele>407</ele>
        <time>2018-09-02T09:41:16Z</time>
      </trkpt>
      <trkpt lat="45.77313" lon="5.8064">
        <ele>407</ele>
        <time>2018-09-02T09:41:16Z</time>
      </trkpt>
      <trkpt lat="45.77311" lon="5.80634">
        <ele>407</ele>
        <time>2018-09-02T09:41:16Z</time>
      </trkpt>
      <trkpt lat="45.77307" lon="5.80618">
        <ele>403</ele>
        <time>2018-09-02T09:42:08Z</time>
      </trkpt>
      <trkpt lat="45.77308" lon="5.80617">
        <ele>403</ele>
        <time>2018-09-02T09:42:08Z</time>
      </trkpt>
      <trkpt lat="45.77307" lon="5.80616">
        <ele>403</ele>
        <time>2018-09-02T09:42:08Z</time>
      </trkpt>
      <trkpt lat="45.77307" lon="5.80615">
        <ele>403</ele>
        <time>2018-09-02T09:42:08Z</time>
      </trkpt>
      <trkpt lat="45.77307" lon="5.80615">
        <ele>403</ele>
        <time>2018-09-02T09:42:08Z</time>
      </trkpt>
      <trkpt lat="45.77308" lon="5.80615">
        <ele>403</ele>
        <time>2018-09-02T09:42:56Z</time>
      </trkpt>
      <trkpt lat="45.77306" lon="5.8061">
        <ele>403</ele>
        <time>2018-09-02T09:42:56Z</time>
      </trkpt>
      <trkpt lat="45.77305" lon="5.80603">
        <ele>403</ele>
        <time>2018-09-02T09:42:56Z</time>
      </trkpt>
      <trkpt lat="45.77306" lon="5.80594">
        <ele>403</ele>
        <time>2018-09-02T09:42:56Z</time>
      </trkpt>
      <trkpt lat="45.77308" lon="5.80586">
        <ele>403</ele>
        <time>2018-09-02T09:42:56Z</time>
      </trkpt>
      <trkpt lat="45.77308" lon="5.80578">
        <ele>403</ele>
        <time>2018-09-02T09:43:12Z</time>
      </trkpt>
      <trkpt lat="45.77307" lon="5.80571">
        <ele>403</ele>
        <time>2018-09-02T09:43:12Z</time>
      </trkpt>
      <trkpt lat="45.77308" lon="5.80564">
        <ele>403</ele>
        <time>2018-09-02T09:43:12Z</time>
      </trkpt>
      <trkpt lat="45.77309" lon="5.80556">
        <ele>403</ele>
        <time>2018-09-02T09:43:12Z</time>
      </trkpt>
      <trkpt lat="45.7731" lon="5.80548">
        <ele>403</ele>
        <time>2018-09-02T09:43:28Z</time>
      </trkpt>
      <trkpt lat="45.7731" lon="5.80541">
        <ele>406</ele>
        <time>2018-09-02T09:43:28Z</time>
      </trkpt>
      <trkpt lat="45.77309" lon="5.80534">
        <ele>406</ele>
        <time>2018-09-02T09:43:28Z</time>
      </trkpt>
      <trkpt lat="45.77309" lon="5.80526">
        <ele>406</ele>
        <time>2018-09-02T09:43:28Z</time>
      </trkpt>
      <trkpt lat="45.77308" lon="5.80519">
        <ele>406</ele>
        <time>2018-09-02T09:43:44Z</time>
      </trkpt>
      <trkpt lat="45.77306" lon="5.80511">
        <ele>406</ele>
        <time>2018-09-02T09:43:44Z</time>
      </trkpt>
      <trkpt lat="45.77305" lon="5.80504">
        <ele>406</ele>
        <time>2018-09-02T09:43:44Z</time>
      </trkpt>
      <trkpt lat="45.77303" lon="5.80497">
        <ele>406</ele>
        <time>2018-09-02T09:43:44Z</time>
      </trkpt>
      <trkpt lat="45.773" lon="5.80489">
        <ele>406</ele>
        <time>2018-09-02T09:44:00Z</time>
      </trkpt>
      <trkpt lat="45.77298" lon="5.80482">
        <ele>406</ele>
        <time>2018-09-02T09:44:00Z</time>
      </trkpt>
      <trkpt lat="45.77296" lon="5.80475">
        <ele>406</ele>
        <time>2018-09-02T09:44:00Z</time>
      </trkpt>
      <trkpt lat="45.77294" lon="5.80469">
        <ele>406</ele>
        <time>2018-09-02T09:44:00Z</time>
      </trkpt>
      <trkpt lat="45.7729" lon="5.80465">
        <ele>399</ele>
        <time>2018-09-02T09:44:16Z</time>
      </trkpt>
      <trkpt lat="45.77287" lon="5.80461">
        <ele>399</ele>
        <time>2018-09-02T09:44:16Z</time>
      </trkpt>
      <trkpt lat="45.77284" lon="5.80456">
        <ele>408</ele>
        <time>2018-09-02T09:44:16Z</time>
      </trkpt>
      <trkpt lat="45.77283" lon="5.8045">
        <ele>408</ele>
        <time>2018-09-02T09:44:16Z</time>
      </trkpt>
      <trkpt lat="45.7728" lon="5.80448">
        <ele>408</ele>
        <time>2018-09-02T09:44:32Z</time>
      </trkpt>
      <trkpt lat="45.77276" lon="5.80443">
        <ele>408</ele>
        <time>2018-09-02T09:44:32Z</time>
      </trkpt>
      <trkpt lat="45.77272" lon="5.80438">
        <ele>408</ele>
        <time>2018-09-02T09:44:32Z</time>
      </trkpt>
      <trkpt lat="45.77269" lon="5.80433">
        <ele>408</ele>
        <time>2018-09-02T09:44:32Z</time>
      </trkpt>
      <trkpt lat="45.77265" lon="5.80428">
        <ele>408</ele>
        <time>2018-09-02T09:44:48Z</time>
      </trkpt>
      <trkpt lat="45.7726" lon="5.80423">
        <ele>408</ele>
        <time>2018-09-02T09:44:48Z</time>
      </trkpt>
      <trkpt lat="45.77256" lon="5.80419">
        <ele>408</ele>
        <time>2018-09-02T09:44:48Z</time>
      </trkpt>
      <trkpt lat="45.77251" lon="5.80414">
        <ele>408</ele>
        <time>2018-09-02T09:44:48Z</time>
      </trkpt>
      <trkpt lat="45.77246" lon="5.80409">
        <ele>408</ele>
        <time>2018-09-02T09:45:04Z</time>
      </trkpt>
      <trkpt lat="45.77242" lon="5.80403">
        <ele>408</ele>
        <time>2018-09-02T09:45:04Z</time>
      </trkpt>
      <trkpt lat="45.77237" lon="5.80398">
        <ele>408</ele>
        <time>2018-09-02T09:45:04Z</time>
      </trkpt>
      <trkpt lat="45.77233" lon="5.80393">
        <ele>408</ele>
        <time>2018-09-02T09:45:04Z</time>
      </trkpt>
      <trkpt lat="45.77228" lon="5.80388">
        <ele>408</ele>
        <time>2018-09-02T09:45:20Z</time>
      </trkpt>
      <trkpt lat="45.77224" lon="5.80383">
        <ele>408</ele>
        <time>2018-09-02T09:45:20Z</time>
      </trkpt>
      <trkpt lat="45.7722" lon="5.80378">
        <ele>408</ele>
        <time>2018-09-02T09:45:20Z</time>
      </trkpt>
      <trkpt lat="45.77215" lon="5.80374">
        <ele>417</ele>
        <time>2018-09-02T09:45:20Z</time>
      </trkpt>
      <trkpt lat="45.77212" lon="5.80368">
        <ele>417</ele>
        <time>2018-09-02T09:45:36Z</time>
      </trkpt>
      <trkpt lat="45.77209" lon="5.80365">
        <ele>417</ele>
        <time>2018-09-02T09:45:36Z</time>
      </trkpt>
      <trkpt lat="45.77205" lon="5.80362">
        <ele>406</ele>
        <time>2018-09-02T09:45:36Z</time>
      </trkpt>
      <trkpt lat="45.772" lon="5.80358">
        <ele>406</ele>
        <time>2018-09-02T09:45:36Z</time>
      </trkpt>
      <trkpt lat="45.77195" lon="5.80353">
        <ele>406</ele>
        <time>2018-09-02T09:45:52Z</time>
      </trkpt>
      <trkpt lat="45.7719" lon="5.80349">
        <ele>406</ele>
        <time>2018-09-02T09:45:52Z</time>
      </trkpt>
      <trkpt lat="45.77185" lon="5.80344">
        <ele>406</ele>
        <time>2018-09-02T09:45:52Z</time>
      </trkpt>
      <trkpt lat="45.77179" lon="5.8034">
        <ele>406</ele>
        <time>2018-09-02T09:45:52Z</time>
      </trkpt>
      <trkpt lat="45.77175" lon="5.80336">
        <ele>406</ele>
        <time>2018-09-02T09:46:08Z</time>
      </trkpt>
      <trkpt lat="45.7717" lon="5.80332">
        <ele>406</ele>
        <time>2018-09-02T09:46:08Z</time>
      </trkpt>
      <trkpt lat="45.77167" lon="5.80327">
        <ele>406</ele>
        <time>2018-09-02T09:46:08Z</time>
      </trkpt>
      <trkpt lat="45.77163" lon="5.80322">
        <ele>406</ele>
        <time>2018-09-02T09:46:08Z</time>
      </trkpt>
      <trkpt lat="45.77159" lon="5.80318">
        <ele>406</ele>
        <time>2018-09-02T09:46:24Z</time>
      </trkpt>
      <trkpt lat="45.77156" lon="5.80312">
        <ele>406</ele>
        <time>2018-09-02T09:46:24Z</time>
      </trkpt>
      <trkpt lat="45.77153" lon="5.80306">
        <ele>406</ele>
        <time>2018-09-02T09:46:24Z</time>
      </trkpt>
      <trkpt lat="45.77149" lon="5.803">
        <ele>406</ele>
        <time>2018-09-02T09:46:24Z</time>
      </trkpt>
      <trkpt lat="45.77146" lon="5.80294">
        <ele>406</ele>
        <time>2018-09-02T09:46:40Z</time>
      </trkpt>
      <trkpt lat="45.77141" lon="5.8029">
        <ele>419</ele>
        <time>2018-09-02T09:46:40Z</time>
      </trkpt>
      <trkpt lat="45.77138" lon="5.80286">
        <ele>419</ele>
        <time>2018-09-02T09:46:40Z</time>
      </trkpt>
      <trkpt lat="45.77134" lon="5.80283">
        <ele>419</ele>
        <time>2018-09-02T09:46:40Z</time>
      </trkpt>
      <trkpt lat="45.77129" lon="5.80282">
        <ele>419</ele>
        <time>2018-09-02T09:46:56Z</time>
      </trkpt>
      <trkpt lat="45.77125" lon="5.80279">
        <ele>417</ele>
        <time>2018-09-02T09:46:56Z</time>
      </trkpt>
      <trkpt lat="45.77123" lon="5.80275">
        <ele>417</ele>
        <time>2018-09-02T09:46:56Z</time>
      </trkpt>
      <trkpt lat="45.7712" lon="5.80271">
        <ele>417</ele>
        <time>2018-09-02T09:46:56Z</time>
      </trkpt>
      <trkpt lat="45.77117" lon="5.80268">
        <ele>417</ele>
        <time>2018-09-02T09:47:12Z</time>
      </trkpt>
      <trkpt lat="45.77113" lon="5.80264">
        <ele>417</ele>
        <time>2018-09-02T09:47:12Z</time>
      </trkpt>
      <trkpt lat="45.77108" lon="5.8026">
        <ele>417</ele>
        <time>2018-09-02T09:47:12Z</time>
      </trkpt>
      <trkpt lat="45.77104" lon="5.80257">
        <ele>417</ele>
        <time>2018-09-02T09:47:12Z</time>
      </trkpt>
      <trkpt lat="45.771" lon="5.80255">
        <ele>417</ele>
        <time>2018-09-02T09:47:28Z</time>
      </trkpt>
      <trkpt lat="45.77097" lon="5.8025">
        <ele>417</ele>
        <time>2018-09-02T09:47:28Z</time>
      </trkpt>
      <trkpt lat="45.77093" lon="5.80246">
        <ele>417</ele>
        <time>2018-09-02T09:47:28Z</time>
      </trkpt>
      <trkpt lat="45.77088" lon="5.80239">
        <ele>417</ele>
        <time>2018-09-02T09:47:28Z</time>
      </trkpt>
      <trkpt lat="45.77074" lon="5.80225">
        <ele>417</ele>
        <time>2018-09-02T09:47:44Z</time>
      </trkpt>
      <trkpt lat="45.7705" lon="5.80215">
        <ele>417</ele>
        <time>2018-09-02T09:47:44Z</time>
      </trkpt>
      <trkpt lat="45.77028" lon="5.80207">
        <ele>423</ele>
        <time>2018-09-02T09:47:44Z</time>
      </trkpt>
      <trkpt lat="45.77005" lon="5.80203">
        <ele>423</ele>
        <time>2018-09-02T09:47:44Z</time>
      </trkpt>
      <trkpt lat="45.76983" lon="5.80196">
        <ele>423</ele>
        <time>2018-09-02T09:48:00Z</time>
      </trkpt>
      <trkpt lat="45.76962" lon="5.80185">
        <ele>423</ele>
        <time>2018-09-02T09:48:00Z</time>
      </trkpt>
      <trkpt lat="45.76942" lon="5.80167">
        <ele>422</ele>
        <time>2018-09-02T09:48:00Z</time>
      </trkpt>
      <trkpt lat="45.76917" lon="5.80151">
        <ele>422</ele>
        <time>2018-09-02T09:48:00Z</time>
      </trkpt>
      <trkpt lat="45.76894" lon="5.80135">
        <ele>422</ele>
        <time>2018-09-02T09:48:16Z</time>
      </trkpt>
      <trkpt lat="45.76876" lon="5.80128">
        <ele>422</ele>
        <time>2018-09-02T09:48:16Z</time>
      </trkpt>
      <trkpt lat="45.76871" lon="5.80125">
        <ele>439</ele>
        <time>2018-09-02T09:48:16Z</time>
      </trkpt>
      <trkpt lat="45.76867" lon="5.80124">
        <ele>437</ele>
        <time>2018-09-02T09:48:16Z</time>
      </trkpt>
      <trkpt lat="45.76861" lon="5.80122">
        <ele>437</ele>
        <time>2018-09-02T09:48:32Z</time>
      </trkpt>
      <trkpt lat="45.76857" lon="5.80116">
        <ele>437</ele>
        <time>2018-09-02T09:48:32Z</time>
      </trkpt>
      <trkpt lat="45.76853" lon="5.80111">
        <ele>437</ele>
        <time>2018-09-02T09:48:32Z</time>
      </trkpt>
      <trkpt lat="45.76849" lon="5.80107">
        <ele>437</ele>
        <time>2018-09-02T09:48:32Z</time>
      </trkpt>
      <trkpt lat="45.76847" lon="5.80102">
        <ele>437</ele>
        <time>2018-09-02T09:48:48Z</time>
      </trkpt>
      <trkpt lat="45.76845" lon="5.80097">
        <ele>437</ele>
        <time>2018-09-02T09:48:48Z</time>
      </trkpt>
      <trkpt lat="45.76843" lon="5.80092">
        <ele>437</ele>
        <time>2018-09-02T09:48:48Z</time>
      </trkpt>
      <trkpt lat="45.7684" lon="5.80084">
        <ele>437</ele>
        <time>2018-09-02T09:48:48Z</time>
      </trkpt>
      <trkpt lat="45.76839" lon="5.80075">
        <ele>437</ele>
        <time>2018-09-02T09:49:04Z</time>
      </trkpt>
      <trkpt lat="45.7684" lon="5.80067">
        <ele>437</ele>
        <time>2018-09-02T09:49:04Z</time>
      </trkpt>
      <trkpt lat="45.76842" lon="5.80059">
        <ele>437</ele>
        <time>2018-09-02T09:49:04Z</time>
      </trkpt>
      <trkpt lat="45.76843" lon="5.80053">
        <ele>437</ele>
        <time>2018-09-02T09:49:04Z</time>
      </trkpt>
      <trkpt lat="45.76847" lon="5.80047">
        <ele>437</ele>
        <time>2018-09-02T09:49:20Z</time>
      </trkpt>
      <trkpt lat="45.7685" lon="5.80041">
        <ele>434</ele>
        <time>2018-09-02T09:49:20Z</time>
      </trkpt>
      <trkpt lat="45.76853" lon="5.80033">
        <ele>434</ele>
        <time>2018-09-02T09:49:20Z</time>
      </trkpt>
      <trkpt lat="45.76855" lon="5.80023">
        <ele>434</ele>
        <time>2018-09-02T09:49:20Z</time>
      </trkpt>
      <trkpt lat="45.76862" lon="5.79987">
        <ele>434</ele>
        <time>2018-09-02T09:49:36Z</time>
      </trkpt>
      <trkpt lat="45.76855" lon="5.79962">
        <ele>434</ele>
        <time>2018-09-02T09:49:36Z</time>
      </trkpt>
      <trkpt lat="45.76837" lon="5.7994">
        <ele>433</ele>
        <time>2018-09-02T09:49:36Z</time>
      </trkpt>
      <trkpt lat="45.76812" lon="5.79929">
        <ele>433</ele>
        <time>2018-09-02T09:49:36Z</time>
      </trkpt>
      <trkpt lat="45.76768" lon="5.79899">
        <ele>429</ele>
        <time>2018-09-02T09:50:32Z</time>
      </trkpt>
      <trkpt lat="45.76768" lon="5.79899">
        <ele>429</ele>
        <time>2018-09-02T09:50:32Z</time>
      </trkpt>
      <trkpt lat="45.76768" lon="5.79899">
        <ele>429</ele>
        <time>2018-09-02T09:50:32Z</time>
      </trkpt>
      <trkpt lat="45.76766" lon="5.79894">
        <ele>429</ele>
        <time>2018-09-02T09:50:32Z</time>
      </trkpt>
      <trkpt lat="45.76764" lon="5.7989">
        <ele>429</ele>
        <time>2018-09-02T09:50:32Z</time>
      </trkpt>
      <trkpt lat="45.76761" lon="5.79886">
        <ele>429</ele>
        <time>2018-09-02T09:50:48Z</time>
      </trkpt>
      <trkpt lat="45.76758" lon="5.79883">
        <ele>429</ele>
        <time>2018-09-02T09:50:48Z</time>
      </trkpt>
      <trkpt lat="45.76755" lon="5.7988">
        <ele>429</ele>
        <time>2018-09-02T09:50:48Z</time>
      </trkpt>
      <trkpt lat="45.76751" lon="5.79878">
        <ele>429</ele>
        <time>2018-09-02T09:50:48Z</time>
      </trkpt>
      <trkpt lat="45.76748" lon="5.79872">
        <ele>443</ele>
        <time>2018-09-02T09:51:04Z</time>
      </trkpt>
      <trkpt lat="45.76744" lon="5.79867">
        <ele>443</ele>
        <time>2018-09-02T09:51:04Z</time>
      </trkpt>
      <trkpt lat="45.7674" lon="5.79864">
        <ele>443</ele>
        <time>2018-09-02T09:51:04Z</time>
      </trkpt>
      <trkpt lat="45.76737" lon="5.79861">
        <ele>443</ele>
        <time>2018-09-02T09:51:04Z</time>
      </trkpt>
      <trkpt lat="45.76734" lon="5.79859">
        <ele>443</ele>
        <time>2018-09-02T09:51:20Z</time>
      </trkpt>
      <trkpt lat="45.76729" lon="5.79856">
        <ele>443</ele>
        <time>2018-09-02T09:51:20Z</time>
      </trkpt>
      <trkpt lat="45.76724" lon="5.79854">
        <ele>443</ele>
        <time>2018-09-02T09:51:20Z</time>
      </trkpt>
      <trkpt lat="45.7672" lon="5.79853">
        <ele>443</ele>
        <time>2018-09-02T09:51:20Z</time>
      </trkpt>
      <trkpt lat="45.76714" lon="5.79851">
        <ele>443</ele>
        <time>2018-09-02T09:51:36Z</time>
      </trkpt>
      <trkpt lat="45.76709" lon="5.79848">
        <ele>443</ele>
        <time>2018-09-02T09:51:36Z</time>
      </trkpt>
      <trkpt lat="45.76703" lon="5.79845">
        <ele>441</ele>
        <time>2018-09-02T09:51:36Z</time>
      </trkpt>
      <trkpt lat="45.76698" lon="5.79843">
        <ele>441</ele>
        <time>2018-09-02T09:51:36Z</time>
      </trkpt>
      <trkpt lat="45.76693" lon="5.7984">
        <ele>441</ele>
        <time>2018-09-02T09:51:52Z</time>
      </trkpt>
      <trkpt lat="45.76688" lon="5.79838">
        <ele>441</ele>
        <time>2018-09-02T09:51:52Z</time>
      </trkpt>
      <trkpt lat="45.76684" lon="5.79836">
        <ele>441</ele>
        <time>2018-09-02T09:51:52Z</time>
      </trkpt>
      <trkpt lat="45.7668" lon="5.79833">
        <ele>441</ele>
        <time>2018-09-02T09:51:52Z</time>
      </trkpt>
      <trkpt lat="45.76677" lon="5.79828">
        <ele>441</ele>
        <time>2018-09-02T09:52:08Z</time>
      </trkpt>
      <trkpt lat="45.76674" lon="5.79823">
        <ele>441</ele>
        <time>2018-09-02T09:52:08Z</time>
      </trkpt>
      <trkpt lat="45.76672" lon="5.79822">
        <ele>441</ele>
        <time>2018-09-02T09:52:08Z</time>
      </trkpt>
      <trkpt lat="45.76668" lon="5.79821">
        <ele>441</ele>
        <time>2018-09-02T09:52:08Z</time>
      </trkpt>
      <trkpt lat="45.76662" lon="5.79821">
        <ele>441</ele>
        <time>2018-09-02T09:52:24Z</time>
      </trkpt>
      <trkpt lat="45.76655" lon="5.79822">
        <ele>441</ele>
        <time>2018-09-02T09:52:24Z</time>
      </trkpt>
      <trkpt lat="45.76649" lon="5.79822">
        <ele>441</ele>
        <time>2018-09-02T09:52:24Z</time>
      </trkpt>
      <trkpt lat="45.76643" lon="5.79824">
        <ele>441</ele>
        <time>2018-09-02T09:52:24Z</time>
      </trkpt>
      <trkpt lat="45.76638" lon="5.79824">
        <ele>441</ele>
        <time>2018-09-02T09:52:40Z</time>
      </trkpt>
      <trkpt lat="45.76632" lon="5.79826">
        <ele>441</ele>
        <time>2018-09-02T09:52:40Z</time>
      </trkpt>
      <trkpt lat="45.76627" lon="5.79829">
        <ele>441</ele>
        <time>2018-09-02T09:52:40Z</time>
      </trkpt>
      <trkpt lat="45.76623" lon="5.79831">
        <ele>439</ele>
        <time>2018-09-02T09:52:40Z</time>
      </trkpt>
      <trkpt lat="45.76618" lon="5.79833">
        <ele>439</ele>
        <time>2018-09-02T09:52:56Z</time>
      </trkpt>
      <trkpt lat="45.76613" lon="5.79836">
        <ele>439</ele>
        <time>2018-09-02T09:52:56Z</time>
      </trkpt>
      <trkpt lat="45.76607" lon="5.79838">
        <ele>439</ele>
        <time>2018-09-02T09:52:56Z</time>
      </trkpt>
      <trkpt lat="45.76602" lon="5.79839">
        <ele>439</ele>
        <time>2018-09-02T09:52:56Z</time>
      </trkpt>
      <trkpt lat="45.76597" lon="5.79839">
        <ele>439</ele>
        <time>2018-09-02T09:53:12Z</time>
      </trkpt>
      <trkpt lat="45.76591" lon="5.79839">
        <ele>439</ele>
        <time>2018-09-02T09:53:12Z</time>
      </trkpt>
      <trkpt lat="45.76586" lon="5.79842">
        <ele>439</ele>
        <time>2018-09-02T09:53:12Z</time>
      </trkpt>
      <trkpt lat="45.7658" lon="5.79845">
        <ele>439</ele>
        <time>2018-09-02T09:53:12Z</time>
      </trkpt>
      <trkpt lat="45.76577" lon="5.79847">
        <ele>439</ele>
        <time>2018-09-02T09:53:28Z</time>
      </trkpt>
      <trkpt lat="45.76572" lon="5.79849">
        <ele>439</ele>
        <time>2018-09-02T09:53:28Z</time>
      </trkpt>
      <trkpt lat="45.76566" lon="5.79852">
        <ele>439</ele>
        <time>2018-09-02T09:53:28Z</time>
      </trkpt>
      <trkpt lat="45.76562" lon="5.79855">
        <ele>439</ele>
        <time>2018-09-02T09:53:28Z</time>
      </trkpt>
      <trkpt lat="45.76555" lon="5.79856">
        <ele>439</ele>
        <time>2018-09-02T09:53:44Z</time>
      </trkpt>
      <trkpt lat="45.76549" lon="5.79857">
        <ele>439</ele>
        <time>2018-09-02T09:53:44Z</time>
      </trkpt>
      <trkpt lat="45.76542" lon="5.79858">
        <ele>439</ele>
        <time>2018-09-02T09:53:44Z</time>
      </trkpt>
      <trkpt lat="45.76537" lon="5.79854">
        <ele>438</ele>
        <time>2018-09-02T09:53:44Z</time>
      </trkpt>
      <trkpt lat="45.76534" lon="5.79848">
        <ele>438</ele>
        <time>2018-09-02T09:54:00Z</time>
      </trkpt>
      <trkpt lat="45.76531" lon="5.79842">
        <ele>438</ele>
        <time>2018-09-02T09:54:00Z</time>
      </trkpt>
      <trkpt lat="45.76527" lon="5.79834">
        <ele>438</ele>
        <time>2018-09-02T09:54:00Z</time>
      </trkpt>
      <trkpt lat="45.76522" lon="5.79829">
        <ele>438</ele>
        <time>2018-09-02T09:54:00Z</time>
      </trkpt>
      <trkpt lat="45.76517" lon="5.79825">
        <ele>438</ele>
        <time>2018-09-02T09:54:16Z</time>
      </trkpt>
      <trkpt lat="45.76511" lon="5.79823">
        <ele>438</ele>
        <time>2018-09-02T09:54:16Z</time>
      </trkpt>
      <trkpt lat="45.76506" lon="5.79821">
        <ele>438</ele>
        <time>2018-09-02T09:54:16Z</time>
      </trkpt>
      <trkpt lat="45.76502" lon="5.79818">
        <ele>438</ele>
        <time>2018-09-02T09:54:16Z</time>
      </trkpt>
      <trkpt lat="45.76498" lon="5.79814">
        <ele>438</ele>
        <time>2018-09-02T09:54:32Z</time>
      </trkpt>
      <trkpt lat="45.76496" lon="5.79807">
        <ele>438</ele>
        <time>2018-09-02T09:54:32Z</time>
      </trkpt>
      <trkpt lat="45.76493" lon="5.79801">
        <ele>438</ele>
        <time>2018-09-02T09:54:32Z</time>
      </trkpt>
      <trkpt lat="45.76491" lon="5.79796">
        <ele>438</ele>
        <time>2018-09-02T09:54:32Z</time>
      </trkpt>
      <trkpt lat="45.76488" lon="5.7979">
        <ele>444</ele>
        <time>2018-09-02T09:54:48Z</time>
      </trkpt>
      <trkpt lat="45.76484" lon="5.79786">
        <ele>444</ele>
        <time>2018-09-02T09:54:48Z</time>
      </trkpt>
      <trkpt lat="45.76481" lon="5.79779">
        <ele>444</ele>
        <time>2018-09-02T09:54:48Z</time>
      </trkpt>
      <trkpt lat="45.7648" lon="5.79771">
        <ele>444</ele>
        <time>2018-09-02T09:54:48Z</time>
      </trkpt>
      <trkpt lat="45.76479" lon="5.79763">
        <ele>444</ele>
        <time>2018-09-02T09:55:04Z</time>
      </trkpt>
      <trkpt lat="45.76479" lon="5.7976">
        <ele>444</ele>
        <time>2018-09-02T09:55:04Z</time>
      </trkpt>
      <trkpt lat="45.76481" lon="5.79754">
        <ele>444</ele>
        <time>2018-09-02T09:55:04Z</time>
      </trkpt>
      <trkpt lat="45.76481" lon="5.79746">
        <ele>444</ele>
        <time>2018-09-02T09:55:04Z</time>
      </trkpt>
      <trkpt lat="45.76481" lon="5.79738">
        <ele>444</ele>
        <time>2018-09-02T09:55:20Z</time>
      </trkpt>
      <trkpt lat="45.76481" lon="5.79731">
        <ele>444</ele>
        <time>2018-09-02T09:55:20Z</time>
      </trkpt>
      <trkpt lat="45.7648" lon="5.79725">
        <ele>444</ele>
        <time>2018-09-02T09:55:20Z</time>
      </trkpt>
      <trkpt lat="45.76483" lon="5.79719">
        <ele>444</ele>
        <time>2018-09-02T09:55:20Z</time>
      </trkpt>
      <trkpt lat="45.76483" lon="5.79712">
        <ele>444</ele>
        <time>2018-09-02T09:55:36Z</time>
      </trkpt>
      <trkpt lat="45.7648" lon="5.79704">
        <ele>443</ele>
        <time>2018-09-02T09:55:36Z</time>
      </trkpt>
      <trkpt lat="45.7648" lon="5.79695">
        <ele>443</ele>
        <time>2018-09-02T09:55:36Z</time>
      </trkpt>
      <trkpt lat="45.76482" lon="5.79689">
        <ele>443</ele>
        <time>2018-09-02T09:55:36Z</time>
      </trkpt>
      <trkpt lat="45.76482" lon="5.79683">
        <ele>443</ele>
        <time>2018-09-02T09:57:44Z</time>
      </trkpt>
      <trkpt lat="45.76482" lon="5.79682">
        <ele>443</ele>
        <time>2018-09-02T09:57:44Z</time>
      </trkpt>
      <trkpt lat="45.76482" lon="5.79679">
        <ele>443</ele>
        <time>2018-09-02T09:57:44Z</time>
      </trkpt>
      <trkpt lat="45.76482" lon="5.79678">
        <ele>443</ele>
        <time>2018-09-02T09:57:44Z</time>
      </trkpt>
      <trkpt lat="45.76483" lon="5.79676">
        <ele>443</ele>
        <time>2018-09-02T09:57:44Z</time>
      </trkpt>
      <trkpt lat="45.76482" lon="5.79671">
        <ele>443</ele>
        <time>2018-09-02T09:58:12Z</time>
      </trkpt>
      <trkpt lat="45.76481" lon="5.7967">
        <ele>443</ele>
        <time>2018-09-02T09:58:12Z</time>
      </trkpt>
      <trkpt lat="45.76481" lon="5.79667">
        <ele>443</ele>
        <time>2018-09-02T09:58:12Z</time>
      </trkpt>
      <trkpt lat="45.76482" lon="5.79662">
        <ele>443</ele>
        <time>2018-09-02T09:58:12Z</time>
      </trkpt>
      <trkpt lat="45.76483" lon="5.79658">
        <ele>443</ele>
        <time>2018-09-02T09:58:12Z</time>
      </trkpt>
      <trkpt lat="45.76481" lon="5.79654">
        <ele>443</ele>
        <time>2018-09-02T09:58:44Z</time>
      </trkpt>
      <trkpt lat="45.7648" lon="5.79654">
        <ele>443</ele>
        <time>2018-09-02T09:58:44Z</time>
      </trkpt>
      <trkpt lat="45.76482" lon="5.79651">
        <ele>443</ele>
        <time>2018-09-02T09:58:44Z</time>
      </trkpt>
      <trkpt lat="45.76482" lon="5.79647">
        <ele>443</ele>
        <time>2018-09-02T09:58:44Z</time>
      </trkpt>
      <trkpt lat="45.76481" lon="5.79642">
        <ele>443</ele>
        <time>2018-09-02T09:58:44Z</time>
      </trkpt>
      <trkpt lat="45.76479" lon="5.79639">
        <ele>443</ele>
        <time>2018-09-02T09:59:00Z</time>
      </trkpt>
      <trkpt lat="45.76476" lon="5.79636">
        <ele>443</ele>
        <time>2018-09-02T09:59:00Z</time>
      </trkpt>
      <trkpt lat="45.76472" lon="5.79632">
        <ele>443</ele>
        <time>2018-09-02T09:59:00Z</time>
      </trkpt>
      <trkpt lat="45.76468" lon="5.7963">
        <ele>443</ele>
        <time>2018-09-02T09:59:00Z</time>
      </trkpt>
      <trkpt lat="45.76466" lon="5.79627">
        <ele>443</ele>
        <time>2018-09-02T09:59:16Z</time>
      </trkpt>
      <trkpt lat="45.76464" lon="5.79622">
        <ele>443</ele>
        <time>2018-09-02T09:59:16Z</time>
      </trkpt>
      <trkpt lat="45.76464" lon="5.79617">
        <ele>443</ele>
        <time>2018-09-02T09:59:16Z</time>
      </trkpt>
      <trkpt lat="45.76464" lon="5.79612">
        <ele>443</ele>
        <time>2018-09-02T09:59:16Z</time>
      </trkpt>
      <trkpt lat="45.76461" lon="5.79602">
        <ele>443</ele>
        <time>2018-09-02T10:00:48Z</time>
      </trkpt>
      <trkpt lat="45.76461" lon="5.79602">
        <ele>443</ele>
        <time>2018-09-02T10:00:48Z</time>
      </trkpt>
      <trkpt lat="45.7646" lon="5.79603">
        <ele>443</ele>
        <time>2018-09-02T10:00:48Z</time>
      </trkpt>
      <trkpt lat="45.76456" lon="5.79603">
        <ele>425</ele>
        <time>2018-09-02T10:00:48Z</time>
      </trkpt>
      <trkpt lat="45.76453" lon="5.79603">
        <ele>425</ele>
        <time>2018-09-02T10:00:48Z</time>
      </trkpt>
      <trkpt lat="45.76448" lon="5.79602">
        <ele>425</ele>
        <time>2018-09-02T10:01:04Z</time>
      </trkpt>
      <trkpt lat="45.76443" lon="5.79601">
        <ele>425</ele>
        <time>2018-09-02T10:01:04Z</time>
      </trkpt>
      <trkpt lat="45.76438" lon="5.79601">
        <ele>425</ele>
        <time>2018-09-02T10:01:04Z</time>
      </trkpt>
      <trkpt lat="45.76434" lon="5.79602">
        <ele>425</ele>
        <time>2018-09-02T10:01:04Z</time>
      </trkpt>
      <trkpt lat="45.76431" lon="5.79601">
        <ele>425</ele>
        <time>2018-09-02T10:01:20Z</time>
      </trkpt>
      <trkpt lat="45.76427" lon="5.79601">
        <ele>425</ele>
        <time>2018-09-02T10:01:20Z</time>
      </trkpt>
      <trkpt lat="45.76424" lon="5.79601">
        <ele>425</ele>
        <time>2018-09-02T10:01:20Z</time>
      </trkpt>
      <trkpt lat="45.76421" lon="5.796">
        <ele>425</ele>
        <time>2018-09-02T10:01:20Z</time>
      </trkpt>
      <trkpt lat="45.76416" lon="5.79601">
        <ele>425</ele>
        <time>2018-09-02T10:01:36Z</time>
      </trkpt>
      <trkpt lat="45.76406" lon="5.79597">
        <ele>425</ele>
        <time>2018-09-02T10:01:36Z</time>
      </trkpt>
      <trkpt lat="45.76388" lon="5.79593">
        <ele>425</ele>
        <time>2018-09-02T10:01:36Z</time>
      </trkpt>
      <trkpt lat="45.76377" lon="5.7959">
        <ele>425</ele>
        <time>2018-09-02T10:01:36Z</time>
      </trkpt>
      <trkpt lat="45.76384" lon="5.79588">
        <ele>425</ele>
        <time>2018-09-02T10:02:20Z</time>
      </trkpt>
      <trkpt lat="45.76384" lon="5.79587">
        <ele>425</ele>
        <time>2018-09-02T10:02:20Z</time>
      </trkpt>
      <trkpt lat="45.76385" lon="5.79588">
        <ele>425</ele>
        <time>2018-09-02T10:02:20Z</time>
      </trkpt>
      <trkpt lat="45.76387" lon="5.79589">
        <ele>425</ele>
        <time>2018-09-02T10:02:20Z</time>
      </trkpt>
      <trkpt lat="45.76391" lon="5.79587">
        <ele>425</ele>
        <time>2018-09-02T10:02:20Z</time>
      </trkpt>
      <trkpt lat="45.76395" lon="5.79581">
        <ele>425</ele>
        <time>2018-09-02T10:02:44Z</time>
      </trkpt>
      <trkpt lat="45.76399" lon="5.79582">
        <ele>425</ele>
        <time>2018-09-02T10:02:44Z</time>
      </trkpt>
      <trkpt lat="45.764" lon="5.79583">
        <ele>425</ele>
        <time>2018-09-02T10:02:44Z</time>
      </trkpt>
      <trkpt lat="45.76401" lon="5.79579">
        <ele>425</ele>
        <time>2018-09-02T10:02:44Z</time>
      </trkpt>
      <trkpt lat="45.76403" lon="5.79574">
        <ele>425</ele>
        <time>2018-09-02T10:02:44Z</time>
      </trkpt>
      <trkpt lat="45.76404" lon="5.79568">
        <ele>425</ele>
        <time>2018-09-02T10:03:00Z</time>
      </trkpt>
      <trkpt lat="45.76405" lon="5.79563">
        <ele>425</ele>
        <time>2018-09-02T10:03:00Z</time>
      </trkpt>
      <trkpt lat="45.76405" lon="5.79559">
        <ele>425</ele>
        <time>2018-09-02T10:03:00Z</time>
      </trkpt>
      <trkpt lat="45.76408" lon="5.79552">
        <ele>425</ele>
        <time>2018-09-02T10:03:00Z</time>
      </trkpt>
      <trkpt lat="45.7641" lon="5.79534">
        <ele>412</ele>
        <time>2018-09-02T10:03:40Z</time>
      </trkpt>
      <trkpt lat="45.7641" lon="5.79533">
        <ele>412</ele>
        <time>2018-09-02T10:03:40Z</time>
      </trkpt>
      <trkpt lat="45.7641" lon="5.79533">
        <ele>412</ele>
        <time>2018-09-02T10:03:40Z</time>
      </trkpt>
      <trkpt lat="45.7641" lon="5.79532">
        <ele>412</ele>
        <time>2018-09-02T10:03:40Z</time>
      </trkpt>
      <trkpt lat="45.7641" lon="5.79532">
        <ele>412</ele>
        <time>2018-09-02T10:03:40Z</time>
      </trkpt>
      <trkpt lat="45.76411" lon="5.79524">
        <ele>412</ele>
        <time>2018-09-02T10:07:32Z</time>
      </trkpt>
      <trkpt lat="45.7641" lon="5.79523">
        <ele>412</ele>
        <time>2018-09-02T10:07:32Z</time>
      </trkpt>
      <trkpt lat="45.7641" lon="5.79522">
        <ele>412</ele>
        <time>2018-09-02T10:07:32Z</time>
      </trkpt>
      <trkpt lat="45.76409" lon="5.79521">
        <ele>412</ele>
        <time>2018-09-02T10:07:32Z</time>
      </trkpt>
      <trkpt lat="45.76408" lon="5.79519">
        <ele>412</ele>
        <time>2018-09-02T10:07:32Z</time>
      </trkpt>
      <trkpt lat="45.76402" lon="5.79515">
        <ele>412</ele>
        <time>2018-09-02T10:08:16Z</time>
      </trkpt>
      <trkpt lat="45.76402" lon="5.79514">
        <ele>412</ele>
        <time>2018-09-02T10:08:16Z</time>
      </trkpt>
      <trkpt lat="45.76401" lon="5.79512">
        <ele>412</ele>
        <time>2018-09-02T10:08:16Z</time>
      </trkpt>
      <trkpt lat="45.76401" lon="5.7951">
        <ele>412</ele>
        <time>2018-09-02T10:08:16Z</time>
      </trkpt>
      <trkpt lat="45.764" lon="5.79507">
        <ele>412</ele>
        <time>2018-09-02T10:08:16Z</time>
      </trkpt>
      <trkpt lat="45.76404" lon="5.795">
        <ele>412</ele>
        <time>2018-09-02T10:08:52Z</time>
      </trkpt>
      <trkpt lat="45.76405" lon="5.79499">
        <ele>412</ele>
        <time>2018-09-02T10:08:52Z</time>
      </trkpt>
      <trkpt lat="45.76405" lon="5.79497">
        <ele>412</ele>
        <time>2018-09-02T10:08:52Z</time>
      </trkpt>
      <trkpt lat="45.76404" lon="5.79495">
        <ele>412</ele>
        <time>2018-09-02T10:08:52Z</time>
      </trkpt>
      <trkpt lat="45.76404" lon="5.79494">
        <ele>412</ele>
        <time>2018-09-02T10:08:52Z</time>
      </trkpt>
      <trkpt lat="45.76405" lon="5.7949">
        <ele>412</ele>
        <time>2018-09-02T10:09:08Z</time>
      </trkpt>
      <trkpt lat="45.76405" lon="5.79484">
        <ele>412</ele>
        <time>2018-09-02T10:09:08Z</time>
      </trkpt>
      <trkpt lat="45.76406" lon="5.79479">
        <ele>412</ele>
        <time>2018-09-02T10:09:08Z</time>
      </trkpt>
      <trkpt lat="45.76407" lon="5.79478">
        <ele>412</ele>
        <time>2018-09-02T10:09:08Z</time>
      </trkpt>
      <trkpt lat="45.76408" lon="5.79476">
        <ele>412</ele>
        <time>2018-09-02T10:09:28Z</time>
      </trkpt>
      <trkpt lat="45.76409" lon="5.79475">
        <ele>412</ele>
        <time>2018-09-02T10:09:28Z</time>
      </trkpt>
      <trkpt lat="45.76411" lon="5.79473">
        <ele>412</ele>
        <time>2018-09-02T10:09:28Z</time>
      </trkpt>
      <trkpt lat="45.76412" lon="5.7947">
        <ele>412</ele>
        <time>2018-09-02T10:09:28Z</time>
      </trkpt>
      <trkpt lat="45.76413" lon="5.79465">
        <ele>412</ele>
        <time>2018-09-02T10:09:28Z</time>
      </trkpt>
      <trkpt lat="45.76414" lon="5.79462">
        <ele>412</ele>
        <time>2018-09-02T10:09:44Z</time>
      </trkpt>
      <trkpt lat="45.76415" lon="5.79456">
        <ele>393</ele>
        <time>2018-09-02T10:09:44Z</time>
      </trkpt>
      <trkpt lat="45.76415" lon="5.79448">
        <ele>393</ele>
        <time>2018-09-02T10:09:44Z</time>
      </trkpt>
      <trkpt lat="45.76415" lon="5.79442">
        <ele>393</ele>
        <time>2018-09-02T10:09:44Z</time>
      </trkpt>
      <trkpt lat="45.76416" lon="5.79434">
        <ele>393</ele>
        <time>2018-09-02T10:10:00Z</time>
      </trkpt>
      <trkpt lat="45.76415" lon="5.79425">
        <ele>393</ele>
        <time>2018-09-02T10:10:00Z</time>
      </trkpt>
      <trkpt lat="45.76415" lon="5.79422">
        <ele>393</ele>
        <time>2018-09-02T10:10:00Z</time>
      </trkpt>
      <trkpt lat="45.76415" lon="5.79419">
        <ele>393</ele>
        <time>2018-09-02T10:10:00Z</time>
      </trkpt>
      <trkpt lat="45.76417" lon="5.79415">
        <ele>393</ele>
        <time>2018-09-02T10:10:16Z</time>
      </trkpt>
      <trkpt lat="45.7642" lon="5.79411">
        <ele>393</ele>
        <time>2018-09-02T10:10:16Z</time>
      </trkpt>
      <trkpt lat="45.76423" lon="5.79408">
        <ele>393</ele>
        <time>2018-09-02T10:10:16Z</time>
      </trkpt>
      <trkpt lat="45.76424" lon="5.794">
        <ele>393</ele>
        <time>2018-09-02T10:10:16Z</time>
      </trkpt>
      <trkpt lat="45.76427" lon="5.79392">
        <ele>393</ele>
        <time>2018-09-02T10:10:32Z</time>
      </trkpt>
      <trkpt lat="45.76429" lon="5.79385">
        <ele>393</ele>
        <time>2018-09-02T10:10:32Z</time>
      </trkpt>
      <trkpt lat="45.76431" lon="5.7938">
        <ele>393</ele>
        <time>2018-09-02T10:10:32Z</time>
      </trkpt>
      <trkpt lat="45.76432" lon="5.79375">
        <ele>393</ele>
        <time>2018-09-02T10:10:32Z</time>
      </trkpt>
      <trkpt lat="45.76432" lon="5.7937">
        <ele>380</ele>
        <time>2018-09-02T10:10:48Z</time>
      </trkpt>
      <trkpt lat="45.76433" lon="5.79365">
        <ele>380</ele>
        <time>2018-09-02T10:10:48Z</time>
      </trkpt>
      <trkpt lat="45.76432" lon="5.7936">
        <ele>380</ele>
        <time>2018-09-02T10:10:48Z</time>
      </trkpt>
      <trkpt lat="45.76431" lon="5.79356">
        <ele>380</ele>
        <time>2018-09-02T10:10:48Z</time>
      </trkpt>
      <trkpt lat="45.7643" lon="5.79352">
        <ele>380</ele>
        <time>2018-09-02T10:11:04Z</time>
      </trkpt>
      <trkpt lat="45.76428" lon="5.79353">
        <ele>380</ele>
        <time>2018-09-02T10:11:04Z</time>
      </trkpt>
      <trkpt lat="45.76425" lon="5.79356">
        <ele>380</ele>
        <time>2018-09-02T10:11:04Z</time>
      </trkpt>
      <trkpt lat="45.76422" lon="5.79357">
        <ele>380</ele>
        <time>2018-09-02T10:11:04Z</time>
      </trkpt>
      <trkpt lat="45.76419" lon="5.79359">
        <ele>380</ele>
        <time>2018-09-02T10:11:20Z</time>
      </trkpt>
      <trkpt lat="45.76415" lon="5.79359">
        <ele>380</ele>
        <time>2018-09-02T10:11:20Z</time>
      </trkpt>
      <trkpt lat="45.76412" lon="5.7936">
        <ele>380</ele>
        <time>2018-09-02T10:11:20Z</time>
      </trkpt>
      <trkpt lat="45.76408" lon="5.79363">
        <ele>380</ele>
        <time>2018-09-02T10:11:20Z</time>
      </trkpt>
      <trkpt lat="45.76406" lon="5.79364">
        <ele>380</ele>
        <time>2018-09-02T10:11:48Z</time>
      </trkpt>
      <trkpt lat="45.76405" lon="5.79365">
        <ele>380</ele>
        <time>2018-09-02T10:11:48Z</time>
      </trkpt>
      <trkpt lat="45.76403" lon="5.79368">
        <ele>380</ele>
        <time>2018-09-02T10:11:48Z</time>
      </trkpt>
      <trkpt lat="45.76398" lon="5.79371">
        <ele>380</ele>
        <time>2018-09-02T10:11:48Z</time>
      </trkpt>
      <trkpt lat="45.76394" lon="5.79374">
        <ele>380</ele>
        <time>2018-09-02T10:11:48Z</time>
      </trkpt>
      <trkpt lat="45.76392" lon="5.79379">
        <ele>393</ele>
        <time>2018-09-02T10:12:04Z</time>
      </trkpt>
      <trkpt lat="45.76389" lon="5.79382">
        <ele>393</ele>
        <time>2018-09-02T10:12:04Z</time>
      </trkpt>
      <trkpt lat="45.76387" lon="5.79385">
        <ele>393</ele>
        <time>2018-09-02T10:12:04Z</time>
      </trkpt>
      <trkpt lat="45.76384" lon="5.79386">
        <ele>393</ele>
        <time>2018-09-02T10:12:04Z</time>
      </trkpt>
      <trkpt lat="45.7638" lon="5.79389">
        <ele>393</ele>
        <time>2018-09-02T10:12:20Z</time>
      </trkpt>
      <trkpt lat="45.76375" lon="5.79391">
        <ele>393</ele>
        <time>2018-09-02T10:12:20Z</time>
      </trkpt>
      <trkpt lat="45.76371" lon="5.79393">
        <ele>367</ele>
        <time>2018-09-02T10:12:20Z</time>
      </trkpt>
      <trkpt lat="45.76367" lon="5.79395">
        <ele>367</ele>
        <time>2018-09-02T10:12:20Z</time>
      </trkpt>
      <trkpt lat="45.76363" lon="5.79398">
        <ele>367</ele>
        <time>2018-09-02T10:12:36Z</time>
      </trkpt>
      <trkpt lat="45.7636" lon="5.79401">
        <ele>367</ele>
        <time>2018-09-02T10:12:36Z</time>
      </trkpt>
      <trkpt lat="45.76358" lon="5.79403">
        <ele>367</ele>
        <time>2018-09-02T10:12:36Z</time>
      </trkpt>
      <trkpt lat="45.76355" lon="5.79406">
        <ele>367</ele>
        <time>2018-09-02T10:12:36Z</time>
      </trkpt>
      <trkpt lat="45.76351" lon="5.79408">
        <ele>367</ele>
        <time>2018-09-02T10:12:52Z</time>
      </trkpt>
      <trkpt lat="45.76347" lon="5.7941">
        <ele>367</ele>
        <time>2018-09-02T10:12:52Z</time>
      </trkpt>
      <trkpt lat="45.76341" lon="5.79409">
        <ele>367</ele>
        <time>2018-09-02T10:12:52Z</time>
      </trkpt>
      <trkpt lat="45.76337" lon="5.79405">
        <ele>367</ele>
        <time>2018-09-02T10:12:52Z</time>
      </trkpt>
      <trkpt lat="45.76337" lon="5.794">
        <ele>367</ele>
        <time>2018-09-02T10:13:08Z</time>
      </trkpt>
      <trkpt lat="45.76341" lon="5.79398">
        <ele>367</ele>
        <time>2018-09-02T10:13:08Z</time>
      </trkpt>
      <trkpt lat="45.76345" lon="5.79397">
        <ele>367</ele>
        <time>2018-09-02T10:13:08Z</time>
      </trkpt>
      <trkpt lat="45.76346" lon="5.79393">
        <ele>367</ele>
        <time>2018-09-02T10:13:08Z</time>
      </trkpt>
      <trkpt lat="45.76347" lon="5.79395">
        <ele>367</ele>
        <time>2018-09-02T10:13:56Z</time>
      </trkpt>
      <trkpt lat="45.76348" lon="5.79397">
        <ele>367</ele>
        <time>2018-09-02T10:13:56Z</time>
      </trkpt>
      <trkpt lat="45.76345" lon="5.794">
        <ele>367</ele>
        <time>2018-09-02T10:13:56Z</time>
      </trkpt>
      <trkpt lat="45.76342" lon="5.79403">
        <ele>367</ele>
        <time>2018-09-02T10:13:56Z</time>
      </trkpt>
      <trkpt lat="45.76338" lon="5.79404">
        <ele>367</ele>
        <time>2018-09-02T10:13:56Z</time>
      </trkpt>
      <trkpt lat="45.76333" lon="5.79411">
        <ele>367</ele>
        <time>2018-09-02T10:15:28Z</time>
      </trkpt>
      <trkpt lat="45.76327" lon="5.79414">
        <ele>367</ele>
        <time>2018-09-02T10:15:28Z</time>
      </trkpt>
      <trkpt lat="45.76319" lon="5.79419">
        <ele>367</ele>
        <time>2018-09-02T10:15:28Z</time>
      </trkpt>
      <trkpt lat="45.76313" lon="5.79424">
        <ele>367</ele>
        <time>2018-09-02T10:15:28Z</time>
      </trkpt>
      <trkpt lat="45.76308" lon="5.79428">
        <ele>367</ele>
        <time>2018-09-02T10:15:28Z</time>
      </trkpt>
      <trkpt lat="45.76303" lon="5.79431">
        <ele>367</ele>
        <time>2018-09-02T10:15:44Z</time>
      </trkpt>
      <trkpt lat="45.76298" lon="5.79433">
        <ele>367</ele>
        <time>2018-09-02T10:15:44Z</time>
      </trkpt>
      <trkpt lat="45.76295" lon="5.79436">
        <ele>367</ele>
        <time>2018-09-02T10:15:44Z</time>
      </trkpt>
      <trkpt lat="45.76291" lon="5.7944">
        <ele>349</ele>
        <time>2018-09-02T10:15:44Z</time>
      </trkpt>
      <trkpt lat="45.76288" lon="5.79441">
        <ele>349</ele>
        <time>2018-09-02T10:16:00Z</time>
      </trkpt>
      <trkpt lat="45.76284" lon="5.79442">
        <ele>349</ele>
        <time>2018-09-02T10:16:00Z</time>
      </trkpt>
      <trkpt lat="45.76279" lon="5.79443">
        <ele>349</ele>
        <time>2018-09-02T10:16:00Z</time>
      </trkpt>
      <trkpt lat="45.76276" lon="5.79445">
        <ele>349</ele>
        <time>2018-09-02T10:16:00Z</time>
      </trkpt>
      <trkpt lat="45.7627" lon="5.79445">
        <ele>349</ele>
        <time>2018-09-02T10:16:16Z</time>
      </trkpt>
      <trkpt lat="45.76268" lon="5.79446">
        <ele>349</ele>
        <time>2018-09-02T10:16:16Z</time>
      </trkpt>
      <trkpt lat="45.76265" lon="5.79448">
        <ele>349</ele>
        <time>2018-09-02T10:16:16Z</time>
      </trkpt>
      <trkpt lat="45.76259" lon="5.79451">
        <ele>349</ele>
        <time>2018-09-02T10:16:16Z</time>
      </trkpt>
      <trkpt lat="45.76253" lon="5.79455">
        <ele>349</ele>
        <time>2018-09-02T10:16:32Z</time>
      </trkpt>
      <trkpt lat="45.76247" lon="5.79463">
        <ele>367</ele>
        <time>2018-09-02T10:16:32Z</time>
      </trkpt>
      <trkpt lat="45.76241" lon="5.79467">
        <ele>367</ele>
        <time>2018-09-02T10:16:32Z</time>
      </trkpt>
      <trkpt lat="45.76235" lon="5.7947">
        <ele>367</ele>
        <time>2018-09-02T10:16:32Z</time>
      </trkpt>
      <trkpt lat="45.76231" lon="5.79475">
        <ele>367</ele>
        <time>2018-09-02T10:16:48Z</time>
      </trkpt>
      <trkpt lat="45.76226" lon="5.79483">
        <ele>367</ele>
        <time>2018-09-02T10:16:48Z</time>
      </trkpt>
      <trkpt lat="45.76222" lon="5.7949">
        <ele>367</ele>
        <time>2018-09-02T10:16:48Z</time>
      </trkpt>
      <trkpt lat="45.76219" lon="5.79498">
        <ele>367</ele>
        <time>2018-09-02T10:16:48Z</time>
      </trkpt>
      <trkpt lat="45.76215" lon="5.79505">
        <ele>367</ele>
        <time>2018-09-02T10:17:04Z</time>
      </trkpt>
      <trkpt lat="45.7621" lon="5.79513">
        <ele>367</ele>
        <time>2018-09-02T10:17:04Z</time>
      </trkpt>
      <trkpt lat="45.76206" lon="5.7952">
        <ele>337</ele>
        <time>2018-09-02T10:17:04Z</time>
      </trkpt>
      <trkpt lat="45.76202" lon="5.79525">
        <ele>337</ele>
        <time>2018-09-02T10:17:04Z</time>
      </trkpt>
      <trkpt lat="45.762" lon="5.79531">
        <ele>337</ele>
        <time>2018-09-02T10:17:20Z</time>
      </trkpt>
      <trkpt lat="45.76197" lon="5.79538">
        <ele>337</ele>
        <time>2018-09-02T10:17:20Z</time>
      </trkpt>
      <trkpt lat="45.76197" lon="5.79544">
        <ele>339</ele>
        <time>2018-09-02T10:17:20Z</time>
      </trkpt>
      <trkpt lat="45.76196" lon="5.79551">
        <ele>339</ele>
        <time>2018-09-02T10:17:20Z</time>
      </trkpt>
      <trkpt lat="45.76195" lon="5.79557">
        <ele>339</ele>
        <time>2018-09-02T10:17:36Z</time>
      </trkpt>
      <trkpt lat="45.76194" lon="5.79564">
        <ele>339</ele>
        <time>2018-09-02T10:17:36Z</time>
      </trkpt>
      <trkpt lat="45.76192" lon="5.79571">
        <ele>339</ele>
        <time>2018-09-02T10:17:36Z</time>
      </trkpt>
      <trkpt lat="45.76189" lon="5.79579">
        <ele>339</ele>
        <time>2018-09-02T10:17:36Z</time>
      </trkpt>
      <trkpt lat="45.76188" lon="5.79587">
        <ele>339</ele>
        <time>2018-09-02T10:17:52Z</time>
      </trkpt>
      <trkpt lat="45.76187" lon="5.79595">
        <ele>339</ele>
        <time>2018-09-02T10:17:52Z</time>
      </trkpt>
      <trkpt lat="45.76185" lon="5.79601">
        <ele>339</ele>
        <time>2018-09-02T10:17:52Z</time>
      </trkpt>
      <trkpt lat="45.76185" lon="5.79609">
        <ele>339</ele>
        <time>2018-09-02T10:17:52Z</time>
      </trkpt>
      <trkpt lat="45.76185" lon="5.79616">
        <ele>339</ele>
        <time>2018-09-02T10:18:08Z</time>
      </trkpt>
      <trkpt lat="45.76185" lon="5.79624">
        <ele>339</ele>
        <time>2018-09-02T10:18:08Z</time>
      </trkpt>
      <trkpt lat="45.76185" lon="5.79632">
        <ele>345</ele>
        <time>2018-09-02T10:18:08Z</time>
      </trkpt>
      <trkpt lat="45.76185" lon="5.7964">
        <ele>345</ele>
        <time>2018-09-02T10:18:08Z</time>
      </trkpt>
      <trkpt lat="45.76184" lon="5.79648">
        <ele>345</ele>
        <time>2018-09-02T10:18:24Z</time>
      </trkpt>
      <trkpt lat="45.76183" lon="5.79656">
        <ele>345</ele>
        <time>2018-09-02T10:18:24Z</time>
      </trkpt>
      <trkpt lat="45.76181" lon="5.79663">
        <ele>345</ele>
        <time>2018-09-02T10:18:24Z</time>
      </trkpt>
      <trkpt lat="45.76179" lon="5.79669">
        <ele>345</ele>
        <time>2018-09-02T10:18:24Z</time>
      </trkpt>
      <trkpt lat="45.76172" lon="5.79679">
        <ele>345</ele>
        <time>2018-09-02T10:19:00Z</time>
      </trkpt>
      <trkpt lat="45.76172" lon="5.7968">
        <ele>345</ele>
        <time>2018-09-02T10:19:00Z</time>
      </trkpt>
      <trkpt lat="45.76172" lon="5.79681">
        <ele>345</ele>
        <time>2018-09-02T10:19:00Z</time>
      </trkpt>
      <trkpt lat="45.7617" lon="5.79683">
        <ele>345</ele>
        <time>2018-09-02T10:19:00Z</time>
      </trkpt>
      <trkpt lat="45.76168" lon="5.79687">
        <ele>345</ele>
        <time>2018-09-02T10:19:00Z</time>
      </trkpt>
      <trkpt lat="45.76164" lon="5.79692">
        <ele>345</ele>
        <time>2018-09-02T10:19:16Z</time>
      </trkpt>
      <trkpt lat="45.76159" lon="5.79696">
        <ele>345</ele>
        <time>2018-09-02T10:19:16Z</time>
      </trkpt>
      <trkpt lat="45.76155" lon="5.79701">
        <ele>345</ele>
        <time>2018-09-02T10:19:16Z</time>
      </trkpt>
      <trkpt lat="45.7615" lon="5.79705">
        <ele>345</ele>
        <time>2018-09-02T10:19:16Z</time>
      </trkpt>
      <trkpt lat="45.76145" lon="5.79709">
        <ele>345</ele>
        <time>2018-09-02T10:19:32Z</time>
      </trkpt>
      <trkpt lat="45.7614" lon="5.79713">
        <ele>345</ele>
        <time>2018-09-02T10:19:32Z</time>
      </trkpt>
      <trkpt lat="45.76135" lon="5.79715">
        <ele>345</ele>
        <time>2018-09-02T10:19:32Z</time>
      </trkpt>
      <trkpt lat="45.7613" lon="5.79718">
        <ele>345</ele>
        <time>2018-09-02T10:19:32Z</time>
      </trkpt>
      <trkpt lat="45.76125" lon="5.79719">
        <ele>345</ele>
        <time>2018-09-02T10:19:48Z</time>
      </trkpt>
      <trkpt lat="45.76121" lon="5.79717">
        <ele>337</ele>
        <time>2018-09-02T10:19:48Z</time>
      </trkpt>
      <trkpt lat="45.76116" lon="5.79715">
        <ele>337</ele>
        <time>2018-09-02T10:19:48Z</time>
      </trkpt>
      <trkpt lat="45.76111" lon="5.79711">
        <ele>337</ele>
        <time>2018-09-02T10:19:48Z</time>
      </trkpt>
      <trkpt lat="45.76107" lon="5.79706">
        <ele>330</ele>
        <time>2018-09-02T10:20:04Z</time>
      </trkpt>
      <trkpt lat="45.76102" lon="5.79702">
        <ele>330</ele>
        <time>2018-09-02T10:20:04Z</time>
      </trkpt>
      <trkpt lat="45.76097" lon="5.79699">
        <ele>330</ele>
        <time>2018-09-02T10:20:04Z</time>
      </trkpt>
      <trkpt lat="45.76092" lon="5.79698">
        <ele>330</ele>
        <time>2018-09-02T10:20:04Z</time>
      </trkpt>
      <trkpt lat="45.76086" lon="5.79697">
        <ele>330</ele>
        <time>2018-09-02T10:20:20Z</time>
      </trkpt>
      <trkpt lat="45.76082" lon="5.79696">
        <ele>330</ele>
        <time>2018-09-02T10:20:20Z</time>
      </trkpt>
      <trkpt lat="45.76077" lon="5.79696">
        <ele>330</ele>
        <time>2018-09-02T10:20:20Z</time>
      </trkpt>
      <trkpt lat="45.76072" lon="5.79696">
        <ele>330</ele>
        <time>2018-09-02T10:20:20Z</time>
      </trkpt>
      <trkpt lat="45.76067" lon="5.79696">
        <ele>330</ele>
        <time>2018-09-02T10:20:36Z</time>
      </trkpt>
      <trkpt lat="45.76062" lon="5.79698">
        <ele>330</ele>
        <time>2018-09-02T10:20:36Z</time>
      </trkpt>
      <trkpt lat="45.76058" lon="5.797">
        <ele>330</ele>
        <time>2018-09-02T10:20:36Z</time>
      </trkpt>
      <trkpt lat="45.76053" lon="5.79704">
        <ele>330</ele>
        <time>2018-09-02T10:20:36Z</time>
      </trkpt>
      <trkpt lat="45.76049" lon="5.79709">
        <ele>337</ele>
        <time>2018-09-02T10:20:52Z</time>
      </trkpt>
      <trkpt lat="45.76045" lon="5.79714">
        <ele>337</ele>
        <time>2018-09-02T10:20:52Z</time>
      </trkpt>
      <trkpt lat="45.76043" lon="5.79723">
        <ele>337</ele>
        <time>2018-09-02T10:20:52Z</time>
      </trkpt>
      <trkpt lat="45.76039" lon="5.79735">
        <ele>334</ele>
        <time>2018-09-02T10:20:52Z</time>
      </trkpt>
      <trkpt lat="45.76041" lon="5.79743">
        <ele>334</ele>
        <time>2018-09-02T10:21:08Z</time>
      </trkpt>
      <trkpt lat="45.76044" lon="5.79749">
        <ele>337</ele>
        <time>2018-09-02T10:21:08Z</time>
      </trkpt>
      <trkpt lat="45.76047" lon="5.79755">
        <ele>337</ele>
        <time>2018-09-02T10:21:08Z</time>
      </trkpt>
      <trkpt lat="45.76046" lon="5.7976">
        <ele>337</ele>
        <time>2018-09-02T10:21:08Z</time>
      </trkpt>
      <trkpt lat="45.76041" lon="5.79764">
        <ele>334</ele>
        <time>2018-09-02T10:21:24Z</time>
      </trkpt>
      <trkpt lat="45.76036" lon="5.79767">
        <ele>334</ele>
        <time>2018-09-02T10:21:24Z</time>
      </trkpt>
      <trkpt lat="45.76031" lon="5.7977">
        <ele>334</ele>
        <time>2018-09-02T10:21:24Z</time>
      </trkpt>
      <trkpt lat="45.7603" lon="5.79771">
        <ele>334</ele>
        <time>2018-09-02T10:21:24Z</time>
      </trkpt>
      <trkpt lat="45.76025" lon="5.79777">
        <ele>334</ele>
        <time>2018-09-02T10:21:52Z</time>
      </trkpt>
      <trkpt lat="45.76024" lon="5.79778">
        <ele>334</ele>
        <time>2018-09-02T10:21:52Z</time>
      </trkpt>
      <trkpt lat="45.76022" lon="5.79778">
        <ele>334</ele>
        <time>2018-09-02T10:21:52Z</time>
      </trkpt>
      <trkpt lat="45.76018" lon="5.79777">
        <ele>334</ele>
        <time>2018-09-02T10:21:52Z</time>
      </trkpt>
      <trkpt lat="45.76012" lon="5.79776">
        <ele>334</ele>
        <time>2018-09-02T10:21:52Z</time>
      </trkpt>
      <trkpt lat="45.76007" lon="5.79773">
        <ele>334</ele>
        <time>2018-09-02T10:22:08Z</time>
      </trkpt>
      <trkpt lat="45.76002" lon="5.79768">
        <ele>334</ele>
        <time>2018-09-02T10:22:08Z</time>
      </trkpt>
      <trkpt lat="45.75997" lon="5.79762">
        <ele>334</ele>
        <time>2018-09-02T10:22:08Z</time>
      </trkpt>
      <trkpt lat="45.75994" lon="5.79759">
        <ele>334</ele>
        <time>2018-09-02T10:22:08Z</time>
      </trkpt>
      <trkpt lat="45.75993" lon="5.79756">
        <ele>334</ele>
        <time>2018-09-02T10:22:24Z</time>
      </trkpt>
      <trkpt lat="45.75992" lon="5.79754">
        <ele>334</ele>
        <time>2018-09-02T10:22:24Z</time>
      </trkpt>
      <trkpt lat="45.7599" lon="5.79751">
        <ele>334</ele>
        <time>2018-09-02T10:22:24Z</time>
      </trkpt>
      <trkpt lat="45.75986" lon="5.79747">
        <ele>334</ele>
        <time>2018-09-02T10:22:24Z</time>
      </trkpt>
      <trkpt lat="45.75979" lon="5.79741">
        <ele>334</ele>
        <time>2018-09-02T10:22:40Z</time>
      </trkpt>
      <trkpt lat="45.75974" lon="5.79737">
        <ele>334</ele>
        <time>2018-09-02T10:22:40Z</time>
      </trkpt>
      <trkpt lat="45.75972" lon="5.79734">
        <ele>334</ele>
        <time>2018-09-02T10:22:40Z</time>
      </trkpt>
      <trkpt lat="45.75967" lon="5.7973">
        <ele>334</ele>
        <time>2018-09-02T10:22:40Z</time>
      </trkpt>
      <trkpt lat="45.75961" lon="5.79724">
        <ele>334</ele>
        <time>2018-09-02T10:22:56Z</time>
      </trkpt>
      <trkpt lat="45.75956" lon="5.79721">
        <ele>344</ele>
        <time>2018-09-02T10:22:56Z</time>
      </trkpt>
      <trkpt lat="45.75953" lon="5.79719">
        <ele>344</ele>
        <time>2018-09-02T10:22:56Z</time>
      </trkpt>
      <trkpt lat="45.75949" lon="5.79718">
        <ele>344</ele>
        <time>2018-09-02T10:22:56Z</time>
      </trkpt>
      <trkpt lat="45.75943" lon="5.79715">
        <ele>344</ele>
        <time>2018-09-02T10:23:12Z</time>
      </trkpt>
      <trkpt lat="45.75939" lon="5.79715">
        <ele>344</ele>
        <time>2018-09-02T10:23:12Z</time>
      </trkpt>
      <trkpt lat="45.75934" lon="5.79714">
        <ele>344</ele>
        <time>2018-09-02T10:23:12Z</time>
      </trkpt>
      <trkpt lat="45.75931" lon="5.79713">
        <ele>344</ele>
        <time>2018-09-02T10:23:12Z</time>
      </trkpt>
      <trkpt lat="45.75927" lon="5.79713">
        <ele>344</ele>
        <time>2018-09-02T10:23:28Z</time>
      </trkpt>
      <trkpt lat="45.75924" lon="5.79712">
        <ele>344</ele>
        <time>2018-09-02T10:23:28Z</time>
      </trkpt>
      <trkpt lat="45.7592" lon="5.79711">
        <ele>344</ele>
        <time>2018-09-02T10:23:28Z</time>
      </trkpt>
      <trkpt lat="45.75916" lon="5.79711">
        <ele>344</ele>
        <time>2018-09-02T10:23:28Z</time>
      </trkpt>
      <trkpt lat="45.75911" lon="5.79709">
        <ele>344</ele>
        <time>2018-09-02T10:23:44Z</time>
      </trkpt>
      <trkpt lat="45.75906" lon="5.79709">
        <ele>344</ele>
        <time>2018-09-02T10:23:44Z</time>
      </trkpt>
      <trkpt lat="45.759" lon="5.79707">
        <ele>330</ele>
        <time>2018-09-02T10:23:44Z</time>
      </trkpt>
      <trkpt lat="45.75894" lon="5.79707">
        <ele>330</ele>
        <time>2018-09-02T10:23:44Z</time>
      </trkpt>
      <trkpt lat="45.75888" lon="5.79705">
        <ele>330</ele>
        <time>2018-09-02T10:24:00Z</time>
      </trkpt>
      <trkpt lat="45.75883" lon="5.79704">
        <ele>330</ele>
        <time>2018-09-02T10:24:00Z</time>
      </trkpt>
      <trkpt lat="45.75876" lon="5.79703">
        <ele>330</ele>
        <time>2018-09-02T10:24:00Z</time>
      </trkpt>
      <trkpt lat="45.75869" lon="5.79704">
        <ele>325</ele>
        <time>2018-09-02T10:24:00Z</time>
      </trkpt>
      <trkpt lat="45.75866" lon="5.79705">
        <ele>325</ele>
        <time>2018-09-02T10:24:16Z</time>
      </trkpt>
      <trkpt lat="45.75862" lon="5.79703">
        <ele>325</ele>
        <time>2018-09-02T10:24:16Z</time>
      </trkpt>
      <trkpt lat="45.75855" lon="5.79702">
        <ele>325</ele>
        <time>2018-09-02T10:24:16Z</time>
      </trkpt>
      <trkpt lat="45.75849" lon="5.79699">
        <ele>325</ele>
        <time>2018-09-02T10:24:16Z</time>
      </trkpt>
      <trkpt lat="45.75844" lon="5.79697">
        <ele>325</ele>
        <time>2018-09-02T10:24:32Z</time>
      </trkpt>
      <trkpt lat="45.75838" lon="5.79691">
        <ele>325</ele>
        <time>2018-09-02T10:24:32Z</time>
      </trkpt>
      <trkpt lat="45.75835" lon="5.79683">
        <ele>325</ele>
        <time>2018-09-02T10:24:32Z</time>
      </trkpt>
      <trkpt lat="45.75834" lon="5.79675">
        <ele>325</ele>
        <time>2018-09-02T10:24:32Z</time>
      </trkpt>
      <trkpt lat="45.75831" lon="5.79667">
        <ele>325</ele>
        <time>2018-09-02T10:24:48Z</time>
      </trkpt>
      <trkpt lat="45.75827" lon="5.7966">
        <ele>325</ele>
        <time>2018-09-02T10:24:48Z</time>
      </trkpt>
      <trkpt lat="45.75822" lon="5.79655">
        <ele>325</ele>
        <time>2018-09-02T10:24:48Z</time>
      </trkpt>
      <trkpt lat="45.75816" lon="5.7965">
        <ele>325</ele>
        <time>2018-09-02T10:24:48Z</time>
      </trkpt>
      <trkpt lat="45.7581" lon="5.79649">
        <ele>325</ele>
        <time>2018-09-02T10:25:04Z</time>
      </trkpt>
      <trkpt lat="45.75804" lon="5.79652">
        <ele>325</ele>
        <time>2018-09-02T10:25:04Z</time>
      </trkpt>
      <trkpt lat="45.75799" lon="5.79655">
        <ele>325</ele>
        <time>2018-09-02T10:25:04Z</time>
      </trkpt>
      <trkpt lat="45.75793" lon="5.79657">
        <ele>325</ele>
        <time>2018-09-02T10:25:04Z</time>
      </trkpt>
      <trkpt lat="45.75787" lon="5.79659">
        <ele>326</ele>
        <time>2018-09-02T10:25:20Z</time>
      </trkpt>
      <trkpt lat="45.75783" lon="5.79661">
        <ele>326</ele>
        <time>2018-09-02T10:25:20Z</time>
      </trkpt>
      <trkpt lat="45.75778" lon="5.79661">
        <ele>326</ele>
        <time>2018-09-02T10:25:20Z</time>
      </trkpt>
      <trkpt lat="45.75773" lon="5.79662">
        <ele>326</ele>
        <time>2018-09-02T10:25:20Z</time>
      </trkpt>
      <trkpt lat="45.75767" lon="5.79664">
        <ele>326</ele>
        <time>2018-09-02T10:25:36Z</time>
      </trkpt>
      <trkpt lat="45.75762" lon="5.79666">
        <ele>326</ele>
        <time>2018-09-02T10:25:36Z</time>
      </trkpt>
      <trkpt lat="45.75756" lon="5.79669">
        <ele>326</ele>
        <time>2018-09-02T10:25:36Z</time>
      </trkpt>
      <trkpt lat="45.7575" lon="5.79672">
        <ele>326</ele>
        <time>2018-09-02T10:25:36Z</time>
      </trkpt>
      <trkpt lat="45.75745" lon="5.79675">
        <ele>326</ele>
        <time>2018-09-02T10:25:52Z</time>
      </trkpt>
      <trkpt lat="45.75739" lon="5.79677">
        <ele>326</ele>
        <time>2018-09-02T10:25:52Z</time>
      </trkpt>
      <trkpt lat="45.75733" lon="5.79679">
        <ele>326</ele>
        <time>2018-09-02T10:25:52Z</time>
      </trkpt>
      <trkpt lat="45.75727" lon="5.79683">
        <ele>326</ele>
        <time>2018-09-02T10:25:52Z</time>
      </trkpt>
      <trkpt lat="45.75722" lon="5.79685">
        <ele>326</ele>
        <time>2018-09-02T10:26:08Z</time>
      </trkpt>
      <trkpt lat="45.75716" lon="5.79684">
        <ele>326</ele>
        <time>2018-09-02T10:26:08Z</time>
      </trkpt>
      <trkpt lat="45.75712" lon="5.79678">
        <ele>326</ele>
        <time>2018-09-02T10:26:08Z</time>
      </trkpt>
      <trkpt lat="45.7571" lon="5.7967">
        <ele>326</ele>
        <time>2018-09-02T10:26:08Z</time>
      </trkpt>
      <trkpt lat="45.75712" lon="5.79661">
        <ele>326</ele>
        <time>2018-09-02T10:26:24Z</time>
      </trkpt>
      <trkpt lat="45.75713" lon="5.79653">
        <ele>326</ele>
        <time>2018-09-02T10:26:24Z</time>
      </trkpt>
      <trkpt lat="45.75715" lon="5.79645">
        <ele>326</ele>
        <time>2018-09-02T10:26:24Z</time>
      </trkpt>
      <trkpt lat="45.75717" lon="5.79636">
        <ele>326</ele>
        <time>2018-09-02T10:26:24Z</time>
      </trkpt>
      <trkpt lat="45.75717" lon="5.79628">
        <ele>326</ele>
        <time>2018-09-02T10:26:40Z</time>
      </trkpt>
      <trkpt lat="45.75715" lon="5.7962">
        <ele>326</ele>
        <time>2018-09-02T10:26:40Z</time>
      </trkpt>
      <trkpt lat="45.75711" lon="5.79615">
        <ele>326</ele>
        <time>2018-09-02T10:26:40Z</time>
      </trkpt>
      <trkpt lat="45.75706" lon="5.79613">
        <ele>326</ele>
        <time>2018-09-02T10:26:40Z</time>
      </trkpt>
      <trkpt lat="45.75701" lon="5.79613">
        <ele>326</ele>
        <time>2018-09-02T10:26:56Z</time>
      </trkpt>
      <trkpt lat="45.75696" lon="5.79613">
        <ele>326</ele>
        <time>2018-09-02T10:26:56Z</time>
      </trkpt>
      <trkpt lat="45.7569" lon="5.79614">
        <ele>326</ele>
        <time>2018-09-02T10:26:56Z</time>
      </trkpt>
      <trkpt lat="45.75685" lon="5.79613">
        <ele>326</ele>
        <time>2018-09-02T10:26:56Z</time>
      </trkpt>
      <trkpt lat="45.7568" lon="5.79612">
        <ele>326</ele>
        <time>2018-09-02T10:27:12Z</time>
      </trkpt>
      <trkpt lat="45.75674" lon="5.79611">
        <ele>326</ele>
        <time>2018-09-02T10:27:12Z</time>
      </trkpt>
      <trkpt lat="45.75669" lon="5.79611">
        <ele>326</ele>
        <time>2018-09-02T10:27:12Z</time>
      </trkpt>
      <trkpt lat="45.75664" lon="5.79609">
        <ele>326</ele>
        <time>2018-09-02T10:27:12Z</time>
      </trkpt>
      <trkpt lat="45.75659" lon="5.79608">
        <ele>326</ele>
        <time>2018-09-02T10:27:28Z</time>
      </trkpt>
      <trkpt lat="45.75654" lon="5.79604">
        <ele>326</ele>
        <time>2018-09-02T10:27:28Z</time>
      </trkpt>
      <trkpt lat="45.75649" lon="5.79602">
        <ele>326</ele>
        <time>2018-09-02T10:27:28Z</time>
      </trkpt>
      <trkpt lat="45.75645" lon="5.796">
        <ele>326</ele>
        <time>2018-09-02T10:27:28Z</time>
      </trkpt>
      <trkpt lat="45.75641" lon="5.79598">
        <ele>326</ele>
        <time>2018-09-02T10:27:44Z</time>
      </trkpt>
      <trkpt lat="45.75637" lon="5.79595">
        <ele>326</ele>
        <time>2018-09-02T10:27:44Z</time>
      </trkpt>
      <trkpt lat="45.75634" lon="5.7959">
        <ele>326</ele>
        <time>2018-09-02T10:27:44Z</time>
      </trkpt>
      <trkpt lat="45.75632" lon="5.79585">
        <ele>326</ele>
        <time>2018-09-02T10:27:44Z</time>
      </trkpt>
      <trkpt lat="45.75629" lon="5.7958">
        <ele>326</ele>
        <time>2018-09-02T10:28:00Z</time>
      </trkpt>
      <trkpt lat="45.75626" lon="5.79575">
        <ele>326</ele>
        <time>2018-09-02T10:28:00Z</time>
      </trkpt>
      <trkpt lat="45.75623" lon="5.7957">
        <ele>334</ele>
        <time>2018-09-02T10:28:00Z</time>
      </trkpt>
      <trkpt lat="45.7562" lon="5.79564">
        <ele>334</ele>
        <time>2018-09-02T10:28:00Z</time>
      </trkpt>
      <trkpt lat="45.75617" lon="5.79559">
        <ele>334</ele>
        <time>2018-09-02T10:28:16Z</time>
      </trkpt>
      <trkpt lat="45.75615" lon="5.79552">
        <ele>334</ele>
        <time>2018-09-02T10:28:16Z</time>
      </trkpt>
      <trkpt lat="45.75613" lon="5.79545">
        <ele>334</ele>
        <time>2018-09-02T10:28:16Z</time>
      </trkpt>
      <trkpt lat="45.7561" lon="5.79538">
        <ele>322</ele>
        <time>2018-09-02T10:28:16Z</time>
      </trkpt>
      <trkpt lat="45.75607" lon="5.79532">
        <ele>322</ele>
        <time>2018-09-02T10:28:32Z</time>
      </trkpt>
      <trkpt lat="45.75603" lon="5.79526">
        <ele>322</ele>
        <time>2018-09-02T10:28:32Z</time>
      </trkpt>
      <trkpt lat="45.756" lon="5.7952">
        <ele>322</ele>
        <time>2018-09-02T10:28:32Z</time>
      </trkpt>
      <trkpt lat="45.75596" lon="5.79515">
        <ele>322</ele>
        <time>2018-09-02T10:28:32Z</time>
      </trkpt>
      <trkpt lat="45.75592" lon="5.7951">
        <ele>322</ele>
        <time>2018-09-02T10:28:48Z</time>
      </trkpt>
      <trkpt lat="45.75589" lon="5.79505">
        <ele>322</ele>
        <time>2018-09-02T10:28:48Z</time>
      </trkpt>
      <trkpt lat="45.75586" lon="5.795">
        <ele>322</ele>
        <time>2018-09-02T10:28:48Z</time>
      </trkpt>
      <trkpt lat="45.75582" lon="5.79495">
        <ele>322</ele>
        <time>2018-09-02T10:28:48Z</time>
      </trkpt>
      <trkpt lat="45.75583" lon="5.79489">
        <ele>322</ele>
        <time>2018-09-02T10:29:04Z</time>
      </trkpt>
      <trkpt lat="45.75585" lon="5.79482">
        <ele>322</ele>
        <time>2018-09-02T10:29:04Z</time>
      </trkpt>
      <trkpt lat="45.75586" lon="5.79473">
        <ele>322</ele>
        <time>2018-09-02T10:29:04Z</time>
      </trkpt>
      <trkpt lat="45.75587" lon="5.79466">
        <ele>322</ele>
        <time>2018-09-02T10:29:04Z</time>
      </trkpt>
      <trkpt lat="45.75589" lon="5.79458">
        <ele>319</ele>
        <time>2018-09-02T10:29:20Z</time>
      </trkpt>
      <trkpt lat="45.7559" lon="5.7945">
        <ele>319</ele>
        <time>2018-09-02T10:29:20Z</time>
      </trkpt>
      <trkpt lat="45.75591" lon="5.79443">
        <ele>319</ele>
        <time>2018-09-02T10:29:20Z</time>
      </trkpt>
      <trkpt lat="45.75592" lon="5.79436">
        <ele>319</ele>
        <time>2018-09-02T10:29:20Z</time>
      </trkpt>
      <trkpt lat="45.75591" lon="5.79429">
        <ele>319</ele>
        <time>2018-09-02T10:29:36Z</time>
      </trkpt>
      <trkpt lat="45.75592" lon="5.79422">
        <ele>319</ele>
        <time>2018-09-02T10:29:36Z</time>
      </trkpt>
      <trkpt lat="45.75593" lon="5.79414">
        <ele>319</ele>
        <time>2018-09-02T10:29:36Z</time>
      </trkpt>
      <trkpt lat="45.75591" lon="5.79407">
        <ele>319</ele>
        <time>2018-09-02T10:29:36Z</time>
      </trkpt>
      <trkpt lat="45.75587" lon="5.79403">
        <ele>319</ele>
        <time>2018-09-02T10:29:52Z</time>
      </trkpt>
      <trkpt lat="45.75581" lon="5.79403">
        <ele>319</ele>
        <time>2018-09-02T10:29:52Z</time>
      </trkpt>
      <trkpt lat="45.75575" lon="5.79404">
        <ele>319</ele>
        <time>2018-09-02T10:29:52Z</time>
      </trkpt>
      <trkpt lat="45.7557" lon="5.79402">
        <ele>319</ele>
        <time>2018-09-02T10:29:52Z</time>
      </trkpt>
      <trkpt lat="45.75565" lon="5.79397">
        <ele>319</ele>
        <time>2018-09-02T10:30:08Z</time>
      </trkpt>
      <trkpt lat="45.75561" lon="5.79396">
        <ele>319</ele>
        <time>2018-09-02T10:30:08Z</time>
      </trkpt>
      <trkpt lat="45.75555" lon="5.79396">
        <ele>319</ele>
        <time>2018-09-02T10:30:08Z</time>
      </trkpt>
      <trkpt lat="45.75549" lon="5.79397">
        <ele>319</ele>
        <time>2018-09-02T10:30:08Z</time>
      </trkpt>
      <trkpt lat="45.75543" lon="5.79397">
        <ele>319</ele>
        <time>2018-09-02T10:30:24Z</time>
      </trkpt>
      <trkpt lat="45.75537" lon="5.79398">
        <ele>313</ele>
        <time>2018-09-02T10:30:24Z</time>
      </trkpt>
      <trkpt lat="45.75531" lon="5.79398">
        <ele>313</ele>
        <time>2018-09-02T10:30:24Z</time>
      </trkpt>
      <trkpt lat="45.75525" lon="5.79398">
        <ele>313</ele>
        <time>2018-09-02T10:30:24Z</time>
      </trkpt>
      <trkpt lat="45.75519" lon="5.79395">
        <ele>313</ele>
        <time>2018-09-02T10:30:40Z</time>
      </trkpt>
      <trkpt lat="45.75514" lon="5.79392">
        <ele>313</ele>
        <time>2018-09-02T10:30:40Z</time>
      </trkpt>
      <trkpt lat="45.75508" lon="5.79389">
        <ele>313</ele>
        <time>2018-09-02T10:30:40Z</time>
      </trkpt>
      <trkpt lat="45.75503" lon="5.79386">
        <ele>313</ele>
        <time>2018-09-02T10:30:40Z</time>
      </trkpt>
      <trkpt lat="45.75495" lon="5.79382">
        <ele>313</ele>
        <time>2018-09-02T10:31:12Z</time>
      </trkpt>
      <trkpt lat="45.75512" lon="5.7939">
        <ele>313</ele>
        <time>2018-09-02T10:31:12Z</time>
      </trkpt>
      <trkpt lat="45.75532" lon="5.79398">
        <ele>313</ele>
        <time>2018-09-02T10:31:12Z</time>
      </trkpt>
      <trkpt lat="45.75554" lon="5.79397">
        <ele>319</ele>
        <time>2018-09-02T10:31:12Z</time>
      </trkpt>
      <trkpt lat="45.75566" lon="5.79397">
        <ele>319</ele>
        <time>2018-09-02T10:31:12Z</time>
      </trkpt>
      <trkpt lat="45.75567" lon="5.79399">
        <ele>319</ele>
        <time>2018-09-02T10:31:40Z</time>
      </trkpt>
      <trkpt lat="45.75569" lon="5.794">
        <ele>319</ele>
        <time>2018-09-02T10:31:40Z</time>
      </trkpt>
      <trkpt lat="45.7557" lon="5.79404">
        <ele>319</ele>
        <time>2018-09-02T10:31:40Z</time>
      </trkpt>
      <trkpt lat="45.75565" lon="5.79406">
        <ele>319</ele>
        <time>2018-09-02T10:31:40Z</time>
      </trkpt>
      <trkpt lat="45.75559" lon="5.79406">
        <ele>319</ele>
        <time>2018-09-02T10:31:40Z</time>
      </trkpt>
      <trkpt lat="45.75553" lon="5.79407">
        <ele>319</ele>
        <time>2018-09-02T10:31:56Z</time>
      </trkpt>
      <trkpt lat="45.75547" lon="5.79407">
        <ele>319</ele>
        <time>2018-09-02T10:31:56Z</time>
      </trkpt>
      <trkpt lat="45.75542" lon="5.79408">
        <ele>313</ele>
        <time>2018-09-02T10:31:56Z</time>
      </trkpt>
      <trkpt lat="45.75536" lon="5.79408">
        <ele>313</ele>
        <time>2018-09-02T10:31:56Z</time>
      </trkpt>
      <trkpt lat="45.7553" lon="5.79408">
        <ele>313</ele>
        <time>2018-09-02T10:32:12Z</time>
      </trkpt>
      <trkpt lat="45.75524" lon="5.79407">
        <ele>313</ele>
        <time>2018-09-02T10:32:12Z</time>
      </trkpt>
      <trkpt lat="45.75519" lon="5.79406">
        <ele>313</ele>
        <time>2018-09-02T10:32:12Z</time>
      </trkpt>
      <trkpt lat="45.75514" lon="5.79403">
        <ele>313</ele>
        <time>2018-09-02T10:32:12Z</time>
      </trkpt>
      <trkpt lat="45.75508" lon="5.79401">
        <ele>313</ele>
        <time>2018-09-02T10:32:28Z</time>
      </trkpt>
      <trkpt lat="45.75503" lon="5.79398">
        <ele>313</ele>
        <time>2018-09-02T10:32:28Z</time>
      </trkpt>
      <trkpt lat="45.75497" lon="5.79395">
        <ele>313</ele>
        <time>2018-09-02T10:32:28Z</time>
      </trkpt>
      <trkpt lat="45.75492" lon="5.79392">
        <ele>313</ele>
        <time>2018-09-02T10:32:28Z</time>
      </trkpt>
      <trkpt lat="45.75486" lon="5.79388">
        <ele>313</ele>
        <time>2018-09-02T10:32:44Z</time>
      </trkpt>
      <trkpt lat="45.75481" lon="5.79385">
        <ele>313</ele>
        <time>2018-09-02T10:32:44Z</time>
      </trkpt>
      <trkpt lat="45.75476" lon="5.79381">
        <ele>313</ele>
        <time>2018-09-02T10:32:44Z</time>
      </trkpt>
      <trkpt lat="45.7547" lon="5.79379">
        <ele>313</ele>
        <time>2018-09-02T10:32:44Z</time>
      </trkpt>
      <trkpt lat="45.75466" lon="5.79375">
        <ele>313</ele>
        <time>2018-09-02T10:33:00Z</time>
      </trkpt>
      <trkpt lat="45.75461" lon="5.79371">
        <ele>310</ele>
        <time>2018-09-02T10:33:00Z</time>
      </trkpt>
      <trkpt lat="45.75456" lon="5.79366">
        <ele>300</ele>
        <time>2018-09-02T10:33:00Z</time>
      </trkpt>
      <trkpt lat="45.75452" lon="5.79361">
        <ele>300</ele>
        <time>2018-09-02T10:33:00Z</time>
      </trkpt>
      <trkpt lat="45.75447" lon="5.79356">
        <ele>300</ele>
        <time>2018-09-02T10:33:16Z</time>
      </trkpt>
      <trkpt lat="45.75443" lon="5.79351">
        <ele>300</ele>
        <time>2018-09-02T10:33:16Z</time>
      </trkpt>
      <trkpt lat="45.75439" lon="5.79345">
        <ele>300</ele>
        <time>2018-09-02T10:33:16Z</time>
      </trkpt>
      <trkpt lat="45.75435" lon="5.7934">
        <ele>300</ele>
        <time>2018-09-02T10:33:16Z</time>
      </trkpt>
      <trkpt lat="45.7543" lon="5.79335">
        <ele>300</ele>
        <time>2018-09-02T10:33:32Z</time>
      </trkpt>
      <trkpt lat="45.75425" lon="5.79332">
        <ele>300</ele>
        <time>2018-09-02T10:33:32Z</time>
      </trkpt>
      <trkpt lat="45.7542" lon="5.79329">
        <ele>300</ele>
        <time>2018-09-02T10:33:32Z</time>
      </trkpt>
      <trkpt lat="45.75414" lon="5.79326">
        <ele>300</ele>
        <time>2018-09-02T10:33:32Z</time>
      </trkpt>
      <trkpt lat="45.75408" lon="5.79324">
        <ele>300</ele>
        <time>2018-09-02T10:33:48Z</time>
      </trkpt>
      <trkpt lat="45.75403" lon="5.79321">
        <ele>300</ele>
        <time>2018-09-02T10:33:48Z</time>
      </trkpt>
      <trkpt lat="45.75397" lon="5.7932">
        <ele>300</ele>
        <time>2018-09-02T10:33:48Z</time>
      </trkpt>
      <trkpt lat="45.75392" lon="5.79319">
        <ele>300</ele>
        <time>2018-09-02T10:33:48Z</time>
      </trkpt>
      <trkpt lat="45.75387" lon="5.79319">
        <ele>300</ele>
        <time>2018-09-02T10:34:04Z</time>
      </trkpt>
      <trkpt lat="45.75382" lon="5.79316">
        <ele>300</ele>
        <time>2018-09-02T10:34:04Z</time>
      </trkpt>
      <trkpt lat="45.75377" lon="5.79315">
        <ele>300</ele>
        <time>2018-09-02T10:34:04Z</time>
      </trkpt>
      <trkpt lat="45.75372" lon="5.79314">
        <ele>295</ele>
        <time>2018-09-02T10:34:04Z</time>
      </trkpt>
      <trkpt lat="45.75367" lon="5.79312">
        <ele>295</ele>
        <time>2018-09-02T10:34:20Z</time>
      </trkpt>
      <trkpt lat="45.75362" lon="5.79309">
        <ele>295</ele>
        <time>2018-09-02T10:34:20Z</time>
      </trkpt>
      <trkpt lat="45.75357" lon="5.79307">
        <ele>295</ele>
        <time>2018-09-02T10:34:20Z</time>
      </trkpt>
      <trkpt lat="45.75351" lon="5.79304">
        <ele>295</ele>
        <time>2018-09-02T10:34:20Z</time>
      </trkpt>
      <trkpt lat="45.75346" lon="5.79301">
        <ele>295</ele>
        <time>2018-09-02T10:34:36Z</time>
      </trkpt>
      <trkpt lat="45.7534" lon="5.79298">
        <ele>295</ele>
        <time>2018-09-02T10:34:36Z</time>
      </trkpt>
      <trkpt lat="45.75336" lon="5.79296">
        <ele>295</ele>
        <time>2018-09-02T10:34:36Z</time>
      </trkpt>
      <trkpt lat="45.75332" lon="5.79295">
        <ele>295</ele>
        <time>2018-09-02T10:34:36Z</time>
      </trkpt>
      <trkpt lat="45.75327" lon="5.79293">
        <ele>295</ele>
        <time>2018-09-02T10:34:52Z</time>
      </trkpt>
      <trkpt lat="45.75321" lon="5.79291">
        <ele>301</ele>
        <time>2018-09-02T10:34:52Z</time>
      </trkpt>
      <trkpt lat="45.75316" lon="5.79289">
        <ele>301</ele>
        <time>2018-09-02T10:34:52Z</time>
      </trkpt>
      <trkpt lat="45.7531" lon="5.79286">
        <ele>301</ele>
        <time>2018-09-02T10:34:52Z</time>
      </trkpt>
      <trkpt lat="45.75305" lon="5.79284">
        <ele>301</ele>
        <time>2018-09-02T10:35:08Z</time>
      </trkpt>
      <trkpt lat="45.753" lon="5.79282">
        <ele>301</ele>
        <time>2018-09-02T10:35:08Z</time>
      </trkpt>
      <trkpt lat="45.75294" lon="5.79282">
        <ele>301</ele>
        <time>2018-09-02T10:35:08Z</time>
      </trkpt>
      <trkpt lat="45.75288" lon="5.79282">
        <ele>297</ele>
        <time>2018-09-02T10:35:08Z</time>
      </trkpt>
      <trkpt lat="45.75282" lon="5.79282">
        <ele>297</ele>
        <time>2018-09-02T10:35:24Z</time>
      </trkpt>
      <trkpt lat="45.75276" lon="5.79282">
        <ele>297</ele>
        <time>2018-09-02T10:35:24Z</time>
      </trkpt>
      <trkpt lat="45.7527" lon="5.79284">
        <ele>297</ele>
        <time>2018-09-02T10:35:24Z</time>
      </trkpt>
      <trkpt lat="45.75263" lon="5.79285">
        <ele>297</ele>
        <time>2018-09-02T10:35:24Z</time>
      </trkpt>
      <trkpt lat="45.75257" lon="5.79285">
        <ele>297</ele>
        <time>2018-09-02T10:35:40Z</time>
      </trkpt>
      <trkpt lat="45.75251" lon="5.79283">
        <ele>297</ele>
        <time>2018-09-02T10:35:40Z</time>
      </trkpt>
      <trkpt lat="45.75246" lon="5.79279">
        <ele>297</ele>
        <time>2018-09-02T10:35:40Z</time>
      </trkpt>
      <trkpt lat="45.75241" lon="5.79274">
        <ele>297</ele>
        <time>2018-09-02T10:35:40Z</time>
      </trkpt>
      <trkpt lat="45.75237" lon="5.79267">
        <ele>297</ele>
        <time>2018-09-02T10:35:56Z</time>
      </trkpt>
      <trkpt lat="45.75234" lon="5.79259">
        <ele>297</ele>
        <time>2018-09-02T10:35:56Z</time>
      </trkpt>
      <trkpt lat="45.75231" lon="5.79251">
        <ele>297</ele>
        <time>2018-09-02T10:35:56Z</time>
      </trkpt>
      <trkpt lat="45.75229" lon="5.79242">
        <ele>297</ele>
        <time>2018-09-02T10:35:56Z</time>
      </trkpt>
      <trkpt lat="45.75227" lon="5.79234">
        <ele>297</ele>
        <time>2018-09-02T10:36:12Z</time>
      </trkpt>
      <trkpt lat="45.75225" lon="5.79227">
        <ele>297</ele>
        <time>2018-09-02T10:36:12Z</time>
      </trkpt>
      <trkpt lat="45.75223" lon="5.79219">
        <ele>297</ele>
        <time>2018-09-02T10:36:12Z</time>
      </trkpt>
      <trkpt lat="45.75222" lon="5.79211">
        <ele>297</ele>
        <time>2018-09-02T10:36:12Z</time>
      </trkpt>
      <trkpt lat="45.75224" lon="5.79204">
        <ele>300</ele>
        <time>2018-09-02T10:36:28Z</time>
      </trkpt>
      <trkpt lat="45.75227" lon="5.79198">
        <ele>300</ele>
        <time>2018-09-02T10:36:28Z</time>
      </trkpt>
      <trkpt lat="45.75226" lon="5.79189">
        <ele>300</ele>
        <time>2018-09-02T10:36:28Z</time>
      </trkpt>
      <trkpt lat="45.75226" lon="5.79179">
        <ele>300</ele>
        <time>2018-09-02T10:36:28Z</time>
      </trkpt>
      <trkpt lat="45.75227" lon="5.7917">
        <ele>300</ele>
        <time>2018-09-02T10:36:44Z</time>
      </trkpt>
      <trkpt lat="45.75229" lon="5.79162">
        <ele>300</ele>
        <time>2018-09-02T10:36:44Z</time>
      </trkpt>
      <trkpt lat="45.75229" lon="5.79153">
        <ele>300</ele>
        <time>2018-09-02T10:36:44Z</time>
      </trkpt>
      <trkpt lat="45.75228" lon="5.79143">
        <ele>300</ele>
        <time>2018-09-02T10:36:45Z</time>
      </trkpt>
      <trkpt lat="45.75227" lon="5.79135">
        <ele>300</ele>
        <time>2018-09-02T10:37:00Z</time>
      </trkpt>
      <trkpt lat="45.75228" lon="5.79128">
        <ele>300</ele>
        <time>2018-09-02T10:37:00Z</time>
      </trkpt>
      <trkpt lat="45.75229" lon="5.79122">
        <ele>287</ele>
        <time>2018-09-02T10:37:00Z</time>
      </trkpt>
      <trkpt lat="45.75231" lon="5.79117">
        <ele>287</ele>
        <time>2018-09-02T10:37:00Z</time>
      </trkpt>
      <trkpt lat="45.75235" lon="5.79113">
        <ele>287</ele>
        <time>2018-09-02T10:37:16Z</time>
      </trkpt>
      <trkpt lat="45.75238" lon="5.79107">
        <ele>287</ele>
        <time>2018-09-02T10:37:16Z</time>
      </trkpt>
      <trkpt lat="45.7524" lon="5.79098">
        <ele>287</ele>
        <time>2018-09-02T10:37:16Z</time>
      </trkpt>
      <trkpt lat="45.75243" lon="5.79091">
        <ele>287</ele>
        <time>2018-09-02T10:37:16Z</time>
      </trkpt>
      <trkpt lat="45.75245" lon="5.79082">
        <ele>287</ele>
        <time>2018-09-02T10:37:32Z</time>
      </trkpt>
      <trkpt lat="45.75247" lon="5.79072">
        <ele>287</ele>
        <time>2018-09-02T10:37:32Z</time>
      </trkpt>
      <trkpt lat="45.75251" lon="5.79065">
        <ele>287</ele>
        <time>2018-09-02T10:37:32Z</time>
      </trkpt>
      <trkpt lat="45.75254" lon="5.79058">
        <ele>287</ele>
        <time>2018-09-02T10:37:32Z</time>
      </trkpt>
      <trkpt lat="45.75258" lon="5.79051">
        <ele>287</ele>
        <time>2018-09-02T10:37:48Z</time>
      </trkpt>
      <trkpt lat="45.75261" lon="5.79044">
        <ele>287</ele>
        <time>2018-09-02T10:37:48Z</time>
      </trkpt>
      <trkpt lat="45.75265" lon="5.79037">
        <ele>265</ele>
        <time>2018-09-02T10:37:48Z</time>
      </trkpt>
      <trkpt lat="45.75268" lon="5.79029">
        <ele>265</ele>
        <time>2018-09-02T10:37:48Z</time>
      </trkpt>
      <trkpt lat="45.75272" lon="5.79022">
        <ele>265</ele>
        <time>2018-09-02T10:38:04Z</time>
      </trkpt>
      <trkpt lat="45.75276" lon="5.79016">
        <ele>265</ele>
        <time>2018-09-02T10:38:04Z</time>
      </trkpt>
      <trkpt lat="45.7528" lon="5.79009">
        <ele>265</ele>
        <time>2018-09-02T10:38:04Z</time>
      </trkpt>
      <trkpt lat="45.75283" lon="5.79002">
        <ele>265</ele>
        <time>2018-09-02T10:38:04Z</time>
      </trkpt>
      <trkpt lat="45.75287" lon="5.78996">
        <ele>265</ele>
        <time>2018-09-02T10:38:20Z</time>
      </trkpt>
      <trkpt lat="45.7529" lon="5.7899">
        <ele>265</ele>
        <time>2018-09-02T10:38:20Z</time>
      </trkpt>
      <trkpt lat="45.75293" lon="5.78984">
        <ele>298</ele>
        <time>2018-09-02T10:38:20Z</time>
      </trkpt>
      <trkpt lat="45.75297" lon="5.78978">
        <ele>298</ele>
        <time>2018-09-02T10:38:20Z</time>
      </trkpt>
      <trkpt lat="45.75301" lon="5.78972">
        <ele>298</ele>
        <time>2018-09-02T10:38:36Z</time>
      </trkpt>
      <trkpt lat="45.75306" lon="5.78966">
        <ele>298</ele>
        <time>2018-09-02T10:38:36Z</time>
      </trkpt>
      <trkpt lat="45.7531" lon="5.78961">
        <ele>298</ele>
        <time>2018-09-02T10:38:36Z</time>
      </trkpt>
      <trkpt lat="45.75314" lon="5.78956">
        <ele>266</ele>
        <time>2018-09-02T10:38:36Z</time>
      </trkpt>
      <trkpt lat="45.75317" lon="5.78951">
        <ele>266</ele>
        <time>2018-09-02T10:38:52Z</time>
      </trkpt>
      <trkpt lat="45.75319" lon="5.78944">
        <ele>266</ele>
        <time>2018-09-02T10:38:52Z</time>
      </trkpt>
      <trkpt lat="45.75316" lon="5.78936">
        <ele>266</ele>
        <time>2018-09-02T10:38:52Z</time>
      </trkpt>
      <trkpt lat="45.75312" lon="5.78933">
        <ele>266</ele>
        <time>2018-09-02T10:38:52Z</time>
      </trkpt>
      <trkpt lat="45.75308" lon="5.78933">
        <ele>266</ele>
        <time>2018-09-02T10:39:08Z</time>
      </trkpt>
      <trkpt lat="45.75303" lon="5.78936">
        <ele>266</ele>
        <time>2018-09-02T10:39:08Z</time>
      </trkpt>
      <trkpt lat="45.75298" lon="5.78943">
        <ele>266</ele>
        <time>2018-09-02T10:39:08Z</time>
      </trkpt>
      <trkpt lat="45.75294" lon="5.7895">
        <ele>266</ele>
        <time>2018-09-02T10:39:08Z</time>
      </trkpt>
      <trkpt lat="45.75289" lon="5.78956">
        <ele>248</ele>
        <time>2018-09-02T10:39:24Z</time>
      </trkpt>
      <trkpt lat="45.75285" lon="5.78963">
        <ele>265</ele>
        <time>2018-09-02T10:39:24Z</time>
      </trkpt>
      <trkpt lat="45.7528" lon="5.78969">
        <ele>265</ele>
        <time>2018-09-02T10:39:24Z</time>
      </trkpt>
      <trkpt lat="45.75276" lon="5.78975">
        <ele>265</ele>
        <time>2018-09-02T10:39:24Z</time>
      </trkpt>
      <trkpt lat="45.75271" lon="5.7898">
        <ele>265</ele>
        <time>2018-09-02T10:39:40Z</time>
      </trkpt>
      <trkpt lat="45.75267" lon="5.78985">
        <ele>265</ele>
        <time>2018-09-02T10:39:40Z</time>
      </trkpt>
      <trkpt lat="45.75262" lon="5.7899">
        <ele>265</ele>
        <time>2018-09-02T10:39:40Z</time>
      </trkpt>
      <trkpt lat="45.75257" lon="5.78993">
        <ele>265</ele>
        <time>2018-09-02T10:39:40Z</time>
      </trkpt>
      <trkpt lat="45.75252" lon="5.78997">
        <ele>265</ele>
        <time>2018-09-02T10:39:56Z</time>
      </trkpt>
      <trkpt lat="45.75248" lon="5.79">
        <ele>265</ele>
        <time>2018-09-02T10:39:56Z</time>
      </trkpt>
      <trkpt lat="45.75244" lon="5.79005">
        <ele>265</ele>
        <time>2018-09-02T10:39:56Z</time>
      </trkpt>
      <trkpt lat="45.75238" lon="5.79009">
        <ele>265</ele>
        <time>2018-09-02T10:39:56Z</time>
      </trkpt>
      <trkpt lat="45.75232" lon="5.7901">
        <ele>265</ele>
        <time>2018-09-02T10:40:12Z</time>
      </trkpt>
      <trkpt lat="45.75227" lon="5.79006">
        <ele>265</ele>
        <time>2018-09-02T10:40:12Z</time>
      </trkpt>
      <trkpt lat="45.75223" lon="5.79">
        <ele>265</ele>
        <time>2018-09-02T10:40:12Z</time>
      </trkpt>
      <trkpt lat="45.7522" lon="5.78993">
        <ele>265</ele>
        <time>2018-09-02T10:40:12Z</time>
      </trkpt>
      <trkpt lat="45.75219" lon="5.78985">
        <ele>265</ele>
        <time>2018-09-02T10:40:28Z</time>
      </trkpt>
      <trkpt lat="45.75221" lon="5.78978">
        <ele>265</ele>
        <time>2018-09-02T10:40:28Z</time>
      </trkpt>
      <trkpt lat="45.75226" lon="5.78973">
        <ele>265</ele>
        <time>2018-09-02T10:40:28Z</time>
      </trkpt>
      <trkpt lat="45.75228" lon="5.78965">
        <ele>265</ele>
        <time>2018-09-02T10:40:28Z</time>
      </trkpt>
      <trkpt lat="45.75231" lon="5.78959">
        <ele>265</ele>
        <time>2018-09-02T10:40:44Z</time>
      </trkpt>
      <trkpt lat="45.75236" lon="5.78954">
        <ele>248</ele>
        <time>2018-09-02T10:40:44Z</time>
      </trkpt>
      <trkpt lat="45.75241" lon="5.7895">
        <ele>248</ele>
        <time>2018-09-02T10:40:44Z</time>
      </trkpt>
      <trkpt lat="45.75244" lon="5.78945">
        <ele>248</ele>
        <time>2018-09-02T10:40:44Z</time>
      </trkpt>
      <trkpt lat="45.75241" lon="5.78938">
        <ele>248</ele>
        <time>2018-09-02T10:41:00Z</time>
      </trkpt>
      <trkpt lat="45.7524" lon="5.78931">
        <ele>248</ele>
        <time>2018-09-02T10:41:00Z</time>
      </trkpt>
      <trkpt lat="45.75245" lon="5.78925">
        <ele>248</ele>
        <time>2018-09-02T10:41:00Z</time>
      </trkpt>
      <trkpt lat="45.7525" lon="5.7892">
        <ele>248</ele>
        <time>2018-09-02T10:41:00Z</time>
      </trkpt>
      <trkpt lat="45.75247" lon="5.78918">
        <ele>248</ele>
        <time>2018-09-02T10:41:16Z</time>
      </trkpt>
      <trkpt lat="45.75244" lon="5.78921">
        <ele>248</ele>
        <time>2018-09-02T10:41:16Z</time>
      </trkpt>
      <trkpt lat="45.75241" lon="5.78924">
        <ele>248</ele>
        <time>2018-09-02T10:41:16Z</time>
      </trkpt>
      <trkpt lat="45.75237" lon="5.78929">
        <ele>248</ele>
        <time>2018-09-02T10:41:16Z</time>
      </trkpt>
      <trkpt lat="45.75233" lon="5.78932">
        <ele>248</ele>
        <time>2018-09-02T10:41:32Z</time>
      </trkpt>
      <trkpt lat="45.75228" lon="5.78935">
        <ele>248</ele>
        <time>2018-09-02T10:41:32Z</time>
      </trkpt>
      <trkpt lat="45.75222" lon="5.78938">
        <ele>248</ele>
        <time>2018-09-02T10:41:32Z</time>
      </trkpt>
      <trkpt lat="45.75217" lon="5.78941">
        <ele>248</ele>
        <time>2018-09-02T10:41:32Z</time>
      </trkpt>
      <trkpt lat="45.75211" lon="5.78944">
        <ele>248</ele>
        <time>2018-09-02T10:41:48Z</time>
      </trkpt>
      <trkpt lat="45.75206" lon="5.78948">
        <ele>239</ele>
        <time>2018-09-02T10:41:48Z</time>
      </trkpt>
      <trkpt lat="45.75201" lon="5.78949">
        <ele>239</ele>
        <time>2018-09-02T10:41:48Z</time>
      </trkpt>
      <trkpt lat="45.75195" lon="5.78952">
        <ele>239</ele>
        <time>2018-09-02T10:41:48Z</time>
      </trkpt>
      <trkpt lat="45.75189" lon="5.78951">
        <ele>239</ele>
        <time>2018-09-02T10:42:04Z</time>
      </trkpt>
      <trkpt lat="45.75183" lon="5.78944">
        <ele>239</ele>
        <time>2018-09-02T10:42:04Z</time>
      </trkpt>
      <trkpt lat="45.75181" lon="5.78934">
        <ele>239</ele>
        <time>2018-09-02T10:42:04Z</time>
      </trkpt>
      <trkpt lat="45.75179" lon="5.78925">
        <ele>239</ele>
        <time>2018-09-02T10:42:04Z</time>
      </trkpt>
      <trkpt lat="45.75177" lon="5.7892">
        <ele>239</ele>
        <time>2018-09-02T10:42:20Z</time>
      </trkpt>
      <trkpt lat="45.75173" lon="5.78915">
        <ele>239</ele>
        <time>2018-09-02T10:42:20Z</time>
      </trkpt>
      <trkpt lat="45.7517" lon="5.78909">
        <ele>239</ele>
        <time>2018-09-02T10:42:20Z</time>
      </trkpt>
      <trkpt lat="45.75167" lon="5.78903">
        <ele>239</ele>
        <time>2018-09-02T10:42:20Z</time>
      </trkpt>
      <trkpt lat="45.75165" lon="5.78896">
        <ele>239</ele>
        <time>2018-09-02T10:42:36Z</time>
      </trkpt>
      <trkpt lat="45.75163" lon="5.7889">
        <ele>239</ele>
        <time>2018-09-02T10:42:36Z</time>
      </trkpt>
      <trkpt lat="45.7516" lon="5.78883">
        <ele>239</ele>
        <time>2018-09-02T10:42:36Z</time>
      </trkpt>
      <trkpt lat="45.7516" lon="5.78875">
        <ele>237</ele>
        <time>2018-09-02T10:42:36Z</time>
      </trkpt>
      <trkpt lat="45.75159" lon="5.78866">
        <ele>237</ele>
        <time>2018-09-02T10:42:52Z</time>
      </trkpt>
      <trkpt lat="45.75159" lon="5.78858">
        <ele>237</ele>
        <time>2018-09-02T10:42:52Z</time>
      </trkpt>
      <trkpt lat="45.75156" lon="5.78851">
        <ele>237</ele>
        <time>2018-09-02T10:42:52Z</time>
      </trkpt>
      <trkpt lat="45.75154" lon="5.78842">
        <ele>237</ele>
        <time>2018-09-02T10:42:52Z</time>
      </trkpt>
      <trkpt lat="45.75153" lon="5.78833">
        <ele>237</ele>
        <time>2018-09-02T10:43:08Z</time>
      </trkpt>
      <trkpt lat="45.75152" lon="5.78827">
        <ele>237</ele>
        <time>2018-09-02T10:43:08Z</time>
      </trkpt>
      <trkpt lat="45.7515" lon="5.78821">
        <ele>237</ele>
        <time>2018-09-02T10:43:08Z</time>
      </trkpt>
      <trkpt lat="45.75149" lon="5.78813">
        <ele>237</ele>
        <time>2018-09-02T10:43:08Z</time>
      </trkpt>
      <trkpt lat="45.75148" lon="5.78805">
        <ele>237</ele>
        <time>2018-09-02T10:43:24Z</time>
      </trkpt>
      <trkpt lat="45.75149" lon="5.78797">
        <ele>237</ele>
        <time>2018-09-02T10:43:24Z</time>
      </trkpt>
      <trkpt lat="45.75149" lon="5.7879">
        <ele>233</ele>
        <time>2018-09-02T10:43:24Z</time>
      </trkpt>
      <trkpt lat="45.75148" lon="5.78782">
        <ele>233</ele>
        <time>2018-09-02T10:43:24Z</time>
      </trkpt>
      <trkpt lat="45.75149" lon="5.7878">
        <ele>233</ele>
        <time>2018-09-02T10:45:20Z</time>
      </trkpt>
      <trkpt lat="45.7515" lon="5.78779">
        <ele>233</ele>
        <time>2018-09-02T10:45:20Z</time>
      </trkpt>
      <trkpt lat="45.7515" lon="5.78774">
        <ele>233</ele>
        <time>2018-09-02T10:45:20Z</time>
      </trkpt>
      <trkpt lat="45.7515" lon="5.78764">
        <ele>233</ele>
        <time>2018-09-02T10:45:20Z</time>
      </trkpt>
      <trkpt lat="45.75149" lon="5.78756">
        <ele>233</ele>
        <time>2018-09-02T10:45:20Z</time>
      </trkpt>
      <trkpt lat="45.75149" lon="5.78748">
        <ele>233</ele>
        <time>2018-09-02T10:45:36Z</time>
      </trkpt>
      <trkpt lat="45.75148" lon="5.7874">
        <ele>233</ele>
        <time>2018-09-02T10:45:36Z</time>
      </trkpt>
      <trkpt lat="45.75147" lon="5.78734">
        <ele>233</ele>
        <time>2018-09-02T10:45:36Z</time>
      </trkpt>
      <trkpt lat="45.75147" lon="5.78727">
        <ele>233</ele>
        <time>2018-09-02T10:45:36Z</time>
      </trkpt>
      <trkpt lat="45.75145" lon="5.78723">
        <ele>233</ele>
        <time>2018-09-02T10:52:20Z</time>
      </trkpt>
      <trkpt lat="45.75147" lon="5.78717">
        <ele>233</ele>
        <time>2018-09-02T10:52:20Z</time>
      </trkpt>
      <trkpt lat="45.75149" lon="5.7871">
        <ele>233</ele>
        <time>2018-09-02T10:52:20Z</time>
      </trkpt>
      <trkpt lat="45.7515" lon="5.78703">
        <ele>231</ele>
        <time>2018-09-02T10:52:20Z</time>
      </trkpt>
      <trkpt lat="45.75154" lon="5.78697">
        <ele>231</ele>
        <time>2018-09-02T10:52:20Z</time>
      </trkpt>
      <trkpt lat="45.75157" lon="5.78689">
        <ele>231</ele>
        <time>2018-09-02T10:52:36Z</time>
      </trkpt>
      <trkpt lat="45.75158" lon="5.78682">
        <ele>231</ele>
        <time>2018-09-02T10:52:36Z</time>
      </trkpt>
      <trkpt lat="45.75158" lon="5.78673">
        <ele>231</ele>
        <time>2018-09-02T10:52:36Z</time>
      </trkpt>
      <trkpt lat="45.75158" lon="5.78666">
        <ele>231</ele>
        <time>2018-09-02T10:52:36Z</time>
      </trkpt>
      <trkpt lat="45.75157" lon="5.78658">
        <ele>231</ele>
        <time>2018-09-02T10:52:52Z</time>
      </trkpt>
      <trkpt lat="45.75156" lon="5.7865">
        <ele>231</ele>
        <time>2018-09-02T10:52:52Z</time>
      </trkpt>
      <trkpt lat="45.75153" lon="5.78641">
        <ele>231</ele>
        <time>2018-09-02T10:52:52Z</time>
      </trkpt>
      <trkpt lat="45.75153" lon="5.78634">
        <ele>231</ele>
        <time>2018-09-02T10:52:52Z</time>
      </trkpt>
      <trkpt lat="45.75151" lon="5.78626">
        <ele>231</ele>
        <time>2018-09-02T10:53:08Z</time>
      </trkpt>
      <trkpt lat="45.7515" lon="5.78619">
        <ele>229</ele>
        <time>2018-09-02T10:53:08Z</time>
      </trkpt>
      <trkpt lat="45.75148" lon="5.78611">
        <ele>229</ele>
        <time>2018-09-02T10:53:08Z</time>
      </trkpt>
      <trkpt lat="45.75147" lon="5.78604">
        <ele>229</ele>
        <time>2018-09-02T10:53:08Z</time>
      </trkpt>
      <trkpt lat="45.75144" lon="5.78596">
        <ele>229</ele>
        <time>2018-09-02T10:53:24Z</time>
      </trkpt>
      <trkpt lat="45.75143" lon="5.78589">
        <ele>229</ele>
        <time>2018-09-02T10:53:24Z</time>
      </trkpt>
      <trkpt lat="45.75142" lon="5.78582">
        <ele>229</ele>
        <time>2018-09-02T10:53:24Z</time>
      </trkpt>
      <trkpt lat="45.75141" lon="5.78573">
        <ele>229</ele>
        <time>2018-09-02T10:53:24Z</time>
      </trkpt>
      <trkpt lat="45.75139" lon="5.78566">
        <ele>229</ele>
        <time>2018-09-02T10:53:40Z</time>
      </trkpt>
      <trkpt lat="45.7514" lon="5.7856">
        <ele>229</ele>
        <time>2018-09-02T10:53:40Z</time>
      </trkpt>
      <trkpt lat="45.75139" lon="5.78553">
        <ele>229</ele>
        <time>2018-09-02T10:53:40Z</time>
      </trkpt>
      <trkpt lat="45.75137" lon="5.78545">
        <ele>229</ele>
        <time>2018-09-02T10:53:40Z</time>
      </trkpt>
      <trkpt lat="45.75137" lon="5.78537">
        <ele>227</ele>
        <time>2018-09-02T10:53:56Z</time>
      </trkpt>
      <trkpt lat="45.75136" lon="5.7853">
        <ele>227</ele>
        <time>2018-09-02T10:53:56Z</time>
      </trkpt>
      <trkpt lat="45.75135" lon="5.78522">
        <ele>227</ele>
        <time>2018-09-02T10:53:56Z</time>
      </trkpt>
      <trkpt lat="45.75133" lon="5.78513">
        <ele>227</ele>
        <time>2018-09-02T10:53:56Z</time>
      </trkpt>
      <trkpt lat="45.75132" lon="5.78506">
        <ele>227</ele>
        <time>2018-09-02T10:54:12Z</time>
      </trkpt>
      <trkpt lat="45.75132" lon="5.78498">
        <ele>227</ele>
        <time>2018-09-02T10:54:12Z</time>
      </trkpt>
      <trkpt lat="45.75134" lon="5.78491">
        <ele>227</ele>
        <time>2018-09-02T10:54:12Z</time>
      </trkpt>
      <trkpt lat="45.75134" lon="5.78484">
        <ele>227</ele>
        <time>2018-09-02T10:54:12Z</time>
      </trkpt>
      <trkpt lat="45.75129" lon="5.78479">
        <ele>227</ele>
        <time>2018-09-02T10:54:28Z</time>
      </trkpt>
      <trkpt lat="45.75123" lon="5.78479">
        <ele>227</ele>
        <time>2018-09-02T10:54:28Z</time>
      </trkpt>
      <trkpt lat="45.75118" lon="5.7848">
        <ele>227</ele>
        <time>2018-09-02T10:54:28Z</time>
      </trkpt>
      <trkpt lat="45.75113" lon="5.78481">
        <ele>227</ele>
        <time>2018-09-02T10:54:28Z</time>
      </trkpt>
      <trkpt lat="45.75106" lon="5.78482">
        <ele>227</ele>
        <time>2018-09-02T10:54:44Z</time>
      </trkpt>
      <trkpt lat="45.751" lon="5.78482">
        <ele>227</ele>
        <time>2018-09-02T10:54:44Z</time>
      </trkpt>
      <trkpt lat="45.75094" lon="5.78481">
        <ele>227</ele>
        <time>2018-09-02T10:54:44Z</time>
      </trkpt>
      <trkpt lat="45.75088" lon="5.7848">
        <ele>227</ele>
        <time>2018-09-02T10:54:44Z</time>
      </trkpt>
      <trkpt lat="45.75083" lon="5.7848">
        <ele>227</ele>
        <time>2018-09-02T10:55:00Z</time>
      </trkpt>
      <trkpt lat="45.75077" lon="5.7848">
        <ele>227</ele>
        <time>2018-09-02T10:55:00Z</time>
      </trkpt>
      <trkpt lat="45.75072" lon="5.78481">
        <ele>227</ele>
        <time>2018-09-02T10:55:00Z</time>
      </trkpt>
      <trkpt lat="45.75066" lon="5.78482">
        <ele>227</ele>
        <time>2018-09-02T10:55:00Z</time>
      </trkpt>
      <trkpt lat="45.7506" lon="5.78483">
        <ele>227</ele>
        <time>2018-09-02T10:55:16Z</time>
      </trkpt>
      <trkpt lat="45.75055" lon="5.78483">
        <ele>227</ele>
        <time>2018-09-02T10:55:16Z</time>
      </trkpt>
      <trkpt lat="45.75049" lon="5.78485">
        <ele>227</ele>
        <time>2018-09-02T10:55:16Z</time>
      </trkpt>
      <trkpt lat="45.75043" lon="5.78485">
        <ele>227</ele>
        <time>2018-09-02T10:55:16Z</time>
      </trkpt>
      <trkpt lat="45.75037" lon="5.78484">
        <ele>226</ele>
        <time>2018-09-02T10:55:32Z</time>
      </trkpt>
      <trkpt lat="45.7503" lon="5.78484">
        <ele>226</ele>
        <time>2018-09-02T10:55:32Z</time>
      </trkpt>
      <trkpt lat="45.75025" lon="5.78484">
        <ele>226</ele>
        <time>2018-09-02T10:55:32Z</time>
      </trkpt>
      <trkpt lat="45.75018" lon="5.78485">
        <ele>226</ele>
        <time>2018-09-02T10:55:32Z</time>
      </trkpt>
      <trkpt lat="45.75012" lon="5.78484">
        <ele>226</ele>
        <time>2018-09-02T10:55:48Z</time>
      </trkpt>
      <trkpt lat="45.75007" lon="5.78484">
        <ele>226</ele>
        <time>2018-09-02T10:55:48Z</time>
      </trkpt>
      <trkpt lat="45.75002" lon="5.78484">
        <ele>226</ele>
        <time>2018-09-02T10:55:48Z</time>
      </trkpt>
      <trkpt lat="45.74996" lon="5.78485">
        <ele>226</ele>
        <time>2018-09-02T10:55:48Z</time>
      </trkpt>
      <trkpt lat="45.74989" lon="5.78485">
        <ele>226</ele>
        <time>2018-09-02T10:56:04Z</time>
      </trkpt>
      <trkpt lat="45.74983" lon="5.78484">
        <ele>226</ele>
        <time>2018-09-02T10:56:04Z</time>
      </trkpt>
      <trkpt lat="45.74978" lon="5.78481">
        <ele>226</ele>
        <time>2018-09-02T10:56:04Z</time>
      </trkpt>
      <trkpt lat="45.74972" lon="5.7848">
        <ele>226</ele>
        <time>2018-09-02T10:56:04Z</time>
      </trkpt>
      <trkpt lat="45.74967" lon="5.78479">
        <ele>226</ele>
        <time>2018-09-02T10:56:20Z</time>
      </trkpt>
      <trkpt lat="45.74961" lon="5.78479">
        <ele>226</ele>
        <time>2018-09-02T10:56:20Z</time>
      </trkpt>
      <trkpt lat="45.74955" lon="5.78479">
        <ele>228</ele>
        <time>2018-09-02T10:56:20Z</time>
      </trkpt>
      <trkpt lat="45.74946" lon="5.7848">
        <ele>228</ele>
        <time>2018-09-02T10:56:20Z</time>
      </trkpt>
      <trkpt lat="45.74939" lon="5.78481">
        <ele>228</ele>
        <time>2018-09-02T10:56:36Z</time>
      </trkpt>
      <trkpt lat="45.74933" lon="5.78482">
        <ele>228</ele>
        <time>2018-09-02T10:56:36Z</time>
      </trkpt>
      <trkpt lat="45.74927" lon="5.78483">
        <ele>228</ele>
        <time>2018-09-02T10:56:36Z</time>
      </trkpt>
      <trkpt lat="45.74923" lon="5.78483">
        <ele>228</ele>
        <time>2018-09-02T10:56:36Z</time>
      </trkpt>
      <trkpt lat="45.74915" lon="5.78485">
        <ele>228</ele>
        <time>2018-09-02T10:56:52Z</time>
      </trkpt>
      <trkpt lat="45.7491" lon="5.78485">
        <ele>228</ele>
        <time>2018-09-02T10:56:52Z</time>
      </trkpt>
      <trkpt lat="45.74904" lon="5.78486">
        <ele>228</ele>
        <time>2018-09-02T10:56:52Z</time>
      </trkpt>
      <trkpt lat="45.74898" lon="5.78487">
        <ele>228</ele>
        <time>2018-09-02T10:56:52Z</time>
      </trkpt>
      <trkpt lat="45.74892" lon="5.78488">
        <ele>228</ele>
        <time>2018-09-02T10:57:08Z</time>
      </trkpt>
      <trkpt lat="45.74886" lon="5.78488">
        <ele>228</ele>
        <time>2018-09-02T10:57:08Z</time>
      </trkpt>
      <trkpt lat="45.74881" lon="5.7849">
        <ele>228</ele>
        <time>2018-09-02T10:57:08Z</time>
      </trkpt>
      <trkpt lat="45.74876" lon="5.7849">
        <ele>228</ele>
        <time>2018-09-02T10:57:08Z</time>
      </trkpt>
      <trkpt lat="45.7487" lon="5.78492">
        <ele>228</ele>
        <time>2018-09-02T10:57:24Z</time>
      </trkpt>
      <trkpt lat="45.74864" lon="5.78492">
        <ele>228</ele>
        <time>2018-09-02T10:57:24Z</time>
      </trkpt>
      <trkpt lat="45.74859" lon="5.78495">
        <ele>228</ele>
        <time>2018-09-02T10:57:24Z</time>
      </trkpt>
      <trkpt lat="45.74853" lon="5.78498">
        <ele>228</ele>
        <time>2018-09-02T10:57:24Z</time>
      </trkpt>
      <trkpt lat="45.74848" lon="5.78502">
        <ele>228</ele>
        <time>2018-09-02T10:57:40Z</time>
      </trkpt>
      <trkpt lat="45.74843" lon="5.78505">
        <ele>228</ele>
        <time>2018-09-02T10:57:40Z</time>
      </trkpt>
      <trkpt lat="45.74841" lon="5.78504">
        <ele>228</ele>
        <time>2018-09-02T10:57:40Z</time>
      </trkpt>
      <trkpt lat="45.74837" lon="5.78508">
        <ele>228</ele>
        <time>2018-09-02T10:57:40Z</time>
      </trkpt>
      <trkpt lat="45.74832" lon="5.78511">
        <ele>228</ele>
        <time>2018-09-02T10:57:56Z</time>
      </trkpt>
      <trkpt lat="45.74828" lon="5.78511">
        <ele>228</ele>
        <time>2018-09-02T10:57:56Z</time>
      </trkpt>
      <trkpt lat="45.74827" lon="5.78505">
        <ele>228</ele>
        <time>2018-09-02T10:57:56Z</time>
      </trkpt>
      <trkpt lat="45.74829" lon="5.78499">
        <ele>228</ele>
        <time>2018-09-02T10:57:56Z</time>
      </trkpt>
      <trkpt lat="45.74831" lon="5.78494">
        <ele>228</ele>
        <time>2018-09-02T10:58:12Z</time>
      </trkpt>
      <trkpt lat="45.74832" lon="5.78488">
        <ele>228</ele>
        <time>2018-09-02T10:58:12Z</time>
      </trkpt>
      <trkpt lat="45.74834" lon="5.78482">
        <ele>228</ele>
        <time>2018-09-02T10:58:12Z</time>
      </trkpt>
      <trkpt lat="45.74836" lon="5.78477">
        <ele>228</ele>
        <time>2018-09-02T10:58:12Z</time>
      </trkpt>
      <trkpt lat="45.7484" lon="5.78476">
        <ele>228</ele>
        <time>2018-09-02T11:01:24Z</time>
      </trkpt>
      <trkpt lat="45.74838" lon="5.7848">
        <ele>228</ele>
        <time>2018-09-02T11:01:24Z</time>
      </trkpt>
      <trkpt lat="45.74839" lon="5.78487">
        <ele>228</ele>
        <time>2018-09-02T11:01:24Z</time>
      </trkpt>
      <trkpt lat="45.74837" lon="5.78491">
        <ele>228</ele>
        <time>2018-09-02T11:01:24Z</time>
      </trkpt>
      <trkpt lat="45.74835" lon="5.78497">
        <ele>228</ele>
        <time>2018-09-02T11:01:24Z</time>
      </trkpt>
      <trkpt lat="45.74832" lon="5.78501">
        <ele>228</ele>
        <time>2018-09-02T11:01:40Z</time>
      </trkpt>
      <trkpt lat="45.74827" lon="5.78507">
        <ele>228</ele>
        <time>2018-09-02T11:01:40Z</time>
      </trkpt>
      <trkpt lat="45.74825" lon="5.78513">
        <ele>228</ele>
        <time>2018-09-02T11:01:40Z</time>
      </trkpt>
      <trkpt lat="45.74822" lon="5.78519">
        <ele>228</ele>
        <time>2018-09-02T11:01:40Z</time>
      </trkpt>
      <trkpt lat="45.7482" lon="5.78525">
        <ele>228</ele>
        <time>2018-09-02T11:01:56Z</time>
      </trkpt>
      <trkpt lat="45.74818" lon="5.7853">
        <ele>228</ele>
        <time>2018-09-02T11:01:56Z</time>
      </trkpt>
      <trkpt lat="45.74814" lon="5.78536">
        <ele>228</ele>
        <time>2018-09-02T11:01:56Z</time>
      </trkpt>
      <trkpt lat="45.74809" lon="5.78536">
        <ele>228</ele>
        <time>2018-09-02T11:01:56Z</time>
      </trkpt>
      <trkpt lat="45.74804" lon="5.78534">
        <ele>228</ele>
        <time>2018-09-02T11:02:12Z</time>
      </trkpt>
      <trkpt lat="45.74798" lon="5.7853">
        <ele>228</ele>
        <time>2018-09-02T11:02:12Z</time>
      </trkpt>
      <trkpt lat="45.74792" lon="5.78529">
        <ele>228</ele>
        <time>2018-09-02T11:02:12Z</time>
      </trkpt>
      <trkpt lat="45.74787" lon="5.78528">
        <ele>226</ele>
        <time>2018-09-02T11:02:12Z</time>
      </trkpt>
      <trkpt lat="45.74784" lon="5.78531">
        <ele>226</ele>
        <time>2018-09-02T11:02:28Z</time>
      </trkpt>
      <trkpt lat="45.74779" lon="5.78534">
        <ele>226</ele>
        <time>2018-09-02T11:02:28Z</time>
      </trkpt>
      <trkpt lat="45.74773" lon="5.78537">
        <ele>226</ele>
        <time>2018-09-02T11:02:28Z</time>
      </trkpt>
      <trkpt lat="45.7475" lon="5.78547">
        <ele>228</ele>
        <time>2018-09-02T11:02:28Z</time>
      </trkpt>
      <trkpt lat="45.74725" lon="5.78553">
        <ele>228</ele>
        <time>2018-09-02T11:02:44Z</time>
      </trkpt>
      <trkpt lat="45.747" lon="5.7856">
        <ele>228</ele>
        <time>2018-09-02T11:02:44Z</time>
      </trkpt>
      <trkpt lat="45.74675" lon="5.78574">
        <ele>228</ele>
        <time>2018-09-02T11:02:44Z</time>
      </trkpt>
      <trkpt lat="45.74652" lon="5.78589">
        <ele>228</ele>
        <time>2018-09-02T11:02:44Z</time>
      </trkpt>
      <trkpt lat="45.7463" lon="5.78602">
        <ele>228</ele>
        <time>2018-09-02T11:03:00Z</time>
      </trkpt>
      <trkpt lat="45.74601" lon="5.78602">
        <ele>230</ele>
        <time>2018-09-02T11:03:00Z</time>
      </trkpt>
      <trkpt lat="45.74576" lon="5.78588">
        <ele>230</ele>
        <time>2018-09-02T11:03:00Z</time>
      </trkpt>
      <trkpt lat="45.74548" lon="5.78573">
        <ele>230</ele>
        <time>2018-09-02T11:03:00Z</time>
      </trkpt>
      <trkpt lat="45.74522" lon="5.78554">
        <ele>229</ele>
        <time>2018-09-02T11:03:16Z</time>
      </trkpt>
      <trkpt lat="45.745" lon="5.78539">
        <ele>228</ele>
        <time>2018-09-02T11:03:16Z</time>
      </trkpt>
      <trkpt lat="45.74482" lon="5.78514">
        <ele>228</ele>
        <time>2018-09-02T11:03:16Z</time>
      </trkpt>
      <trkpt lat="45.7446" lon="5.78498">
        <ele>228</ele>
        <time>2018-09-02T11:03:16Z</time>
      </trkpt>
      <trkpt lat="45.74436" lon="5.78482">
        <ele>226</ele>
        <time>2018-09-02T11:03:32Z</time>
      </trkpt>
      <trkpt lat="45.74412" lon="5.78475">
        <ele>226</ele>
        <time>2018-09-02T11:03:32Z</time>
      </trkpt>
      <trkpt lat="45.74387" lon="5.7847">
        <ele>226</ele>
        <time>2018-09-02T11:03:32Z</time>
      </trkpt>
      <trkpt lat="45.74363" lon="5.78461">
        <ele>227</ele>
        <time>2018-09-02T11:03:32Z</time>
      </trkpt>
      <trkpt lat="45.7434" lon="5.78447">
        <ele>226</ele>
        <time>2018-09-02T11:03:48Z</time>
      </trkpt>
      <trkpt lat="45.74317" lon="5.7843">
        <ele>226</ele>
        <time>2018-09-02T11:03:48Z</time>
      </trkpt>
      <trkpt lat="45.74292" lon="5.7842">
        <ele>227</ele>
        <time>2018-09-02T11:03:48Z</time>
      </trkpt>
      <trkpt lat="45.74266" lon="5.78409">
        <ele>227</ele>
        <time>2018-09-02T11:03:48Z</time>
      </trkpt>
      <trkpt lat="45.74243" lon="5.78392">
        <ele>227</ele>
        <time>2018-09-02T11:04:04Z</time>
      </trkpt>
      <trkpt lat="45.74221" lon="5.78372">
        <ele>227</ele>
        <time>2018-09-02T11:04:04Z</time>
      </trkpt>
      <trkpt lat="45.74201" lon="5.78355">
        <ele>228</ele>
        <time>2018-09-02T11:04:04Z</time>
      </trkpt>
      <trkpt lat="45.7418" lon="5.7834">
        <ele>228</ele>
        <time>2018-09-02T11:04:04Z</time>
      </trkpt>
      <trkpt lat="45.74161" lon="5.78326">
        <ele>228</ele>
        <time>2018-09-02T11:04:20Z</time>
      </trkpt>
      <trkpt lat="45.74145" lon="5.78315">
        <ele>228</ele>
        <time>2018-09-02T11:04:20Z</time>
      </trkpt>
      <trkpt lat="45.74137" lon="5.78304">
        <ele>228</ele>
        <time>2018-09-02T11:04:20Z</time>
      </trkpt>
      <trkpt lat="45.74134" lon="5.78297">
        <ele>228</ele>
        <time>2018-09-02T11:04:20Z</time>
      </trkpt>
      <trkpt lat="45.74131" lon="5.78289">
        <ele>230</ele>
        <time>2018-09-02T11:04:36Z</time>
      </trkpt>
      <trkpt lat="45.74127" lon="5.78283">
        <ele>230</ele>
        <time>2018-09-02T11:04:36Z</time>
      </trkpt>
      <trkpt lat="45.74125" lon="5.78276">
        <ele>230</ele>
        <time>2018-09-02T11:04:36Z</time>
      </trkpt>
      <trkpt lat="45.74123" lon="5.78269">
        <ele>231</ele>
        <time>2018-09-02T11:04:36Z</time>
      </trkpt>
      <trkpt lat="45.7412" lon="5.78262">
        <ele>231</ele>
        <time>2018-09-02T11:04:52Z</time>
      </trkpt>
      <trkpt lat="45.74117" lon="5.78255">
        <ele>231</ele>
        <time>2018-09-02T11:04:52Z</time>
      </trkpt>
      <trkpt lat="45.74115" lon="5.78248">
        <ele>231</ele>
        <time>2018-09-02T11:04:52Z</time>
      </trkpt>
      <trkpt lat="45.74113" lon="5.78241">
        <ele>231</ele>
        <time>2018-09-02T11:04:52Z</time>
      </trkpt>
      <trkpt lat="45.74109" lon="5.78236">
        <ele>231</ele>
        <time>2018-09-02T11:05:08Z</time>
      </trkpt>
      <trkpt lat="45.74108" lon="5.7823">
        <ele>231</ele>
        <time>2018-09-02T11:05:08Z</time>
      </trkpt>
      <trkpt lat="45.74106" lon="5.78224">
        <ele>231</ele>
        <time>2018-09-02T11:05:08Z</time>
      </trkpt>
      <trkpt lat="45.74104" lon="5.78217">
        <ele>231</ele>
        <time>2018-09-02T11:05:08Z</time>
      </trkpt>
      <trkpt lat="45.74103" lon="5.78209">
        <ele>231</ele>
        <time>2018-09-02T11:05:24Z</time>
      </trkpt>
      <trkpt lat="45.74102" lon="5.78202">
        <ele>233</ele>
        <time>2018-09-02T11:05:24Z</time>
      </trkpt>
      <trkpt lat="45.74101" lon="5.78194">
        <ele>233</ele>
        <time>2018-09-02T11:05:24Z</time>
      </trkpt>
      <trkpt lat="45.74095" lon="5.78174">
        <ele>233</ele>
        <time>2018-09-02T11:05:24Z</time>
      </trkpt>
      <trkpt lat="45.74089" lon="5.78154">
        <ele>233</ele>
        <time>2018-09-02T11:05:40Z</time>
      </trkpt>
      <trkpt lat="45.74084" lon="5.78133">
        <ele>233</ele>
        <time>2018-09-02T11:05:40Z</time>
      </trkpt>
      <trkpt lat="45.74079" lon="5.78114">
        <ele>231</ele>
        <time>2018-09-02T11:05:40Z</time>
      </trkpt>
      <trkpt lat="45.74073" lon="5.78095">
        <ele>231</ele>
        <time>2018-09-02T11:05:40Z</time>
      </trkpt>
      <trkpt lat="45.74067" lon="5.78075">
        <ele>231</ele>
        <time>2018-09-02T11:05:56Z</time>
      </trkpt>
      <trkpt lat="45.74057" lon="5.7806">
        <ele>231</ele>
        <time>2018-09-02T11:05:56Z</time>
      </trkpt>
      <trkpt lat="45.74047" lon="5.78052">
        <ele>231</ele>
        <time>2018-09-02T11:05:56Z</time>
      </trkpt>
      <trkpt lat="45.74041" lon="5.7805">
        <ele>239</ele>
        <time>2018-09-02T11:05:56Z</time>
      </trkpt>
      <trkpt lat="45.74036" lon="5.78047">
        <ele>239</ele>
        <time>2018-09-02T11:06:12Z</time>
      </trkpt>
      <trkpt lat="45.74033" lon="5.78039">
        <ele>227</ele>
        <time>2018-09-02T11:06:12Z</time>
      </trkpt>
      <trkpt lat="45.74034" lon="5.78026">
        <ele>227</ele>
        <time>2018-09-02T11:06:12Z</time>
      </trkpt>
      <trkpt lat="45.74036" lon="5.78014">
        <ele>227</ele>
        <time>2018-09-02T11:06:12Z</time>
      </trkpt>
      <trkpt lat="45.74038" lon="5.78006">
        <ele>227</ele>
        <time>2018-09-02T11:06:28Z</time>
      </trkpt>
      <trkpt lat="45.74039" lon="5.77996">
        <ele>227</ele>
        <time>2018-09-02T11:06:28Z</time>
      </trkpt>
      <trkpt lat="45.74039" lon="5.77986">
        <ele>227</ele>
        <time>2018-09-02T11:06:28Z</time>
      </trkpt>
      <trkpt lat="45.7404" lon="5.77976">
        <ele>227</ele>
        <time>2018-09-02T11:06:28Z</time>
      </trkpt>
      <trkpt lat="45.74041" lon="5.77967">
        <ele>227</ele>
        <time>2018-09-02T11:06:44Z</time>
      </trkpt>
      <trkpt lat="45.74042" lon="5.77958">
        <ele>228</ele>
        <time>2018-09-02T11:06:44Z</time>
      </trkpt>
      <trkpt lat="45.74043" lon="5.77949">
        <ele>227</ele>
        <time>2018-09-02T11:06:44Z</time>
      </trkpt>
      <trkpt lat="45.74043" lon="5.77943">
        <ele>227</ele>
        <time>2018-09-02T11:06:44Z</time>
      </trkpt>
      <trkpt lat="45.74044" lon="5.77935">
        <ele>227</ele>
        <time>2018-09-02T11:07:00Z</time>
      </trkpt>
      <trkpt lat="45.74044" lon="5.77924">
        <ele>227</ele>
        <time>2018-09-02T11:07:00Z</time>
      </trkpt>
      <trkpt lat="45.74045" lon="5.77915">
        <ele>227</ele>
        <time>2018-09-02T11:07:00Z</time>
      </trkpt>
      <trkpt lat="45.74044" lon="5.77906">
        <ele>227</ele>
        <time>2018-09-02T11:07:00Z</time>
      </trkpt>
      <trkpt lat="45.74044" lon="5.779">
        <ele>227</ele>
        <time>2018-09-02T11:07:16Z</time>
      </trkpt>
      <trkpt lat="45.74045" lon="5.77888">
        <ele>227</ele>
        <time>2018-09-02T11:07:16Z</time>
      </trkpt>
      <trkpt lat="45.74045" lon="5.77883">
        <ele>227</ele>
        <time>2018-09-02T11:07:16Z</time>
      </trkpt>
      <trkpt lat="45.74046" lon="5.77874">
        <ele>228</ele>
        <time>2018-09-02T11:07:16Z</time>
      </trkpt>
      <trkpt lat="45.74045" lon="5.77865">
        <ele>228</ele>
        <time>2018-09-02T11:07:32Z</time>
      </trkpt>
      <trkpt lat="45.74044" lon="5.77857">
        <ele>228</ele>
        <time>2018-09-02T11:07:32Z</time>
      </trkpt>
      <trkpt lat="45.74044" lon="5.77848">
        <ele>228</ele>
        <time>2018-09-02T11:07:32Z</time>
      </trkpt>
      <trkpt lat="45.74043" lon="5.7784">
        <ele>228</ele>
        <time>2018-09-02T11:07:32Z</time>
      </trkpt>
      <trkpt lat="45.74042" lon="5.77833">
        <ele>228</ele>
        <time>2018-09-02T11:07:48Z</time>
      </trkpt>
      <trkpt lat="45.74042" lon="5.77821">
        <ele>228</ele>
        <time>2018-09-02T11:07:48Z</time>
      </trkpt>
      <trkpt lat="45.74043" lon="5.77815">
        <ele>228</ele>
        <time>2018-09-02T11:07:48Z</time>
      </trkpt>
      <trkpt lat="45.74044" lon="5.77807">
        <ele>228</ele>
        <time>2018-09-02T11:07:48Z</time>
      </trkpt>
      <trkpt lat="45.74044" lon="5.77799">
        <ele>228</ele>
        <time>2018-09-02T11:08:04Z</time>
      </trkpt>
      <trkpt lat="45.74044" lon="5.77791">
        <ele>228</ele>
        <time>2018-09-02T11:08:04Z</time>
      </trkpt>
      <trkpt lat="45.74043" lon="5.77779">
        <ele>228</ele>
        <time>2018-09-02T11:08:04Z</time>
      </trkpt>
      <trkpt lat="45.74043" lon="5.7777">
        <ele>228</ele>
        <time>2018-09-02T11:08:04Z</time>
      </trkpt>
      <trkpt lat="45.74043" lon="5.77763">
        <ele>228</ele>
        <time>2018-09-02T11:08:20Z</time>
      </trkpt>
      <trkpt lat="45.74043" lon="5.77752">
        <ele>228</ele>
        <time>2018-09-02T11:08:20Z</time>
      </trkpt>
      <trkpt lat="45.74043" lon="5.77746">
        <ele>228</ele>
        <time>2018-09-02T11:08:20Z</time>
      </trkpt>
      <trkpt lat="45.74043" lon="5.77738">
        <ele>228</ele>
        <time>2018-09-02T11:08:20Z</time>
      </trkpt>
      <trkpt lat="45.74039" lon="5.77733">
        <ele>226</ele>
        <time>2018-09-02T11:08:36Z</time>
      </trkpt>
      <trkpt lat="45.74034" lon="5.77729">
        <ele>226</ele>
        <time>2018-09-02T11:08:36Z</time>
      </trkpt>
      <trkpt lat="45.74029" lon="5.77727">
        <ele>226</ele>
        <time>2018-09-02T11:08:36Z</time>
      </trkpt>
      <trkpt lat="45.74025" lon="5.77725">
        <ele>226</ele>
        <time>2018-09-02T11:08:36Z</time>
      </trkpt>
      <trkpt lat="45.74019" lon="5.77724">
        <ele>226</ele>
        <time>2018-09-02T11:08:52Z</time>
      </trkpt>
      <trkpt lat="45.74011" lon="5.77722">
        <ele>226</ele>
        <time>2018-09-02T11:08:52Z</time>
      </trkpt>
      <trkpt lat="45.74006" lon="5.7772">
        <ele>226</ele>
        <time>2018-09-02T11:08:52Z</time>
      </trkpt>
      <trkpt lat="45.74" lon="5.77717">
        <ele>226</ele>
        <time>2018-09-02T11:08:52Z</time>
      </trkpt>
      <trkpt lat="45.73994" lon="5.77714">
        <ele>226</ele>
        <time>2018-09-02T11:09:08Z</time>
      </trkpt>
      <trkpt lat="45.73988" lon="5.7771">
        <ele>226</ele>
        <time>2018-09-02T11:09:08Z</time>
      </trkpt>
      <trkpt lat="45.7398" lon="5.77708">
        <ele>227</ele>
        <time>2018-09-02T11:09:08Z</time>
      </trkpt>
      <trkpt lat="45.73975" lon="5.77706">
        <ele>227</ele>
        <time>2018-09-02T11:09:08Z</time>
      </trkpt>
      <trkpt lat="45.73969" lon="5.77704">
        <ele>227</ele>
        <time>2018-09-02T11:09:24Z</time>
      </trkpt>
      <trkpt lat="45.73963" lon="5.77702">
        <ele>227</ele>
        <time>2018-09-02T11:09:24Z</time>
      </trkpt>
      <trkpt lat="45.73959" lon="5.77701">
        <ele>227</ele>
        <time>2018-09-02T11:09:24Z</time>
      </trkpt>
      <trkpt lat="45.73935" lon="5.77704">
        <ele>227</ele>
        <time>2018-09-02T11:09:24Z</time>
      </trkpt>
      <trkpt lat="45.73913" lon="5.77701">
        <ele>227</ele>
        <time>2018-09-02T11:09:40Z</time>
      </trkpt>
      <trkpt lat="45.73882" lon="5.77696">
        <ele>227</ele>
        <time>2018-09-02T11:09:40Z</time>
      </trkpt>
      <trkpt lat="45.73855" lon="5.77708">
        <ele>226</ele>
        <time>2018-09-02T11:09:40Z</time>
      </trkpt>
      <trkpt lat="45.73835" lon="5.77716">
        <ele>226</ele>
        <time>2018-09-02T11:09:40Z</time>
      </trkpt>
      <trkpt lat="45.73808" lon="5.77738">
        <ele>226</ele>
        <time>2018-09-02T11:09:56Z</time>
      </trkpt>
      <trkpt lat="45.73788" lon="5.77762">
        <ele>226</ele>
        <time>2018-09-02T11:09:56Z</time>
      </trkpt>
      <trkpt lat="45.73779" lon="5.77795">
        <ele>227</ele>
        <time>2018-09-02T11:09:56Z</time>
      </trkpt>
      <trkpt lat="45.73777" lon="5.77826">
        <ele>227</ele>
        <time>2018-09-02T11:09:56Z</time>
      </trkpt>
      <trkpt lat="45.73776" lon="5.77835">
        <ele>227</ele>
        <time>2018-09-02T11:10:12Z</time>
      </trkpt>
      <trkpt lat="45.73775" lon="5.77835">
        <ele>227</ele>
        <time>2018-09-02T11:10:12Z</time>
      </trkpt>
      <trkpt lat="45.7377" lon="5.7784">
        <ele>227</ele>
        <time>2018-09-02T11:10:12Z</time>
      </trkpt>
      <trkpt lat="45.73758" lon="5.77839">
        <ele>227</ele>
        <time>2018-09-02T11:10:12Z</time>
      </trkpt>
      <trkpt lat="45.73734" lon="5.77838">
        <ele>227</ele>
        <time>2018-09-02T11:10:28Z</time>
      </trkpt>
      <trkpt lat="45.73704" lon="5.77844">
        <ele>227</ele>
        <time>2018-09-02T11:10:28Z</time>
      </trkpt>
      <trkpt lat="45.73686" lon="5.77847">
        <ele>227</ele>
        <time>2018-09-02T11:10:28Z</time>
      </trkpt>
      <trkpt lat="45.73669" lon="5.77868">
        <ele>227</ele>
        <time>2018-09-02T11:10:28Z</time>
      </trkpt>
      <trkpt lat="45.7366" lon="5.77897">
        <ele>229</ele>
        <time>2018-09-02T11:10:44Z</time>
      </trkpt>
      <trkpt lat="45.73642" lon="5.7792">
        <ele>229</ele>
        <time>2018-09-02T11:10:44Z</time>
      </trkpt>
      <trkpt lat="45.73627" lon="5.77945">
        <ele>229</ele>
        <time>2018-09-02T11:10:44Z</time>
      </trkpt>
      <trkpt lat="45.73615" lon="5.77956">
        <ele>228</ele>
        <time>2018-09-02T11:10:44Z</time>
      </trkpt>
      <trkpt lat="45.73609" lon="5.77957">
        <ele>228</ele>
        <time>2018-09-02T11:11:00Z</time>
      </trkpt>
      <trkpt lat="45.73603" lon="5.77953">
        <ele>228</ele>
        <time>2018-09-02T11:11:00Z</time>
      </trkpt>
      <trkpt lat="45.73599" lon="5.7795">
        <ele>228</ele>
        <time>2018-09-02T11:11:00Z</time>
      </trkpt>
      <trkpt lat="45.73597" lon="5.77946">
        <ele>228</ele>
        <time>2018-09-02T11:11:00Z</time>
      </trkpt>
      <trkpt lat="45.73596" lon="5.7794">
        <ele>228</ele>
        <time>2018-09-02T11:11:16Z</time>
      </trkpt>
      <trkpt lat="45.73597" lon="5.77931">
        <ele>228</ele>
        <time>2018-09-02T11:11:16Z</time>
      </trkpt>
      <trkpt lat="45.73597" lon="5.77925">
        <ele>228</ele>
        <time>2018-09-02T11:11:16Z</time>
      </trkpt>
      <trkpt lat="45.73596" lon="5.77917">
        <ele>228</ele>
        <time>2018-09-02T11:11:16Z</time>
      </trkpt>
      <trkpt lat="45.73596" lon="5.7791">
        <ele>228</ele>
        <time>2018-09-02T11:11:36Z</time>
      </trkpt>
      <trkpt lat="45.73596" lon="5.7791">
        <ele>228</ele>
        <time>2018-09-02T11:11:36Z</time>
      </trkpt>
      <trkpt lat="45.73594" lon="5.77908">
        <ele>228</ele>
        <time>2018-09-02T11:11:36Z</time>
      </trkpt>
      <trkpt lat="45.73594" lon="5.77902">
        <ele>228</ele>
        <time>2018-09-02T11:11:36Z</time>
      </trkpt>
      <trkpt lat="45.73595" lon="5.77895">
        <ele>228</ele>
        <time>2018-09-02T11:11:36Z</time>
      </trkpt>
      <trkpt lat="45.73596" lon="5.77886">
        <ele>228</ele>
        <time>2018-09-02T11:11:52Z</time>
      </trkpt>
      <trkpt lat="45.73597" lon="5.7788">
        <ele>228</ele>
        <time>2018-09-02T11:11:52Z</time>
      </trkpt>
      <trkpt lat="45.73599" lon="5.77871">
        <ele>226</ele>
        <time>2018-09-02T11:11:52Z</time>
      </trkpt>
      <trkpt lat="45.73603" lon="5.77864">
        <ele>226</ele>
        <time>2018-09-02T11:11:52Z</time>
      </trkpt>
      <trkpt lat="45.73604" lon="5.77856">
        <ele>226</ele>
        <time>2018-09-02T11:12:08Z</time>
      </trkpt>
      <trkpt lat="45.73605" lon="5.77846">
        <ele>226</ele>
        <time>2018-09-02T11:12:08Z</time>
      </trkpt>
      <trkpt lat="45.73605" lon="5.77838">
        <ele>226</ele>
        <time>2018-09-02T11:12:08Z</time>
      </trkpt>
      <trkpt lat="45.73605" lon="5.77832">
        <ele>226</ele>
        <time>2018-09-02T11:12:08Z</time>
      </trkpt>
      <trkpt lat="45.73604" lon="5.77823">
        <ele>226</ele>
        <time>2018-09-02T11:12:24Z</time>
      </trkpt>
      <trkpt lat="45.73584" lon="5.77795">
        <ele>226</ele>
        <time>2018-09-02T11:12:24Z</time>
      </trkpt>
      <trkpt lat="45.73573" lon="5.77779">
        <ele>226</ele>
        <time>2018-09-02T11:12:24Z</time>
      </trkpt>
      <trkpt lat="45.73558" lon="5.77755">
        <ele>226</ele>
        <time>2018-09-02T11:12:24Z</time>
      </trkpt>
      <trkpt lat="45.73534" lon="5.77733">
        <ele>227</ele>
        <time>2018-09-02T11:12:40Z</time>
      </trkpt>
      <trkpt lat="45.73516" lon="5.77723">
        <ele>227</ele>
        <time>2018-09-02T11:12:40Z</time>
      </trkpt>
      <trkpt lat="45.73508" lon="5.77714">
        <ele>227</ele>
        <time>2018-09-02T11:12:40Z</time>
      </trkpt>
      <trkpt lat="45.7351" lon="5.77704">
        <ele>226</ele>
        <time>2018-09-02T11:12:40Z</time>
      </trkpt>
      <trkpt lat="45.73512" lon="5.77697">
        <ele>226</ele>
        <time>2018-09-02T11:12:56Z</time>
      </trkpt>
      <trkpt lat="45.73514" lon="5.7769">
        <ele>226</ele>
        <time>2018-09-02T11:12:56Z</time>
      </trkpt>
      <trkpt lat="45.73516" lon="5.77682">
        <ele>226</ele>
        <time>2018-09-02T11:12:56Z</time>
      </trkpt>
      <trkpt lat="45.73519" lon="5.77673">
        <ele>226</ele>
        <time>2018-09-02T11:12:56Z</time>
      </trkpt>
      <trkpt lat="45.73521" lon="5.77666">
        <ele>226</ele>
        <time>2018-09-02T11:13:12Z</time>
      </trkpt>
      <trkpt lat="45.73524" lon="5.77659">
        <ele>226</ele>
        <time>2018-09-02T11:13:12Z</time>
      </trkpt>
      <trkpt lat="45.73527" lon="5.77652">
        <ele>226</ele>
        <time>2018-09-02T11:13:12Z</time>
      </trkpt>
      <trkpt lat="45.7353" lon="5.77645">
        <ele>226</ele>
        <time>2018-09-02T11:13:12Z</time>
      </trkpt>
      <trkpt lat="45.73533" lon="5.77637">
        <ele>226</ele>
        <time>2018-09-02T11:13:28Z</time>
      </trkpt>
      <trkpt lat="45.73535" lon="5.7763">
        <ele>226</ele>
        <time>2018-09-02T11:13:28Z</time>
      </trkpt>
      <trkpt lat="45.73537" lon="5.77621">
        <ele>226</ele>
        <time>2018-09-02T11:13:28Z</time>
      </trkpt>
      <trkpt lat="45.73538" lon="5.77613">
        <ele>226</ele>
        <time>2018-09-02T11:13:28Z</time>
      </trkpt>
      <trkpt lat="45.73539" lon="5.77607">
        <ele>226</ele>
        <time>2018-09-02T11:13:44Z</time>
      </trkpt>
      <trkpt lat="45.7354" lon="5.77601">
        <ele>226</ele>
        <time>2018-09-02T11:13:44Z</time>
      </trkpt>
      <trkpt lat="45.73541" lon="5.77594">
        <ele>226</ele>
        <time>2018-09-02T11:13:44Z</time>
      </trkpt>
      <trkpt lat="45.73542" lon="5.77586">
        <ele>225</ele>
        <time>2018-09-02T11:13:44Z</time>
      </trkpt>
      <trkpt lat="45.73545" lon="5.77576">
        <ele>225</ele>
        <time>2018-09-02T11:14:00Z</time>
      </trkpt>
      <trkpt lat="45.73549" lon="5.77566">
        <ele>225</ele>
        <time>2018-09-02T11:14:00Z</time>
      </trkpt>
      <trkpt lat="45.73554" lon="5.77557">
        <ele>225</ele>
        <time>2018-09-02T11:14:00Z</time>
      </trkpt>
      <trkpt lat="45.73561" lon="5.77545">
        <ele>225</ele>
        <time>2018-09-02T11:14:00Z</time>
      </trkpt>
      <trkpt lat="45.73565" lon="5.77539">
        <ele>225</ele>
        <time>2018-09-02T11:14:16Z</time>
      </trkpt>
      <trkpt lat="45.73571" lon="5.77533">
        <ele>225</ele>
        <time>2018-09-02T11:14:16Z</time>
      </trkpt>
      <trkpt lat="45.73576" lon="5.77526">
        <ele>225</ele>
        <time>2018-09-02T11:14:16Z</time>
      </trkpt>
      <trkpt lat="45.7358" lon="5.77521">
        <ele>225</ele>
        <time>2018-09-02T11:14:16Z</time>
      </trkpt>
      <trkpt lat="45.73586" lon="5.77516">
        <ele>225</ele>
        <time>2018-09-02T11:14:32Z</time>
      </trkpt>
      <trkpt lat="45.7359" lon="5.77512">
        <ele>225</ele>
        <time>2018-09-02T11:14:32Z</time>
      </trkpt>
      <trkpt lat="45.73594" lon="5.77506">
        <ele>225</ele>
        <time>2018-09-02T11:14:32Z</time>
      </trkpt>
      <trkpt lat="45.73601" lon="5.77497">
        <ele>225</ele>
        <time>2018-09-02T11:14:32Z</time>
      </trkpt>
      <trkpt lat="45.73605" lon="5.77491">
        <ele>225</ele>
        <time>2018-09-02T11:14:48Z</time>
      </trkpt>
      <trkpt lat="45.7361" lon="5.77484">
        <ele>225</ele>
        <time>2018-09-02T11:14:48Z</time>
      </trkpt>
      <trkpt lat="45.73615" lon="5.77477">
        <ele>225</ele>
        <time>2018-09-02T11:14:48Z</time>
      </trkpt>
      <trkpt lat="45.73618" lon="5.77472">
        <ele>225</ele>
        <time>2018-09-02T11:14:48Z</time>
      </trkpt>
      <trkpt lat="45.73621" lon="5.77466">
        <ele>225</ele>
        <time>2018-09-02T11:15:04Z</time>
      </trkpt>
      <trkpt lat="45.73625" lon="5.77459">
        <ele>225</ele>
        <time>2018-09-02T11:15:04Z</time>
      </trkpt>
      <trkpt lat="45.73629" lon="5.77452">
        <ele>226</ele>
        <time>2018-09-02T11:15:04Z</time>
      </trkpt>
      <trkpt lat="45.73635" lon="5.77444">
        <ele>226</ele>
        <time>2018-09-02T11:15:04Z</time>
      </trkpt>
      <trkpt lat="45.73639" lon="5.77437">
        <ele>226</ele>
        <time>2018-09-02T11:15:20Z</time>
      </trkpt>
      <trkpt lat="45.73653" lon="5.77405">
        <ele>226</ele>
        <time>2018-09-02T11:15:20Z</time>
      </trkpt>
      <trkpt lat="45.73664" lon="5.77376">
        <ele>226</ele>
        <time>2018-09-02T11:15:20Z</time>
      </trkpt>
      <trkpt lat="45.73675" lon="5.7735">
        <ele>229</ele>
        <time>2018-09-02T11:15:20Z</time>
      </trkpt>
      <trkpt lat="45.73687" lon="5.77323">
        <ele>229</ele>
        <time>2018-09-02T11:15:36Z</time>
      </trkpt>
      <trkpt lat="45.73688" lon="5.77313">
        <ele>229</ele>
        <time>2018-09-02T11:15:36Z</time>
      </trkpt>
      <trkpt lat="45.73682" lon="5.77312">
        <ele>229</ele>
        <time>2018-09-02T11:15:36Z</time>
      </trkpt>
      <trkpt lat="45.73677" lon="5.77317">
        <ele>229</ele>
        <time>2018-09-02T11:15:36Z</time>
      </trkpt>
      <trkpt lat="45.73673" lon="5.77322">
        <ele>229</ele>
        <time>2018-09-02T11:15:52Z</time>
      </trkpt>
      <trkpt lat="45.73667" lon="5.77324">
        <ele>229</ele>
        <time>2018-09-02T11:15:52Z</time>
      </trkpt>
      <trkpt lat="45.73661" lon="5.77327">
        <ele>229</ele>
        <time>2018-09-02T11:15:52Z</time>
      </trkpt>
      <trkpt lat="45.73654" lon="5.77331">
        <ele>229</ele>
        <time>2018-09-02T11:15:52Z</time>
      </trkpt>
      <trkpt lat="45.73642" lon="5.77334">
        <ele>229</ele>
        <time>2018-09-02T11:16:40Z</time>
      </trkpt>
      <trkpt lat="45.73642" lon="5.77334">
        <ele>229</ele>
        <time>2018-09-02T11:16:40Z</time>
      </trkpt>
      <trkpt lat="45.73641" lon="5.7733">
        <ele>229</ele>
        <time>2018-09-02T11:16:40Z</time>
      </trkpt>
      <trkpt lat="45.73641" lon="5.77325">
        <ele>229</ele>
        <time>2018-09-02T11:16:40Z</time>
      </trkpt>
      <trkpt lat="45.73637" lon="5.77322">
        <ele>229</ele>
        <time>2018-09-02T11:16:40Z</time>
      </trkpt>
      <trkpt lat="45.73634" lon="5.77323">
        <ele>229</ele>
        <time>2018-09-02T11:16:56Z</time>
      </trkpt>
      <trkpt lat="45.73632" lon="5.77324">
        <ele>229</ele>
        <time>2018-09-02T11:16:56Z</time>
      </trkpt>
      <trkpt lat="45.73631" lon="5.77329">
        <ele>229</ele>
        <time>2018-09-02T11:16:56Z</time>
      </trkpt>
      <trkpt lat="45.73629" lon="5.77333">
        <ele>229</ele>
        <time>2018-09-02T11:16:56Z</time>
      </trkpt>
      <trkpt lat="45.73628" lon="5.77335">
        <ele>229</ele>
        <time>2018-09-02T11:17:16Z</time>
      </trkpt>
      <trkpt lat="45.73628" lon="5.77334">
        <ele>229</ele>
        <time>2018-09-02T11:17:16Z</time>
      </trkpt>
      <trkpt lat="45.73625" lon="5.77334">
        <ele>229</ele>
        <time>2018-09-02T11:17:16Z</time>
      </trkpt>
      <trkpt lat="45.73622" lon="5.77334">
        <ele>225</ele>
        <time>2018-09-02T11:17:16Z</time>
      </trkpt>
      <trkpt lat="45.73618" lon="5.77334">
        <ele>225</ele>
        <time>2018-09-02T11:17:16Z</time>
      </trkpt>
      <trkpt lat="45.73613" lon="5.77334">
        <ele>225</ele>
        <time>2018-09-02T11:17:32Z</time>
      </trkpt>
      <trkpt lat="45.73607" lon="5.77335">
        <ele>225</ele>
        <time>2018-09-02T11:17:32Z</time>
      </trkpt>
      <trkpt lat="45.73599" lon="5.77339">
        <ele>225</ele>
        <time>2018-09-02T11:17:32Z</time>
      </trkpt>
      <trkpt lat="45.73595" lon="5.77341">
        <ele>225</ele>
        <time>2018-09-02T11:17:32Z</time>
      </trkpt>
      <trkpt lat="45.73589" lon="5.77344">
        <ele>225</ele>
        <time>2018-09-02T11:17:48Z</time>
      </trkpt>
      <trkpt lat="45.73584" lon="5.77346">
        <ele>225</ele>
        <time>2018-09-02T11:17:48Z</time>
      </trkpt>
      <trkpt lat="45.73577" lon="5.77349">
        <ele>225</ele>
        <time>2018-09-02T11:17:48Z</time>
      </trkpt>
      <trkpt lat="45.73571" lon="5.77352">
        <ele>225</ele>
        <time>2018-09-02T11:17:48Z</time>
      </trkpt>
      <trkpt lat="45.73568" lon="5.77354">
        <ele>225</ele>
        <time>2018-09-02T11:18:04Z</time>
      </trkpt>
      <trkpt lat="45.73563" lon="5.77356">
        <ele>225</ele>
        <time>2018-09-02T11:18:04Z</time>
      </trkpt>
      <trkpt lat="45.73558" lon="5.77358">
        <ele>225</ele>
        <time>2018-09-02T11:18:04Z</time>
      </trkpt>
      <trkpt lat="45.73552" lon="5.77361">
        <ele>225</ele>
        <time>2018-09-02T11:18:04Z</time>
      </trkpt>
      <trkpt lat="45.73546" lon="5.77363">
        <ele>225</ele>
        <time>2018-09-02T11:18:20Z</time>
      </trkpt>
      <trkpt lat="45.7354" lon="5.77364">
        <ele>227</ele>
        <time>2018-09-02T11:18:20Z</time>
      </trkpt>
      <trkpt lat="45.73532" lon="5.77365">
        <ele>227</ele>
        <time>2018-09-02T11:18:20Z</time>
      </trkpt>
      <trkpt lat="45.73528" lon="5.77366">
        <ele>227</ele>
        <time>2018-09-02T11:18:20Z</time>
      </trkpt>
      <trkpt lat="45.7352" lon="5.77369">
        <ele>227</ele>
        <time>2018-09-02T11:18:36Z</time>
      </trkpt>
      <trkpt lat="45.73516" lon="5.77375">
        <ele>227</ele>
        <time>2018-09-02T11:18:36Z</time>
      </trkpt>
      <trkpt lat="45.73511" lon="5.77379">
        <ele>226</ele>
        <time>2018-09-02T11:18:36Z</time>
      </trkpt>
      <trkpt lat="45.73506" lon="5.7738">
        <ele>226</ele>
        <time>2018-09-02T11:18:36Z</time>
      </trkpt>
      <trkpt lat="45.73499" lon="5.77382">
        <ele>226</ele>
        <time>2018-09-02T11:18:52Z</time>
      </trkpt>
      <trkpt lat="45.73493" lon="5.77381">
        <ele>226</ele>
        <time>2018-09-02T11:18:52Z</time>
      </trkpt>
      <trkpt lat="45.73486" lon="5.77384">
        <ele>226</ele>
        <time>2018-09-02T11:18:52Z</time>
      </trkpt>
      <trkpt lat="45.73473" lon="5.77389">
        <ele>226</ele>
        <time>2018-09-02T11:18:52Z</time>
      </trkpt>
      <trkpt lat="45.73461" lon="5.77391">
        <ele>226</ele>
        <time>2018-09-02T11:19:08Z</time>
      </trkpt>
      <trkpt lat="45.73438" lon="5.77395">
        <ele>227</ele>
        <time>2018-09-02T11:19:08Z</time>
      </trkpt>
      <trkpt lat="45.73416" lon="5.77406">
        <ele>227</ele>
        <time>2018-09-02T11:19:08Z</time>
      </trkpt>
      <trkpt lat="45.73395" lon="5.77419">
        <ele>227</ele>
        <time>2018-09-02T11:19:08Z</time>
      </trkpt>
      <trkpt lat="45.73373" lon="5.77431">
        <ele>227</ele>
        <time>2018-09-02T11:19:24Z</time>
      </trkpt>
      <trkpt lat="45.73354" lon="5.77446">
        <ele>227</ele>
        <time>2018-09-02T11:19:24Z</time>
      </trkpt>
      <trkpt lat="45.7333" lon="5.77475">
        <ele>225</ele>
        <time>2018-09-02T11:19:24Z</time>
      </trkpt>
      <trkpt lat="45.73306" lon="5.77486">
        <ele>225</ele>
        <time>2018-09-02T11:19:24Z</time>
      </trkpt>
      <trkpt lat="45.73287" lon="5.77495">
        <ele>226</ele>
        <time>2018-09-02T11:19:40Z</time>
      </trkpt>
      <trkpt lat="45.73265" lon="5.77504">
        <ele>226</ele>
        <time>2018-09-02T11:19:40Z</time>
      </trkpt>
      <trkpt lat="45.7324" lon="5.77525">
        <ele>226</ele>
        <time>2018-09-02T11:19:40Z</time>
      </trkpt>
      <trkpt lat="45.7323" lon="5.77536">
        <ele>226</ele>
        <time>2018-09-02T11:19:40Z</time>
      </trkpt>
      <trkpt lat="45.73226" lon="5.77539">
        <ele>226</ele>
        <time>2018-09-02T11:19:56Z</time>
      </trkpt>
      <trkpt lat="45.73223" lon="5.77541">
        <ele>226</ele>
        <time>2018-09-02T11:19:56Z</time>
      </trkpt>
      <trkpt lat="45.73217" lon="5.77547">
        <ele>226</ele>
        <time>2018-09-02T11:19:56Z</time>
      </trkpt>
      <trkpt lat="45.73214" lon="5.77549">
        <ele>226</ele>
        <time>2018-09-02T11:19:56Z</time>
      </trkpt>
      <trkpt lat="45.7321" lon="5.77551">
        <ele>226</ele>
        <time>2018-09-02T11:20:12Z</time>
      </trkpt>
      <trkpt lat="45.73205" lon="5.77555">
        <ele>225</ele>
        <time>2018-09-02T11:20:12Z</time>
      </trkpt>
      <trkpt lat="45.73199" lon="5.77561">
        <ele>225</ele>
        <time>2018-09-02T11:20:12Z</time>
      </trkpt>
      <trkpt lat="45.73193" lon="5.77566">
        <ele>225</ele>
        <time>2018-09-02T11:20:12Z</time>
      </trkpt>
      <trkpt lat="45.73188" lon="5.77571">
        <ele>225</ele>
        <time>2018-09-02T11:20:28Z</time>
      </trkpt>
      <trkpt lat="45.73183" lon="5.77574">
        <ele>225</ele>
        <time>2018-09-02T11:20:28Z</time>
      </trkpt>
      <trkpt lat="45.73177" lon="5.77577">
        <ele>225</ele>
        <time>2018-09-02T11:20:28Z</time>
      </trkpt>
      <trkpt lat="45.73174" lon="5.7758">
        <ele>225</ele>
        <time>2018-09-02T11:20:28Z</time>
      </trkpt>
      <trkpt lat="45.73169" lon="5.77583">
        <ele>225</ele>
        <time>2018-09-02T11:20:44Z</time>
      </trkpt>
      <trkpt lat="45.73162" lon="5.77586">
        <ele>225</ele>
        <time>2018-09-02T11:20:44Z</time>
      </trkpt>
      <trkpt lat="45.73158" lon="5.77589">
        <ele>225</ele>
        <time>2018-09-02T11:20:44Z</time>
      </trkpt>
      <trkpt lat="45.73153" lon="5.77592">
        <ele>225</ele>
        <time>2018-09-02T11:20:44Z</time>
      </trkpt>
      <trkpt lat="45.73146" lon="5.77597">
        <ele>225</ele>
        <time>2018-09-02T11:21:00Z</time>
      </trkpt>
      <trkpt lat="45.7314" lon="5.77599">
        <ele>225</ele>
        <time>2018-09-02T11:21:00Z</time>
      </trkpt>
      <trkpt lat="45.73135" lon="5.77602">
        <ele>225</ele>
        <time>2018-09-02T11:21:00Z</time>
      </trkpt>
      <trkpt lat="45.7313" lon="5.77606">
        <ele>225</ele>
        <time>2018-09-02T11:21:00Z</time>
      </trkpt>
      <trkpt lat="45.73126" lon="5.77609">
        <ele>225</ele>
        <time>2018-09-02T11:21:16Z</time>
      </trkpt>
      <trkpt lat="45.73121" lon="5.77613">
        <ele>225</ele>
        <time>2018-09-02T11:21:16Z</time>
      </trkpt>
      <trkpt lat="45.73115" lon="5.77616">
        <ele>225</ele>
        <time>2018-09-02T11:21:16Z</time>
      </trkpt>
      <trkpt lat="45.7311" lon="5.77619">
        <ele>225</ele>
        <time>2018-09-02T11:21:16Z</time>
      </trkpt>
      <trkpt lat="45.73105" lon="5.77621">
        <ele>225</ele>
        <time>2018-09-02T11:21:32Z</time>
      </trkpt>
      <trkpt lat="45.73099" lon="5.77625">
        <ele>225</ele>
        <time>2018-09-02T11:21:32Z</time>
      </trkpt>
      <trkpt lat="45.73093" lon="5.77627">
        <ele>226</ele>
        <time>2018-09-02T11:21:32Z</time>
      </trkpt>
      <trkpt lat="45.73089" lon="5.77629">
        <ele>226</ele>
        <time>2018-09-02T11:21:32Z</time>
      </trkpt>
      <trkpt lat="45.73084" lon="5.77632">
        <ele>226</ele>
        <time>2018-09-02T11:21:48Z</time>
      </trkpt>
      <trkpt lat="45.73077" lon="5.77636">
        <ele>226</ele>
        <time>2018-09-02T11:21:48Z</time>
      </trkpt>
      <trkpt lat="45.73074" lon="5.77639">
        <ele>226</ele>
        <time>2018-09-02T11:21:48Z</time>
      </trkpt>
      <trkpt lat="45.73068" lon="5.7764">
        <ele>226</ele>
        <time>2018-09-02T11:21:48Z</time>
      </trkpt>
      <trkpt lat="45.73062" lon="5.77641">
        <ele>226</ele>
        <time>2018-09-02T11:22:04Z</time>
      </trkpt>
      <trkpt lat="45.73056" lon="5.77644">
        <ele>226</ele>
        <time>2018-09-02T11:22:04Z</time>
      </trkpt>
      <trkpt lat="45.7305" lon="5.77647">
        <ele>226</ele>
        <time>2018-09-02T11:22:04Z</time>
      </trkpt>
      <trkpt lat="45.73046" lon="5.7765">
        <ele>226</ele>
        <time>2018-09-02T11:22:04Z</time>
      </trkpt>
      <trkpt lat="45.73039" lon="5.77654">
        <ele>224</ele>
        <time>2018-09-02T11:22:20Z</time>
      </trkpt>
      <trkpt lat="45.73034" lon="5.77659">
        <ele>224</ele>
        <time>2018-09-02T11:22:20Z</time>
      </trkpt>
      <trkpt lat="45.73031" lon="5.77662">
        <ele>224</ele>
        <time>2018-09-02T11:22:20Z</time>
      </trkpt>
      <trkpt lat="45.73026" lon="5.77666">
        <ele>224</ele>
        <time>2018-09-02T11:22:20Z</time>
      </trkpt>
      <trkpt lat="45.73021" lon="5.77671">
        <ele>224</ele>
        <time>2018-09-02T11:22:36Z</time>
      </trkpt>
      <trkpt lat="45.73014" lon="5.77677">
        <ele>224</ele>
        <time>2018-09-02T11:22:36Z</time>
      </trkpt>
      <trkpt lat="45.73009" lon="5.77682">
        <ele>224</ele>
        <time>2018-09-02T11:22:36Z</time>
      </trkpt>
      <trkpt lat="45.73003" lon="5.77686">
        <ele>224</ele>
        <time>2018-09-02T11:22:36Z</time>
      </trkpt>
      <trkpt lat="45.72999" lon="5.77689">
        <ele>224</ele>
        <time>2018-09-02T11:22:52Z</time>
      </trkpt>
      <trkpt lat="45.72994" lon="5.77693">
        <ele>224</ele>
        <time>2018-09-02T11:22:52Z</time>
      </trkpt>
      <trkpt lat="45.72988" lon="5.77697">
        <ele>224</ele>
        <time>2018-09-02T11:22:52Z</time>
      </trkpt>
      <trkpt lat="45.72983" lon="5.777">
        <ele>224</ele>
        <time>2018-09-02T11:22:52Z</time>
      </trkpt>
      <trkpt lat="45.72978" lon="5.77704">
        <ele>224</ele>
        <time>2018-09-02T11:23:08Z</time>
      </trkpt>
      <trkpt lat="45.72972" lon="5.77706">
        <ele>224</ele>
        <time>2018-09-02T11:23:08Z</time>
      </trkpt>
      <trkpt lat="45.72968" lon="5.77708">
        <ele>224</ele>
        <time>2018-09-02T11:23:08Z</time>
      </trkpt>
      <trkpt lat="45.72963" lon="5.77708">
        <ele>224</ele>
        <time>2018-09-02T11:23:08Z</time>
      </trkpt>
      <trkpt lat="45.72957" lon="5.77709">
        <ele>224</ele>
        <time>2018-09-02T11:23:24Z</time>
      </trkpt>
      <trkpt lat="45.72955" lon="5.7771">
        <ele>224</ele>
        <time>2018-09-02T11:23:24Z</time>
      </trkpt>
      <trkpt lat="45.7295" lon="5.77712">
        <ele>224</ele>
        <time>2018-09-02T11:23:24Z</time>
      </trkpt>
      <trkpt lat="45.72946" lon="5.77715">
        <ele>224</ele>
        <time>2018-09-02T11:23:24Z</time>
      </trkpt>
      <trkpt lat="45.72942" lon="5.77719">
        <ele>224</ele>
        <time>2018-09-02T11:23:40Z</time>
      </trkpt>
      <trkpt lat="45.72937" lon="5.7772">
        <ele>224</ele>
        <time>2018-09-02T11:23:40Z</time>
      </trkpt>
      <trkpt lat="45.72926" lon="5.7772">
        <ele>224</ele>
        <time>2018-09-02T11:23:40Z</time>
      </trkpt>
      <trkpt lat="45.72919" lon="5.77721">
        <ele>224</ele>
        <time>2018-09-02T11:23:40Z</time>
      </trkpt>
      <trkpt lat="45.72916" lon="5.77722">
        <ele>224</ele>
        <time>2018-09-02T11:23:56Z</time>
      </trkpt>
      <trkpt lat="45.7291" lon="5.77724">
        <ele>224</ele>
        <time>2018-09-02T11:23:56Z</time>
      </trkpt>
      <trkpt lat="45.72905" lon="5.77725">
        <ele>224</ele>
        <time>2018-09-02T11:23:56Z</time>
      </trkpt>
      <trkpt lat="45.729" lon="5.77723">
        <ele>224</ele>
        <time>2018-09-02T11:23:56Z</time>
      </trkpt>
      <trkpt lat="45.72894" lon="5.77726">
        <ele>224</ele>
        <time>2018-09-02T11:24:12Z</time>
      </trkpt>
      <trkpt lat="45.72889" lon="5.77727">
        <ele>224</ele>
        <time>2018-09-02T11:24:12Z</time>
      </trkpt>
      <trkpt lat="45.72885" lon="5.77729">
        <ele>224</ele>
        <time>2018-09-02T11:24:12Z</time>
      </trkpt>
      <trkpt lat="45.7288" lon="5.77732">
        <ele>224</ele>
        <time>2018-09-02T11:24:12Z</time>
      </trkpt>
      <trkpt lat="45.72875" lon="5.77736">
        <ele>224</ele>
        <time>2018-09-02T11:24:28Z</time>
      </trkpt>
      <trkpt lat="45.7287" lon="5.77736">
        <ele>227</ele>
        <time>2018-09-02T11:24:28Z</time>
      </trkpt>
      <trkpt lat="45.72867" lon="5.77738">
        <ele>227</ele>
        <time>2018-09-02T11:24:28Z</time>
      </trkpt>
      <trkpt lat="45.72863" lon="5.77738">
        <ele>227</ele>
        <time>2018-09-02T11:24:28Z</time>
      </trkpt>
      <trkpt lat="45.72859" lon="5.77741">
        <ele>227</ele>
        <time>2018-09-02T11:24:48Z</time>
      </trkpt>
      <trkpt lat="45.72857" lon="5.77744">
        <ele>227</ele>
        <time>2018-09-02T11:24:48Z</time>
      </trkpt>
      <trkpt lat="45.72855" lon="5.77747">
        <ele>227</ele>
        <time>2018-09-02T11:24:48Z</time>
      </trkpt>
      <trkpt lat="45.72853" lon="5.7775">
        <ele>227</ele>
        <time>2018-09-02T11:24:48Z</time>
      </trkpt>
      <trkpt lat="45.72852" lon="5.7775">
        <ele>227</ele>
        <time>2018-09-02T11:24:48Z</time>
      </trkpt>
      <trkpt lat="45.72851" lon="5.7775">
        <ele>227</ele>
        <time>2018-09-02T11:25:16Z</time>
      </trkpt>
      <trkpt lat="45.7285" lon="5.7775">
        <ele>227</ele>
        <time>2018-09-02T11:25:16Z</time>
      </trkpt>
      <trkpt lat="45.7285" lon="5.7775">
        <ele>227</ele>
        <time>2018-09-02T11:25:16Z</time>
      </trkpt>
      <trkpt lat="45.72844" lon="5.77753">
        <ele>227</ele>
        <time>2018-09-02T11:25:16Z</time>
      </trkpt>
      <trkpt lat="45.72839" lon="5.77754">
        <ele>227</ele>
        <time>2018-09-02T11:25:16Z</time>
      </trkpt>
      <trkpt lat="45.72833" lon="5.77758">
        <ele>227</ele>
        <time>2018-09-02T11:25:32Z</time>
      </trkpt>
      <trkpt lat="45.72826" lon="5.77761">
        <ele>227</ele>
        <time>2018-09-02T11:25:32Z</time>
      </trkpt>
      <trkpt lat="45.72824" lon="5.77762">
        <ele>227</ele>
        <time>2018-09-02T11:25:32Z</time>
      </trkpt>
      <trkpt lat="45.7282" lon="5.77762">
        <ele>227</ele>
        <time>2018-09-02T11:25:32Z</time>
      </trkpt>
      <trkpt lat="45.72809" lon="5.77764">
        <ele>227</ele>
        <time>2018-09-02T11:25:48Z</time>
      </trkpt>
      <trkpt lat="45.72803" lon="5.7776">
        <ele>227</ele>
        <time>2018-09-02T11:25:48Z</time>
      </trkpt>
      <trkpt lat="45.72795" lon="5.77758">
        <ele>227</ele>
        <time>2018-09-02T11:25:48Z</time>
      </trkpt>
      <trkpt lat="45.72788" lon="5.77755">
        <ele>225</ele>
        <time>2018-09-02T11:25:48Z</time>
      </trkpt>
      <trkpt lat="45.72781" lon="5.77752">
        <ele>225</ele>
        <time>2018-09-02T11:26:04Z</time>
      </trkpt>
      <trkpt lat="45.72774" lon="5.77752">
        <ele>225</ele>
        <time>2018-09-02T11:26:04Z</time>
      </trkpt>
      <trkpt lat="45.72769" lon="5.7775">
        <ele>225</ele>
        <time>2018-09-02T11:26:04Z</time>
      </trkpt>
      <trkpt lat="45.72762" lon="5.7775">
        <ele>225</ele>
        <time>2018-09-02T11:26:04Z</time>
      </trkpt>
      <trkpt lat="45.72756" lon="5.77749">
        <ele>225</ele>
        <time>2018-09-02T11:26:20Z</time>
      </trkpt>
      <trkpt lat="45.72749" lon="5.77748">
        <ele>225</ele>
        <time>2018-09-02T11:26:20Z</time>
      </trkpt>
      <trkpt lat="45.72742" lon="5.77746">
        <ele>225</ele>
        <time>2018-09-02T11:26:20Z</time>
      </trkpt>
      <trkpt lat="45.72735" lon="5.77746">
        <ele>225</ele>
        <time>2018-09-02T11:26:20Z</time>
      </trkpt>
      <trkpt lat="45.7273" lon="5.77745">
        <ele>225</ele>
        <time>2018-09-02T11:26:36Z</time>
      </trkpt>
      <trkpt lat="45.72724" lon="5.77744">
        <ele>225</ele>
        <time>2018-09-02T11:26:36Z</time>
      </trkpt>
      <trkpt lat="45.72718" lon="5.77742">
        <ele>225</ele>
        <time>2018-09-02T11:26:36Z</time>
      </trkpt>
      <trkpt lat="45.72712" lon="5.77741">
        <ele>225</ele>
        <time>2018-09-02T11:26:36Z</time>
      </trkpt>
      <trkpt lat="45.72707" lon="5.7774">
        <ele>225</ele>
        <time>2018-09-02T11:26:52Z</time>
      </trkpt>
      <trkpt lat="45.72701" lon="5.77739">
        <ele>225</ele>
        <time>2018-09-02T11:26:52Z</time>
      </trkpt>
      <trkpt lat="45.72694" lon="5.77738">
        <ele>225</ele>
        <time>2018-09-02T11:26:52Z</time>
      </trkpt>
      <trkpt lat="45.72685" lon="5.77736">
        <ele>225</ele>
        <time>2018-09-02T11:26:52Z</time>
      </trkpt>
      <trkpt lat="45.72679" lon="5.77735">
        <ele>225</ele>
        <time>2018-09-02T11:27:08Z</time>
      </trkpt>
      <trkpt lat="45.72672" lon="5.77734">
        <ele>225</ele>
        <time>2018-09-02T11:27:08Z</time>
      </trkpt>
      <trkpt lat="45.72667" lon="5.77734">
        <ele>225</ele>
        <time>2018-09-02T11:27:08Z</time>
      </trkpt>
      <trkpt lat="45.72661" lon="5.77732">
        <ele>225</ele>
        <time>2018-09-02T11:27:08Z</time>
      </trkpt>
      <trkpt lat="45.72653" lon="5.77727">
        <ele>225</ele>
        <time>2018-09-02T11:27:24Z</time>
      </trkpt>
      <trkpt lat="45.72648" lon="5.77723">
        <ele>225</ele>
        <time>2018-09-02T11:27:24Z</time>
      </trkpt>
      <trkpt lat="45.72644" lon="5.7772">
        <ele>225</ele>
        <time>2018-09-02T11:27:24Z</time>
      </trkpt>
      <trkpt lat="45.72636" lon="5.77716">
        <ele>225</ele>
        <time>2018-09-02T11:27:24Z</time>
      </trkpt>
      <trkpt lat="45.72631" lon="5.77712">
        <ele>225</ele>
        <time>2018-09-02T11:27:40Z</time>
      </trkpt>
      <trkpt lat="45.72627" lon="5.77711">
        <ele>225</ele>
        <time>2018-09-02T11:27:40Z</time>
      </trkpt>
      <trkpt lat="45.72622" lon="5.77707">
        <ele>225</ele>
        <time>2018-09-02T11:27:40Z</time>
      </trkpt>
      <trkpt lat="45.72616" lon="5.77702">
        <ele>225</ele>
        <time>2018-09-02T11:27:40Z</time>
      </trkpt>
      <trkpt lat="45.7261" lon="5.77698">
        <ele>225</ele>
        <time>2018-09-02T11:27:56Z</time>
      </trkpt>
      <trkpt lat="45.72605" lon="5.77694">
        <ele>225</ele>
        <time>2018-09-02T11:27:56Z</time>
      </trkpt>
      <trkpt lat="45.72601" lon="5.77691">
        <ele>225</ele>
        <time>2018-09-02T11:27:56Z</time>
      </trkpt>
      <trkpt lat="45.72596" lon="5.77688">
        <ele>225</ele>
        <time>2018-09-02T11:27:56Z</time>
      </trkpt>
      <trkpt lat="45.72591" lon="5.77683">
        <ele>225</ele>
        <time>2018-09-02T11:28:12Z</time>
      </trkpt>
      <trkpt lat="45.72586" lon="5.77679">
        <ele>225</ele>
        <time>2018-09-02T11:28:12Z</time>
      </trkpt>
      <trkpt lat="45.72581" lon="5.77676">
        <ele>225</ele>
        <time>2018-09-02T11:28:12Z</time>
      </trkpt>
      <trkpt lat="45.72576" lon="5.77672">
        <ele>225</ele>
        <time>2018-09-02T11:28:12Z</time>
      </trkpt>
      <trkpt lat="45.72571" lon="5.77667">
        <ele>225</ele>
        <time>2018-09-02T11:28:28Z</time>
      </trkpt>
      <trkpt lat="45.72564" lon="5.77666">
        <ele>225</ele>
        <time>2018-09-02T11:28:28Z</time>
      </trkpt>
      <trkpt lat="45.72558" lon="5.77658">
        <ele>225</ele>
        <time>2018-09-02T11:28:28Z</time>
      </trkpt>
      <trkpt lat="45.72553" lon="5.77652">
        <ele>225</ele>
        <time>2018-09-02T11:28:28Z</time>
      </trkpt>
      <trkpt lat="45.7255" lon="5.77649">
        <ele>225</ele>
        <time>2018-09-02T11:28:44Z</time>
      </trkpt>
      <trkpt lat="45.72543" lon="5.77646">
        <ele>225</ele>
        <time>2018-09-02T11:28:44Z</time>
      </trkpt>
      <trkpt lat="45.72537" lon="5.77641">
        <ele>227</ele>
        <time>2018-09-02T11:28:44Z</time>
      </trkpt>
      <trkpt lat="45.72533" lon="5.77637">
        <ele>227</ele>
        <time>2018-09-02T11:28:44Z</time>
      </trkpt>
      <trkpt lat="45.72526" lon="5.77633">
        <ele>227</ele>
        <time>2018-09-02T11:29:00Z</time>
      </trkpt>
      <trkpt lat="45.7252" lon="5.77628">
        <ele>227</ele>
        <time>2018-09-02T11:29:00Z</time>
      </trkpt>
      <trkpt lat="45.72514" lon="5.77623">
        <ele>229</ele>
        <time>2018-09-02T11:29:00Z</time>
      </trkpt>
      <trkpt lat="45.72509" lon="5.77618">
        <ele>229</ele>
        <time>2018-09-02T11:29:00Z</time>
      </trkpt>
      <trkpt lat="45.72503" lon="5.77615">
        <ele>229</ele>
        <time>2018-09-02T11:29:16Z</time>
      </trkpt>
      <trkpt lat="45.72499" lon="5.77613">
        <ele>229</ele>
        <time>2018-09-02T11:29:16Z</time>
      </trkpt>
      <trkpt lat="45.72493" lon="5.77608">
        <ele>229</ele>
        <time>2018-09-02T11:29:16Z</time>
      </trkpt>
      <trkpt lat="45.72488" lon="5.77603">
        <ele>229</ele>
        <time>2018-09-02T11:29:16Z</time>
      </trkpt>
      <trkpt lat="45.72482" lon="5.77601">
        <ele>229</ele>
        <time>2018-09-02T11:29:32Z</time>
      </trkpt>
      <trkpt lat="45.72476" lon="5.77598">
        <ele>229</ele>
        <time>2018-09-02T11:29:32Z</time>
      </trkpt>
      <trkpt lat="45.72469" lon="5.77596">
        <ele>229</ele>
        <time>2018-09-02T11:29:32Z</time>
      </trkpt>
      <trkpt lat="45.72464" lon="5.77594">
        <ele>229</ele>
        <time>2018-09-02T11:29:32Z</time>
      </trkpt>
      <trkpt lat="45.72459" lon="5.7759">
        <ele>229</ele>
        <time>2018-09-02T11:29:48Z</time>
      </trkpt>
      <trkpt lat="45.7245" lon="5.77587">
        <ele>230</ele>
        <time>2018-09-02T11:29:48Z</time>
      </trkpt>
      <trkpt lat="45.72446" lon="5.77587">
        <ele>230</ele>
        <time>2018-09-02T11:29:48Z</time>
      </trkpt>
      <trkpt lat="45.7244" lon="5.77586">
        <ele>230</ele>
        <time>2018-09-02T11:29:48Z</time>
      </trkpt>
      <trkpt lat="45.72438" lon="5.77581">
        <ele>230</ele>
        <time>2018-09-02T11:30:04Z</time>
      </trkpt>
      <trkpt lat="45.72439" lon="5.77574">
        <ele>230</ele>
        <time>2018-09-02T11:30:04Z</time>
      </trkpt>
      <trkpt lat="45.72439" lon="5.77566">
        <ele>230</ele>
        <time>2018-09-02T11:30:04Z</time>
      </trkpt>
      <trkpt lat="45.72435" lon="5.77565">
        <ele>230</ele>
        <time>2018-09-02T11:30:04Z</time>
      </trkpt>
      <trkpt lat="45.72431" lon="5.77564">
        <ele>230</ele>
        <time>2018-09-02T11:30:20Z</time>
      </trkpt>
      <trkpt lat="45.72426" lon="5.77559">
        <ele>230</ele>
        <time>2018-09-02T11:30:20Z</time>
      </trkpt>
      <trkpt lat="45.72423" lon="5.77556">
        <ele>230</ele>
        <time>2018-09-02T11:30:20Z</time>
      </trkpt>
      <trkpt lat="45.7242" lon="5.77555">
        <ele>230</ele>
        <time>2018-09-02T11:30:20Z</time>
      </trkpt>
      <trkpt lat="45.72415" lon="5.77553">
        <ele>230</ele>
        <time>2018-09-02T11:30:36Z</time>
      </trkpt>
      <trkpt lat="45.72411" lon="5.7755">
        <ele>230</ele>
        <time>2018-09-02T11:30:36Z</time>
      </trkpt>
      <trkpt lat="45.72406" lon="5.77546">
        <ele>230</ele>
        <time>2018-09-02T11:30:36Z</time>
      </trkpt>
      <trkpt lat="45.72403" lon="5.77543">
        <ele>230</ele>
        <time>2018-09-02T11:30:36Z</time>
      </trkpt>
      <trkpt lat="45.72399" lon="5.77537">
        <ele>229</ele>
        <time>2018-09-02T11:30:52Z</time>
      </trkpt>
      <trkpt lat="45.72395" lon="5.77534">
        <ele>229</ele>
        <time>2018-09-02T11:30:52Z</time>
      </trkpt>
      <trkpt lat="45.72391" lon="5.77531">
        <ele>229</ele>
        <time>2018-09-02T11:30:52Z</time>
      </trkpt>
      <trkpt lat="45.72387" lon="5.77525">
        <ele>229</ele>
        <time>2018-09-02T11:30:52Z</time>
      </trkpt>
      <trkpt lat="45.72383" lon="5.77518">
        <ele>229</ele>
        <time>2018-09-02T11:31:08Z</time>
      </trkpt>
      <trkpt lat="45.72381" lon="5.77513">
        <ele>229</ele>
        <time>2018-09-02T11:31:08Z</time>
      </trkpt>
      <trkpt lat="45.7238" lon="5.77506">
        <ele>229</ele>
        <time>2018-09-02T11:31:08Z</time>
      </trkpt>
      <trkpt lat="45.7238" lon="5.77503">
        <ele>229</ele>
        <time>2018-09-02T11:31:08Z</time>
      </trkpt>
      <trkpt lat="45.72378" lon="5.77501">
        <ele>229</ele>
        <time>2018-09-02T11:31:24Z</time>
      </trkpt>
      <trkpt lat="45.72375" lon="5.77496">
        <ele>229</ele>
        <time>2018-09-02T11:31:24Z</time>
      </trkpt>
      <trkpt lat="45.72373" lon="5.77493">
        <ele>227</ele>
        <time>2018-09-02T11:31:24Z</time>
      </trkpt>
      <trkpt lat="45.72369" lon="5.77486">
        <ele>227</ele>
        <time>2018-09-02T11:31:24Z</time>
      </trkpt>
      <trkpt lat="45.72366" lon="5.7748">
        <ele>227</ele>
        <time>2018-09-02T11:31:40Z</time>
      </trkpt>
      <trkpt lat="45.72361" lon="5.77475">
        <ele>227</ele>
        <time>2018-09-02T11:31:40Z</time>
      </trkpt>
      <trkpt lat="45.72355" lon="5.77462">
        <ele>227</ele>
        <time>2018-09-02T11:31:40Z</time>
      </trkpt>
      <trkpt lat="45.72351" lon="5.77456">
        <ele>227</ele>
        <time>2018-09-02T11:31:40Z</time>
      </trkpt>
      <trkpt lat="45.72347" lon="5.77447">
        <ele>227</ele>
        <time>2018-09-02T11:31:56Z</time>
      </trkpt>
      <trkpt lat="45.72344" lon="5.77438">
        <ele>227</ele>
        <time>2018-09-02T11:31:56Z</time>
      </trkpt>
      <trkpt lat="45.7234" lon="5.77429">
        <ele>227</ele>
        <time>2018-09-02T11:31:56Z</time>
      </trkpt>
      <trkpt lat="45.72337" lon="5.77419">
        <ele>227</ele>
        <time>2018-09-02T11:31:56Z</time>
      </trkpt>
      <trkpt lat="45.72331" lon="5.77407">
        <ele>227</ele>
        <time>2018-09-02T11:32:12Z</time>
      </trkpt>
      <trkpt lat="45.72327" lon="5.77397">
        <ele>227</ele>
        <time>2018-09-02T11:32:12Z</time>
      </trkpt>
      <trkpt lat="45.72324" lon="5.77391">
        <ele>227</ele>
        <time>2018-09-02T11:32:12Z</time>
      </trkpt>
      <trkpt lat="45.7232" lon="5.77382">
        <ele>227</ele>
        <time>2018-09-02T11:32:12Z</time>
      </trkpt>
      <trkpt lat="45.72318" lon="5.77376">
        <ele>227</ele>
        <time>2018-09-02T11:32:28Z</time>
      </trkpt>
      <trkpt lat="45.72314" lon="5.77368">
        <ele>224</ele>
        <time>2018-09-02T11:32:28Z</time>
      </trkpt>
      <trkpt lat="45.7231" lon="5.77359">
        <ele>224</ele>
        <time>2018-09-02T11:32:28Z</time>
      </trkpt>
      <trkpt lat="45.72306" lon="5.77351">
        <ele>224</ele>
        <time>2018-09-02T11:32:28Z</time>
      </trkpt>
      <trkpt lat="45.72302" lon="5.77344">
        <ele>224</ele>
        <time>2018-09-02T11:32:44Z</time>
      </trkpt>
      <trkpt lat="45.72299" lon="5.77336">
        <ele>224</ele>
        <time>2018-09-02T11:32:44Z</time>
      </trkpt>
      <trkpt lat="45.72297" lon="5.77329">
        <ele>224</ele>
        <time>2018-09-02T11:32:44Z</time>
      </trkpt>
      <trkpt lat="45.72295" lon="5.77323">
        <ele>224</ele>
        <time>2018-09-02T11:32:44Z</time>
      </trkpt>
      <trkpt lat="45.72293" lon="5.77319">
        <ele>224</ele>
        <time>2018-09-02T11:33:00Z</time>
      </trkpt>
      <trkpt lat="45.72291" lon="5.77312">
        <ele>227</ele>
        <time>2018-09-02T11:33:00Z</time>
      </trkpt>
      <trkpt lat="45.72288" lon="5.77306">
        <ele>227</ele>
        <time>2018-09-02T11:33:00Z</time>
      </trkpt>
      <trkpt lat="45.72285" lon="5.77304">
        <ele>227</ele>
        <time>2018-09-02T11:33:00Z</time>
      </trkpt>
      <trkpt lat="45.7228" lon="5.77298">
        <ele>227</ele>
        <time>2018-09-02T11:33:16Z</time>
      </trkpt>
      <trkpt lat="45.72277" lon="5.7729">
        <ele>228</ele>
        <time>2018-09-02T11:33:16Z</time>
      </trkpt>
      <trkpt lat="45.72273" lon="5.77283">
        <ele>228</ele>
        <time>2018-09-02T11:33:16Z</time>
      </trkpt>
      <trkpt lat="45.7227" lon="5.77277">
        <ele>228</ele>
        <time>2018-09-02T11:33:16Z</time>
      </trkpt>
      <trkpt lat="45.72267" lon="5.77272">
        <ele>228</ele>
        <time>2018-09-02T11:33:32Z</time>
      </trkpt>
      <trkpt lat="45.72264" lon="5.77269">
        <ele>228</ele>
        <time>2018-09-02T11:33:32Z</time>
      </trkpt>
      <trkpt lat="45.72261" lon="5.77263">
        <ele>228</ele>
        <time>2018-09-02T11:33:32Z</time>
      </trkpt>
      <trkpt lat="45.72257" lon="5.77256">
        <ele>228</ele>
        <time>2018-09-02T11:33:32Z</time>
      </trkpt>
      <trkpt lat="45.72253" lon="5.77248">
        <ele>228</ele>
        <time>2018-09-02T11:33:48Z</time>
      </trkpt>
      <trkpt lat="45.7225" lon="5.77239">
        <ele>228</ele>
        <time>2018-09-02T11:33:48Z</time>
      </trkpt>
      <trkpt lat="45.72248" lon="5.77233">
        <ele>228</ele>
        <time>2018-09-02T11:33:48Z</time>
      </trkpt>
      <trkpt lat="45.72245" lon="5.77229">
        <ele>228</ele>
        <time>2018-09-02T11:33:48Z</time>
      </trkpt>
      <trkpt lat="45.72243" lon="5.77223">
        <ele>228</ele>
        <time>2018-09-02T11:34:04Z</time>
      </trkpt>
      <trkpt lat="45.72239" lon="5.77216">
        <ele>228</ele>
        <time>2018-09-02T11:34:04Z</time>
      </trkpt>
      <trkpt lat="45.72236" lon="5.77208">
        <ele>227</ele>
        <time>2018-09-02T11:34:04Z</time>
      </trkpt>
      <trkpt lat="45.72234" lon="5.77202">
        <ele>227</ele>
        <time>2018-09-02T11:34:04Z</time>
      </trkpt>
      <trkpt lat="45.72232" lon="5.77195">
        <ele>227</ele>
        <time>2018-09-02T11:34:20Z</time>
      </trkpt>
      <trkpt lat="45.72227" lon="5.77189">
        <ele>227</ele>
        <time>2018-09-02T11:34:20Z</time>
      </trkpt>
      <trkpt lat="45.72222" lon="5.7718">
        <ele>227</ele>
        <time>2018-09-02T11:34:20Z</time>
      </trkpt>
      <trkpt lat="45.72217" lon="5.77175">
        <ele>227</ele>
        <time>2018-09-02T11:34:20Z</time>
      </trkpt>
      <trkpt lat="45.72214" lon="5.77169">
        <ele>227</ele>
        <time>2018-09-02T11:34:36Z</time>
      </trkpt>
      <trkpt lat="45.7221" lon="5.7716">
        <ele>227</ele>
        <time>2018-09-02T11:34:36Z</time>
      </trkpt>
      <trkpt lat="45.72206" lon="5.77153">
        <ele>231</ele>
        <time>2018-09-02T11:34:36Z</time>
      </trkpt>
      <trkpt lat="45.72203" lon="5.77145">
        <ele>231</ele>
        <time>2018-09-02T11:34:36Z</time>
      </trkpt>
      <trkpt lat="45.72201" lon="5.77137">
        <ele>231</ele>
        <time>2018-09-02T11:34:52Z</time>
      </trkpt>
      <trkpt lat="45.72198" lon="5.7713">
        <ele>231</ele>
        <time>2018-09-02T11:34:52Z</time>
      </trkpt>
      <trkpt lat="45.72195" lon="5.77121">
        <ele>228</ele>
        <time>2018-09-02T11:34:52Z</time>
      </trkpt>
      <trkpt lat="45.72193" lon="5.77115">
        <ele>228</ele>
        <time>2018-09-02T11:34:52Z</time>
      </trkpt>
      <trkpt lat="45.7219" lon="5.77111">
        <ele>228</ele>
        <time>2018-09-02T11:35:08Z</time>
      </trkpt>
      <trkpt lat="45.72187" lon="5.77104">
        <ele>228</ele>
        <time>2018-09-02T11:35:08Z</time>
      </trkpt>
      <trkpt lat="45.72185" lon="5.77095">
        <ele>228</ele>
        <time>2018-09-02T11:35:08Z</time>
      </trkpt>
      <trkpt lat="45.72185" lon="5.77087">
        <ele>228</ele>
        <time>2018-09-02T11:35:08Z</time>
      </trkpt>
      <trkpt lat="45.72185" lon="5.7708">
        <ele>228</ele>
        <time>2018-09-02T11:35:24Z</time>
      </trkpt>
      <trkpt lat="45.72184" lon="5.77073">
        <ele>228</ele>
        <time>2018-09-02T11:35:24Z</time>
      </trkpt>
      <trkpt lat="45.72182" lon="5.77064">
        <ele>228</ele>
        <time>2018-09-02T11:35:24Z</time>
      </trkpt>
      <trkpt lat="45.7218" lon="5.77056">
        <ele>228</ele>
        <time>2018-09-02T11:35:24Z</time>
      </trkpt>
      <trkpt lat="45.72177" lon="5.77047">
        <ele>228</ele>
        <time>2018-09-02T11:35:40Z</time>
      </trkpt>
      <trkpt lat="45.72175" lon="5.77038">
        <ele>227</ele>
        <time>2018-09-02T11:35:40Z</time>
      </trkpt>
      <trkpt lat="45.72173" lon="5.77031">
        <ele>227</ele>
        <time>2018-09-02T11:35:40Z</time>
      </trkpt>
      <trkpt lat="45.7217" lon="5.77025">
        <ele>227</ele>
        <time>2018-09-02T11:35:40Z</time>
      </trkpt>
      <trkpt lat="45.72168" lon="5.77019">
        <ele>227</ele>
        <time>2018-09-02T11:35:56Z</time>
      </trkpt>
      <trkpt lat="45.72165" lon="5.77014">
        <ele>227</ele>
        <time>2018-09-02T11:35:56Z</time>
      </trkpt>
      <trkpt lat="45.72164" lon="5.77008">
        <ele>227</ele>
        <time>2018-09-02T11:35:56Z</time>
      </trkpt>
      <trkpt lat="45.72162" lon="5.77004">
        <ele>227</ele>
        <time>2018-09-02T11:35:56Z</time>
      </trkpt>
      <trkpt lat="45.7216" lon="5.76998">
        <ele>227</ele>
        <time>2018-09-02T11:36:12Z</time>
      </trkpt>
      <trkpt lat="45.72157" lon="5.76992">
        <ele>227</ele>
        <time>2018-09-02T11:36:12Z</time>
      </trkpt>
      <trkpt lat="45.72149" lon="5.76966">
        <ele>227</ele>
        <time>2018-09-02T11:36:12Z</time>
      </trkpt>
      <trkpt lat="45.72141" lon="5.76929">
        <ele>226</ele>
        <time>2018-09-02T11:36:12Z</time>
      </trkpt>
      <trkpt lat="45.72124" lon="5.76898">
        <ele>226</ele>
        <time>2018-09-02T11:36:28Z</time>
      </trkpt>
      <trkpt lat="45.72107" lon="5.7687">
        <ele>226</ele>
        <time>2018-09-02T11:36:28Z</time>
      </trkpt>
      <trkpt lat="45.72089" lon="5.7684">
        <ele>226</ele>
        <time>2018-09-02T11:36:28Z</time>
      </trkpt>
      <trkpt lat="45.72069" lon="5.76812">
        <ele>226</ele>
        <time>2018-09-02T11:36:28Z</time>
      </trkpt>
      <trkpt lat="45.72059" lon="5.76801">
        <ele>226</ele>
        <time>2018-09-02T11:36:44Z</time>
      </trkpt>
      <trkpt lat="45.72056" lon="5.768">
        <ele>226</ele>
        <time>2018-09-02T11:36:44Z</time>
      </trkpt>
      <trkpt lat="45.72052" lon="5.7681">
        <ele>226</ele>
        <time>2018-09-02T11:36:44Z</time>
      </trkpt>
      <trkpt lat="45.72051" lon="5.76817">
        <ele>226</ele>
        <time>2018-09-02T11:36:44Z</time>
      </trkpt>
      <trkpt lat="45.72049" lon="5.76824">
        <ele>226</ele>
        <time>2018-09-02T11:37:00Z</time>
      </trkpt>
      <trkpt lat="45.72045" lon="5.76831">
        <ele>226</ele>
        <time>2018-09-02T11:37:00Z</time>
      </trkpt>
      <trkpt lat="45.72042" lon="5.76836">
        <ele>226</ele>
        <time>2018-09-02T11:37:00Z</time>
      </trkpt>
      <trkpt lat="45.72042" lon="5.76839">
        <ele>226</ele>
        <time>2018-09-02T11:37:00Z</time>
      </trkpt>
      <trkpt lat="45.72042" lon="5.76847">
        <ele>235</ele>
        <time>2018-09-02T11:37:16Z</time>
      </trkpt>
      <trkpt lat="45.72039" lon="5.76856">
        <ele>235</ele>
        <time>2018-09-02T11:37:16Z</time>
      </trkpt>
      <trkpt lat="45.72035" lon="5.76863">
        <ele>235</ele>
        <time>2018-09-02T11:37:16Z</time>
      </trkpt>
      <trkpt lat="45.72033" lon="5.76872">
        <ele>235</ele>
        <time>2018-09-02T11:37:16Z</time>
      </trkpt>
      <trkpt lat="45.72027" lon="5.76882">
        <ele>230</ele>
        <time>2018-09-02T11:37:32Z</time>
      </trkpt>
      <trkpt lat="45.72023" lon="5.7689">
        <ele>230</ele>
        <time>2018-09-02T11:37:32Z</time>
      </trkpt>
      <trkpt lat="45.72022" lon="5.769">
        <ele>230</ele>
        <time>2018-09-02T11:37:32Z</time>
      </trkpt>
      <trkpt lat="45.7202" lon="5.7691">
        <ele>230</ele>
        <time>2018-09-02T11:37:32Z</time>
      </trkpt>
      <trkpt lat="45.72018" lon="5.76916">
        <ele>230</ele>
        <time>2018-09-02T11:37:48Z</time>
      </trkpt>
      <trkpt lat="45.72016" lon="5.76924">
        <ele>230</ele>
        <time>2018-09-02T11:37:48Z</time>
      </trkpt>
      <trkpt lat="45.72013" lon="5.76934">
        <ele>230</ele>
        <time>2018-09-02T11:37:48Z</time>
      </trkpt>
      <trkpt lat="45.7201" lon="5.76939">
        <ele>230</ele>
        <time>2018-09-02T11:37:48Z</time>
      </trkpt>
      <trkpt lat="45.72007" lon="5.76948">
        <ele>230</ele>
        <time>2018-09-02T11:38:04Z</time>
      </trkpt>
      <trkpt lat="45.72005" lon="5.76955">
        <ele>230</ele>
        <time>2018-09-02T11:38:04Z</time>
      </trkpt>
      <trkpt lat="45.71999" lon="5.76961">
        <ele>226</ele>
        <time>2018-09-02T11:38:04Z</time>
      </trkpt>
      <trkpt lat="45.71992" lon="5.76962">
        <ele>226</ele>
        <time>2018-09-02T11:38:04Z</time>
      </trkpt>
      <trkpt lat="45.71985" lon="5.7696">
        <ele>226</ele>
        <time>2018-09-02T11:38:20Z</time>
      </trkpt>
      <trkpt lat="45.71978" lon="5.76957">
        <ele>230</ele>
        <time>2018-09-02T11:38:20Z</time>
      </trkpt>
      <trkpt lat="45.71973" lon="5.76954">
        <ele>230</ele>
        <time>2018-09-02T11:38:20Z</time>
      </trkpt>
      <trkpt lat="45.71966" lon="5.76951">
        <ele>230</ele>
        <time>2018-09-02T11:38:20Z</time>
      </trkpt>
      <trkpt lat="45.71957" lon="5.76946">
        <ele>228</ele>
        <time>2018-09-02T11:38:36Z</time>
      </trkpt>
      <trkpt lat="45.71951" lon="5.76943">
        <ele>228</ele>
        <time>2018-09-02T11:38:36Z</time>
      </trkpt>
      <trkpt lat="45.71945" lon="5.7694">
        <ele>228</ele>
        <time>2018-09-02T11:38:36Z</time>
      </trkpt>
      <trkpt lat="45.71939" lon="5.76937">
        <ele>228</ele>
        <time>2018-09-02T11:38:36Z</time>
      </trkpt>
      <trkpt lat="45.71935" lon="5.76935">
        <ele>228</ele>
        <time>2018-09-02T11:38:52Z</time>
      </trkpt>
      <trkpt lat="45.7193" lon="5.76931">
        <ele>228</ele>
        <time>2018-09-02T11:38:52Z</time>
      </trkpt>
      <trkpt lat="45.71925" lon="5.76928">
        <ele>228</ele>
        <time>2018-09-02T11:38:52Z</time>
      </trkpt>
      <trkpt lat="45.71919" lon="5.76925">
        <ele>228</ele>
        <time>2018-09-02T11:38:52Z</time>
      </trkpt>
      <trkpt lat="45.71914" lon="5.76921">
        <ele>228</ele>
        <time>2018-09-02T11:39:08Z</time>
      </trkpt>
      <trkpt lat="45.71907" lon="5.76919">
        <ele>228</ele>
        <time>2018-09-02T11:39:08Z</time>
      </trkpt>
      <trkpt lat="45.71899" lon="5.76915">
        <ele>228</ele>
        <time>2018-09-02T11:39:08Z</time>
      </trkpt>
      <trkpt lat="45.71893" lon="5.76912">
        <ele>228</ele>
        <time>2018-09-02T11:39:08Z</time>
      </trkpt>
      <trkpt lat="45.71887" lon="5.7691">
        <ele>228</ele>
        <time>2018-09-02T11:39:24Z</time>
      </trkpt>
      <trkpt lat="45.71882" lon="5.76907">
        <ele>228</ele>
        <time>2018-09-02T11:39:24Z</time>
      </trkpt>
      <trkpt lat="45.71876" lon="5.76904">
        <ele>228</ele>
        <time>2018-09-02T11:39:24Z</time>
      </trkpt>
      <trkpt lat="45.71871" lon="5.76902">
        <ele>227</ele>
        <time>2018-09-02T11:39:24Z</time>
      </trkpt>
      <trkpt lat="45.71865" lon="5.76899">
        <ele>227</ele>
        <time>2018-09-02T11:39:40Z</time>
      </trkpt>
      <trkpt lat="45.7186" lon="5.76895">
        <ele>227</ele>
        <time>2018-09-02T11:39:40Z</time>
      </trkpt>
      <trkpt lat="45.71853" lon="5.76891">
        <ele>227</ele>
        <time>2018-09-02T11:39:40Z</time>
      </trkpt>
      <trkpt lat="45.71849" lon="5.76888">
        <ele>227</ele>
        <time>2018-09-02T11:39:40Z</time>
      </trkpt>
      <trkpt lat="45.71843" lon="5.76886">
        <ele>227</ele>
        <time>2018-09-02T11:39:56Z</time>
      </trkpt>
      <trkpt lat="45.71836" lon="5.76881">
        <ele>227</ele>
        <time>2018-09-02T11:39:56Z</time>
      </trkpt>
      <trkpt lat="45.71831" lon="5.76878">
        <ele>227</ele>
        <time>2018-09-02T11:39:56Z</time>
      </trkpt>
      <trkpt lat="45.71826" lon="5.76875">
        <ele>226</ele>
        <time>2018-09-02T11:39:56Z</time>
      </trkpt>
      <trkpt lat="45.71819" lon="5.7687">
        <ele>226</ele>
        <time>2018-09-02T11:40:12Z</time>
      </trkpt>
      <trkpt lat="45.71816" lon="5.76868">
        <ele>226</ele>
        <time>2018-09-02T11:40:12Z</time>
      </trkpt>
      <trkpt lat="45.71808" lon="5.76864">
        <ele>226</ele>
        <time>2018-09-02T11:40:12Z</time>
      </trkpt>
      <trkpt lat="45.71803" lon="5.7686">
        <ele>226</ele>
        <time>2018-09-02T11:40:12Z</time>
      </trkpt>
      <trkpt lat="45.71799" lon="5.76857">
        <ele>226</ele>
        <time>2018-09-02T11:40:28Z</time>
      </trkpt>
      <trkpt lat="45.71793" lon="5.76853">
        <ele>226</ele>
        <time>2018-09-02T11:40:28Z</time>
      </trkpt>
      <trkpt lat="45.71787" lon="5.76849">
        <ele>224</ele>
        <time>2018-09-02T11:40:28Z</time>
      </trkpt>
      <trkpt lat="45.71781" lon="5.76847">
        <ele>224</ele>
        <time>2018-09-02T11:40:28Z</time>
      </trkpt>
      <trkpt lat="45.71776" lon="5.76845">
        <ele>224</ele>
        <time>2018-09-02T11:40:44Z</time>
      </trkpt>
      <trkpt lat="45.71768" lon="5.76842">
        <ele>224</ele>
        <time>2018-09-02T11:40:44Z</time>
      </trkpt>
      <trkpt lat="45.71762" lon="5.76839">
        <ele>224</ele>
        <time>2018-09-02T11:40:44Z</time>
      </trkpt>
      <trkpt lat="45.71756" lon="5.76836">
        <ele>224</ele>
        <time>2018-09-02T11:40:44Z</time>
      </trkpt>
      <trkpt lat="45.7175" lon="5.76832">
        <ele>224</ele>
        <time>2018-09-02T11:41:00Z</time>
      </trkpt>
      <trkpt lat="45.71745" lon="5.7683">
        <ele>224</ele>
        <time>2018-09-02T11:41:00Z</time>
      </trkpt>
      <trkpt lat="45.7174" lon="5.76828">
        <ele>224</ele>
        <time>2018-09-02T11:41:00Z</time>
      </trkpt>
      <trkpt lat="45.71735" lon="5.76824">
        <ele>224</ele>
        <time>2018-09-02T11:41:00Z</time>
      </trkpt>
      <trkpt lat="45.71729" lon="5.76821">
        <ele>224</ele>
        <time>2018-09-02T11:41:16Z</time>
      </trkpt>
      <trkpt lat="45.71724" lon="5.76817">
        <ele>224</ele>
        <time>2018-09-02T11:41:16Z</time>
      </trkpt>
      <trkpt lat="45.71719" lon="5.76813">
        <ele>224</ele>
        <time>2018-09-02T11:41:16Z</time>
      </trkpt>
      <trkpt lat="45.71712" lon="5.76809">
        <ele>224</ele>
        <time>2018-09-02T11:41:16Z</time>
      </trkpt>
      <trkpt lat="45.71706" lon="5.76806">
        <ele>226</ele>
        <time>2018-09-02T11:41:32Z</time>
      </trkpt>
      <trkpt lat="45.717" lon="5.76804">
        <ele>226</ele>
        <time>2018-09-02T11:41:32Z</time>
      </trkpt>
      <trkpt lat="45.71696" lon="5.76802">
        <ele>226</ele>
        <time>2018-09-02T11:41:32Z</time>
      </trkpt>
      <trkpt lat="45.71689" lon="5.76799">
        <ele>226</ele>
        <time>2018-09-02T11:41:32Z</time>
      </trkpt>
      <trkpt lat="45.71685" lon="5.76796">
        <ele>226</ele>
        <time>2018-09-02T11:41:48Z</time>
      </trkpt>
      <trkpt lat="45.71679" lon="5.76791">
        <ele>224</ele>
        <time>2018-09-02T11:41:48Z</time>
      </trkpt>
      <trkpt lat="45.71674" lon="5.76785">
        <ele>224</ele>
        <time>2018-09-02T11:41:48Z</time>
      </trkpt>
      <trkpt lat="45.71668" lon="5.76777">
        <ele>224</ele>
        <time>2018-09-02T11:41:48Z</time>
      </trkpt>
      <trkpt lat="45.71663" lon="5.76771">
        <ele>224</ele>
        <time>2018-09-02T11:42:04Z</time>
      </trkpt>
      <trkpt lat="45.71659" lon="5.76767">
        <ele>224</ele>
        <time>2018-09-02T11:42:04Z</time>
      </trkpt>
      <trkpt lat="45.71653" lon="5.76762">
        <ele>224</ele>
        <time>2018-09-02T11:42:04Z</time>
      </trkpt>
      <trkpt lat="45.71648" lon="5.76758">
        <ele>224</ele>
        <time>2018-09-02T11:42:04Z</time>
      </trkpt>
      <trkpt lat="45.71641" lon="5.76756">
        <ele>224</ele>
        <time>2018-09-02T11:42:20Z</time>
      </trkpt>
      <trkpt lat="45.71633" lon="5.76754">
        <ele>224</ele>
        <time>2018-09-02T11:42:20Z</time>
      </trkpt>
      <trkpt lat="45.71626" lon="5.76755">
        <ele>224</ele>
        <time>2018-09-02T11:42:20Z</time>
      </trkpt>
      <trkpt lat="45.71618" lon="5.76758">
        <ele>226</ele>
        <time>2018-09-02T11:42:20Z</time>
      </trkpt>
      <trkpt lat="45.71614" lon="5.7676">
        <ele>226</ele>
        <time>2018-09-02T11:42:36Z</time>
      </trkpt>
      <trkpt lat="45.71608" lon="5.76763">
        <ele>226</ele>
        <time>2018-09-02T11:42:36Z</time>
      </trkpt>
      <trkpt lat="45.71603" lon="5.76766">
        <ele>226</ele>
        <time>2018-09-02T11:42:36Z</time>
      </trkpt>
      <trkpt lat="45.71597" lon="5.76769">
        <ele>226</ele>
        <time>2018-09-02T11:42:36Z</time>
      </trkpt>
      <trkpt lat="45.7159" lon="5.7677">
        <ele>226</ele>
        <time>2018-09-02T11:42:52Z</time>
      </trkpt>
      <trkpt lat="45.71585" lon="5.76769">
        <ele>226</ele>
        <time>2018-09-02T11:42:52Z</time>
      </trkpt>
      <trkpt lat="45.7158" lon="5.76765">
        <ele>226</ele>
        <time>2018-09-02T11:42:52Z</time>
      </trkpt>
      <trkpt lat="45.71577" lon="5.76759">
        <ele>226</ele>
        <time>2018-09-02T11:42:52Z</time>
      </trkpt>
      <trkpt lat="45.71575" lon="5.76751">
        <ele>226</ele>
        <time>2018-09-02T11:43:08Z</time>
      </trkpt>
      <trkpt lat="45.71574" lon="5.76745">
        <ele>226</ele>
        <time>2018-09-02T11:43:08Z</time>
      </trkpt>
      <trkpt lat="45.71572" lon="5.76741">
        <ele>226</ele>
        <time>2018-09-02T11:43:08Z</time>
      </trkpt>
      <trkpt lat="45.71568" lon="5.76735">
        <ele>226</ele>
        <time>2018-09-02T11:43:08Z</time>
      </trkpt>
      <trkpt lat="45.71566" lon="5.76728">
        <ele>226</ele>
        <time>2018-09-02T11:43:24Z</time>
      </trkpt>
      <trkpt lat="45.71562" lon="5.7672">
        <ele>226</ele>
        <time>2018-09-02T11:43:24Z</time>
      </trkpt>
      <trkpt lat="45.71559" lon="5.76713">
        <ele>226</ele>
        <time>2018-09-02T11:43:24Z</time>
      </trkpt>
      <trkpt lat="45.71556" lon="5.76703">
        <ele>225</ele>
        <time>2018-09-02T11:43:24Z</time>
      </trkpt>
      <trkpt lat="45.71549" lon="5.76691">
        <ele>225</ele>
        <time>2018-09-02T11:43:40Z</time>
      </trkpt>
      <trkpt lat="45.71543" lon="5.7668">
        <ele>225</ele>
        <time>2018-09-02T11:43:40Z</time>
      </trkpt>
      <trkpt lat="45.71539" lon="5.76668">
        <ele>227</ele>
        <time>2018-09-02T11:43:40Z</time>
      </trkpt>
      <trkpt lat="45.71533" lon="5.76658">
        <ele>227</ele>
        <time>2018-09-02T11:43:40Z</time>
      </trkpt>
      <trkpt lat="45.71529" lon="5.7665">
        <ele>227</ele>
        <time>2018-09-02T11:43:56Z</time>
      </trkpt>
      <trkpt lat="45.71524" lon="5.76648">
        <ele>227</ele>
        <time>2018-09-02T11:43:56Z</time>
      </trkpt>
      <trkpt lat="45.7152" lon="5.76641">
        <ele>227</ele>
        <time>2018-09-02T11:43:56Z</time>
      </trkpt>
      <trkpt lat="45.71516" lon="5.76634">
        <ele>227</ele>
        <time>2018-09-02T11:43:56Z</time>
      </trkpt>
      <trkpt lat="45.71513" lon="5.76629">
        <ele>227</ele>
        <time>2018-09-02T11:44:12Z</time>
      </trkpt>
      <trkpt lat="45.71509" lon="5.76624">
        <ele>226</ele>
        <time>2018-09-02T11:44:12Z</time>
      </trkpt>
      <trkpt lat="45.71504" lon="5.76619">
        <ele>226</ele>
        <time>2018-09-02T11:44:12Z</time>
      </trkpt>
      <trkpt lat="45.71497" lon="5.76614">
        <ele>226</ele>
        <time>2018-09-02T11:44:12Z</time>
      </trkpt>
      <trkpt lat="45.7149" lon="5.7661">
        <ele>226</ele>
        <time>2018-09-02T11:44:28Z</time>
      </trkpt>
      <trkpt lat="45.71485" lon="5.76605">
        <ele>226</ele>
        <time>2018-09-02T11:44:28Z</time>
      </trkpt>
      <trkpt lat="45.7148" lon="5.766">
        <ele>226</ele>
        <time>2018-09-02T11:44:28Z</time>
      </trkpt>
      <trkpt lat="45.71472" lon="5.76594">
        <ele>226</ele>
        <time>2018-09-02T11:44:28Z</time>
      </trkpt>
      <trkpt lat="45.71465" lon="5.76588">
        <ele>226</ele>
        <time>2018-09-02T11:44:44Z</time>
      </trkpt>
      <trkpt lat="45.71458" lon="5.76584">
        <ele>226</ele>
        <time>2018-09-02T11:44:44Z</time>
      </trkpt>
      <trkpt lat="45.71452" lon="5.76579">
        <ele>225</ele>
        <time>2018-09-02T11:44:44Z</time>
      </trkpt>
      <trkpt lat="45.71447" lon="5.76576">
        <ele>225</ele>
        <time>2018-09-02T11:44:44Z</time>
      </trkpt>
      <trkpt lat="45.71444" lon="5.76574">
        <ele>225</ele>
        <time>2018-09-02T11:45:00Z</time>
      </trkpt>
      <trkpt lat="45.71438" lon="5.7657">
        <ele>225</ele>
        <time>2018-09-02T11:45:00Z</time>
      </trkpt>
      <trkpt lat="45.71435" lon="5.76565">
        <ele>225</ele>
        <time>2018-09-02T11:45:00Z</time>
      </trkpt>
      <trkpt lat="45.71425" lon="5.76559">
        <ele>225</ele>
        <time>2018-09-02T11:45:00Z</time>
      </trkpt>
      <trkpt lat="45.71419" lon="5.76554">
        <ele>225</ele>
        <time>2018-09-02T11:45:16Z</time>
      </trkpt>
      <trkpt lat="45.71415" lon="5.76552">
        <ele>225</ele>
        <time>2018-09-02T11:45:16Z</time>
      </trkpt>
      <trkpt lat="45.71412" lon="5.76549">
        <ele>225</ele>
        <time>2018-09-02T11:45:16Z</time>
      </trkpt>
      <trkpt lat="45.71409" lon="5.76546">
        <ele>225</ele>
        <time>2018-09-02T11:45:16Z</time>
      </trkpt>
      <trkpt lat="45.71402" lon="5.76541">
        <ele>224</ele>
        <time>2018-09-02T11:45:32Z</time>
      </trkpt>
      <trkpt lat="45.71392" lon="5.76536">
        <ele>224</ele>
        <time>2018-09-02T11:45:32Z</time>
      </trkpt>
      <trkpt lat="45.71382" lon="5.7653">
        <ele>224</ele>
        <time>2018-09-02T11:45:32Z</time>
      </trkpt>
      <trkpt lat="45.71375" lon="5.76526">
        <ele>224</ele>
        <time>2018-09-02T11:45:32Z</time>
      </trkpt>
      <trkpt lat="45.7137" lon="5.76523">
        <ele>225</ele>
        <time>2018-09-02T11:45:48Z</time>
      </trkpt>
      <trkpt lat="45.71362" lon="5.76518">
        <ele>225</ele>
        <time>2018-09-02T11:45:48Z</time>
      </trkpt>
      <trkpt lat="45.71355" lon="5.76514">
        <ele>225</ele>
        <time>2018-09-02T11:45:48Z</time>
      </trkpt>
      <trkpt lat="45.71348" lon="5.76511">
        <ele>225</ele>
        <time>2018-09-02T11:45:48Z</time>
      </trkpt>
      <trkpt lat="45.71343" lon="5.76509">
        <ele>225</ele>
        <time>2018-09-02T11:46:04Z</time>
      </trkpt>
      <trkpt lat="45.71337" lon="5.76507">
        <ele>225</ele>
        <time>2018-09-02T11:46:04Z</time>
      </trkpt>
      <trkpt lat="45.7133" lon="5.76505">
        <ele>225</ele>
        <time>2018-09-02T11:46:04Z</time>
      </trkpt>
      <trkpt lat="45.71324" lon="5.76503">
        <ele>225</ele>
        <time>2018-09-02T11:46:04Z</time>
      </trkpt>
      <trkpt lat="45.71317" lon="5.76502">
        <ele>225</ele>
        <time>2018-09-02T11:46:20Z</time>
      </trkpt>
      <trkpt lat="45.71312" lon="5.765">
        <ele>225</ele>
        <time>2018-09-02T11:46:20Z</time>
      </trkpt>
      <trkpt lat="45.71308" lon="5.76497">
        <ele>225</ele>
        <time>2018-09-02T11:46:20Z</time>
      </trkpt>
      <trkpt lat="45.71306" lon="5.76496">
        <ele>225</ele>
        <time>2018-09-02T11:46:20Z</time>
      </trkpt>
      <trkpt lat="45.71302" lon="5.76493">
        <ele>225</ele>
        <time>2018-09-02T11:46:36Z</time>
      </trkpt>
      <trkpt lat="45.71298" lon="5.76493">
        <ele>225</ele>
        <time>2018-09-02T11:46:36Z</time>
      </trkpt>
      <trkpt lat="45.71293" lon="5.76491">
        <ele>225</ele>
        <time>2018-09-02T11:46:36Z</time>
      </trkpt>
      <trkpt lat="45.71288" lon="5.7649">
        <ele>224</ele>
        <time>2018-09-02T11:46:36Z</time>
      </trkpt>
      <trkpt lat="45.71283" lon="5.76488">
        <ele>224</ele>
        <time>2018-09-02T11:46:52Z</time>
      </trkpt>
      <trkpt lat="45.71277" lon="5.76484">
        <ele>224</ele>
        <time>2018-09-02T11:46:52Z</time>
      </trkpt>
      <trkpt lat="45.71271" lon="5.76481">
        <ele>224</ele>
        <time>2018-09-02T11:46:52Z</time>
      </trkpt>
      <trkpt lat="45.71263" lon="5.76475">
        <ele>224</ele>
        <time>2018-09-02T11:46:52Z</time>
      </trkpt>
      <trkpt lat="45.71259" lon="5.76473">
        <ele>224</ele>
        <time>2018-09-02T11:47:08Z</time>
      </trkpt>
      <trkpt lat="45.71255" lon="5.76468">
        <ele>224</ele>
        <time>2018-09-02T11:47:08Z</time>
      </trkpt>
      <trkpt lat="45.71241" lon="5.76462">
        <ele>224</ele>
        <time>2018-09-02T11:47:08Z</time>
      </trkpt>
      <trkpt lat="45.71233" lon="5.76456">
        <ele>224</ele>
        <time>2018-09-02T11:47:08Z</time>
      </trkpt>
      <trkpt lat="45.71229" lon="5.76455">
        <ele>224</ele>
        <time>2018-09-02T11:47:24Z</time>
      </trkpt>
      <trkpt lat="45.71222" lon="5.76451">
        <ele>224</ele>
        <time>2018-09-02T11:47:24Z</time>
      </trkpt>
      <trkpt lat="45.7122" lon="5.76449">
        <ele>224</ele>
        <time>2018-09-02T11:47:24Z</time>
      </trkpt>
      <trkpt lat="45.71219" lon="5.76446">
        <ele>224</ele>
        <time>2018-09-02T11:47:24Z</time>
      </trkpt>
      <trkpt lat="45.71213" lon="5.76443">
        <ele>224</ele>
        <time>2018-09-02T11:47:40Z</time>
      </trkpt>
      <trkpt lat="45.71209" lon="5.76439">
        <ele>224</ele>
        <time>2018-09-02T11:47:40Z</time>
      </trkpt>
      <trkpt lat="45.71203" lon="5.76434">
        <ele>223</ele>
        <time>2018-09-02T11:47:40Z</time>
      </trkpt>
      <trkpt lat="45.71189" lon="5.76425">
        <ele>223</ele>
        <time>2018-09-02T11:47:40Z</time>
      </trkpt>
      <trkpt lat="45.71181" lon="5.7642">
        <ele>223</ele>
        <time>2018-09-02T11:47:56Z</time>
      </trkpt>
      <trkpt lat="45.71174" lon="5.76414">
        <ele>223</ele>
        <time>2018-09-02T11:47:56Z</time>
      </trkpt>
      <trkpt lat="45.7117" lon="5.76411">
        <ele>223</ele>
        <time>2018-09-02T11:47:56Z</time>
      </trkpt>
      <trkpt lat="45.71166" lon="5.76408">
        <ele>223</ele>
        <time>2018-09-02T11:47:56Z</time>
      </trkpt>
      <trkpt lat="45.71161" lon="5.76403">
        <ele>223</ele>
        <time>2018-09-02T11:48:12Z</time>
      </trkpt>
      <trkpt lat="45.71156" lon="5.76398">
        <ele>223</ele>
        <time>2018-09-02T11:48:12Z</time>
      </trkpt>
      <trkpt lat="45.7115" lon="5.76392">
        <ele>223</ele>
        <time>2018-09-02T11:48:12Z</time>
      </trkpt>
      <trkpt lat="45.71145" lon="5.7639">
        <ele>223</ele>
        <time>2018-09-02T11:48:12Z</time>
      </trkpt>
      <trkpt lat="45.71142" lon="5.76387">
        <ele>223</ele>
        <time>2018-09-02T11:48:28Z</time>
      </trkpt>
      <trkpt lat="45.71139" lon="5.76381">
        <ele>223</ele>
        <time>2018-09-02T11:48:28Z</time>
      </trkpt>
      <trkpt lat="45.71133" lon="5.76374">
        <ele>224</ele>
        <time>2018-09-02T11:48:28Z</time>
      </trkpt>
      <trkpt lat="45.71128" lon="5.76371">
        <ele>224</ele>
        <time>2018-09-02T11:48:28Z</time>
      </trkpt>
      <trkpt lat="45.71123" lon="5.76366">
        <ele>226</ele>
        <time>2018-09-02T11:48:44Z</time>
      </trkpt>
      <trkpt lat="45.71116" lon="5.76361">
        <ele>226</ele>
        <time>2018-09-02T11:48:44Z</time>
      </trkpt>
      <trkpt lat="45.7111" lon="5.76356">
        <ele>226</ele>
        <time>2018-09-02T11:48:44Z</time>
      </trkpt>
      <trkpt lat="45.71107" lon="5.76352">
        <ele>226</ele>
        <time>2018-09-02T11:48:44Z</time>
      </trkpt>
      <trkpt lat="45.71104" lon="5.7635">
        <ele>226</ele>
        <time>2018-09-02T11:49:00Z</time>
      </trkpt>
      <trkpt lat="45.71098" lon="5.76347">
        <ele>226</ele>
        <time>2018-09-02T11:49:00Z</time>
      </trkpt>
      <trkpt lat="45.71091" lon="5.76344">
        <ele>226</ele>
        <time>2018-09-02T11:49:00Z</time>
      </trkpt>
      <trkpt lat="45.71087" lon="5.76342">
        <ele>226</ele>
        <time>2018-09-02T11:49:00Z</time>
      </trkpt>
      <trkpt lat="45.71083" lon="5.76338">
        <ele>226</ele>
        <time>2018-09-02T11:49:16Z</time>
      </trkpt>
      <trkpt lat="45.71078" lon="5.76331">
        <ele>226</ele>
        <time>2018-09-02T11:49:16Z</time>
      </trkpt>
      <trkpt lat="45.71071" lon="5.76326">
        <ele>226</ele>
        <time>2018-09-02T11:49:16Z</time>
      </trkpt>
      <trkpt lat="45.71064" lon="5.76322">
        <ele>226</ele>
        <time>2018-09-02T11:49:16Z</time>
      </trkpt>
      <trkpt lat="45.71057" lon="5.76317">
        <ele>226</ele>
        <time>2018-09-02T11:49:32Z</time>
      </trkpt>
      <trkpt lat="45.71052" lon="5.76313">
        <ele>226</ele>
        <time>2018-09-02T11:49:32Z</time>
      </trkpt>
      <trkpt lat="45.71046" lon="5.76305">
        <ele>226</ele>
        <time>2018-09-02T11:49:32Z</time>
      </trkpt>
      <trkpt lat="45.71042" lon="5.763">
        <ele>226</ele>
        <time>2018-09-02T11:49:32Z</time>
      </trkpt>
      <trkpt lat="45.71036" lon="5.76294">
        <ele>228</ele>
        <time>2018-09-02T11:49:48Z</time>
      </trkpt>
      <trkpt lat="45.71032" lon="5.76289">
        <ele>227</ele>
        <time>2018-09-02T11:49:48Z</time>
      </trkpt>
      <trkpt lat="45.71027" lon="5.76282">
        <ele>227</ele>
        <time>2018-09-02T11:49:48Z</time>
      </trkpt>
      <trkpt lat="45.71021" lon="5.76274">
        <ele>227</ele>
        <time>2018-09-02T11:49:48Z</time>
      </trkpt>
      <trkpt lat="45.71018" lon="5.7627">
        <ele>227</ele>
        <time>2018-09-02T11:50:04Z</time>
      </trkpt>
      <trkpt lat="45.71014" lon="5.76265">
        <ele>227</ele>
        <time>2018-09-02T11:50:04Z</time>
      </trkpt>
      <trkpt lat="45.71009" lon="5.76259">
        <ele>227</ele>
        <time>2018-09-02T11:50:04Z</time>
      </trkpt>
      <trkpt lat="45.71007" lon="5.76256">
        <ele>227</ele>
        <time>2018-09-02T11:50:04Z</time>
      </trkpt>
      <trkpt lat="45.71" lon="5.7625">
        <ele>227</ele>
        <time>2018-09-02T11:51:12Z</time>
      </trkpt>
      <trkpt lat="45.70996" lon="5.76255">
        <ele>227</ele>
        <time>2018-09-02T11:51:12Z</time>
      </trkpt>
      <trkpt lat="45.70992" lon="5.76257">
        <ele>227</ele>
        <time>2018-09-02T11:51:12Z</time>
      </trkpt>
      <trkpt lat="45.70978" lon="5.76252">
        <ele>227</ele>
        <time>2018-09-02T11:51:12Z</time>
      </trkpt>
      <trkpt lat="45.70974" lon="5.76247">
        <ele>227</ele>
        <time>2018-09-02T11:51:12Z</time>
      </trkpt>
      <trkpt lat="45.7097" lon="5.7624">
        <ele>227</ele>
        <time>2018-09-02T11:51:28Z</time>
      </trkpt>
      <trkpt lat="45.70965" lon="5.76234">
        <ele>227</ele>
        <time>2018-09-02T11:51:28Z</time>
      </trkpt>
      <trkpt lat="45.70959" lon="5.76225">
        <ele>227</ele>
        <time>2018-09-02T11:51:28Z</time>
      </trkpt>
      <trkpt lat="45.70956" lon="5.7622">
        <ele>226</ele>
        <time>2018-09-02T11:51:28Z</time>
      </trkpt>
      <trkpt lat="45.70952" lon="5.76214">
        <ele>226</ele>
        <time>2018-09-02T11:51:44Z</time>
      </trkpt>
      <trkpt lat="45.70948" lon="5.76207">
        <ele>226</ele>
        <time>2018-09-02T11:51:44Z</time>
      </trkpt>
      <trkpt lat="45.70944" lon="5.762">
        <ele>226</ele>
        <time>2018-09-02T11:51:44Z</time>
      </trkpt>
      <trkpt lat="45.70939" lon="5.76194">
        <ele>226</ele>
        <time>2018-09-02T11:51:44Z</time>
      </trkpt>
      <trkpt lat="45.70935" lon="5.76188">
        <ele>226</ele>
        <time>2018-09-02T11:52:00Z</time>
      </trkpt>
      <trkpt lat="45.7093" lon="5.7618">
        <ele>226</ele>
        <time>2018-09-02T11:52:00Z</time>
      </trkpt>
      <trkpt lat="45.70924" lon="5.76175">
        <ele>226</ele>
        <time>2018-09-02T11:52:00Z</time>
      </trkpt>
      <trkpt lat="45.7092" lon="5.76171">
        <ele>226</ele>
        <time>2018-09-02T11:52:00Z</time>
      </trkpt>
      <trkpt lat="45.70915" lon="5.76167">
        <ele>226</ele>
        <time>2018-09-02T11:52:16Z</time>
      </trkpt>
      <trkpt lat="45.7091" lon="5.76164">
        <ele>226</ele>
        <time>2018-09-02T11:52:16Z</time>
      </trkpt>
      <trkpt lat="45.70904" lon="5.76161">
        <ele>226</ele>
        <time>2018-09-02T11:52:16Z</time>
      </trkpt>
      <trkpt lat="45.709" lon="5.76159">
        <ele>226</ele>
        <time>2018-09-02T11:52:16Z</time>
      </trkpt>
      <trkpt lat="45.70895" lon="5.76158">
        <ele>226</ele>
        <time>2018-09-02T11:52:32Z</time>
      </trkpt>
      <trkpt lat="45.70891" lon="5.76158">
        <ele>226</ele>
        <time>2018-09-02T11:52:32Z</time>
      </trkpt>
      <trkpt lat="45.70884" lon="5.76158">
        <ele>226</ele>
        <time>2018-09-02T11:52:32Z</time>
      </trkpt>
      <trkpt lat="45.70878" lon="5.76158">
        <ele>226</ele>
        <time>2018-09-02T11:52:32Z</time>
      </trkpt>
      <trkpt lat="45.70874" lon="5.76159">
        <ele>227</ele>
        <time>2018-09-02T11:52:48Z</time>
      </trkpt>
      <trkpt lat="45.70868" lon="5.76158">
        <ele>227</ele>
        <time>2018-09-02T11:52:48Z</time>
      </trkpt>
      <trkpt lat="45.70861" lon="5.76158">
        <ele>227</ele>
        <time>2018-09-02T11:52:48Z</time>
      </trkpt>
      <trkpt lat="45.70854" lon="5.76161">
        <ele>227</ele>
        <time>2018-09-02T11:52:48Z</time>
      </trkpt>
      <trkpt lat="45.7085" lon="5.76162">
        <ele>227</ele>
        <time>2018-09-02T11:53:04Z</time>
      </trkpt>
      <trkpt lat="45.70841" lon="5.76162">
        <ele>227</ele>
        <time>2018-09-02T11:53:04Z</time>
      </trkpt>
      <trkpt lat="45.70835" lon="5.76163">
        <ele>227</ele>
        <time>2018-09-02T11:53:04Z</time>
      </trkpt>
      <trkpt lat="45.70831" lon="5.76164">
        <ele>227</ele>
        <time>2018-09-02T11:53:04Z</time>
      </trkpt>
      <trkpt lat="45.70826" lon="5.76163">
        <ele>227</ele>
        <time>2018-09-02T11:53:20Z</time>
      </trkpt>
      <trkpt lat="45.70819" lon="5.76162">
        <ele>227</ele>
        <time>2018-09-02T11:53:20Z</time>
      </trkpt>
      <trkpt lat="45.70811" lon="5.76161">
        <ele>227</ele>
        <time>2018-09-02T11:53:20Z</time>
      </trkpt>
      <trkpt lat="45.70807" lon="5.76158">
        <ele>227</ele>
        <time>2018-09-02T11:53:20Z</time>
      </trkpt>
      <trkpt lat="45.70798" lon="5.76155">
        <ele>227</ele>
        <time>2018-09-02T11:53:36Z</time>
      </trkpt>
      <trkpt lat="45.70791" lon="5.76153">
        <ele>227</ele>
        <time>2018-09-02T11:53:36Z</time>
      </trkpt>
      <trkpt lat="45.70786" lon="5.76152">
        <ele>227</ele>
        <time>2018-09-02T11:53:36Z</time>
      </trkpt>
      <trkpt lat="45.70782" lon="5.76152">
        <ele>227</ele>
        <time>2018-09-02T11:53:36Z</time>
      </trkpt>
      <trkpt lat="45.70776" lon="5.7615">
        <ele>227</ele>
        <time>2018-09-02T11:53:52Z</time>
      </trkpt>
      <trkpt lat="45.70769" lon="5.76145">
        <ele>227</ele>
        <time>2018-09-02T11:53:52Z</time>
      </trkpt>
      <trkpt lat="45.70763" lon="5.76139">
        <ele>227</ele>
        <time>2018-09-02T11:53:52Z</time>
      </trkpt>
      <trkpt lat="45.70759" lon="5.76134">
        <ele>227</ele>
        <time>2018-09-02T11:53:52Z</time>
      </trkpt>
      <trkpt lat="45.70752" lon="5.76127">
        <ele>227</ele>
        <time>2018-09-02T11:54:08Z</time>
      </trkpt>
      <trkpt lat="45.70746" lon="5.76122">
        <ele>226</ele>
        <time>2018-09-02T11:54:08Z</time>
      </trkpt>
      <trkpt lat="45.70739" lon="5.76118">
        <ele>226</ele>
        <time>2018-09-02T11:54:08Z</time>
      </trkpt>
      <trkpt lat="45.70732" lon="5.76116">
        <ele>226</ele>
        <time>2018-09-02T11:54:08Z</time>
      </trkpt>
      <trkpt lat="45.70726" lon="5.76113">
        <ele>226</ele>
        <time>2018-09-02T11:54:24Z</time>
      </trkpt>
      <trkpt lat="45.70721" lon="5.7611">
        <ele>226</ele>
        <time>2018-09-02T11:54:24Z</time>
      </trkpt>
      <trkpt lat="45.70715" lon="5.76106">
        <ele>226</ele>
        <time>2018-09-02T11:54:24Z</time>
      </trkpt>
      <trkpt lat="45.7071" lon="5.76101">
        <ele>226</ele>
        <time>2018-09-02T11:54:24Z</time>
      </trkpt>
      <trkpt lat="45.70703" lon="5.76096">
        <ele>226</ele>
        <time>2018-09-02T11:54:40Z</time>
      </trkpt>
      <trkpt lat="45.70697" lon="5.76093">
        <ele>226</ele>
        <time>2018-09-02T11:54:40Z</time>
      </trkpt>
      <trkpt lat="45.70691" lon="5.76092">
        <ele>226</ele>
        <time>2018-09-02T11:54:40Z</time>
      </trkpt>
      <trkpt lat="45.70688" lon="5.76086">
        <ele>226</ele>
        <time>2018-09-02T11:54:40Z</time>
      </trkpt>
      <trkpt lat="45.70685" lon="5.76079">
        <ele>226</ele>
        <time>2018-09-02T11:54:56Z</time>
      </trkpt>
      <trkpt lat="45.70684" lon="5.76075">
        <ele>226</ele>
        <time>2018-09-02T11:54:56Z</time>
      </trkpt>
      <trkpt lat="45.70686" lon="5.7607">
        <ele>226</ele>
        <time>2018-09-02T11:54:56Z</time>
      </trkpt>
      <trkpt lat="45.70687" lon="5.76064">
        <ele>226</ele>
        <time>2018-09-02T11:54:56Z</time>
      </trkpt>
      <trkpt lat="45.70688" lon="5.7606">
        <ele>226</ele>
        <time>2018-09-02T11:55:12Z</time>
      </trkpt>
      <trkpt lat="45.70685" lon="5.76054">
        <ele>226</ele>
        <time>2018-09-02T11:55:12Z</time>
      </trkpt>
      <trkpt lat="45.70678" lon="5.76045">
        <ele>226</ele>
        <time>2018-09-02T11:55:12Z</time>
      </trkpt>
      <trkpt lat="45.70674" lon="5.7604">
        <ele>226</ele>
        <time>2018-09-02T11:55:12Z</time>
      </trkpt>
      <trkpt lat="45.70671" lon="5.76035">
        <ele>226</ele>
        <time>2018-09-02T11:55:28Z</time>
      </trkpt>
      <trkpt lat="45.70668" lon="5.76028">
        <ele>226</ele>
        <time>2018-09-02T11:55:28Z</time>
      </trkpt>
      <trkpt lat="45.70665" lon="5.76022">
        <ele>226</ele>
        <time>2018-09-02T11:55:28Z</time>
      </trkpt>
      <trkpt lat="45.7066" lon="5.76018">
        <ele>226</ele>
        <time>2018-09-02T11:55:28Z</time>
      </trkpt>
      <trkpt lat="45.70657" lon="5.76013">
        <ele>226</ele>
        <time>2018-09-02T11:55:44Z</time>
      </trkpt>
      <trkpt lat="45.70654" lon="5.76009">
        <ele>226</ele>
        <time>2018-09-02T11:55:44Z</time>
      </trkpt>
      <trkpt lat="45.70652" lon="5.76004">
        <ele>226</ele>
        <time>2018-09-02T11:55:44Z</time>
      </trkpt>
      <trkpt lat="45.7065" lon="5.75997">
        <ele>226</ele>
        <time>2018-09-02T11:55:44Z</time>
      </trkpt>
      <trkpt lat="45.70649" lon="5.75991">
        <ele>226</ele>
        <time>2018-09-02T11:56:00Z</time>
      </trkpt>
      <trkpt lat="45.70647" lon="5.75984">
        <ele>226</ele>
        <time>2018-09-02T11:56:00Z</time>
      </trkpt>
      <trkpt lat="45.70645" lon="5.75974">
        <ele>226</ele>
        <time>2018-09-02T11:56:00Z</time>
      </trkpt>
      <trkpt lat="45.70644" lon="5.75964">
        <ele>226</ele>
        <time>2018-09-02T11:56:00Z</time>
      </trkpt>
      <trkpt lat="45.70643" lon="5.75957">
        <ele>224</ele>
        <time>2018-09-02T11:56:16Z</time>
      </trkpt>
      <trkpt lat="45.70641" lon="5.75951">
        <ele>224</ele>
        <time>2018-09-02T11:56:16Z</time>
      </trkpt>
      <trkpt lat="45.70639" lon="5.75943">
        <ele>224</ele>
        <time>2018-09-02T11:56:16Z</time>
      </trkpt>
      <trkpt lat="45.70639" lon="5.75937">
        <ele>224</ele>
        <time>2018-09-02T11:56:16Z</time>
      </trkpt>
      <trkpt lat="45.70636" lon="5.7593">
        <ele>224</ele>
        <time>2018-09-02T11:56:32Z</time>
      </trkpt>
      <trkpt lat="45.70635" lon="5.75923">
        <ele>224</ele>
        <time>2018-09-02T11:56:32Z</time>
      </trkpt>
      <trkpt lat="45.70633" lon="5.75917">
        <ele>224</ele>
        <time>2018-09-02T11:56:32Z</time>
      </trkpt>
      <trkpt lat="45.70632" lon="5.75908">
        <ele>224</ele>
        <time>2018-09-02T11:56:32Z</time>
      </trkpt>
      <trkpt lat="45.70632" lon="5.75901">
        <ele>224</ele>
        <time>2018-09-02T11:56:48Z</time>
      </trkpt>
      <trkpt lat="45.70631" lon="5.75889">
        <ele>224</ele>
        <time>2018-09-02T11:56:48Z</time>
      </trkpt>
      <trkpt lat="45.70629" lon="5.75873">
        <ele>224</ele>
        <time>2018-09-02T11:56:48Z</time>
      </trkpt>
      <trkpt lat="45.70628" lon="5.75865">
        <ele>224</ele>
        <time>2018-09-02T11:56:48Z</time>
      </trkpt>
      <trkpt lat="45.70628" lon="5.75854">
        <ele>224</ele>
        <time>2018-09-02T11:57:04Z</time>
      </trkpt>
      <trkpt lat="45.70628" lon="5.75841">
        <ele>224</ele>
        <time>2018-09-02T11:57:04Z</time>
      </trkpt>
      <trkpt lat="45.70627" lon="5.7583">
        <ele>224</ele>
        <time>2018-09-02T11:57:04Z</time>
      </trkpt>
      <trkpt lat="45.70626" lon="5.75821">
        <ele>224</ele>
        <time>2018-09-02T11:57:04Z</time>
      </trkpt>
      <trkpt lat="45.70624" lon="5.75813">
        <ele>227</ele>
        <time>2018-09-02T11:57:20Z</time>
      </trkpt>
      <trkpt lat="45.70621" lon="5.75804">
        <ele>227</ele>
        <time>2018-09-02T11:57:20Z</time>
      </trkpt>
      <trkpt lat="45.7062" lon="5.75797">
        <ele>227</ele>
        <time>2018-09-02T11:57:20Z</time>
      </trkpt>
      <trkpt lat="45.70617" lon="5.75791">
        <ele>226</ele>
        <time>2018-09-02T11:57:20Z</time>
      </trkpt>
      <trkpt lat="45.70616" lon="5.75782">
        <ele>226</ele>
        <time>2018-09-02T11:57:36Z</time>
      </trkpt>
      <trkpt lat="45.70615" lon="5.75771">
        <ele>226</ele>
        <time>2018-09-02T11:57:36Z</time>
      </trkpt>
      <trkpt lat="45.70613" lon="5.75766">
        <ele>226</ele>
        <time>2018-09-02T11:57:36Z</time>
      </trkpt>
      <trkpt lat="45.70612" lon="5.75756">
        <ele>226</ele>
        <time>2018-09-02T11:57:36Z</time>
      </trkpt>
      <trkpt lat="45.70611" lon="5.75745">
        <ele>226</ele>
        <time>2018-09-02T11:57:52Z</time>
      </trkpt>
      <trkpt lat="45.7061" lon="5.75735">
        <ele>226</ele>
        <time>2018-09-02T11:57:52Z</time>
      </trkpt>
      <trkpt lat="45.70611" lon="5.75728">
        <ele>226</ele>
        <time>2018-09-02T11:57:52Z</time>
      </trkpt>
      <trkpt lat="45.70612" lon="5.75725">
        <ele>226</ele>
        <time>2018-09-02T11:57:52Z</time>
      </trkpt>
      <trkpt lat="45.70611" lon="5.75711">
        <ele>226</ele>
        <time>2018-09-02T11:58:08Z</time>
      </trkpt>
      <trkpt lat="45.70609" lon="5.75697">
        <ele>227</ele>
        <time>2018-09-02T11:58:08Z</time>
      </trkpt>
      <trkpt lat="45.70608" lon="5.75686">
        <ele>227</ele>
        <time>2018-09-02T11:58:08Z</time>
      </trkpt>
      <trkpt lat="45.70607" lon="5.75675">
        <ele>227</ele>
        <time>2018-09-02T11:58:08Z</time>
      </trkpt>
      <trkpt lat="45.70606" lon="5.75668">
        <ele>227</ele>
        <time>2018-09-02T11:58:24Z</time>
      </trkpt>
      <trkpt lat="45.70604" lon="5.75658">
        <ele>227</ele>
        <time>2018-09-02T11:58:24Z</time>
      </trkpt>
      <trkpt lat="45.70604" lon="5.7565">
        <ele>227</ele>
        <time>2018-09-02T11:58:24Z</time>
      </trkpt>
      <trkpt lat="45.70605" lon="5.75649">
        <ele>227</ele>
        <time>2018-09-02T11:58:24Z</time>
      </trkpt>
      <trkpt lat="45.70605" lon="5.75646">
        <ele>227</ele>
        <time>2018-09-02T11:58:40Z</time>
      </trkpt>
      <trkpt lat="45.70607" lon="5.7564">
        <ele>227</ele>
        <time>2018-09-02T11:58:40Z</time>
      </trkpt>
      <trkpt lat="45.70611" lon="5.75632">
        <ele>227</ele>
        <time>2018-09-02T11:58:40Z</time>
      </trkpt>
      <trkpt lat="45.70615" lon="5.7562">
        <ele>228</ele>
        <time>2018-09-02T11:58:40Z</time>
      </trkpt>
      <trkpt lat="45.70617" lon="5.75612">
        <ele>228</ele>
        <time>2018-09-02T11:59:00Z</time>
      </trkpt>
      <trkpt lat="45.70617" lon="5.7561">
        <ele>228</ele>
        <time>2018-09-02T11:59:00Z</time>
      </trkpt>
      <trkpt lat="45.70617" lon="5.7561">
        <ele>228</ele>
        <time>2018-09-02T11:59:00Z</time>
      </trkpt>
      <trkpt lat="45.70619" lon="5.75606">
        <ele>228</ele>
        <time>2018-09-02T11:59:00Z</time>
      </trkpt>
      <trkpt lat="45.70621" lon="5.75599">
        <ele>228</ele>
        <time>2018-09-02T11:59:00Z</time>
      </trkpt>
      <trkpt lat="45.70621" lon="5.75592">
        <ele>228</ele>
        <time>2018-09-02T11:59:16Z</time>
      </trkpt>
      <trkpt lat="45.7062" lon="5.75585">
        <ele>228</ele>
        <time>2018-09-02T11:59:16Z</time>
      </trkpt>
      <trkpt lat="45.70618" lon="5.75582">
        <ele>228</ele>
        <time>2018-09-02T11:59:16Z</time>
      </trkpt>
      <trkpt lat="45.70616" lon="5.75577">
        <ele>228</ele>
        <time>2018-09-02T11:59:16Z</time>
      </trkpt>
      <trkpt lat="45.70611" lon="5.75572">
        <ele>228</ele>
        <time>2018-09-02T11:59:32Z</time>
      </trkpt>
      <trkpt lat="45.70607" lon="5.7557">
        <ele>228</ele>
        <time>2018-09-02T11:59:32Z</time>
      </trkpt>
      <trkpt lat="45.70604" lon="5.75566">
        <ele>228</ele>
        <time>2018-09-02T11:59:32Z</time>
      </trkpt>
      <trkpt lat="45.70606" lon="5.75559">
        <ele>228</ele>
        <time>2018-09-02T11:59:32Z</time>
      </trkpt>
      <trkpt lat="45.70607" lon="5.75554">
        <ele>228</ele>
        <time>2018-09-02T11:59:48Z</time>
      </trkpt>
      <trkpt lat="45.7061" lon="5.75546">
        <ele>228</ele>
        <time>2018-09-02T11:59:48Z</time>
      </trkpt>
      <trkpt lat="45.70611" lon="5.75539">
        <ele>229</ele>
        <time>2018-09-02T11:59:48Z</time>
      </trkpt>
      <trkpt lat="45.70614" lon="5.7553">
        <ele>229</ele>
        <time>2018-09-02T11:59:48Z</time>
      </trkpt>
      <trkpt lat="45.70617" lon="5.75515">
        <ele>229</ele>
        <time>2018-09-02T12:00:56Z</time>
      </trkpt>
      <trkpt lat="45.70617" lon="5.75515">
        <ele>229</ele>
        <time>2018-09-02T12:00:56Z</time>
      </trkpt>
      <trkpt lat="45.70617" lon="5.75515">
        <ele>229</ele>
        <time>2018-09-02T12:00:56Z</time>
      </trkpt>
      <trkpt lat="45.70617" lon="5.75514">
        <ele>229</ele>
        <time>2018-09-02T12:00:56Z</time>
      </trkpt>
      <trkpt lat="45.70616" lon="5.75513">
        <ele>229</ele>
        <time>2018-09-02T12:00:56Z</time>
      </trkpt>
      <trkpt lat="45.70619" lon="5.75507">
        <ele>229</ele>
        <time>2018-09-02T12:02:32Z</time>
      </trkpt>
      <trkpt lat="45.7062" lon="5.75507">
        <ele>229</ele>
        <time>2018-09-02T12:02:32Z</time>
      </trkpt>
      <trkpt lat="45.70621" lon="5.75506">
        <ele>229</ele>
        <time>2018-09-02T12:02:32Z</time>
      </trkpt>
      <trkpt lat="45.70623" lon="5.75505">
        <ele>229</ele>
        <time>2018-09-02T12:02:32Z</time>
      </trkpt>
      <trkpt lat="45.70627" lon="5.75503">
        <ele>224</ele>
        <time>2018-09-02T12:02:32Z</time>
      </trkpt>
      <trkpt lat="45.70632" lon="5.75497">
        <ele>224</ele>
        <time>2018-09-02T12:04:44Z</time>
      </trkpt>
      <trkpt lat="45.70636" lon="5.75496">
        <ele>224</ele>
        <time>2018-09-02T12:04:44Z</time>
      </trkpt>
      <trkpt lat="45.70637" lon="5.75496">
        <ele>224</ele>
        <time>2018-09-02T12:04:44Z</time>
      </trkpt>
      <trkpt lat="45.70638" lon="5.75495">
        <ele>224</ele>
        <time>2018-09-02T12:04:44Z</time>
      </trkpt>
      <trkpt lat="45.70638" lon="5.75495">
        <ele>224</ele>
        <time>2018-09-02T12:04:44Z</time>
      </trkpt>
      <trkpt lat="45.70631" lon="5.75494">
        <ele>224</ele>
        <time>2018-09-02T12:09:36Z</time>
      </trkpt>
      <trkpt lat="45.70631" lon="5.75494">
        <ele>224</ele>
        <time>2018-09-02T12:09:36Z</time>
      </trkpt>
      <trkpt lat="45.7063" lon="5.75494">
        <ele>224</ele>
        <time>2018-09-02T12:09:36Z</time>
      </trkpt>
      <trkpt lat="45.7063" lon="5.75495">
        <ele>224</ele>
        <time>2018-09-02T12:09:36Z</time>
      </trkpt>
      <trkpt lat="45.7063" lon="5.75496">
        <ele>224</ele>
        <time>2018-09-02T12:09:36Z</time>
      </trkpt>
      <trkpt lat="45.70629" lon="5.75495">
        <ele>224</ele>
        <time>2018-09-02T12:28:44Z</time>
      </trkpt>
      <trkpt lat="45.70629" lon="5.75495">
        <ele>224</ele>
        <time>2018-09-02T12:28:44Z</time>
      </trkpt>
      <trkpt lat="45.70632" lon="5.75494">
        <ele>224</ele>
        <time>2018-09-02T12:28:44Z</time>
      </trkpt>
      <trkpt lat="45.70634" lon="5.75493">
        <ele>224</ele>
        <time>2018-09-02T12:28:44Z</time>
      </trkpt>
      <trkpt lat="45.70639" lon="5.75489">
        <ele>224</ele>
        <time>2018-09-02T12:28:44Z</time>
      </trkpt>
      <trkpt lat="45.70646" lon="5.75485">
        <ele>224</ele>
        <time>2018-09-02T12:29:20Z</time>
      </trkpt>
      <trkpt lat="45.70648" lon="5.75488">
        <ele>224</ele>
        <time>2018-09-02T12:29:20Z</time>
      </trkpt>
      <trkpt lat="45.70651" lon="5.75489">
        <ele>224</ele>
        <time>2018-09-02T12:29:20Z</time>
      </trkpt>
      <trkpt lat="45.70653" lon="5.7549">
        <ele>224</ele>
        <time>2018-09-02T12:29:20Z</time>
      </trkpt>
      <trkpt lat="45.70654" lon="5.7549">
        <ele>224</ele>
        <time>2018-09-02T12:29:20Z</time>
      </trkpt>
      <trkpt lat="45.70651" lon="5.7549">
        <ele>224</ele>
        <time>2018-09-02T12:30:28Z</time>
      </trkpt>
      <trkpt lat="45.7065" lon="5.7549">
        <ele>224</ele>
        <time>2018-09-02T12:30:28Z</time>
      </trkpt>
      <trkpt lat="45.70648" lon="5.75492">
        <ele>224</ele>
        <time>2018-09-02T12:30:28Z</time>
      </trkpt>
      <trkpt lat="45.70646" lon="5.75493">
        <ele>224</ele>
        <time>2018-09-02T12:30:28Z</time>
      </trkpt>
      <trkpt lat="45.70644" lon="5.75494">
        <ele>224</ele>
        <time>2018-09-02T12:30:28Z</time>
      </trkpt>
      <trkpt lat="45.70638" lon="5.75497">
        <ele>224</ele>
        <time>2018-09-02T12:33:48Z</time>
      </trkpt>
      <trkpt lat="45.70637" lon="5.75497">
        <ele>224</ele>
        <time>2018-09-02T12:33:48Z</time>
      </trkpt>
      <trkpt lat="45.70636" lon="5.75496">
        <ele>224</ele>
        <time>2018-09-02T12:33:48Z</time>
      </trkpt>
      <trkpt lat="45.70634" lon="5.755">
        <ele>224</ele>
        <time>2018-09-02T12:33:48Z</time>
      </trkpt>
      <trkpt lat="45.70633" lon="5.75504">
        <ele>224</ele>
        <time>2018-09-02T12:33:48Z</time>
      </trkpt>
      <trkpt lat="45.70629" lon="5.75503">
        <ele>224</ele>
        <time>2018-09-02T12:38:40Z</time>
      </trkpt>
      <trkpt lat="45.70629" lon="5.75503">
        <ele>224</ele>
        <time>2018-09-02T12:38:40Z</time>
      </trkpt>
      <trkpt lat="45.70629" lon="5.75502">
        <ele>224</ele>
        <time>2018-09-02T12:38:40Z</time>
      </trkpt>
      <trkpt lat="45.7063" lon="5.75497">
        <ele>224</ele>
        <time>2018-09-02T12:38:40Z</time>
      </trkpt>
      <trkpt lat="45.70633" lon="5.75494">
        <ele>224</ele>
        <time>2018-09-02T12:38:40Z</time>
      </trkpt>
      <trkpt lat="45.70635" lon="5.75499">
        <ele>224</ele>
        <time>2018-09-02T12:50:56Z</time>
      </trkpt>
      <trkpt lat="45.70631" lon="5.75499">
        <ele>224</ele>
        <time>2018-09-02T12:50:56Z</time>
      </trkpt>
      <trkpt lat="45.70628" lon="5.75501">
        <ele>224</ele>
        <time>2018-09-02T12:50:56Z</time>
      </trkpt>
      <trkpt lat="45.70625" lon="5.75502">
        <ele>224</ele>
        <time>2018-09-02T12:50:56Z</time>
      </trkpt>
      <trkpt lat="45.70623" lon="5.75507">
        <ele>229</ele>
        <time>2018-09-02T12:50:56Z</time>
      </trkpt>
      <trkpt lat="45.7062" lon="5.75513">
        <ele>229</ele>
        <time>2018-09-02T12:51:12Z</time>
      </trkpt>
      <trkpt lat="45.70617" lon="5.75517">
        <ele>229</ele>
        <time>2018-09-02T12:51:12Z</time>
      </trkpt>
      <trkpt lat="45.70615" lon="5.75521">
        <ele>229</ele>
        <time>2018-09-02T12:51:12Z</time>
      </trkpt>
      <trkpt lat="45.70612" lon="5.75527">
        <ele>229</ele>
        <time>2018-09-02T12:51:12Z</time>
      </trkpt>
      <trkpt lat="45.70608" lon="5.75533">
        <ele>229</ele>
        <time>2018-09-02T12:51:28Z</time>
      </trkpt>
      <trkpt lat="45.70605" lon="5.75539">
        <ele>229</ele>
        <time>2018-09-02T12:51:28Z</time>
      </trkpt>
      <trkpt lat="45.70603" lon="5.75542">
        <ele>229</ele>
        <time>2018-09-02T12:51:28Z</time>
      </trkpt>
      <trkpt lat="45.70602" lon="5.75546">
        <ele>228</ele>
        <time>2018-09-02T12:51:28Z</time>
      </trkpt>
      <trkpt lat="45.70601" lon="5.7555">
        <ele>228</ele>
        <time>2018-09-02T12:51:44Z</time>
      </trkpt>
      <trkpt lat="45.70598" lon="5.75554">
        <ele>228</ele>
        <time>2018-09-02T12:51:44Z</time>
      </trkpt>
      <trkpt lat="45.70595" lon="5.75562">
        <ele>228</ele>
        <time>2018-09-02T12:51:44Z</time>
      </trkpt>
      <trkpt lat="45.70593" lon="5.75567">
        <ele>228</ele>
        <time>2018-09-02T12:51:44Z</time>
      </trkpt>
      <trkpt lat="45.70592" lon="5.75572">
        <ele>228</ele>
        <time>2018-09-02T12:52:00Z</time>
      </trkpt>
      <trkpt lat="45.70588" lon="5.75579">
        <ele>228</ele>
        <time>2018-09-02T12:52:00Z</time>
      </trkpt>
      <trkpt lat="45.70585" lon="5.75585">
        <ele>228</ele>
        <time>2018-09-02T12:52:00Z</time>
      </trkpt>
      <trkpt lat="45.70584" lon="5.75587">
        <ele>228</ele>
        <time>2018-09-02T12:52:00Z</time>
      </trkpt>
      <trkpt lat="45.70582" lon="5.75589">
        <ele>228</ele>
        <time>2018-09-02T12:52:28Z</time>
      </trkpt>
      <trkpt lat="45.70582" lon="5.75589">
        <ele>228</ele>
        <time>2018-09-02T12:52:28Z</time>
      </trkpt>
      <trkpt lat="45.70582" lon="5.75589">
        <ele>228</ele>
        <time>2018-09-02T12:52:28Z</time>
      </trkpt>
      <trkpt lat="45.70581" lon="5.7559">
        <ele>228</ele>
        <time>2018-09-02T12:52:28Z</time>
      </trkpt>
      <trkpt lat="45.70575" lon="5.756">
        <ele>228</ele>
        <time>2018-09-02T12:52:28Z</time>
      </trkpt>
      <trkpt lat="45.70563" lon="5.75606">
        <ele>228</ele>
        <time>2018-09-02T12:53:08Z</time>
      </trkpt>
      <trkpt lat="45.70563" lon="5.75606">
        <ele>228</ele>
        <time>2018-09-02T12:53:08Z</time>
      </trkpt>
      <trkpt lat="45.70563" lon="5.75605">
        <ele>228</ele>
        <time>2018-09-02T12:53:08Z</time>
      </trkpt>
      <trkpt lat="45.70562" lon="5.75604">
        <ele>228</ele>
        <time>2018-09-02T12:53:08Z</time>
      </trkpt>
      <trkpt lat="45.70562" lon="5.75601">
        <ele>228</ele>
        <time>2018-09-02T12:53:08Z</time>
      </trkpt>
      <trkpt lat="45.70558" lon="5.75592">
        <ele>228</ele>
        <time>2018-09-02T12:54:16Z</time>
      </trkpt>
      <trkpt lat="45.70559" lon="5.7559">
        <ele>228</ele>
        <time>2018-09-02T12:54:16Z</time>
      </trkpt>
      <trkpt lat="45.70558" lon="5.75588">
        <ele>228</ele>
        <time>2018-09-02T12:54:16Z</time>
      </trkpt>
      <trkpt lat="45.70557" lon="5.75588">
        <ele>228</ele>
        <time>2018-09-02T12:54:16Z</time>
      </trkpt>
      <trkpt lat="45.70557" lon="5.75584">
        <ele>228</ele>
        <time>2018-09-02T12:54:16Z</time>
      </trkpt>
      <trkpt lat="45.70556" lon="5.7558">
        <ele>228</ele>
        <time>2018-09-02T12:55:16Z</time>
      </trkpt>
      <trkpt lat="45.70557" lon="5.75586">
        <ele>228</ele>
        <time>2018-09-02T12:55:16Z</time>
      </trkpt>
      <trkpt lat="45.70559" lon="5.75594">
        <ele>228</ele>
        <time>2018-09-02T12:55:16Z</time>
      </trkpt>
      <trkpt lat="45.7056" lon="5.75602">
        <ele>228</ele>
        <time>2018-09-02T12:55:16Z</time>
      </trkpt>
      <trkpt lat="45.70561" lon="5.75609">
        <ele>228</ele>
        <time>2018-09-02T12:55:16Z</time>
      </trkpt>
      <trkpt lat="45.70561" lon="5.75617">
        <ele>228</ele>
        <time>2018-09-02T12:55:32Z</time>
      </trkpt>
      <trkpt lat="45.70561" lon="5.75625">
        <ele>228</ele>
        <time>2018-09-02T12:55:32Z</time>
      </trkpt>
      <trkpt lat="45.70558" lon="5.75632">
        <ele>227</ele>
        <time>2018-09-02T12:55:32Z</time>
      </trkpt>
      <trkpt lat="45.70556" lon="5.75637">
        <ele>227</ele>
        <time>2018-09-02T12:55:32Z</time>
      </trkpt>
      <trkpt lat="45.70551" lon="5.75646">
        <ele>227</ele>
        <time>2018-09-02T12:55:48Z</time>
      </trkpt>
      <trkpt lat="45.70548" lon="5.75653">
        <ele>227</ele>
        <time>2018-09-02T12:55:48Z</time>
      </trkpt>
      <trkpt lat="45.70544" lon="5.75659">
        <ele>227</ele>
        <time>2018-09-02T12:55:48Z</time>
      </trkpt>
      <trkpt lat="45.70542" lon="5.75665">
        <ele>227</ele>
        <time>2018-09-02T12:55:48Z</time>
      </trkpt>
      <trkpt lat="45.7054" lon="5.75672">
        <ele>229</ele>
        <time>2018-09-02T12:56:04Z</time>
      </trkpt>
      <trkpt lat="45.70536" lon="5.75678">
        <ele>229</ele>
        <time>2018-09-02T12:56:04Z</time>
      </trkpt>
      <trkpt lat="45.70533" lon="5.75685">
        <ele>229</ele>
        <time>2018-09-02T12:56:04Z</time>
      </trkpt>
      <trkpt lat="45.7053" lon="5.75691">
        <ele>229</ele>
        <time>2018-09-02T12:56:04Z</time>
      </trkpt>
      <trkpt lat="45.70527" lon="5.75696">
        <ele>229</ele>
        <time>2018-09-02T12:56:20Z</time>
      </trkpt>
      <trkpt lat="45.70523" lon="5.75701">
        <ele>229</ele>
        <time>2018-09-02T12:56:20Z</time>
      </trkpt>
      <trkpt lat="45.7052" lon="5.75705">
        <ele>229</ele>
        <time>2018-09-02T12:56:20Z</time>
      </trkpt>
      <trkpt lat="45.70514" lon="5.75709">
        <ele>230</ele>
        <time>2018-09-02T12:56:20Z</time>
      </trkpt>
      <trkpt lat="45.70511" lon="5.75703">
        <ele>229</ele>
        <time>2018-09-02T12:56:36Z</time>
      </trkpt>
      <trkpt lat="45.70509" lon="5.75694">
        <ele>229</ele>
        <time>2018-09-02T12:56:36Z</time>
      </trkpt>
      <trkpt lat="45.70506" lon="5.75687">
        <ele>229</ele>
        <time>2018-09-02T12:56:36Z</time>
      </trkpt>
      <trkpt lat="45.70504" lon="5.75682">
        <ele>229</ele>
        <time>2018-09-02T12:56:36Z</time>
      </trkpt>
      <trkpt lat="45.705" lon="5.75677">
        <ele>229</ele>
        <time>2018-09-02T12:56:52Z</time>
      </trkpt>
      <trkpt lat="45.70496" lon="5.75673">
        <ele>229</ele>
        <time>2018-09-02T12:56:52Z</time>
      </trkpt>
      <trkpt lat="45.70492" lon="5.75668">
        <ele>229</ele>
        <time>2018-09-02T12:56:52Z</time>
      </trkpt>
      <trkpt lat="45.70488" lon="5.75665">
        <ele>229</ele>
        <time>2018-09-02T12:56:52Z</time>
      </trkpt>
      <trkpt lat="45.70484" lon="5.7566">
        <ele>229</ele>
        <time>2018-09-02T12:57:08Z</time>
      </trkpt>
      <trkpt lat="45.7048" lon="5.75657">
        <ele>229</ele>
        <time>2018-09-02T12:57:08Z</time>
      </trkpt>
      <trkpt lat="45.70477" lon="5.75654">
        <ele>229</ele>
        <time>2018-09-02T12:57:08Z</time>
      </trkpt>
      <trkpt lat="45.70471" lon="5.75649">
        <ele>229</ele>
        <time>2018-09-02T12:57:08Z</time>
      </trkpt>
      <trkpt lat="45.70467" lon="5.75645">
        <ele>229</ele>
        <time>2018-09-02T12:57:24Z</time>
      </trkpt>
      <trkpt lat="45.70462" lon="5.75642">
        <ele>229</ele>
        <time>2018-09-02T12:57:24Z</time>
      </trkpt>
      <trkpt lat="45.70457" lon="5.7564">
        <ele>234</ele>
        <time>2018-09-02T12:57:24Z</time>
      </trkpt>
      <trkpt lat="45.70453" lon="5.75637">
        <ele>234</ele>
        <time>2018-09-02T12:57:24Z</time>
      </trkpt>
      <trkpt lat="45.70448" lon="5.75633">
        <ele>234</ele>
        <time>2018-09-02T12:57:40Z</time>
      </trkpt>
      <trkpt lat="45.70442" lon="5.75633">
        <ele>234</ele>
        <time>2018-09-02T12:57:40Z</time>
      </trkpt>
      <trkpt lat="45.70437" lon="5.75634">
        <ele>234</ele>
        <time>2018-09-02T12:57:40Z</time>
      </trkpt>
      <trkpt lat="45.70431" lon="5.75634">
        <ele>234</ele>
        <time>2018-09-02T12:57:40Z</time>
      </trkpt>
      <trkpt lat="45.70425" lon="5.75634">
        <ele>234</ele>
        <time>2018-09-02T12:57:56Z</time>
      </trkpt>
      <trkpt lat="45.7042" lon="5.75633">
        <ele>234</ele>
        <time>2018-09-02T12:57:56Z</time>
      </trkpt>
      <trkpt lat="45.70416" lon="5.75634">
        <ele>234</ele>
        <time>2018-09-02T12:57:56Z</time>
      </trkpt>
      <trkpt lat="45.70411" lon="5.75633">
        <ele>234</ele>
        <time>2018-09-02T12:57:56Z</time>
      </trkpt>
      <trkpt lat="45.70407" lon="5.75631">
        <ele>234</ele>
        <time>2018-09-02T12:58:12Z</time>
      </trkpt>
      <trkpt lat="45.70404" lon="5.75631">
        <ele>234</ele>
        <time>2018-09-02T12:58:12Z</time>
      </trkpt>
      <trkpt lat="45.70398" lon="5.75632">
        <ele>234</ele>
        <time>2018-09-02T12:58:12Z</time>
      </trkpt>
      <trkpt lat="45.70393" lon="5.75634">
        <ele>234</ele>
        <time>2018-09-02T12:58:12Z</time>
      </trkpt>
      <trkpt lat="45.70388" lon="5.75637">
        <ele>234</ele>
        <time>2018-09-02T12:58:28Z</time>
      </trkpt>
      <trkpt lat="45.70383" lon="5.75641">
        <ele>234</ele>
        <time>2018-09-02T12:58:28Z</time>
      </trkpt>
      <trkpt lat="45.70378" lon="5.75643">
        <ele>234</ele>
        <time>2018-09-02T12:58:28Z</time>
      </trkpt>
      <trkpt lat="45.70373" lon="5.75647">
        <ele>233</ele>
        <time>2018-09-02T12:58:28Z</time>
      </trkpt>
      <trkpt lat="45.70368" lon="5.75649">
        <ele>233</ele>
        <time>2018-09-02T12:58:44Z</time>
      </trkpt>
      <trkpt lat="45.70363" lon="5.75651">
        <ele>233</ele>
        <time>2018-09-02T12:58:44Z</time>
      </trkpt>
      <trkpt lat="45.70358" lon="5.75652">
        <ele>233</ele>
        <time>2018-09-02T12:58:44Z</time>
      </trkpt>
      <trkpt lat="45.70353" lon="5.75652">
        <ele>233</ele>
        <time>2018-09-02T12:58:44Z</time>
      </trkpt>
      <trkpt lat="45.70347" lon="5.7565">
        <ele>233</ele>
        <time>2018-09-02T12:59:00Z</time>
      </trkpt>
      <trkpt lat="45.70343" lon="5.75647">
        <ele>233</ele>
        <time>2018-09-02T12:59:00Z</time>
      </trkpt>
      <trkpt lat="45.70337" lon="5.75645">
        <ele>233</ele>
        <time>2018-09-02T12:59:00Z</time>
      </trkpt>
      <trkpt lat="45.70333" lon="5.75641">
        <ele>233</ele>
        <time>2018-09-02T12:59:00Z</time>
      </trkpt>
      <trkpt lat="45.70328" lon="5.75637">
        <ele>233</ele>
        <time>2018-09-02T12:59:16Z</time>
      </trkpt>
      <trkpt lat="45.70324" lon="5.75636">
        <ele>233</ele>
        <time>2018-09-02T12:59:16Z</time>
      </trkpt>
      <trkpt lat="45.70319" lon="5.75633">
        <ele>233</ele>
        <time>2018-09-02T12:59:16Z</time>
      </trkpt>
      <trkpt lat="45.70315" lon="5.75631">
        <ele>233</ele>
        <time>2018-09-02T12:59:16Z</time>
      </trkpt>
      <trkpt lat="45.70311" lon="5.7563">
        <ele>233</ele>
        <time>2018-09-02T12:59:32Z</time>
      </trkpt>
      <trkpt lat="45.70307" lon="5.75628">
        <ele>233</ele>
        <time>2018-09-02T12:59:32Z</time>
      </trkpt>
      <trkpt lat="45.70303" lon="5.75625">
        <ele>230</ele>
        <time>2018-09-02T12:59:32Z</time>
      </trkpt>
      <trkpt lat="45.70298" lon="5.75623">
        <ele>230</ele>
        <time>2018-09-02T12:59:32Z</time>
      </trkpt>
      <trkpt lat="45.70293" lon="5.75621">
        <ele>230</ele>
        <time>2018-09-02T12:59:48Z</time>
      </trkpt>
      <trkpt lat="45.70288" lon="5.75619">
        <ele>232</ele>
        <time>2018-09-02T12:59:48Z</time>
      </trkpt>
      <trkpt lat="45.70282" lon="5.75618">
        <ele>232</ele>
        <time>2018-09-02T12:59:48Z</time>
      </trkpt>
      <trkpt lat="45.70275" lon="5.75615">
        <ele>232</ele>
        <time>2018-09-02T12:59:48Z</time>
      </trkpt>
      <trkpt lat="45.70268" lon="5.7561">
        <ele>232</ele>
        <time>2018-09-02T13:00:04Z</time>
      </trkpt>
      <trkpt lat="45.70262" lon="5.75606">
        <ele>232</ele>
        <time>2018-09-02T13:00:04Z</time>
      </trkpt>
      <trkpt lat="45.70256" lon="5.75603">
        <ele>232</ele>
        <time>2018-09-02T13:00:04Z</time>
      </trkpt>
      <trkpt lat="45.70251" lon="5.75601">
        <ele>232</ele>
        <time>2018-09-02T13:00:04Z</time>
      </trkpt>
      <trkpt lat="45.70247" lon="5.75601">
        <ele>232</ele>
        <time>2018-09-02T13:00:20Z</time>
      </trkpt>
      <trkpt lat="45.70243" lon="5.75602">
        <ele>232</ele>
        <time>2018-09-02T13:00:20Z</time>
      </trkpt>
      <trkpt lat="45.70237" lon="5.75603">
        <ele>232</ele>
        <time>2018-09-02T13:00:20Z</time>
      </trkpt>
      <trkpt lat="45.70232" lon="5.75605">
        <ele>232</ele>
        <time>2018-09-02T13:00:20Z</time>
      </trkpt>
      <trkpt lat="45.70227" lon="5.75605">
        <ele>232</ele>
        <time>2018-09-02T13:00:36Z</time>
      </trkpt>
      <trkpt lat="45.70222" lon="5.75607">
        <ele>232</ele>
        <time>2018-09-02T13:00:36Z</time>
      </trkpt>
      <trkpt lat="45.70217" lon="5.7561">
        <ele>232</ele>
        <time>2018-09-02T13:00:36Z</time>
      </trkpt>
      <trkpt lat="45.70213" lon="5.75614">
        <ele>232</ele>
        <time>2018-09-02T13:00:36Z</time>
      </trkpt>
      <trkpt lat="45.70209" lon="5.75619">
        <ele>232</ele>
        <time>2018-09-02T13:00:52Z</time>
      </trkpt>
      <trkpt lat="45.70204" lon="5.75626">
        <ele>236</ele>
        <time>2018-09-02T13:00:52Z</time>
      </trkpt>
      <trkpt lat="45.70201" lon="5.75632">
        <ele>236</ele>
        <time>2018-09-02T13:00:52Z</time>
      </trkpt>
      <trkpt lat="45.70196" lon="5.75639">
        <ele>236</ele>
        <time>2018-09-02T13:00:52Z</time>
      </trkpt>
      <trkpt lat="45.70193" lon="5.75645">
        <ele>236</ele>
        <time>2018-09-02T13:01:08Z</time>
      </trkpt>
      <trkpt lat="45.70189" lon="5.75652">
        <ele>236</ele>
        <time>2018-09-02T13:01:08Z</time>
      </trkpt>
      <trkpt lat="45.70187" lon="5.75658">
        <ele>236</ele>
        <time>2018-09-02T13:01:08Z</time>
      </trkpt>
      <trkpt lat="45.70184" lon="5.7566">
        <ele>236</ele>
        <time>2018-09-02T13:01:08Z</time>
      </trkpt>
      <trkpt lat="45.70181" lon="5.75662">
        <ele>236</ele>
        <time>2018-09-02T13:01:24Z</time>
      </trkpt>
      <trkpt lat="45.7018" lon="5.75665">
        <ele>236</ele>
        <time>2018-09-02T13:01:24Z</time>
      </trkpt>
      <trkpt lat="45.70177" lon="5.75669">
        <ele>236</ele>
        <time>2018-09-02T13:01:24Z</time>
      </trkpt>
      <trkpt lat="45.70171" lon="5.75674">
        <ele>236</ele>
        <time>2018-09-02T13:01:24Z</time>
      </trkpt>
      <trkpt lat="45.70165" lon="5.75674">
        <ele>236</ele>
        <time>2018-09-02T13:01:40Z</time>
      </trkpt>
      <trkpt lat="45.70158" lon="5.75674">
        <ele>236</ele>
        <time>2018-09-02T13:01:40Z</time>
      </trkpt>
      <trkpt lat="45.70153" lon="5.75672">
        <ele>236</ele>
        <time>2018-09-02T13:01:40Z</time>
      </trkpt>
      <trkpt lat="45.70148" lon="5.7567">
        <ele>236</ele>
        <time>2018-09-02T13:01:40Z</time>
      </trkpt>
      <trkpt lat="45.70143" lon="5.75671">
        <ele>236</ele>
        <time>2018-09-02T13:01:56Z</time>
      </trkpt>
      <trkpt lat="45.70138" lon="5.75671">
        <ele>236</ele>
        <time>2018-09-02T13:01:56Z</time>
      </trkpt>
      <trkpt lat="45.70135" lon="5.75672">
        <ele>236</ele>
        <time>2018-09-02T13:01:56Z</time>
      </trkpt>
      <trkpt lat="45.70128" lon="5.75675">
        <ele>236</ele>
        <time>2018-09-02T13:01:56Z</time>
      </trkpt>
      <trkpt lat="45.70122" lon="5.75676">
        <ele>237</ele>
        <time>2018-09-02T13:02:12Z</time>
      </trkpt>
      <trkpt lat="45.70117" lon="5.75676">
        <ele>237</ele>
        <time>2018-09-02T13:02:12Z</time>
      </trkpt>
      <trkpt lat="45.70111" lon="5.75677">
        <ele>237</ele>
        <time>2018-09-02T13:02:12Z</time>
      </trkpt>
      <trkpt lat="45.70106" lon="5.75678">
        <ele>237</ele>
        <time>2018-09-02T13:02:12Z</time>
      </trkpt>
      <trkpt lat="45.701" lon="5.75678">
        <ele>237</ele>
        <time>2018-09-02T13:02:28Z</time>
      </trkpt>
      <trkpt lat="45.70094" lon="5.75678">
        <ele>237</ele>
        <time>2018-09-02T13:02:28Z</time>
      </trkpt>
      <trkpt lat="45.70088" lon="5.75677">
        <ele>237</ele>
        <time>2018-09-02T13:02:28Z</time>
      </trkpt>
      <trkpt lat="45.70084" lon="5.75677">
        <ele>237</ele>
        <time>2018-09-02T13:02:28Z</time>
      </trkpt>
      <trkpt lat="45.70077" lon="5.75677">
        <ele>237</ele>
        <time>2018-09-02T13:02:44Z</time>
      </trkpt>
      <trkpt lat="45.70073" lon="5.75677">
        <ele>237</ele>
        <time>2018-09-02T13:02:44Z</time>
      </trkpt>
      <trkpt lat="45.7007" lon="5.75678">
        <ele>237</ele>
        <time>2018-09-02T13:02:44Z</time>
      </trkpt>
      <trkpt lat="45.70063" lon="5.75679">
        <ele>237</ele>
        <time>2018-09-02T13:02:44Z</time>
      </trkpt>
      <trkpt lat="45.70058" lon="5.75678">
        <ele>237</ele>
        <time>2018-09-02T13:03:00Z</time>
      </trkpt>
      <trkpt lat="45.70053" lon="5.75677">
        <ele>237</ele>
        <time>2018-09-02T13:03:00Z</time>
      </trkpt>
      <trkpt lat="45.70048" lon="5.75678">
        <ele>237</ele>
        <time>2018-09-02T13:03:00Z</time>
      </trkpt>
      <trkpt lat="45.70045" lon="5.75679">
        <ele>237</ele>
        <time>2018-09-02T13:03:00Z</time>
      </trkpt>
      <trkpt lat="45.7004" lon="5.75679">
        <ele>240</ele>
        <time>2018-09-02T13:03:16Z</time>
      </trkpt>
      <trkpt lat="45.70033" lon="5.75677">
        <ele>240</ele>
        <time>2018-09-02T13:03:16Z</time>
      </trkpt>
      <trkpt lat="45.70029" lon="5.75676">
        <ele>240</ele>
        <time>2018-09-02T13:03:16Z</time>
      </trkpt>
      <trkpt lat="45.70024" lon="5.75676">
        <ele>240</ele>
        <time>2018-09-02T13:03:16Z</time>
      </trkpt>
      <trkpt lat="45.7002" lon="5.75676">
        <ele>240</ele>
        <time>2018-09-02T13:03:32Z</time>
      </trkpt>
      <trkpt lat="45.70013" lon="5.75676">
        <ele>240</ele>
        <time>2018-09-02T13:03:32Z</time>
      </trkpt>
      <trkpt lat="45.70006" lon="5.75676">
        <ele>240</ele>
        <time>2018-09-02T13:03:32Z</time>
      </trkpt>
      <trkpt lat="45.7" lon="5.75675">
        <ele>240</ele>
        <time>2018-09-02T13:03:32Z</time>
      </trkpt>
      <trkpt lat="45.69995" lon="5.75674">
        <ele>240</ele>
        <time>2018-09-02T13:03:48Z</time>
      </trkpt>
      <trkpt lat="45.6999" lon="5.75673">
        <ele>240</ele>
        <time>2018-09-02T13:03:48Z</time>
      </trkpt>
      <trkpt lat="45.69984" lon="5.75671">
        <ele>240</ele>
        <time>2018-09-02T13:03:48Z</time>
      </trkpt>
      <trkpt lat="45.69978" lon="5.7567">
        <ele>240</ele>
        <time>2018-09-02T13:03:48Z</time>
      </trkpt>
      <trkpt lat="45.69973" lon="5.75669">
        <ele>240</ele>
        <time>2018-09-02T13:04:04Z</time>
      </trkpt>
      <trkpt lat="45.69966" lon="5.75668">
        <ele>240</ele>
        <time>2018-09-02T13:04:04Z</time>
      </trkpt>
      <trkpt lat="45.6996" lon="5.75667">
        <ele>240</ele>
        <time>2018-09-02T13:04:04Z</time>
      </trkpt>
      <trkpt lat="45.69954" lon="5.75664">
        <ele>240</ele>
        <time>2018-09-02T13:04:04Z</time>
      </trkpt>
      <trkpt lat="45.69948" lon="5.75661">
        <ele>240</ele>
        <time>2018-09-02T13:04:20Z</time>
      </trkpt>
      <trkpt lat="45.69944" lon="5.75656">
        <ele>240</ele>
        <time>2018-09-02T13:04:20Z</time>
      </trkpt>
      <trkpt lat="45.69939" lon="5.75652">
        <ele>240</ele>
        <time>2018-09-02T13:04:20Z</time>
      </trkpt>
      <trkpt lat="45.69935" lon="5.75648">
        <ele>240</ele>
        <time>2018-09-02T13:04:20Z</time>
      </trkpt>
      <trkpt lat="45.69931" lon="5.75644">
        <ele>240</ele>
        <time>2018-09-02T13:04:36Z</time>
      </trkpt>
      <trkpt lat="45.69927" lon="5.75641">
        <ele>240</ele>
        <time>2018-09-02T13:04:36Z</time>
      </trkpt>
      <trkpt lat="45.69923" lon="5.75638">
        <ele>240</ele>
        <time>2018-09-02T13:04:36Z</time>
      </trkpt>
      <trkpt lat="45.69919" lon="5.75635">
        <ele>240</ele>
        <time>2018-09-02T13:04:36Z</time>
      </trkpt>
      <trkpt lat="45.69914" lon="5.7563">
        <ele>240</ele>
        <time>2018-09-02T13:04:52Z</time>
      </trkpt>
      <trkpt lat="45.6991" lon="5.75624">
        <ele>239</ele>
        <time>2018-09-02T13:04:52Z</time>
      </trkpt>
      <trkpt lat="45.69906" lon="5.75618">
        <ele>239</ele>
        <time>2018-09-02T13:04:52Z</time>
      </trkpt>
      <trkpt lat="45.69903" lon="5.75611">
        <ele>239</ele>
        <time>2018-09-02T13:04:52Z</time>
      </trkpt>
      <trkpt lat="45.699" lon="5.75606">
        <ele>239</ele>
        <time>2018-09-02T13:05:08Z</time>
      </trkpt>
      <trkpt lat="45.69895" lon="5.756">
        <ele>239</ele>
        <time>2018-09-02T13:05:08Z</time>
      </trkpt>
      <trkpt lat="45.69891" lon="5.75595">
        <ele>239</ele>
        <time>2018-09-02T13:05:08Z</time>
      </trkpt>
      <trkpt lat="45.69888" lon="5.75588">
        <ele>239</ele>
        <time>2018-09-02T13:05:08Z</time>
      </trkpt>
      <trkpt lat="45.69884" lon="5.75582">
        <ele>239</ele>
        <time>2018-09-02T13:05:24Z</time>
      </trkpt>
      <trkpt lat="45.6988" lon="5.75576">
        <ele>239</ele>
        <time>2018-09-02T13:05:24Z</time>
      </trkpt>
      <trkpt lat="45.69877" lon="5.7557">
        <ele>239</ele>
        <time>2018-09-02T13:05:24Z</time>
      </trkpt>
      <trkpt lat="45.69874" lon="5.75563">
        <ele>240</ele>
        <time>2018-09-02T13:05:24Z</time>
      </trkpt>
      <trkpt lat="45.69871" lon="5.75556">
        <ele>240</ele>
        <time>2018-09-02T13:05:40Z</time>
      </trkpt>
      <trkpt lat="45.69867" lon="5.7555">
        <ele>240</ele>
        <time>2018-09-02T13:05:40Z</time>
      </trkpt>
      <trkpt lat="45.69863" lon="5.75543">
        <ele>240</ele>
        <time>2018-09-02T13:05:40Z</time>
      </trkpt>
      <trkpt lat="45.6986" lon="5.75535">
        <ele>240</ele>
        <time>2018-09-02T13:05:40Z</time>
      </trkpt>
      <trkpt lat="45.69856" lon="5.7553">
        <ele>240</ele>
        <time>2018-09-02T13:05:56Z</time>
      </trkpt>
      <trkpt lat="45.69851" lon="5.75526">
        <ele>240</ele>
        <time>2018-09-02T13:05:56Z</time>
      </trkpt>
      <trkpt lat="45.69847" lon="5.75519">
        <ele>240</ele>
        <time>2018-09-02T13:05:56Z</time>
      </trkpt>
      <trkpt lat="45.69842" lon="5.75514">
        <ele>240</ele>
        <time>2018-09-02T13:05:56Z</time>
      </trkpt>
      <trkpt lat="45.69838" lon="5.75509">
        <ele>240</ele>
        <time>2018-09-02T13:06:12Z</time>
      </trkpt>
      <trkpt lat="45.69835" lon="5.75506">
        <ele>240</ele>
        <time>2018-09-02T13:06:12Z</time>
      </trkpt>
      <trkpt lat="45.6983" lon="5.755">
        <ele>240</ele>
        <time>2018-09-02T13:06:12Z</time>
      </trkpt>
      <trkpt lat="45.69826" lon="5.75496">
        <ele>240</ele>
        <time>2018-09-02T13:06:12Z</time>
      </trkpt>
      <trkpt lat="45.69824" lon="5.75493">
        <ele>240</ele>
        <time>2018-09-02T13:06:28Z</time>
      </trkpt>
      <trkpt lat="45.69818" lon="5.75488">
        <ele>240</ele>
        <time>2018-09-02T13:06:28Z</time>
      </trkpt>
      <trkpt lat="45.69814" lon="5.75483">
        <ele>240</ele>
        <time>2018-09-02T13:06:28Z</time>
      </trkpt>
      <trkpt lat="45.69811" lon="5.75478">
        <ele>240</ele>
        <time>2018-09-02T13:06:28Z</time>
      </trkpt>
      <trkpt lat="45.69803" lon="5.7547">
        <ele>240</ele>
        <time>2018-09-02T13:06:44Z</time>
      </trkpt>
      <trkpt lat="45.6979" lon="5.75456">
        <ele>243</ele>
        <time>2018-09-02T13:06:44Z</time>
      </trkpt>
      <trkpt lat="45.69776" lon="5.75443">
        <ele>243</ele>
        <time>2018-09-02T13:06:44Z</time>
      </trkpt>
      <trkpt lat="45.69761" lon="5.75432">
        <ele>243</ele>
        <time>2018-09-02T13:06:44Z</time>
      </trkpt>
      <trkpt lat="45.69747" lon="5.7542">
        <ele>243</ele>
        <time>2018-09-02T13:07:00Z</time>
      </trkpt>
      <trkpt lat="45.69733" lon="5.75409">
        <ele>243</ele>
        <time>2018-09-02T13:07:00Z</time>
      </trkpt>
      <trkpt lat="45.6972" lon="5.75397">
        <ele>243</ele>
        <time>2018-09-02T13:07:00Z</time>
      </trkpt>
      <trkpt lat="45.69707" lon="5.75384">
        <ele>243</ele>
        <time>2018-09-02T13:07:00Z</time>
      </trkpt>
      <trkpt lat="45.69694" lon="5.75373">
        <ele>243</ele>
        <time>2018-09-02T13:07:16Z</time>
      </trkpt>
      <trkpt lat="45.69682" lon="5.75363">
        <ele>243</ele>
        <time>2018-09-02T13:07:16Z</time>
      </trkpt>
      <trkpt lat="45.69671" lon="5.75353">
        <ele>243</ele>
        <time>2018-09-02T13:07:16Z</time>
      </trkpt>
      <trkpt lat="45.69661" lon="5.75343">
        <ele>243</ele>
        <time>2018-09-02T13:07:16Z</time>
      </trkpt>
      <trkpt lat="45.69649" lon="5.75333">
        <ele>243</ele>
        <time>2018-09-02T13:07:32Z</time>
      </trkpt>
      <trkpt lat="45.6964" lon="5.75326">
        <ele>243</ele>
        <time>2018-09-02T13:07:32Z</time>
      </trkpt>
      <trkpt lat="45.69625" lon="5.75313">
        <ele>244</ele>
        <time>2018-09-02T13:07:32Z</time>
      </trkpt>
      <trkpt lat="45.69612" lon="5.75303">
        <ele>244</ele>
        <time>2018-09-02T13:07:32Z</time>
      </trkpt>
      <trkpt lat="45.69599" lon="5.75293">
        <ele>244</ele>
        <time>2018-09-02T13:07:48Z</time>
      </trkpt>
      <trkpt lat="45.69587" lon="5.75284">
        <ele>243</ele>
        <time>2018-09-02T13:07:48Z</time>
      </trkpt>
      <trkpt lat="45.69582" lon="5.75282">
        <ele>243</ele>
        <time>2018-09-02T13:07:48Z</time>
      </trkpt>
      <trkpt lat="45.69578" lon="5.7528">
        <ele>243</ele>
        <time>2018-09-02T13:07:48Z</time>
      </trkpt>
      <trkpt lat="45.69573" lon="5.75275">
        <ele>243</ele>
        <time>2018-09-02T13:08:04Z</time>
      </trkpt>
      <trkpt lat="45.69568" lon="5.75272">
        <ele>243</ele>
        <time>2018-09-02T13:08:04Z</time>
      </trkpt>
      <trkpt lat="45.69563" lon="5.75268">
        <ele>243</ele>
        <time>2018-09-02T13:08:04Z</time>
      </trkpt>
      <trkpt lat="45.69559" lon="5.75264">
        <ele>243</ele>
        <time>2018-09-02T13:08:04Z</time>
      </trkpt>
      <trkpt lat="45.69554" lon="5.75261">
        <ele>243</ele>
        <time>2018-09-02T13:08:20Z</time>
      </trkpt>
      <trkpt lat="45.69549" lon="5.75257">
        <ele>243</ele>
        <time>2018-09-02T13:08:20Z</time>
      </trkpt>
      <trkpt lat="45.69545" lon="5.75253">
        <ele>243</ele>
        <time>2018-09-02T13:08:20Z</time>
      </trkpt>
      <trkpt lat="45.6954" lon="5.75251">
        <ele>247</ele>
        <time>2018-09-02T13:08:20Z</time>
      </trkpt>
      <trkpt lat="45.69534" lon="5.75252">
        <ele>247</ele>
        <time>2018-09-02T13:08:36Z</time>
      </trkpt>
      <trkpt lat="45.69529" lon="5.75254">
        <ele>247</ele>
        <time>2018-09-02T13:08:36Z</time>
      </trkpt>
      <trkpt lat="45.69524" lon="5.75256">
        <ele>247</ele>
        <time>2018-09-02T13:08:36Z</time>
      </trkpt>
      <trkpt lat="45.69519" lon="5.75258">
        <ele>247</ele>
        <time>2018-09-02T13:08:36Z</time>
      </trkpt>
      <trkpt lat="45.69514" lon="5.75259">
        <ele>247</ele>
        <time>2018-09-02T13:08:52Z</time>
      </trkpt>
      <trkpt lat="45.69509" lon="5.75259">
        <ele>247</ele>
        <time>2018-09-02T13:08:52Z</time>
      </trkpt>
      <trkpt lat="45.69504" lon="5.75258">
        <ele>247</ele>
        <time>2018-09-02T13:08:52Z</time>
      </trkpt>
      <trkpt lat="45.69497" lon="5.75257">
        <ele>247</ele>
        <time>2018-09-02T13:08:52Z</time>
      </trkpt>
      <trkpt lat="45.69492" lon="5.75258">
        <ele>247</ele>
        <time>2018-09-02T13:09:08Z</time>
      </trkpt>
      <trkpt lat="45.69486" lon="5.75259">
        <ele>247</ele>
        <time>2018-09-02T13:09:08Z</time>
      </trkpt>
      <trkpt lat="45.69483" lon="5.75258">
        <ele>247</ele>
        <time>2018-09-02T13:09:08Z</time>
      </trkpt>
      <trkpt lat="45.69478" lon="5.7526">
        <ele>247</ele>
        <time>2018-09-02T13:09:08Z</time>
      </trkpt>
      <trkpt lat="45.69473" lon="5.7526">
        <ele>247</ele>
        <time>2018-09-02T13:09:24Z</time>
      </trkpt>
      <trkpt lat="45.69468" lon="5.75261">
        <ele>247</ele>
        <time>2018-09-02T13:09:24Z</time>
      </trkpt>
      <trkpt lat="45.69463" lon="5.75261">
        <ele>247</ele>
        <time>2018-09-02T13:09:24Z</time>
      </trkpt>
      <trkpt lat="45.69457" lon="5.75261">
        <ele>248</ele>
        <time>2018-09-02T13:09:24Z</time>
      </trkpt>
      <trkpt lat="45.69451" lon="5.75261">
        <ele>248</ele>
        <time>2018-09-02T13:09:40Z</time>
      </trkpt>
      <trkpt lat="45.69444" lon="5.75262">
        <ele>248</ele>
        <time>2018-09-02T13:09:40Z</time>
      </trkpt>
      <trkpt lat="45.69438" lon="5.7526">
        <ele>248</ele>
        <time>2018-09-02T13:09:40Z</time>
      </trkpt>
      <trkpt lat="45.69431" lon="5.7526">
        <ele>248</ele>
        <time>2018-09-02T13:09:40Z</time>
      </trkpt>
      <trkpt lat="45.69425" lon="5.7526">
        <ele>248</ele>
        <time>2018-09-02T13:09:56Z</time>
      </trkpt>
      <trkpt lat="45.69419" lon="5.7526">
        <ele>248</ele>
        <time>2018-09-02T13:09:56Z</time>
      </trkpt>
      <trkpt lat="45.69414" lon="5.7526">
        <ele>248</ele>
        <time>2018-09-02T13:09:56Z</time>
      </trkpt>
      <trkpt lat="45.6941" lon="5.75258">
        <ele>248</ele>
        <time>2018-09-02T13:09:56Z</time>
      </trkpt>
      <trkpt lat="45.69405" lon="5.75255">
        <ele>248</ele>
        <time>2018-09-02T13:10:12Z</time>
      </trkpt>
      <trkpt lat="45.69401" lon="5.75255">
        <ele>248</ele>
        <time>2018-09-02T13:10:12Z</time>
      </trkpt>
      <trkpt lat="45.69396" lon="5.75253">
        <ele>248</ele>
        <time>2018-09-02T13:10:12Z</time>
      </trkpt>
      <trkpt lat="45.69389" lon="5.75255">
        <ele>248</ele>
        <time>2018-09-02T13:10:12Z</time>
      </trkpt>
      <trkpt lat="45.69385" lon="5.75256">
        <ele>248</ele>
        <time>2018-09-02T13:10:28Z</time>
      </trkpt>
      <trkpt lat="45.69367" lon="5.75256">
        <ele>247</ele>
        <time>2018-09-02T13:10:28Z</time>
      </trkpt>
      <trkpt lat="45.69348" lon="5.75253">
        <ele>247</ele>
        <time>2018-09-02T13:10:28Z</time>
      </trkpt>
      <trkpt lat="45.69331" lon="5.75246">
        <ele>247</ele>
        <time>2018-09-02T13:10:28Z</time>
      </trkpt>
      <trkpt lat="45.69321" lon="5.75243">
        <ele>247</ele>
        <time>2018-09-02T13:10:44Z</time>
      </trkpt>
      <trkpt lat="45.69314" lon="5.75242">
        <ele>247</ele>
        <time>2018-09-02T13:10:44Z</time>
      </trkpt>
      <trkpt lat="45.69309" lon="5.75241">
        <ele>247</ele>
        <time>2018-09-02T13:10:44Z</time>
      </trkpt>
      <trkpt lat="45.69304" lon="5.75245">
        <ele>247</ele>
        <time>2018-09-02T13:10:44Z</time>
      </trkpt>
      <trkpt lat="45.69298" lon="5.7525">
        <ele>247</ele>
        <time>2018-09-02T13:11:00Z</time>
      </trkpt>
      <trkpt lat="45.69293" lon="5.75254">
        <ele>247</ele>
        <time>2018-09-02T13:11:00Z</time>
      </trkpt>
      <trkpt lat="45.69289" lon="5.75258">
        <ele>249</ele>
        <time>2018-09-02T13:11:00Z</time>
      </trkpt>
      <trkpt lat="45.69284" lon="5.75261">
        <ele>249</ele>
        <time>2018-09-02T13:11:00Z</time>
      </trkpt>
      <trkpt lat="45.6928" lon="5.75266">
        <ele>249</ele>
        <time>2018-09-02T13:11:16Z</time>
      </trkpt>
      <trkpt lat="45.69276" lon="5.75267">
        <ele>249</ele>
        <time>2018-09-02T13:11:16Z</time>
      </trkpt>
      <trkpt lat="45.69272" lon="5.75271">
        <ele>249</ele>
        <time>2018-09-02T13:11:16Z</time>
      </trkpt>
      <trkpt lat="45.69268" lon="5.75276">
        <ele>249</ele>
        <time>2018-09-02T13:11:16Z</time>
      </trkpt>
      <trkpt lat="45.69264" lon="5.75282">
        <ele>249</ele>
        <time>2018-09-02T13:11:32Z</time>
      </trkpt>
      <trkpt lat="45.6926" lon="5.75288">
        <ele>249</ele>
        <time>2018-09-02T13:11:32Z</time>
      </trkpt>
      <trkpt lat="45.69256" lon="5.75295">
        <ele>248</ele>
        <time>2018-09-02T13:11:32Z</time>
      </trkpt>
      <trkpt lat="45.69253" lon="5.75303">
        <ele>248</ele>
        <time>2018-09-02T13:11:32Z</time>
      </trkpt>
      <trkpt lat="45.69248" lon="5.75309">
        <ele>248</ele>
        <time>2018-09-02T13:11:48Z</time>
      </trkpt>
      <trkpt lat="45.69243" lon="5.75311">
        <ele>248</ele>
        <time>2018-09-02T13:11:48Z</time>
      </trkpt>
      <trkpt lat="45.6924" lon="5.75304">
        <ele>248</ele>
        <time>2018-09-02T13:11:48Z</time>
      </trkpt>
      <trkpt lat="45.69238" lon="5.75294">
        <ele>248</ele>
        <time>2018-09-02T13:11:48Z</time>
      </trkpt>
      <trkpt lat="45.69237" lon="5.75288">
        <ele>249</ele>
        <time>2018-09-02T13:12:04Z</time>
      </trkpt>
      <trkpt lat="45.69236" lon="5.75279">
        <ele>249</ele>
        <time>2018-09-02T13:12:04Z</time>
      </trkpt>
      <trkpt lat="45.69235" lon="5.7527">
        <ele>249</ele>
        <time>2018-09-02T13:12:04Z</time>
      </trkpt>
      <trkpt lat="45.69234" lon="5.75264">
        <ele>249</ele>
        <time>2018-09-02T13:12:04Z</time>
      </trkpt>
      <trkpt lat="45.69234" lon="5.75254">
        <ele>249</ele>
        <time>2018-09-02T13:12:20Z</time>
      </trkpt>
      <trkpt lat="45.69234" lon="5.75246">
        <ele>249</ele>
        <time>2018-09-02T13:12:20Z</time>
      </trkpt>
      <trkpt lat="45.69235" lon="5.75238">
        <ele>249</ele>
        <time>2018-09-02T13:12:20Z</time>
      </trkpt>
      <trkpt lat="45.69235" lon="5.7523">
        <ele>249</ele>
        <time>2018-09-02T13:12:20Z</time>
      </trkpt>
      <trkpt lat="45.69236" lon="5.75223">
        <ele>249</ele>
        <time>2018-09-02T13:12:36Z</time>
      </trkpt>
      <trkpt lat="45.69237" lon="5.75216">
        <ele>249</ele>
        <time>2018-09-02T13:12:36Z</time>
      </trkpt>
      <trkpt lat="45.69239" lon="5.75209">
        <ele>249</ele>
        <time>2018-09-02T13:12:36Z</time>
      </trkpt>
      <trkpt lat="45.69239" lon="5.75202">
        <ele>250</ele>
        <time>2018-09-02T13:12:36Z</time>
      </trkpt>
      <trkpt lat="45.6924" lon="5.75194">
        <ele>250</ele>
        <time>2018-09-02T13:12:52Z</time>
      </trkpt>
      <trkpt lat="45.69241" lon="5.75186">
        <ele>250</ele>
        <time>2018-09-02T13:12:52Z</time>
      </trkpt>
      <trkpt lat="45.69243" lon="5.75178">
        <ele>250</ele>
        <time>2018-09-02T13:12:52Z</time>
      </trkpt>
      <trkpt lat="45.69244" lon="5.75171">
        <ele>250</ele>
        <time>2018-09-02T13:12:52Z</time>
      </trkpt>
      <trkpt lat="45.69244" lon="5.75163">
        <ele>250</ele>
        <time>2018-09-02T13:13:08Z</time>
      </trkpt>
      <trkpt lat="45.69245" lon="5.75155">
        <ele>250</ele>
        <time>2018-09-02T13:13:08Z</time>
      </trkpt>
      <trkpt lat="45.69246" lon="5.75149">
        <ele>250</ele>
        <time>2018-09-02T13:13:08Z</time>
      </trkpt>
      <trkpt lat="45.69249" lon="5.7514">
        <ele>250</ele>
        <time>2018-09-02T13:13:08Z</time>
      </trkpt>
      <trkpt lat="45.6925" lon="5.75133">
        <ele>250</ele>
        <time>2018-09-02T13:13:24Z</time>
      </trkpt>
      <trkpt lat="45.69251" lon="5.75125">
        <ele>250</ele>
        <time>2018-09-02T13:13:24Z</time>
      </trkpt>
      <trkpt lat="45.69251" lon="5.75119">
        <ele>253</ele>
        <time>2018-09-02T13:13:24Z</time>
      </trkpt>
      <trkpt lat="45.69252" lon="5.75109">
        <ele>253</ele>
        <time>2018-09-02T13:13:24Z</time>
      </trkpt>
      <trkpt lat="45.69254" lon="5.75101">
        <ele>253</ele>
        <time>2018-09-02T13:13:40Z</time>
      </trkpt>
      <trkpt lat="45.69255" lon="5.75093">
        <ele>253</ele>
        <time>2018-09-02T13:13:40Z</time>
      </trkpt>
      <trkpt lat="45.69254" lon="5.75092">
        <ele>253</ele>
        <time>2018-09-02T13:13:40Z</time>
      </trkpt>
      <trkpt lat="45.69254" lon="5.75088">
        <ele>253</ele>
        <time>2018-09-02T13:13:40Z</time>
      </trkpt>
      <trkpt lat="45.69253" lon="5.75073">
        <ele>253</ele>
        <time>2018-09-02T13:13:56Z</time>
      </trkpt>
      <trkpt lat="45.69253" lon="5.7506">
        <ele>253</ele>
        <time>2018-09-02T13:13:56Z</time>
      </trkpt>
      <trkpt lat="45.69251" lon="5.75052">
        <ele>253</ele>
        <time>2018-09-02T13:13:56Z</time>
      </trkpt>
      <trkpt lat="45.69249" lon="5.75046">
        <ele>253</ele>
        <time>2018-09-02T13:13:56Z</time>
      </trkpt>
      <trkpt lat="45.69246" lon="5.75037">
        <ele>254</ele>
        <time>2018-09-02T13:14:12Z</time>
      </trkpt>
      <trkpt lat="45.69243" lon="5.75031">
        <ele>254</ele>
        <time>2018-09-02T13:14:12Z</time>
      </trkpt>
      <trkpt lat="45.69242" lon="5.75025">
        <ele>254</ele>
        <time>2018-09-02T13:14:12Z</time>
      </trkpt>
      <trkpt lat="45.69239" lon="5.75017">
        <ele>254</ele>
        <time>2018-09-02T13:14:12Z</time>
      </trkpt>
      <trkpt lat="45.69237" lon="5.7501">
        <ele>254</ele>
        <time>2018-09-02T13:14:28Z</time>
      </trkpt>
      <trkpt lat="45.69235" lon="5.75003">
        <ele>254</ele>
        <time>2018-09-02T13:14:28Z</time>
      </trkpt>
      <trkpt lat="45.69232" lon="5.74998">
        <ele>254</ele>
        <time>2018-09-02T13:14:28Z</time>
      </trkpt>
      <trkpt lat="45.69228" lon="5.74994">
        <ele>254</ele>
        <time>2018-09-02T13:14:28Z</time>
      </trkpt>
      <trkpt lat="45.69223" lon="5.7499">
        <ele>254</ele>
        <time>2018-09-02T13:14:44Z</time>
      </trkpt>
      <trkpt lat="45.69218" lon="5.74985">
        <ele>254</ele>
        <time>2018-09-02T13:14:44Z</time>
      </trkpt>
      <trkpt lat="45.69213" lon="5.74981">
        <ele>254</ele>
        <time>2018-09-02T13:14:44Z</time>
      </trkpt>
      <trkpt lat="45.69208" lon="5.74976">
        <ele>254</ele>
        <time>2018-09-02T13:14:44Z</time>
      </trkpt>
      <trkpt lat="45.69203" lon="5.7497">
        <ele>262</ele>
        <time>2018-09-02T13:15:00Z</time>
      </trkpt>
      <trkpt lat="45.69198" lon="5.74964">
        <ele>262</ele>
        <time>2018-09-02T13:15:00Z</time>
      </trkpt>
      <trkpt lat="45.69193" lon="5.74959">
        <ele>262</ele>
        <time>2018-09-02T13:15:00Z</time>
      </trkpt>
      <trkpt lat="45.69188" lon="5.74954">
        <ele>258</ele>
        <time>2018-09-02T13:15:00Z</time>
      </trkpt>
      <trkpt lat="45.69183" lon="5.74948">
        <ele>258</ele>
        <time>2018-09-02T13:15:16Z</time>
      </trkpt>
      <trkpt lat="45.6918" lon="5.74944">
        <ele>258</ele>
        <time>2018-09-02T13:15:16Z</time>
      </trkpt>
      <trkpt lat="45.69174" lon="5.74937">
        <ele>258</ele>
        <time>2018-09-02T13:15:16Z</time>
      </trkpt>
      <trkpt lat="45.6917" lon="5.74931">
        <ele>258</ele>
        <time>2018-09-02T13:15:16Z</time>
      </trkpt>
      <trkpt lat="45.69168" lon="5.74924">
        <ele>258</ele>
        <time>2018-09-02T13:15:32Z</time>
      </trkpt>
      <trkpt lat="45.69166" lon="5.74917">
        <ele>258</ele>
        <time>2018-09-02T13:15:32Z</time>
      </trkpt>
      <trkpt lat="45.69165" lon="5.74909">
        <ele>258</ele>
        <time>2018-09-02T13:15:32Z</time>
      </trkpt>
      <trkpt lat="45.69164" lon="5.74901">
        <ele>258</ele>
        <time>2018-09-02T13:15:32Z</time>
      </trkpt>
      <trkpt lat="45.69163" lon="5.74893">
        <ele>258</ele>
        <time>2018-09-02T13:15:48Z</time>
      </trkpt>
      <trkpt lat="45.69163" lon="5.74885">
        <ele>258</ele>
        <time>2018-09-02T13:15:48Z</time>
      </trkpt>
      <trkpt lat="45.69162" lon="5.74877">
        <ele>258</ele>
        <time>2018-09-02T13:15:48Z</time>
      </trkpt>
      <trkpt lat="45.69162" lon="5.74869">
        <ele>273</ele>
        <time>2018-09-02T13:15:48Z</time>
      </trkpt>
      <trkpt lat="45.69152" lon="5.74856">
        <ele>273</ele>
        <time>2018-09-02T13:16:28Z</time>
      </trkpt>
      <trkpt lat="45.69152" lon="5.74856">
        <ele>273</ele>
        <time>2018-09-02T13:16:28Z</time>
      </trkpt>
      <trkpt lat="45.69152" lon="5.74856">
        <ele>273</ele>
        <time>2018-09-02T13:16:28Z</time>
      </trkpt>
      <trkpt lat="45.69151" lon="5.74858">
        <ele>273</ele>
        <time>2018-09-02T13:16:28Z</time>
      </trkpt>
      <trkpt lat="45.6915" lon="5.74857">
        <ele>273</ele>
        <time>2018-09-02T13:16:28Z</time>
      </trkpt>
      <trkpt lat="45.69149" lon="5.74856">
        <ele>273</ele>
        <time>2018-09-02T13:17:40Z</time>
      </trkpt>
      <trkpt lat="45.69149" lon="5.74856">
        <ele>273</ele>
        <time>2018-09-02T13:17:40Z</time>
      </trkpt>
      <trkpt lat="45.69148" lon="5.74856">
        <ele>273</ele>
        <time>2018-09-02T13:17:40Z</time>
      </trkpt>
      <trkpt lat="45.69144" lon="5.74855">
        <ele>273</ele>
        <time>2018-09-02T13:17:40Z</time>
      </trkpt>
      <trkpt lat="45.69139" lon="5.74855">
        <ele>273</ele>
        <time>2018-09-02T13:17:40Z</time>
      </trkpt>
      <trkpt lat="45.69135" lon="5.74852">
        <ele>273</ele>
        <time>2018-09-02T13:17:56Z</time>
      </trkpt>
      <trkpt lat="45.69131" lon="5.7485">
        <ele>273</ele>
        <time>2018-09-02T13:17:56Z</time>
      </trkpt>
      <trkpt lat="45.69127" lon="5.74844">
        <ele>273</ele>
        <time>2018-09-02T13:17:56Z</time>
      </trkpt>
      <trkpt lat="45.69123" lon="5.7484">
        <ele>269</ele>
        <time>2018-09-02T13:17:56Z</time>
      </trkpt>
      <trkpt lat="45.69118" lon="5.74839">
        <ele>269</ele>
        <time>2018-09-02T13:18:12Z</time>
      </trkpt>
      <trkpt lat="45.69114" lon="5.74836">
        <ele>269</ele>
        <time>2018-09-02T13:18:12Z</time>
      </trkpt>
      <trkpt lat="45.69108" lon="5.74835">
        <ele>269</ele>
        <time>2018-09-02T13:18:12Z</time>
      </trkpt>
      <trkpt lat="45.69104" lon="5.74834">
        <ele>269</ele>
        <time>2018-09-02T13:18:12Z</time>
      </trkpt>
      <trkpt lat="45.691" lon="5.74829">
        <ele>269</ele>
        <time>2018-09-02T13:18:28Z</time>
      </trkpt>
      <trkpt lat="45.69096" lon="5.74825">
        <ele>269</ele>
        <time>2018-09-02T13:18:28Z</time>
      </trkpt>
      <trkpt lat="45.69091" lon="5.74824">
        <ele>269</ele>
        <time>2018-09-02T13:18:28Z</time>
      </trkpt>
      <trkpt lat="45.69087" lon="5.74823">
        <ele>269</ele>
        <time>2018-09-02T13:18:28Z</time>
      </trkpt>
      <trkpt lat="45.69081" lon="5.74821">
        <ele>269</ele>
        <time>2018-09-02T13:18:44Z</time>
      </trkpt>
      <trkpt lat="45.69077" lon="5.74817">
        <ele>269</ele>
        <time>2018-09-02T13:18:44Z</time>
      </trkpt>
      <trkpt lat="45.69073" lon="5.74815">
        <ele>269</ele>
        <time>2018-09-02T13:18:44Z</time>
      </trkpt>
      <trkpt lat="45.69069" lon="5.74815">
        <ele>269</ele>
        <time>2018-09-02T13:18:44Z</time>
      </trkpt>
      <trkpt lat="45.69065" lon="5.74813">
        <ele>269</ele>
        <time>2018-09-02T13:19:00Z</time>
      </trkpt>
      <trkpt lat="45.69061" lon="5.74812">
        <ele>269</ele>
        <time>2018-09-02T13:19:00Z</time>
      </trkpt>
      <trkpt lat="45.69056" lon="5.74809">
        <ele>269</ele>
        <time>2018-09-02T13:19:00Z</time>
      </trkpt>
      <trkpt lat="45.69051" lon="5.74807">
        <ele>269</ele>
        <time>2018-09-02T13:19:00Z</time>
      </trkpt>
      <trkpt lat="45.69046" lon="5.74805">
        <ele>269</ele>
        <time>2018-09-02T13:19:16Z</time>
      </trkpt>
      <trkpt lat="45.69041" lon="5.74806">
        <ele>270</ele>
        <time>2018-09-02T13:19:16Z</time>
      </trkpt>
      <trkpt lat="45.69035" lon="5.74806">
        <ele>270</ele>
        <time>2018-09-02T13:19:16Z</time>
      </trkpt>
      <trkpt lat="45.69029" lon="5.74805">
        <ele>270</ele>
        <time>2018-09-02T13:19:16Z</time>
      </trkpt>
      <trkpt lat="45.69023" lon="5.74805">
        <ele>270</ele>
        <time>2018-09-02T13:19:32Z</time>
      </trkpt>
      <trkpt lat="45.69018" lon="5.74804">
        <ele>270</ele>
        <time>2018-09-02T13:19:32Z</time>
      </trkpt>
      <trkpt lat="45.69013" lon="5.74803">
        <ele>270</ele>
        <time>2018-09-02T13:19:32Z</time>
      </trkpt>
      <trkpt lat="45.69008" lon="5.74802">
        <ele>270</ele>
        <time>2018-09-02T13:19:32Z</time>
      </trkpt>
      <trkpt lat="45.69003" lon="5.74799">
        <ele>270</ele>
        <time>2018-09-02T13:19:48Z</time>
      </trkpt>
      <trkpt lat="45.68997" lon="5.74796">
        <ele>270</ele>
        <time>2018-09-02T13:19:48Z</time>
      </trkpt>
      <trkpt lat="45.68993" lon="5.74792">
        <ele>270</ele>
        <time>2018-09-02T13:19:48Z</time>
      </trkpt>
      <trkpt lat="45.6899" lon="5.74788">
        <ele>282</ele>
        <time>2018-09-02T13:19:48Z</time>
      </trkpt>
      <trkpt lat="45.68986" lon="5.74785">
        <ele>282</ele>
        <time>2018-09-02T13:20:04Z</time>
      </trkpt>
      <trkpt lat="45.68982" lon="5.7478">
        <ele>282</ele>
        <time>2018-09-02T13:20:04Z</time>
      </trkpt>
      <trkpt lat="45.68978" lon="5.74776">
        <ele>282</ele>
        <time>2018-09-02T13:20:04Z</time>
      </trkpt>
      <trkpt lat="45.68973" lon="5.74773">
        <ele>282</ele>
        <time>2018-09-02T13:20:04Z</time>
      </trkpt>
      <trkpt lat="45.6897" lon="5.7477">
        <ele>282</ele>
        <time>2018-09-02T13:20:24Z</time>
      </trkpt>
      <trkpt lat="45.6897" lon="5.74769">
        <ele>282</ele>
        <time>2018-09-02T13:20:24Z</time>
      </trkpt>
      <trkpt lat="45.68969" lon="5.74767">
        <ele>282</ele>
        <time>2018-09-02T13:20:24Z</time>
      </trkpt>
      <trkpt lat="45.68966" lon="5.7476">
        <ele>282</ele>
        <time>2018-09-02T13:20:24Z</time>
      </trkpt>
      <trkpt lat="45.68964" lon="5.74752">
        <ele>282</ele>
        <time>2018-09-02T13:20:24Z</time>
      </trkpt>
      <trkpt lat="45.68963" lon="5.74743">
        <ele>282</ele>
        <time>2018-09-02T13:20:40Z</time>
      </trkpt>
      <trkpt lat="45.68964" lon="5.74737">
        <ele>282</ele>
        <time>2018-09-02T13:20:40Z</time>
      </trkpt>
      <trkpt lat="45.68965" lon="5.74728">
        <ele>282</ele>
        <time>2018-09-02T13:20:40Z</time>
      </trkpt>
      <trkpt lat="45.68965" lon="5.74721">
        <ele>282</ele>
        <time>2018-09-02T13:20:40Z</time>
      </trkpt>
      <trkpt lat="45.68964" lon="5.74715">
        <ele>282</ele>
        <time>2018-09-02T13:20:56Z</time>
      </trkpt>
      <trkpt lat="45.68963" lon="5.74712">
        <ele>282</ele>
        <time>2018-09-02T13:20:56Z</time>
      </trkpt>
      <trkpt lat="45.6896" lon="5.74708">
        <ele>296</ele>
        <time>2018-09-02T13:20:56Z</time>
      </trkpt>
      <trkpt lat="45.68957" lon="5.74704">
        <ele>293</ele>
        <time>2018-09-02T13:20:56Z</time>
      </trkpt>
      <trkpt lat="45.68955" lon="5.74698">
        <ele>293</ele>
        <time>2018-09-02T13:21:12Z</time>
      </trkpt>
      <trkpt lat="45.68951" lon="5.7469">
        <ele>293</ele>
        <time>2018-09-02T13:21:12Z</time>
      </trkpt>
      <trkpt lat="45.68947" lon="5.74685">
        <ele>293</ele>
        <time>2018-09-02T13:21:12Z</time>
      </trkpt>
      <trkpt lat="45.68946" lon="5.74678">
        <ele>293</ele>
        <time>2018-09-02T13:21:12Z</time>
      </trkpt>
      <trkpt lat="45.68942" lon="5.74669">
        <ele>293</ele>
        <time>2018-09-02T13:21:28Z</time>
      </trkpt>
      <trkpt lat="45.68938" lon="5.74664">
        <ele>293</ele>
        <time>2018-09-02T13:21:28Z</time>
      </trkpt>
      <trkpt lat="45.68932" lon="5.74662">
        <ele>293</ele>
        <time>2018-09-02T13:21:28Z</time>
      </trkpt>
      <trkpt lat="45.68927" lon="5.7466">
        <ele>293</ele>
        <time>2018-09-02T13:21:28Z</time>
      </trkpt>
      <trkpt lat="45.68923" lon="5.74656">
        <ele>293</ele>
        <time>2018-09-02T13:21:44Z</time>
      </trkpt>
      <trkpt lat="45.6892" lon="5.74651">
        <ele>293</ele>
        <time>2018-09-02T13:21:44Z</time>
      </trkpt>
      <trkpt lat="45.68919" lon="5.74643">
        <ele>293</ele>
        <time>2018-09-02T13:21:44Z</time>
      </trkpt>
      <trkpt lat="45.68916" lon="5.74637">
        <ele>293</ele>
        <time>2018-09-02T13:21:44Z</time>
      </trkpt>
      <trkpt lat="45.68911" lon="5.74632">
        <ele>293</ele>
        <time>2018-09-02T13:22:00Z</time>
      </trkpt>
      <trkpt lat="45.68905" lon="5.74629">
        <ele>293</ele>
        <time>2018-09-02T13:22:00Z</time>
      </trkpt>
      <trkpt lat="45.68901" lon="5.74627">
        <ele>293</ele>
        <time>2018-09-02T13:22:00Z</time>
      </trkpt>
      <trkpt lat="45.68895" lon="5.74624">
        <ele>304</ele>
        <time>2018-09-02T13:22:00Z</time>
      </trkpt>
      <trkpt lat="45.6889" lon="5.74622">
        <ele>304</ele>
        <time>2018-09-02T13:22:16Z</time>
      </trkpt>
      <trkpt lat="45.68884" lon="5.74619">
        <ele>304</ele>
        <time>2018-09-02T13:22:16Z</time>
      </trkpt>
      <trkpt lat="45.68879" lon="5.74615">
        <ele>304</ele>
        <time>2018-09-02T13:22:16Z</time>
      </trkpt>
      <trkpt lat="45.68875" lon="5.74611">
        <ele>300</ele>
        <time>2018-09-02T13:22:16Z</time>
      </trkpt>
      <trkpt lat="45.68869" lon="5.74595">
        <ele>300</ele>
        <time>2018-09-02T13:23:20Z</time>
      </trkpt>
      <trkpt lat="45.68869" lon="5.74595">
        <ele>300</ele>
        <time>2018-09-02T13:23:20Z</time>
      </trkpt>
      <trkpt lat="45.68868" lon="5.74594">
        <ele>300</ele>
        <time>2018-09-02T13:23:20Z</time>
      </trkpt>
      <trkpt lat="45.68868" lon="5.74593">
        <ele>300</ele>
        <time>2018-09-02T13:23:20Z</time>
      </trkpt>
      <trkpt lat="45.68868" lon="5.74592">
        <ele>300</ele>
        <time>2018-09-02T13:23:20Z</time>
      </trkpt>
      <trkpt lat="45.68866" lon="5.74594">
        <ele>300</ele>
        <time>2018-09-02T13:24:08Z</time>
      </trkpt>
      <trkpt lat="45.6886" lon="5.74591">
        <ele>300</ele>
        <time>2018-09-02T13:24:08Z</time>
      </trkpt>
      <trkpt lat="45.68855" lon="5.74588">
        <ele>300</ele>
        <time>2018-09-02T13:24:08Z</time>
      </trkpt>
      <trkpt lat="45.68851" lon="5.74584">
        <ele>300</ele>
        <time>2018-09-02T13:24:08Z</time>
      </trkpt>
      <trkpt lat="45.68846" lon="5.74579">
        <ele>300</ele>
        <time>2018-09-02T13:24:08Z</time>
      </trkpt>
      <trkpt lat="45.68843" lon="5.74575">
        <ele>300</ele>
        <time>2018-09-02T13:24:24Z</time>
      </trkpt>
      <trkpt lat="45.68839" lon="5.74568">
        <ele>300</ele>
        <time>2018-09-02T13:24:24Z</time>
      </trkpt>
      <trkpt lat="45.68837" lon="5.74563">
        <ele>300</ele>
        <time>2018-09-02T13:24:24Z</time>
      </trkpt>
      <trkpt lat="45.68833" lon="5.7456">
        <ele>300</ele>
        <time>2018-09-02T13:24:24Z</time>
      </trkpt>
      <trkpt lat="45.6883" lon="5.74556">
        <ele>300</ele>
        <time>2018-09-02T13:24:40Z</time>
      </trkpt>
      <trkpt lat="45.68827" lon="5.74552">
        <ele>300</ele>
        <time>2018-09-02T13:24:40Z</time>
      </trkpt>
      <trkpt lat="45.68823" lon="5.74548">
        <ele>300</ele>
        <time>2018-09-02T13:24:40Z</time>
      </trkpt>
      <trkpt lat="45.68819" lon="5.74543">
        <ele>300</ele>
        <time>2018-09-02T13:24:40Z</time>
      </trkpt>
      <trkpt lat="45.68815" lon="5.74537">
        <ele>311</ele>
        <time>2018-09-02T13:24:56Z</time>
      </trkpt>
      <trkpt lat="45.68812" lon="5.7453">
        <ele>311</ele>
        <time>2018-09-02T13:24:56Z</time>
      </trkpt>
      <trkpt lat="45.6881" lon="5.74523">
        <ele>311</ele>
        <time>2018-09-02T13:24:56Z</time>
      </trkpt>
      <trkpt lat="45.68808" lon="5.74515">
        <ele>311</ele>
        <time>2018-09-02T13:24:56Z</time>
      </trkpt>
      <trkpt lat="45.68804" lon="5.74508">
        <ele>311</ele>
        <time>2018-09-02T13:25:12Z</time>
      </trkpt>
      <trkpt lat="45.68801" lon="5.74501">
        <ele>311</ele>
        <time>2018-09-02T13:25:12Z</time>
      </trkpt>
      <trkpt lat="45.68797" lon="5.74496">
        <ele>311</ele>
        <time>2018-09-02T13:25:12Z</time>
      </trkpt>
      <trkpt lat="45.68793" lon="5.74491">
        <ele>311</ele>
        <time>2018-09-02T13:25:12Z</time>
      </trkpt>
      <trkpt lat="45.6879" lon="5.74486">
        <ele>307</ele>
        <time>2018-09-02T13:25:28Z</time>
      </trkpt>
      <trkpt lat="45.68784" lon="5.74484">
        <ele>307</ele>
        <time>2018-09-02T13:25:28Z</time>
      </trkpt>
      <trkpt lat="45.68782" lon="5.74484">
        <ele>307</ele>
        <time>2018-09-02T13:25:28Z</time>
      </trkpt>
      <trkpt lat="45.6878" lon="5.74484">
        <ele>307</ele>
        <time>2018-09-02T13:25:28Z</time>
      </trkpt>
      <trkpt lat="45.68777" lon="5.74482">
        <ele>307</ele>
        <time>2018-09-02T13:25:44Z</time>
      </trkpt>
      <trkpt lat="45.68772" lon="5.7448">
        <ele>307</ele>
        <time>2018-09-02T13:25:44Z</time>
      </trkpt>
      <trkpt lat="45.68765" lon="5.74476">
        <ele>307</ele>
        <time>2018-09-02T13:25:44Z</time>
      </trkpt>
      <trkpt lat="45.6876" lon="5.74474">
        <ele>307</ele>
        <time>2018-09-02T13:25:44Z</time>
      </trkpt>
      <trkpt lat="45.68753" lon="5.74471">
        <ele>307</ele>
        <time>2018-09-02T13:26:00Z</time>
      </trkpt>
      <trkpt lat="45.68748" lon="5.74468">
        <ele>307</ele>
        <time>2018-09-02T13:26:00Z</time>
      </trkpt>
      <trkpt lat="45.68742" lon="5.74465">
        <ele>307</ele>
        <time>2018-09-02T13:26:00Z</time>
      </trkpt>
      <trkpt lat="45.68736" lon="5.74463">
        <ele>307</ele>
        <time>2018-09-02T13:26:00Z</time>
      </trkpt>
      <trkpt lat="45.68729" lon="5.74461">
        <ele>307</ele>
        <time>2018-09-02T13:26:16Z</time>
      </trkpt>
      <trkpt lat="45.68724" lon="5.7446">
        <ele>307</ele>
        <time>2018-09-02T13:26:16Z</time>
      </trkpt>
      <trkpt lat="45.68719" lon="5.74459">
        <ele>307</ele>
        <time>2018-09-02T13:26:16Z</time>
      </trkpt>
      <trkpt lat="45.68713" lon="5.74458">
        <ele>336</ele>
        <time>2018-09-02T13:26:16Z</time>
      </trkpt>
      <trkpt lat="45.68707" lon="5.74456">
        <ele>335</ele>
        <time>2018-09-02T13:26:32Z</time>
      </trkpt>
      <trkpt lat="45.68702" lon="5.74455">
        <ele>335</ele>
        <time>2018-09-02T13:26:32Z</time>
      </trkpt>
      <trkpt lat="45.68696" lon="5.74452">
        <ele>335</ele>
        <time>2018-09-02T13:26:32Z</time>
      </trkpt>
      <trkpt lat="45.68691" lon="5.7445">
        <ele>335</ele>
        <time>2018-09-02T13:26:32Z</time>
      </trkpt>
      <trkpt lat="45.68686" lon="5.7445">
        <ele>335</ele>
        <time>2018-09-02T13:26:48Z</time>
      </trkpt>
      <trkpt lat="45.68682" lon="5.74449">
        <ele>335</ele>
        <time>2018-09-02T13:26:48Z</time>
      </trkpt>
      <trkpt lat="45.68679" lon="5.74448">
        <ele>335</ele>
        <time>2018-09-02T13:26:48Z</time>
      </trkpt>
      <trkpt lat="45.68673" lon="5.74447">
        <ele>335</ele>
        <time>2018-09-02T13:26:48Z</time>
      </trkpt>
      <trkpt lat="45.68665" lon="5.74443">
        <ele>335</ele>
        <time>2018-09-02T13:27:04Z</time>
      </trkpt>
      <trkpt lat="45.68659" lon="5.74441">
        <ele>335</ele>
        <time>2018-09-02T13:27:04Z</time>
      </trkpt>
      <trkpt lat="45.68653" lon="5.74438">
        <ele>335</ele>
        <time>2018-09-02T13:27:04Z</time>
      </trkpt>
      <trkpt lat="45.68649" lon="5.74436">
        <ele>335</ele>
        <time>2018-09-02T13:27:04Z</time>
      </trkpt>
      <trkpt lat="45.68643" lon="5.74435">
        <ele>335</ele>
        <time>2018-09-02T13:27:20Z</time>
      </trkpt>
      <trkpt lat="45.68637" lon="5.74433">
        <ele>335</ele>
        <time>2018-09-02T13:27:20Z</time>
      </trkpt>
      <trkpt lat="45.68631" lon="5.74431">
        <ele>335</ele>
        <time>2018-09-02T13:27:20Z</time>
      </trkpt>
      <trkpt lat="45.68625" lon="5.74429">
        <ele>335</ele>
        <time>2018-09-02T13:27:20Z</time>
      </trkpt>
      <trkpt lat="45.68618" lon="5.74427">
        <ele>331</ele>
        <time>2018-09-02T13:27:36Z</time>
      </trkpt>
      <trkpt lat="45.68614" lon="5.74426">
        <ele>331</ele>
        <time>2018-09-02T13:27:36Z</time>
      </trkpt>
      <trkpt lat="45.68607" lon="5.74424">
        <ele>331</ele>
        <time>2018-09-02T13:27:36Z</time>
      </trkpt>
      <trkpt lat="45.68604" lon="5.74422">
        <ele>331</ele>
        <time>2018-09-02T13:27:36Z</time>
      </trkpt>
      <trkpt lat="45.68599" lon="5.74418">
        <ele>331</ele>
        <time>2018-09-02T13:27:52Z</time>
      </trkpt>
      <trkpt lat="45.68596" lon="5.74417">
        <ele>331</ele>
        <time>2018-09-02T13:27:52Z</time>
      </trkpt>
      <trkpt lat="45.68592" lon="5.74418">
        <ele>331</ele>
        <time>2018-09-02T13:27:52Z</time>
      </trkpt>
      <trkpt lat="45.6859" lon="5.74418">
        <ele>331</ele>
        <time>2018-09-02T13:27:52Z</time>
      </trkpt>
      <trkpt lat="45.68587" lon="5.74417">
        <ele>331</ele>
        <time>2018-09-02T13:28:08Z</time>
      </trkpt>
      <trkpt lat="45.68582" lon="5.74414">
        <ele>331</ele>
        <time>2018-09-02T13:28:08Z</time>
      </trkpt>
      <trkpt lat="45.68575" lon="5.74414">
        <ele>331</ele>
        <time>2018-09-02T13:28:08Z</time>
      </trkpt>
      <trkpt lat="45.68569" lon="5.74413">
        <ele>331</ele>
        <time>2018-09-02T13:28:08Z</time>
      </trkpt>
      <trkpt lat="45.68562" lon="5.74412">
        <ele>331</ele>
        <time>2018-09-02T13:28:24Z</time>
      </trkpt>
      <trkpt lat="45.68554" lon="5.74412">
        <ele>331</ele>
        <time>2018-09-02T13:28:24Z</time>
      </trkpt>
      <trkpt lat="45.68549" lon="5.74413">
        <ele>331</ele>
        <time>2018-09-02T13:28:24Z</time>
      </trkpt>
      <trkpt lat="45.68542" lon="5.74412">
        <ele>331</ele>
        <time>2018-09-02T13:28:24Z</time>
      </trkpt>
      <trkpt lat="45.68536" lon="5.74412">
        <ele>330</ele>
        <time>2018-09-02T13:28:40Z</time>
      </trkpt>
      <trkpt lat="45.68532" lon="5.74412">
        <ele>330</ele>
        <time>2018-09-02T13:28:40Z</time>
      </trkpt>
      <trkpt lat="45.68526" lon="5.74412">
        <ele>330</ele>
        <time>2018-09-02T13:28:40Z</time>
      </trkpt>
      <trkpt lat="45.68519" lon="5.74412">
        <ele>330</ele>
        <time>2018-09-02T13:28:40Z</time>
      </trkpt>
      <trkpt lat="45.68512" lon="5.74412">
        <ele>330</ele>
        <time>2018-09-02T13:28:56Z</time>
      </trkpt>
      <trkpt lat="45.68508" lon="5.74412">
        <ele>330</ele>
        <time>2018-09-02T13:28:56Z</time>
      </trkpt>
      <trkpt lat="45.68501" lon="5.74412">
        <ele>330</ele>
        <time>2018-09-02T13:28:56Z</time>
      </trkpt>
      <trkpt lat="45.68495" lon="5.7441">
        <ele>330</ele>
        <time>2018-09-02T13:28:56Z</time>
      </trkpt>
      <trkpt lat="45.68489" lon="5.74411">
        <ele>330</ele>
        <time>2018-09-02T13:29:12Z</time>
      </trkpt>
      <trkpt lat="45.68483" lon="5.74411">
        <ele>330</ele>
        <time>2018-09-02T13:29:12Z</time>
      </trkpt>
      <trkpt lat="45.68478" lon="5.74411">
        <ele>330</ele>
        <time>2018-09-02T13:29:12Z</time>
      </trkpt>
      <trkpt lat="45.68472" lon="5.74412">
        <ele>330</ele>
        <time>2018-09-02T13:29:12Z</time>
      </trkpt>
      <trkpt lat="45.68465" lon="5.74411">
        <ele>330</ele>
        <time>2018-09-02T13:29:28Z</time>
      </trkpt>
      <trkpt lat="45.68461" lon="5.7441">
        <ele>330</ele>
        <time>2018-09-02T13:29:28Z</time>
      </trkpt>
      <trkpt lat="45.68455" lon="5.7441">
        <ele>328</ele>
        <time>2018-09-02T13:29:28Z</time>
      </trkpt>
      <trkpt lat="45.6845" lon="5.74411">
        <ele>328</ele>
        <time>2018-09-02T13:29:28Z</time>
      </trkpt>
      <trkpt lat="45.68448" lon="5.74412">
        <ele>328</ele>
        <time>2018-09-02T13:29:44Z</time>
      </trkpt>
      <trkpt lat="45.68446" lon="5.74411">
        <ele>328</ele>
        <time>2018-09-02T13:29:44Z</time>
      </trkpt>
      <trkpt lat="45.68441" lon="5.74409">
        <ele>328</ele>
        <time>2018-09-02T13:29:44Z</time>
      </trkpt>
      <trkpt lat="45.68431" lon="5.74407">
        <ele>328</ele>
        <time>2018-09-02T13:29:44Z</time>
      </trkpt>
      <trkpt lat="45.68404" lon="5.74401">
        <ele>328</ele>
        <time>2018-09-02T13:30:00Z</time>
      </trkpt>
      <trkpt lat="45.68381" lon="5.74394">
        <ele>328</ele>
        <time>2018-09-02T13:30:00Z</time>
      </trkpt>
      <trkpt lat="45.68357" lon="5.74383">
        <ele>327</ele>
        <time>2018-09-02T13:30:00Z</time>
      </trkpt>
      <trkpt lat="45.68342" lon="5.74375">
        <ele>340</ele>
        <time>2018-09-02T13:30:00Z</time>
      </trkpt>
      <trkpt lat="45.68331" lon="5.74367">
        <ele>340</ele>
        <time>2018-09-02T13:30:16Z</time>
      </trkpt>
      <trkpt lat="45.68324" lon="5.7436">
        <ele>340</ele>
        <time>2018-09-02T13:30:16Z</time>
      </trkpt>
      <trkpt lat="45.68317" lon="5.74355">
        <ele>340</ele>
        <time>2018-09-02T13:30:16Z</time>
      </trkpt>
      <trkpt lat="45.68312" lon="5.74352">
        <ele>340</ele>
        <time>2018-09-02T13:30:16Z</time>
      </trkpt>
      <trkpt lat="45.68306" lon="5.74343">
        <ele>340</ele>
        <time>2018-09-02T13:30:32Z</time>
      </trkpt>
      <trkpt lat="45.68303" lon="5.74339">
        <ele>340</ele>
        <time>2018-09-02T13:30:32Z</time>
      </trkpt>
      <trkpt lat="45.68299" lon="5.74332">
        <ele>340</ele>
        <time>2018-09-02T13:30:32Z</time>
      </trkpt>
      <trkpt lat="45.68295" lon="5.74323">
        <ele>340</ele>
        <time>2018-09-02T13:30:32Z</time>
      </trkpt>
      <trkpt lat="45.68291" lon="5.74317">
        <ele>329</ele>
        <time>2018-09-02T13:30:48Z</time>
      </trkpt>
      <trkpt lat="45.68288" lon="5.74312">
        <ele>329</ele>
        <time>2018-09-02T13:30:48Z</time>
      </trkpt>
      <trkpt lat="45.68284" lon="5.74304">
        <ele>329</ele>
        <time>2018-09-02T13:30:48Z</time>
      </trkpt>
      <trkpt lat="45.68279" lon="5.74298">
        <ele>329</ele>
        <time>2018-09-02T13:30:48Z</time>
      </trkpt>
      <trkpt lat="45.68273" lon="5.74291">
        <ele>353</ele>
        <time>2018-09-02T13:31:04Z</time>
      </trkpt>
      <trkpt lat="45.6827" lon="5.74288">
        <ele>353</ele>
        <time>2018-09-02T13:31:04Z</time>
      </trkpt>
      <trkpt lat="45.68267" lon="5.74285">
        <ele>353</ele>
        <time>2018-09-02T13:31:04Z</time>
      </trkpt>
      <trkpt lat="45.68263" lon="5.7428">
        <ele>353</ele>
        <time>2018-09-02T13:31:04Z</time>
      </trkpt>
      <trkpt lat="45.68257" lon="5.74273">
        <ele>353</ele>
        <time>2018-09-02T13:31:20Z</time>
      </trkpt>
      <trkpt lat="45.6825" lon="5.7427">
        <ele>353</ele>
        <time>2018-09-02T13:31:20Z</time>
      </trkpt>
      <trkpt lat="45.68247" lon="5.74266">
        <ele>353</ele>
        <time>2018-09-02T13:31:20Z</time>
      </trkpt>
      <trkpt lat="45.68241" lon="5.74258">
        <ele>353</ele>
        <time>2018-09-02T13:31:20Z</time>
      </trkpt>
      <trkpt lat="45.68231" lon="5.74249">
        <ele>353</ele>
        <time>2018-09-02T13:31:36Z</time>
      </trkpt>
      <trkpt lat="45.68226" lon="5.74243">
        <ele>353</ele>
        <time>2018-09-02T13:31:36Z</time>
      </trkpt>
      <trkpt lat="45.6822" lon="5.74237">
        <ele>353</ele>
        <time>2018-09-02T13:31:36Z</time>
      </trkpt>
      <trkpt lat="45.68217" lon="5.74229">
        <ele>353</ele>
        <time>2018-09-02T13:31:36Z</time>
      </trkpt>
      <trkpt lat="45.68213" lon="5.74222">
        <ele>353</ele>
        <time>2018-09-02T13:31:52Z</time>
      </trkpt>
      <trkpt lat="45.68209" lon="5.74218">
        <ele>353</ele>
        <time>2018-09-02T13:31:52Z</time>
      </trkpt>
      <trkpt lat="45.68205" lon="5.74213">
        <ele>333</ele>
        <time>2018-09-02T13:31:52Z</time>
      </trkpt>
      <trkpt lat="45.68202" lon="5.74208">
        <ele>362</ele>
        <time>2018-09-02T13:31:52Z</time>
      </trkpt>
      <trkpt lat="45.68199" lon="5.74202">
        <ele>362</ele>
        <time>2018-09-02T13:32:08Z</time>
      </trkpt>
      <trkpt lat="45.68194" lon="5.74197">
        <ele>362</ele>
        <time>2018-09-02T13:32:08Z</time>
      </trkpt>
      <trkpt lat="45.6819" lon="5.74195">
        <ele>362</ele>
        <time>2018-09-02T13:32:08Z</time>
      </trkpt>
      <trkpt lat="45.68186" lon="5.74187">
        <ele>362</ele>
        <time>2018-09-02T13:32:08Z</time>
      </trkpt>
      <trkpt lat="45.6818" lon="5.74178">
        <ele>362</ele>
        <time>2018-09-02T13:32:24Z</time>
      </trkpt>
      <trkpt lat="45.68175" lon="5.74173">
        <ele>362</ele>
        <time>2018-09-02T13:32:24Z</time>
      </trkpt>
      <trkpt lat="45.68171" lon="5.74167">
        <ele>362</ele>
        <time>2018-09-02T13:32:24Z</time>
      </trkpt>
      <trkpt lat="45.68166" lon="5.74163">
        <ele>362</ele>
        <time>2018-09-02T13:32:24Z</time>
      </trkpt>
      <trkpt lat="45.68155" lon="5.74158">
        <ele>362</ele>
        <time>2018-09-02T13:32:56Z</time>
      </trkpt>
      <trkpt lat="45.68152" lon="5.74155">
        <ele>362</ele>
        <time>2018-09-02T13:32:56Z</time>
      </trkpt>
      <trkpt lat="45.68148" lon="5.74151">
        <ele>362</ele>
        <time>2018-09-02T13:32:56Z</time>
      </trkpt>
      <trkpt lat="45.68141" lon="5.74144">
        <ele>362</ele>
        <time>2018-09-02T13:32:56Z</time>
      </trkpt>
      <trkpt lat="45.68135" lon="5.74137">
        <ele>362</ele>
        <time>2018-09-02T13:32:56Z</time>
      </trkpt>
      <trkpt lat="45.6813" lon="5.74132">
        <ele>362</ele>
        <time>2018-09-02T13:33:12Z</time>
      </trkpt>
      <trkpt lat="45.68126" lon="5.74129">
        <ele>362</ele>
        <time>2018-09-02T13:33:12Z</time>
      </trkpt>
      <trkpt lat="45.68118" lon="5.74124">
        <ele>368</ele>
        <time>2018-09-02T13:33:12Z</time>
      </trkpt>
      <trkpt lat="45.68106" lon="5.74115">
        <ele>368</ele>
        <time>2018-09-02T13:33:12Z</time>
      </trkpt>
      <trkpt lat="45.68102" lon="5.74108">
        <ele>368</ele>
        <time>2018-09-02T13:33:28Z</time>
      </trkpt>
      <trkpt lat="45.68098" lon="5.74104">
        <ele>368</ele>
        <time>2018-09-02T13:33:28Z</time>
      </trkpt>
      <trkpt lat="45.68093" lon="5.74099">
        <ele>368</ele>
        <time>2018-09-02T13:33:28Z</time>
      </trkpt>
      <trkpt lat="45.68087" lon="5.74096">
        <ele>368</ele>
        <time>2018-09-02T13:33:28Z</time>
      </trkpt>
      <trkpt lat="45.68083" lon="5.74094">
        <ele>368</ele>
        <time>2018-09-02T13:33:44Z</time>
      </trkpt>
      <trkpt lat="45.68079" lon="5.7409">
        <ele>368</ele>
        <time>2018-09-02T13:33:44Z</time>
      </trkpt>
      <trkpt lat="45.68074" lon="5.74086">
        <ele>368</ele>
        <time>2018-09-02T13:33:44Z</time>
      </trkpt>
      <trkpt lat="45.68069" lon="5.74081">
        <ele>368</ele>
        <time>2018-09-02T13:33:44Z</time>
      </trkpt>
      <trkpt lat="45.68064" lon="5.74078">
        <ele>368</ele>
        <time>2018-09-02T13:34:00Z</time>
      </trkpt>
      <trkpt lat="45.68061" lon="5.74073">
        <ele>368</ele>
        <time>2018-09-02T13:34:00Z</time>
      </trkpt>
      <trkpt lat="45.68058" lon="5.7407">
        <ele>368</ele>
        <time>2018-09-02T13:34:00Z</time>
      </trkpt>
      <trkpt lat="45.68054" lon="5.74066">
        <ele>368</ele>
        <time>2018-09-02T13:34:00Z</time>
      </trkpt>
      <trkpt lat="45.68047" lon="5.74057">
        <ele>368</ele>
        <time>2018-09-02T13:34:40Z</time>
      </trkpt>
      <trkpt lat="45.68047" lon="5.74057">
        <ele>368</ele>
        <time>2018-09-02T13:34:40Z</time>
      </trkpt>
      <trkpt lat="45.68047" lon="5.74057">
        <ele>368</ele>
        <time>2018-09-02T13:34:40Z</time>
      </trkpt>
      <trkpt lat="45.68046" lon="5.74053">
        <ele>368</ele>
        <time>2018-09-02T13:34:40Z</time>
      </trkpt>
      <trkpt lat="45.68044" lon="5.74048">
        <ele>368</ele>
        <time>2018-09-02T13:34:40Z</time>
      </trkpt>
      <trkpt lat="45.68038" lon="5.74041">
        <ele>382</ele>
        <time>2018-09-02T13:35:36Z</time>
      </trkpt>
      <trkpt lat="45.68038" lon="5.74041">
        <ele>382</ele>
        <time>2018-09-02T13:35:36Z</time>
      </trkpt>
      <trkpt lat="45.68038" lon="5.7404">
        <ele>382</ele>
        <time>2018-09-02T13:35:36Z</time>
      </trkpt>
      <trkpt lat="45.68037" lon="5.74031">
        <ele>382</ele>
        <time>2018-09-02T13:35:36Z</time>
      </trkpt>
      <trkpt lat="45.68027" lon="5.74018">
        <ele>382</ele>
        <time>2018-09-02T13:35:36Z</time>
      </trkpt>
      <trkpt lat="45.68008" lon="5.74007">
        <ele>382</ele>
        <time>2018-09-02T13:35:52Z</time>
      </trkpt>
      <trkpt lat="45.67983" lon="5.73996">
        <ele>382</ele>
        <time>2018-09-02T13:35:52Z</time>
      </trkpt>
      <trkpt lat="45.67966" lon="5.73985">
        <ele>382</ele>
        <time>2018-09-02T13:35:52Z</time>
      </trkpt>
      <trkpt lat="45.67945" lon="5.73977">
        <ele>379</ele>
        <time>2018-09-02T13:35:52Z</time>
      </trkpt>
      <trkpt lat="45.67939" lon="5.73979">
        <ele>379</ele>
        <time>2018-09-02T13:36:08Z</time>
      </trkpt>
      <trkpt lat="45.67931" lon="5.73979">
        <ele>379</ele>
        <time>2018-09-02T13:36:08Z</time>
      </trkpt>
      <trkpt lat="45.67927" lon="5.73979">
        <ele>379</ele>
        <time>2018-09-02T13:36:08Z</time>
      </trkpt>
      <trkpt lat="45.6792" lon="5.73975">
        <ele>379</ele>
        <time>2018-09-02T13:36:08Z</time>
      </trkpt>
      <trkpt lat="45.67914" lon="5.73971">
        <ele>379</ele>
        <time>2018-09-02T13:36:24Z</time>
      </trkpt>
      <trkpt lat="45.67909" lon="5.73969">
        <ele>379</ele>
        <time>2018-09-02T13:36:24Z</time>
      </trkpt>
      <trkpt lat="45.67902" lon="5.73963">
        <ele>379</ele>
        <time>2018-09-02T13:36:24Z</time>
      </trkpt>
      <trkpt lat="45.67896" lon="5.73956">
        <ele>399</ele>
        <time>2018-09-02T13:36:24Z</time>
      </trkpt>
      <trkpt lat="45.6789" lon="5.7395">
        <ele>399</ele>
        <time>2018-09-02T13:36:40Z</time>
      </trkpt>
      <trkpt lat="45.67885" lon="5.73944">
        <ele>399</ele>
        <time>2018-09-02T13:36:40Z</time>
      </trkpt>
      <trkpt lat="45.67881" lon="5.73939">
        <ele>399</ele>
        <time>2018-09-02T13:36:40Z</time>
      </trkpt>
      <trkpt lat="45.67877" lon="5.73933">
        <ele>399</ele>
        <time>2018-09-02T13:36:40Z</time>
      </trkpt>
      <trkpt lat="45.67873" lon="5.73926">
        <ele>395</ele>
        <time>2018-09-02T13:36:56Z</time>
      </trkpt>
      <trkpt lat="45.67871" lon="5.73917">
        <ele>395</ele>
        <time>2018-09-02T13:36:56Z</time>
      </trkpt>
      <trkpt lat="45.67872" lon="5.73911">
        <ele>395</ele>
        <time>2018-09-02T13:36:56Z</time>
      </trkpt>
      <trkpt lat="45.67873" lon="5.7388">
        <ele>395</ele>
        <time>2018-09-02T13:36:56Z</time>
      </trkpt>
      <trkpt lat="45.6786" lon="5.73856">
        <ele>412</ele>
        <time>2018-09-02T13:37:12Z</time>
      </trkpt>
      <trkpt lat="45.67849" lon="5.7384">
        <ele>412</ele>
        <time>2018-09-02T13:37:12Z</time>
      </trkpt>
      <trkpt lat="45.67836" lon="5.73839">
        <ele>412</ele>
        <time>2018-09-02T13:37:12Z</time>
      </trkpt>
      <trkpt lat="45.67823" lon="5.73832">
        <ele>412</ele>
        <time>2018-09-02T13:37:12Z</time>
      </trkpt>
      <trkpt lat="45.67819" lon="5.7382">
        <ele>412</ele>
        <time>2018-09-02T13:37:28Z</time>
      </trkpt>
      <trkpt lat="45.67818" lon="5.73812">
        <ele>412</ele>
        <time>2018-09-02T13:37:28Z</time>
      </trkpt>
      <trkpt lat="45.67818" lon="5.73807">
        <ele>412</ele>
        <time>2018-09-02T13:37:28Z</time>
      </trkpt>
      <trkpt lat="45.67816" lon="5.73799">
        <ele>412</ele>
        <time>2018-09-02T13:37:28Z</time>
      </trkpt>
      <trkpt lat="45.67814" lon="5.73792">
        <ele>419</ele>
        <time>2018-09-02T13:37:44Z</time>
      </trkpt>
      <trkpt lat="45.67811" lon="5.73787">
        <ele>419</ele>
        <time>2018-09-02T13:37:44Z</time>
      </trkpt>
      <trkpt lat="45.67808" lon="5.73786">
        <ele>419</ele>
        <time>2018-09-02T13:37:44Z</time>
      </trkpt>
      <trkpt lat="45.67805" lon="5.73786">
        <ele>419</ele>
        <time>2018-09-02T13:37:44Z</time>
      </trkpt>
      <trkpt lat="45.67801" lon="5.7378">
        <ele>419</ele>
        <time>2018-09-02T13:38:16Z</time>
      </trkpt>
      <trkpt lat="45.67799" lon="5.7378">
        <ele>419</ele>
        <time>2018-09-02T13:38:16Z</time>
      </trkpt>
      <trkpt lat="45.67798" lon="5.73779">
        <ele>419</ele>
        <time>2018-09-02T13:38:16Z</time>
      </trkpt>
      <trkpt lat="45.67797" lon="5.73778">
        <ele>419</ele>
        <time>2018-09-02T13:38:16Z</time>
      </trkpt>
      <trkpt lat="45.67797" lon="5.73777">
        <ele>419</ele>
        <time>2018-09-02T13:38:16Z</time>
      </trkpt>
      <trkpt lat="45.6779" lon="5.73775">
        <ele>426</ele>
        <time>2018-09-02T13:39:24Z</time>
      </trkpt>
      <trkpt lat="45.67789" lon="5.73775">
        <ele>426</ele>
        <time>2018-09-02T13:39:24Z</time>
      </trkpt>
      <trkpt lat="45.67784" lon="5.73773">
        <ele>426</ele>
        <time>2018-09-02T13:39:24Z</time>
      </trkpt>
      <trkpt lat="45.67779" lon="5.73768">
        <ele>426</ele>
        <time>2018-09-02T13:39:24Z</time>
      </trkpt>
      <trkpt lat="45.67774" lon="5.73763">
        <ele>426</ele>
        <time>2018-09-02T13:39:24Z</time>
      </trkpt>
      <trkpt lat="45.67769" lon="5.7376">
        <ele>426</ele>
        <time>2018-09-02T13:39:40Z</time>
      </trkpt>
      <trkpt lat="45.67763" lon="5.73753">
        <ele>426</ele>
        <time>2018-09-02T13:39:40Z</time>
      </trkpt>
      <trkpt lat="45.67758" lon="5.73744">
        <ele>426</ele>
        <time>2018-09-02T13:39:40Z</time>
      </trkpt>
      <trkpt lat="45.67755" lon="5.73727">
        <ele>426</ele>
        <time>2018-09-02T13:39:40Z</time>
      </trkpt>
      <trkpt lat="45.67758" lon="5.73696">
        <ele>430</ele>
        <time>2018-09-02T13:39:56Z</time>
      </trkpt>
      <trkpt lat="45.67758" lon="5.73667">
        <ele>430</ele>
        <time>2018-09-02T13:39:56Z</time>
      </trkpt>
      <trkpt lat="45.67755" lon="5.73637">
        <ele>430</ele>
        <time>2018-09-02T13:39:56Z</time>
      </trkpt>
      <trkpt lat="45.67746" lon="5.73616">
        <ele>436</ele>
        <time>2018-09-02T13:39:56Z</time>
      </trkpt>
      <trkpt lat="45.67732" lon="5.73607">
        <ele>436</ele>
        <time>2018-09-02T13:40:12Z</time>
      </trkpt>
      <trkpt lat="45.67724" lon="5.73603">
        <ele>436</ele>
        <time>2018-09-02T13:40:12Z</time>
      </trkpt>
      <trkpt lat="45.67719" lon="5.73602">
        <ele>436</ele>
        <time>2018-09-02T13:40:12Z</time>
      </trkpt>
      <trkpt lat="45.67713" lon="5.73599">
        <ele>436</ele>
        <time>2018-09-02T13:40:12Z</time>
      </trkpt>
      <trkpt lat="45.67707" lon="5.73596">
        <ele>436</ele>
        <time>2018-09-02T13:40:28Z</time>
      </trkpt>
      <trkpt lat="45.67701" lon="5.73593">
        <ele>436</ele>
        <time>2018-09-02T13:40:28Z</time>
      </trkpt>
      <trkpt lat="45.67696" lon="5.73591">
        <ele>436</ele>
        <time>2018-09-02T13:40:28Z</time>
      </trkpt>
      <trkpt lat="45.67691" lon="5.73588">
        <ele>436</ele>
        <time>2018-09-02T13:40:28Z</time>
      </trkpt>
      <trkpt lat="45.67687" lon="5.73587">
        <ele>436</ele>
        <time>2018-09-02T13:40:44Z</time>
      </trkpt>
      <trkpt lat="45.67679" lon="5.73585">
        <ele>436</ele>
        <time>2018-09-02T13:40:44Z</time>
      </trkpt>
      <trkpt lat="45.67673" lon="5.73583">
        <ele>436</ele>
        <time>2018-09-02T13:40:44Z</time>
      </trkpt>
      <trkpt lat="45.67667" lon="5.7358">
        <ele>436</ele>
        <time>2018-09-02T13:40:44Z</time>
      </trkpt>
      <trkpt lat="45.67659" lon="5.73576">
        <ele>436</ele>
        <time>2018-09-02T13:41:00Z</time>
      </trkpt>
      <trkpt lat="45.67653" lon="5.73574">
        <ele>436</ele>
        <time>2018-09-02T13:41:00Z</time>
      </trkpt>
      <trkpt lat="45.67647" lon="5.73571">
        <ele>436</ele>
        <time>2018-09-02T13:41:00Z</time>
      </trkpt>
      <trkpt lat="45.67642" lon="5.7357">
        <ele>436</ele>
        <time>2018-09-02T13:41:00Z</time>
      </trkpt>
      <trkpt lat="45.67638" lon="5.73568">
        <ele>436</ele>
        <time>2018-09-02T13:41:16Z</time>
      </trkpt>
      <trkpt lat="45.67633" lon="5.73565">
        <ele>436</ele>
        <time>2018-09-02T13:41:16Z</time>
      </trkpt>
      <trkpt lat="45.67628" lon="5.73563">
        <ele>436</ele>
        <time>2018-09-02T13:41:16Z</time>
      </trkpt>
      <trkpt lat="45.67622" lon="5.73559">
        <ele>430</ele>
        <time>2018-09-02T13:41:16Z</time>
      </trkpt>
      <trkpt lat="45.67616" lon="5.73557">
        <ele>430</ele>
        <time>2018-09-02T13:41:32Z</time>
      </trkpt>
      <trkpt lat="45.6761" lon="5.73553">
        <ele>430</ele>
        <time>2018-09-02T13:41:32Z</time>
      </trkpt>
      <trkpt lat="45.67605" lon="5.73549">
        <ele>430</ele>
        <time>2018-09-02T13:41:32Z</time>
      </trkpt>
      <trkpt lat="45.676" lon="5.73544">
        <ele>430</ele>
        <time>2018-09-02T13:41:32Z</time>
      </trkpt>
      <trkpt lat="45.67597" lon="5.73539">
        <ele>437</ele>
        <time>2018-09-02T13:41:48Z</time>
      </trkpt>
      <trkpt lat="45.67592" lon="5.73534">
        <ele>437</ele>
        <time>2018-09-02T13:41:48Z</time>
      </trkpt>
      <trkpt lat="45.67588" lon="5.73526">
        <ele>437</ele>
        <time>2018-09-02T13:41:48Z</time>
      </trkpt>
      <trkpt lat="45.67586" lon="5.73521">
        <ele>437</ele>
        <time>2018-09-02T13:41:48Z</time>
      </trkpt>
      <trkpt lat="45.67583" lon="5.73513">
        <ele>437</ele>
        <time>2018-09-02T13:42:04Z</time>
      </trkpt>
      <trkpt lat="45.67579" lon="5.73504">
        <ele>437</ele>
        <time>2018-09-02T13:42:04Z</time>
      </trkpt>
      <trkpt lat="45.67575" lon="5.73497">
        <ele>437</ele>
        <time>2018-09-02T13:42:04Z</time>
      </trkpt>
      <trkpt lat="45.67573" lon="5.73491">
        <ele>437</ele>
        <time>2018-09-02T13:42:04Z</time>
      </trkpt>
      <trkpt lat="45.67568" lon="5.73483">
        <ele>437</ele>
        <time>2018-09-02T13:42:20Z</time>
      </trkpt>
      <trkpt lat="45.67564" lon="5.73476">
        <ele>437</ele>
        <time>2018-09-02T13:42:20Z</time>
      </trkpt>
      <trkpt lat="45.6756" lon="5.73472">
        <ele>437</ele>
        <time>2018-09-02T13:42:20Z</time>
      </trkpt>
      <trkpt lat="45.67554" lon="5.73469">
        <ele>437</ele>
        <time>2018-09-02T13:42:20Z</time>
      </trkpt>
      <trkpt lat="45.6755" lon="5.73465">
        <ele>437</ele>
        <time>2018-09-02T13:42:36Z</time>
      </trkpt>
      <trkpt lat="45.67545" lon="5.7346">
        <ele>437</ele>
        <time>2018-09-02T13:42:36Z</time>
      </trkpt>
      <trkpt lat="45.67539" lon="5.73456">
        <ele>435</ele>
        <time>2018-09-02T13:42:36Z</time>
      </trkpt>
      <trkpt lat="45.67533" lon="5.73452">
        <ele>435</ele>
        <time>2018-09-02T13:42:36Z</time>
      </trkpt>
      <trkpt lat="45.67528" lon="5.73447">
        <ele>435</ele>
        <time>2018-09-02T13:42:52Z</time>
      </trkpt>
      <trkpt lat="45.6752" lon="5.7344">
        <ele>435</ele>
        <time>2018-09-02T13:42:52Z</time>
      </trkpt>
      <trkpt lat="45.67514" lon="5.73434">
        <ele>435</ele>
        <time>2018-09-02T13:42:52Z</time>
      </trkpt>
      <trkpt lat="45.67511" lon="5.73429">
        <ele>435</ele>
        <time>2018-09-02T13:42:52Z</time>
      </trkpt>
      <trkpt lat="45.67507" lon="5.73424">
        <ele>435</ele>
        <time>2018-09-02T13:43:08Z</time>
      </trkpt>
      <trkpt lat="45.67501" lon="5.73418">
        <ele>435</ele>
        <time>2018-09-02T13:43:08Z</time>
      </trkpt>
      <trkpt lat="45.67496" lon="5.73413">
        <ele>435</ele>
        <time>2018-09-02T13:43:08Z</time>
      </trkpt>
      <trkpt lat="45.67493" lon="5.73409">
        <ele>435</ele>
        <time>2018-09-02T13:43:08Z</time>
      </trkpt>
      <trkpt lat="45.67486" lon="5.73403">
        <ele>435</ele>
        <time>2018-09-02T13:43:24Z</time>
      </trkpt>
      <trkpt lat="45.67482" lon="5.734">
        <ele>435</ele>
        <time>2018-09-02T13:43:24Z</time>
      </trkpt>
      <trkpt lat="45.67477" lon="5.73396">
        <ele>435</ele>
        <time>2018-09-02T13:43:24Z</time>
      </trkpt>
      <trkpt lat="45.67472" lon="5.73391">
        <ele>435</ele>
        <time>2018-09-02T13:43:24Z</time>
      </trkpt>
      <trkpt lat="45.67467" lon="5.73382">
        <ele>435</ele>
        <time>2018-09-02T13:43:40Z</time>
      </trkpt>
      <trkpt lat="45.67464" lon="5.73366">
        <ele>441</ele>
        <time>2018-09-02T13:43:40Z</time>
      </trkpt>
      <trkpt lat="45.67464" lon="5.73358">
        <ele>441</ele>
        <time>2018-09-02T13:43:40Z</time>
      </trkpt>
      <trkpt lat="45.67465" lon="5.7335">
        <ele>441</ele>
        <time>2018-09-02T13:43:40Z</time>
      </trkpt>
      <trkpt lat="45.67466" lon="5.73343">
        <ele>441</ele>
        <time>2018-09-02T13:43:56Z</time>
      </trkpt>
      <trkpt lat="45.6747" lon="5.73334">
        <ele>441</ele>
        <time>2018-09-02T13:43:56Z</time>
      </trkpt>
      <trkpt lat="45.67472" lon="5.73326">
        <ele>441</ele>
        <time>2018-09-02T13:43:56Z</time>
      </trkpt>
      <trkpt lat="45.67475" lon="5.73319">
        <ele>441</ele>
        <time>2018-09-02T13:43:56Z</time>
      </trkpt>
      <trkpt lat="45.6748" lon="5.73313">
        <ele>441</ele>
        <time>2018-09-02T13:44:12Z</time>
      </trkpt>
      <trkpt lat="45.67485" lon="5.7331">
        <ele>441</ele>
        <time>2018-09-02T13:44:12Z</time>
      </trkpt>
      <trkpt lat="45.67491" lon="5.73308">
        <ele>441</ele>
        <time>2018-09-02T13:44:12Z</time>
      </trkpt>
      <trkpt lat="45.67496" lon="5.73307">
        <ele>441</ele>
        <time>2018-09-02T13:44:12Z</time>
      </trkpt>
      <trkpt lat="45.675" lon="5.73303">
        <ele>441</ele>
        <time>2018-09-02T13:44:28Z</time>
      </trkpt>
      <trkpt lat="45.67504" lon="5.73298">
        <ele>441</ele>
        <time>2018-09-02T13:44:28Z</time>
      </trkpt>
      <trkpt lat="45.67509" lon="5.73294">
        <ele>441</ele>
        <time>2018-09-02T13:44:28Z</time>
      </trkpt>
      <trkpt lat="45.67515" lon="5.73288">
        <ele>449</ele>
        <time>2018-09-02T13:44:28Z</time>
      </trkpt>
      <trkpt lat="45.67518" lon="5.73285">
        <ele>449</ele>
        <time>2018-09-02T13:44:44Z</time>
      </trkpt>
      <trkpt lat="45.67523" lon="5.73279">
        <ele>449</ele>
        <time>2018-09-02T13:44:44Z</time>
      </trkpt>
      <trkpt lat="45.67527" lon="5.73273">
        <ele>449</ele>
        <time>2018-09-02T13:44:44Z</time>
      </trkpt>
      <trkpt lat="45.67528" lon="5.73268">
        <ele>449</ele>
        <time>2018-09-02T13:44:44Z</time>
      </trkpt>
      <trkpt lat="45.67529" lon="5.73258">
        <ele>449</ele>
        <time>2018-09-02T13:45:00Z</time>
      </trkpt>
      <trkpt lat="45.67529" lon="5.73252">
        <ele>449</ele>
        <time>2018-09-02T13:45:00Z</time>
      </trkpt>
      <trkpt lat="45.67527" lon="5.73239">
        <ele>449</ele>
        <time>2018-09-02T13:45:00Z</time>
      </trkpt>
      <trkpt lat="45.67525" lon="5.73228">
        <ele>449</ele>
        <time>2018-09-02T13:45:00Z</time>
      </trkpt>
      <trkpt lat="45.67522" lon="5.73225">
        <ele>449</ele>
        <time>2018-09-02T13:45:16Z</time>
      </trkpt>
      <trkpt lat="45.67516" lon="5.73223">
        <ele>449</ele>
        <time>2018-09-02T13:45:16Z</time>
      </trkpt>
      <trkpt lat="45.67511" lon="5.73221">
        <ele>449</ele>
        <time>2018-09-02T13:45:16Z</time>
      </trkpt>
      <trkpt lat="45.67506" lon="5.73219">
        <ele>449</ele>
        <time>2018-09-02T13:45:16Z</time>
      </trkpt>
      <trkpt lat="45.675" lon="5.73218">
        <ele>449</ele>
        <time>2018-09-02T13:45:32Z</time>
      </trkpt>
      <trkpt lat="45.67495" lon="5.73216">
        <ele>449</ele>
        <time>2018-09-02T13:45:32Z</time>
      </trkpt>
      <trkpt lat="45.67489" lon="5.73214">
        <ele>449</ele>
        <time>2018-09-02T13:45:32Z</time>
      </trkpt>
      <trkpt lat="45.67484" lon="5.73213">
        <ele>449</ele>
        <time>2018-09-02T13:45:32Z</time>
      </trkpt>
      <trkpt lat="45.67479" lon="5.73213">
        <ele>449</ele>
        <time>2018-09-02T13:45:48Z</time>
      </trkpt>
      <trkpt lat="45.67465" lon="5.7321">
        <ele>449</ele>
        <time>2018-09-02T13:45:48Z</time>
      </trkpt>
      <trkpt lat="45.67459" lon="5.73207">
        <ele>458</ele>
        <time>2018-09-02T13:45:48Z</time>
      </trkpt>
      <trkpt lat="45.67452" lon="5.73205">
        <ele>459</ele>
        <time>2018-09-02T13:45:48Z</time>
      </trkpt>
      <trkpt lat="45.67446" lon="5.73204">
        <ele>459</ele>
        <time>2018-09-02T13:46:04Z</time>
      </trkpt>
      <trkpt lat="45.6744" lon="5.73202">
        <ele>459</ele>
        <time>2018-09-02T13:46:04Z</time>
      </trkpt>
      <trkpt lat="45.67436" lon="5.732">
        <ele>459</ele>
        <time>2018-09-02T13:46:04Z</time>
      </trkpt>
      <trkpt lat="45.6743" lon="5.73196">
        <ele>459</ele>
        <time>2018-09-02T13:46:04Z</time>
      </trkpt>
      <trkpt lat="45.67425" lon="5.73195">
        <ele>459</ele>
        <time>2018-09-02T13:46:20Z</time>
      </trkpt>
      <trkpt lat="45.67418" lon="5.73193">
        <ele>459</ele>
        <time>2018-09-02T13:46:20Z</time>
      </trkpt>
      <trkpt lat="45.67413" lon="5.73193">
        <ele>459</ele>
        <time>2018-09-02T13:46:20Z</time>
      </trkpt>
      <trkpt lat="45.67407" lon="5.73191">
        <ele>459</ele>
        <time>2018-09-02T13:46:20Z</time>
      </trkpt>
      <trkpt lat="45.67401" lon="5.73189">
        <ele>459</ele>
        <time>2018-09-02T13:46:36Z</time>
      </trkpt>
      <trkpt lat="45.67398" lon="5.73187">
        <ele>459</ele>
        <time>2018-09-02T13:46:36Z</time>
      </trkpt>
      <trkpt lat="45.67393" lon="5.73185">
        <ele>459</ele>
        <time>2018-09-02T13:46:36Z</time>
      </trkpt>
      <trkpt lat="45.67387" lon="5.7318">
        <ele>459</ele>
        <time>2018-09-02T13:46:36Z</time>
      </trkpt>
      <trkpt lat="45.67383" lon="5.73178">
        <ele>459</ele>
        <time>2018-09-02T13:46:52Z</time>
      </trkpt>
      <trkpt lat="45.67376" lon="5.73174">
        <ele>459</ele>
        <time>2018-09-02T13:46:52Z</time>
      </trkpt>
      <trkpt lat="45.67372" lon="5.7317">
        <ele>462</ele>
        <time>2018-09-02T13:46:52Z</time>
      </trkpt>
      <trkpt lat="45.67368" lon="5.73167">
        <ele>462</ele>
        <time>2018-09-02T13:46:52Z</time>
      </trkpt>
      <trkpt lat="45.67362" lon="5.73162">
        <ele>462</ele>
        <time>2018-09-02T13:47:08Z</time>
      </trkpt>
      <trkpt lat="45.67358" lon="5.73157">
        <ele>462</ele>
        <time>2018-09-02T13:47:08Z</time>
      </trkpt>
      <trkpt lat="45.67354" lon="5.73152">
        <ele>462</ele>
        <time>2018-09-02T13:47:08Z</time>
      </trkpt>
      <trkpt lat="45.6735" lon="5.73147">
        <ele>462</ele>
        <time>2018-09-02T13:47:08Z</time>
      </trkpt>
      <trkpt lat="45.67346" lon="5.73143">
        <ele>462</ele>
        <time>2018-09-02T13:47:24Z</time>
      </trkpt>
      <trkpt lat="45.67341" lon="5.73138">
        <ele>462</ele>
        <time>2018-09-02T13:47:24Z</time>
      </trkpt>
      <trkpt lat="45.67336" lon="5.73133">
        <ele>462</ele>
        <time>2018-09-02T13:47:24Z</time>
      </trkpt>
      <trkpt lat="45.67332" lon="5.73128">
        <ele>462</ele>
        <time>2018-09-02T13:47:24Z</time>
      </trkpt>
      <trkpt lat="45.67327" lon="5.73124">
        <ele>471</ele>
        <time>2018-09-02T13:47:40Z</time>
      </trkpt>
      <trkpt lat="45.67324" lon="5.7312">
        <ele>471</ele>
        <time>2018-09-02T13:47:40Z</time>
      </trkpt>
      <trkpt lat="45.67319" lon="5.73116">
        <ele>471</ele>
        <time>2018-09-02T13:47:40Z</time>
      </trkpt>
      <trkpt lat="45.67313" lon="5.73112">
        <ele>471</ele>
        <time>2018-09-02T13:47:40Z</time>
      </trkpt>
      <trkpt lat="45.67307" lon="5.73112">
        <ele>471</ele>
        <time>2018-09-02T13:47:56Z</time>
      </trkpt>
      <trkpt lat="45.67301" lon="5.73115">
        <ele>471</ele>
        <time>2018-09-02T13:47:56Z</time>
      </trkpt>
      <trkpt lat="45.67295" lon="5.73117">
        <ele>471</ele>
        <time>2018-09-02T13:47:56Z</time>
      </trkpt>
      <trkpt lat="45.67291" lon="5.73119">
        <ele>470</ele>
        <time>2018-09-02T13:47:56Z</time>
      </trkpt>
      <trkpt lat="45.67283" lon="5.73123">
        <ele>470</ele>
        <time>2018-09-02T13:48:12Z</time>
      </trkpt>
      <trkpt lat="45.67273" lon="5.73131">
        <ele>463</ele>
        <time>2018-09-02T13:48:12Z</time>
      </trkpt>
      <trkpt lat="45.67266" lon="5.73135">
        <ele>463</ele>
        <time>2018-09-02T13:48:12Z</time>
      </trkpt>
      <trkpt lat="45.67262" lon="5.73136">
        <ele>463</ele>
        <time>2018-09-02T13:48:12Z</time>
      </trkpt>
      <trkpt lat="45.67256" lon="5.73137">
        <ele>463</ele>
        <time>2018-09-02T13:48:28Z</time>
      </trkpt>
      <trkpt lat="45.6725" lon="5.73136">
        <ele>463</ele>
        <time>2018-09-02T13:48:28Z</time>
      </trkpt>
      <trkpt lat="45.67243" lon="5.73136">
        <ele>463</ele>
        <time>2018-09-02T13:48:28Z</time>
      </trkpt>
      <trkpt lat="45.67238" lon="5.73135">
        <ele>463</ele>
        <time>2018-09-02T13:48:28Z</time>
      </trkpt>
      <trkpt lat="45.67233" lon="5.73133">
        <ele>463</ele>
        <time>2018-09-02T13:48:44Z</time>
      </trkpt>
      <trkpt lat="45.67228" lon="5.73134">
        <ele>463</ele>
        <time>2018-09-02T13:48:44Z</time>
      </trkpt>
      <trkpt lat="45.67222" lon="5.73133">
        <ele>463</ele>
        <time>2018-09-02T13:48:44Z</time>
      </trkpt>
      <trkpt lat="45.67217" lon="5.73134">
        <ele>463</ele>
        <time>2018-09-02T13:48:44Z</time>
      </trkpt>
      <trkpt lat="45.67212" lon="5.73136">
        <ele>463</ele>
        <time>2018-09-02T13:49:00Z</time>
      </trkpt>
      <trkpt lat="45.67207" lon="5.73136">
        <ele>466</ele>
        <time>2018-09-02T13:49:00Z</time>
      </trkpt>
      <trkpt lat="45.67199" lon="5.73137">
        <ele>466</ele>
        <time>2018-09-02T13:49:00Z</time>
      </trkpt>
      <trkpt lat="45.67193" lon="5.73138">
        <ele>466</ele>
        <time>2018-09-02T13:49:00Z</time>
      </trkpt>
      <trkpt lat="45.67188" lon="5.73137">
        <ele>466</ele>
        <time>2018-09-02T13:49:16Z</time>
      </trkpt>
      <trkpt lat="45.67181" lon="5.73134">
        <ele>466</ele>
        <time>2018-09-02T13:49:16Z</time>
      </trkpt>
      <trkpt lat="45.67174" lon="5.7313">
        <ele>466</ele>
        <time>2018-09-02T13:49:16Z</time>
      </trkpt>
      <trkpt lat="45.67166" lon="5.73126">
        <ele>466</ele>
        <time>2018-09-02T13:49:16Z</time>
      </trkpt>
      <trkpt lat="45.67161" lon="5.73122">
        <ele>468</ele>
        <time>2018-09-02T13:49:32Z</time>
      </trkpt>
      <trkpt lat="45.67156" lon="5.73117">
        <ele>468</ele>
        <time>2018-09-02T13:49:32Z</time>
      </trkpt>
      <trkpt lat="45.6715" lon="5.73112">
        <ele>468</ele>
        <time>2018-09-02T13:49:32Z</time>
      </trkpt>
      <trkpt lat="45.67147" lon="5.73108">
        <ele>468</ele>
        <time>2018-09-02T13:49:32Z</time>
      </trkpt>
      <trkpt lat="45.67136" lon="5.73105">
        <ele>468</ele>
        <time>2018-09-02T13:50:20Z</time>
      </trkpt>
      <trkpt lat="45.67136" lon="5.73114">
        <ele>468</ele>
        <time>2018-09-02T13:50:20Z</time>
      </trkpt>
      <trkpt lat="45.67129" lon="5.73125">
        <ele>466</ele>
        <time>2018-09-02T13:50:20Z</time>
      </trkpt>
      <trkpt lat="45.67123" lon="5.73132">
        <ele>469</ele>
        <time>2018-09-02T13:50:20Z</time>
      </trkpt>
      <trkpt lat="45.67119" lon="5.73137">
        <ele>469</ele>
        <time>2018-09-02T13:50:20Z</time>
      </trkpt>
      <trkpt lat="45.67115" lon="5.73144">
        <ele>469</ele>
        <time>2018-09-02T13:50:36Z</time>
      </trkpt>
      <trkpt lat="45.67112" lon="5.73151">
        <ele>469</ele>
        <time>2018-09-02T13:50:36Z</time>
      </trkpt>
      <trkpt lat="45.67108" lon="5.7316">
        <ele>469</ele>
        <time>2018-09-02T13:50:36Z</time>
      </trkpt>
      <trkpt lat="45.67103" lon="5.73166">
        <ele>469</ele>
        <time>2018-09-02T13:50:36Z</time>
      </trkpt>
      <trkpt lat="45.67101" lon="5.73171">
        <ele>469</ele>
        <time>2018-09-02T13:50:52Z</time>
      </trkpt>
      <trkpt lat="45.67097" lon="5.73179">
        <ele>469</ele>
        <time>2018-09-02T13:50:52Z</time>
      </trkpt>
      <trkpt lat="45.67093" lon="5.73184">
        <ele>469</ele>
        <time>2018-09-02T13:50:52Z</time>
      </trkpt>
      <trkpt lat="45.67089" lon="5.73188">
        <ele>469</ele>
        <time>2018-09-02T13:50:52Z</time>
      </trkpt>
      <trkpt lat="45.67085" lon="5.7319">
        <ele>469</ele>
        <time>2018-09-02T13:51:08Z</time>
      </trkpt>
      <trkpt lat="45.6708" lon="5.73189">
        <ele>469</ele>
        <time>2018-09-02T13:51:08Z</time>
      </trkpt>
      <trkpt lat="45.67075" lon="5.73186">
        <ele>469</ele>
        <time>2018-09-02T13:51:08Z</time>
      </trkpt>
      <trkpt lat="45.67069" lon="5.73183">
        <ele>469</ele>
        <time>2018-09-02T13:51:08Z</time>
      </trkpt>
      <trkpt lat="45.67063" lon="5.73181">
        <ele>469</ele>
        <time>2018-09-02T13:51:24Z</time>
      </trkpt>
      <trkpt lat="45.67058" lon="5.73178">
        <ele>469</ele>
        <time>2018-09-02T13:51:24Z</time>
      </trkpt>
      <trkpt lat="45.67053" lon="5.73176">
        <ele>469</ele>
        <time>2018-09-02T13:51:24Z</time>
      </trkpt>
      <trkpt lat="45.67048" lon="5.73173">
        <ele>469</ele>
        <time>2018-09-02T13:51:24Z</time>
      </trkpt>
      <trkpt lat="45.67042" lon="5.73171">
        <ele>469</ele>
        <time>2018-09-02T13:51:40Z</time>
      </trkpt>
      <trkpt lat="45.67035" lon="5.73168">
        <ele>468</ele>
        <time>2018-09-02T13:51:40Z</time>
      </trkpt>
      <trkpt lat="45.67031" lon="5.73167">
        <ele>468</ele>
        <time>2018-09-02T13:51:40Z</time>
      </trkpt>
      <trkpt lat="45.67023" lon="5.73166">
        <ele>468</ele>
        <time>2018-09-02T13:51:40Z</time>
      </trkpt>
      <trkpt lat="45.67017" lon="5.73164">
        <ele>468</ele>
        <time>2018-09-02T13:51:56Z</time>
      </trkpt>
      <trkpt lat="45.6701" lon="5.73163">
        <ele>468</ele>
        <time>2018-09-02T13:51:56Z</time>
      </trkpt>
      <trkpt lat="45.67004" lon="5.73162">
        <ele>468</ele>
        <time>2018-09-02T13:51:56Z</time>
      </trkpt>
      <trkpt lat="45.66998" lon="5.73161">
        <ele>468</ele>
        <time>2018-09-02T13:51:56Z</time>
      </trkpt>
      <trkpt lat="45.66992" lon="5.7316">
        <ele>468</ele>
        <time>2018-09-02T13:52:12Z</time>
      </trkpt>
      <trkpt lat="45.66985" lon="5.7316">
        <ele>468</ele>
        <time>2018-09-02T13:52:12Z</time>
      </trkpt>
      <trkpt lat="45.66979" lon="5.7316">
        <ele>468</ele>
        <time>2018-09-02T13:52:12Z</time>
      </trkpt>
      <trkpt lat="45.66974" lon="5.7316">
        <ele>468</ele>
        <time>2018-09-02T13:52:12Z</time>
      </trkpt>
      <trkpt lat="45.66968" lon="5.73161">
        <ele>468</ele>
        <time>2018-09-02T13:52:28Z</time>
      </trkpt>
      <trkpt lat="45.66961" lon="5.73159">
        <ele>468</ele>
        <time>2018-09-02T13:52:28Z</time>
      </trkpt>
      <trkpt lat="45.66955" lon="5.73158">
        <ele>472</ele>
        <time>2018-09-02T13:52:28Z</time>
      </trkpt>
      <trkpt lat="45.66949" lon="5.73154">
        <ele>472</ele>
        <time>2018-09-02T13:52:28Z</time>
      </trkpt>
      <trkpt lat="45.66945" lon="5.73152">
        <ele>472</ele>
        <time>2018-09-02T13:52:44Z</time>
      </trkpt>
      <trkpt lat="45.66939" lon="5.73152">
        <ele>472</ele>
        <time>2018-09-02T13:52:44Z</time>
      </trkpt>
      <trkpt lat="45.66932" lon="5.7315">
        <ele>472</ele>
        <time>2018-09-02T13:52:44Z</time>
      </trkpt>
      <trkpt lat="45.66924" lon="5.73146">
        <ele>472</ele>
        <time>2018-09-02T13:52:44Z</time>
      </trkpt>
      <trkpt lat="45.6692" lon="5.73144">
        <ele>472</ele>
        <time>2018-09-02T13:53:00Z</time>
      </trkpt>
      <trkpt lat="45.66914" lon="5.73141">
        <ele>472</ele>
        <time>2018-09-02T13:53:00Z</time>
      </trkpt>
      <trkpt lat="45.66908" lon="5.73137">
        <ele>472</ele>
        <time>2018-09-02T13:53:00Z</time>
      </trkpt>
      <trkpt lat="45.669" lon="5.73131">
        <ele>472</ele>
        <time>2018-09-02T13:53:00Z</time>
      </trkpt>
      <trkpt lat="45.66894" lon="5.73128">
        <ele>472</ele>
        <time>2018-09-02T13:53:16Z</time>
      </trkpt>
      <trkpt lat="45.6689" lon="5.73124">
        <ele>470</ele>
        <time>2018-09-02T13:53:16Z</time>
      </trkpt>
      <trkpt lat="45.66883" lon="5.73119">
        <ele>470</ele>
        <time>2018-09-02T13:53:16Z</time>
      </trkpt>
      <trkpt lat="45.66877" lon="5.73117">
        <ele>470</ele>
        <time>2018-09-02T13:53:16Z</time>
      </trkpt>
      <trkpt lat="45.66873" lon="5.73112">
        <ele>475</ele>
        <time>2018-09-02T13:53:32Z</time>
      </trkpt>
      <trkpt lat="45.66867" lon="5.73107">
        <ele>475</ele>
        <time>2018-09-02T13:53:32Z</time>
      </trkpt>
      <trkpt lat="45.6686" lon="5.73103">
        <ele>475</ele>
        <time>2018-09-02T13:53:32Z</time>
      </trkpt>
      <trkpt lat="45.66855" lon="5.73102">
        <ele>475</ele>
        <time>2018-09-02T13:53:32Z</time>
      </trkpt>
      <trkpt lat="45.66847" lon="5.73098">
        <ele>475</ele>
        <time>2018-09-02T13:53:48Z</time>
      </trkpt>
      <trkpt lat="45.66843" lon="5.73096">
        <ele>475</ele>
        <time>2018-09-02T13:53:48Z</time>
      </trkpt>
      <trkpt lat="45.66837" lon="5.73094">
        <ele>475</ele>
        <time>2018-09-02T13:53:48Z</time>
      </trkpt>
      <trkpt lat="45.66832" lon="5.73092">
        <ele>475</ele>
        <time>2018-09-02T13:53:48Z</time>
      </trkpt>
      <trkpt lat="45.66826" lon="5.73091">
        <ele>475</ele>
        <time>2018-09-02T13:54:04Z</time>
      </trkpt>
      <trkpt lat="45.66821" lon="5.7309">
        <ele>475</ele>
        <time>2018-09-02T13:54:04Z</time>
      </trkpt>
      <trkpt lat="45.66814" lon="5.73087">
        <ele>475</ele>
        <time>2018-09-02T13:54:04Z</time>
      </trkpt>
      <trkpt lat="45.66808" lon="5.73084">
        <ele>475</ele>
        <time>2018-09-02T13:54:04Z</time>
      </trkpt>
      <trkpt lat="45.66802" lon="5.7308">
        <ele>475</ele>
        <time>2018-09-02T13:54:20Z</time>
      </trkpt>
      <trkpt lat="45.66797" lon="5.73078">
        <ele>475</ele>
        <time>2018-09-02T13:54:20Z</time>
      </trkpt>
      <trkpt lat="45.66791" lon="5.73077">
        <ele>480</ele>
        <time>2018-09-02T13:54:20Z</time>
      </trkpt>
      <trkpt lat="45.66785" lon="5.73076">
        <ele>480</ele>
        <time>2018-09-02T13:54:20Z</time>
      </trkpt>
      <trkpt lat="45.66778" lon="5.73076">
        <ele>480</ele>
        <time>2018-09-02T13:54:36Z</time>
      </trkpt>
      <trkpt lat="45.66771" lon="5.73077">
        <ele>480</ele>
        <time>2018-09-02T13:54:36Z</time>
      </trkpt>
      <trkpt lat="45.66764" lon="5.73078">
        <ele>480</ele>
        <time>2018-09-02T13:54:36Z</time>
      </trkpt>
      <trkpt lat="45.66758" lon="5.73079">
        <ele>480</ele>
        <time>2018-09-02T13:54:36Z</time>
      </trkpt>
      <trkpt lat="45.66751" lon="5.73078">
        <ele>480</ele>
        <time>2018-09-02T13:54:52Z</time>
      </trkpt>
      <trkpt lat="45.66744" lon="5.73078">
        <ele>480</ele>
        <time>2018-09-02T13:54:52Z</time>
      </trkpt>
      <trkpt lat="45.66738" lon="5.73078">
        <ele>480</ele>
        <time>2018-09-02T13:54:52Z</time>
      </trkpt>
      <trkpt lat="45.66732" lon="5.73079">
        <ele>480</ele>
        <time>2018-09-02T13:54:52Z</time>
      </trkpt>
      <trkpt lat="45.66725" lon="5.73079">
        <ele>480</ele>
        <time>2018-09-02T13:55:08Z</time>
      </trkpt>
      <trkpt lat="45.6672" lon="5.73076">
        <ele>480</ele>
        <time>2018-09-02T13:55:08Z</time>
      </trkpt>
      <trkpt lat="45.66714" lon="5.73074">
        <ele>480</ele>
        <time>2018-09-02T13:55:08Z</time>
      </trkpt>
      <trkpt lat="45.66705" lon="5.73072">
        <ele>481</ele>
        <time>2018-09-02T13:55:08Z</time>
      </trkpt>
      <trkpt lat="45.66697" lon="5.73071">
        <ele>481</ele>
        <time>2018-09-02T13:55:24Z</time>
      </trkpt>
      <trkpt lat="45.66689" lon="5.73067">
        <ele>481</ele>
        <time>2018-09-02T13:55:24Z</time>
      </trkpt>
      <trkpt lat="45.66672" lon="5.73055">
        <ele>481</ele>
        <time>2018-09-02T13:55:24Z</time>
      </trkpt>
      <trkpt lat="45.66651" lon="5.73048">
        <ele>481</ele>
        <time>2018-09-02T13:55:24Z</time>
      </trkpt>
      <trkpt lat="45.66628" lon="5.73039">
        <ele>481</ele>
        <time>2018-09-02T13:55:40Z</time>
      </trkpt>
      <trkpt lat="45.66602" lon="5.73033">
        <ele>485</ele>
        <time>2018-09-02T13:55:40Z</time>
      </trkpt>
      <trkpt lat="45.6657" lon="5.73018">
        <ele>485</ele>
        <time>2018-09-02T13:55:40Z</time>
      </trkpt>
      <trkpt lat="45.66545" lon="5.73008">
        <ele>485</ele>
        <time>2018-09-02T13:55:40Z</time>
      </trkpt>
      <trkpt lat="45.66531" lon="5.72999">
        <ele>491</ele>
        <time>2018-09-02T13:55:56Z</time>
      </trkpt>
      <trkpt lat="45.66518" lon="5.72989">
        <ele>491</ele>
        <time>2018-09-02T13:55:56Z</time>
      </trkpt>
      <trkpt lat="45.66508" lon="5.72985">
        <ele>491</ele>
        <time>2018-09-02T13:55:56Z</time>
      </trkpt>
      <trkpt lat="45.66502" lon="5.72981">
        <ele>491</ele>
        <time>2018-09-02T13:55:56Z</time>
      </trkpt>
      <trkpt lat="45.66494" lon="5.72976">
        <ele>491</ele>
        <time>2018-09-02T13:56:12Z</time>
      </trkpt>
      <trkpt lat="45.66489" lon="5.7297">
        <ele>491</ele>
        <time>2018-09-02T13:56:12Z</time>
      </trkpt>
      <trkpt lat="45.66485" lon="5.72962">
        <ele>491</ele>
        <time>2018-09-02T13:56:12Z</time>
      </trkpt>
      <trkpt lat="45.66482" lon="5.72957">
        <ele>490</ele>
        <time>2018-09-02T13:56:12Z</time>
      </trkpt>
      <trkpt lat="45.66477" lon="5.72951">
        <ele>490</ele>
        <time>2018-09-02T13:56:28Z</time>
      </trkpt>
      <trkpt lat="45.66471" lon="5.72945">
        <ele>490</ele>
        <time>2018-09-02T13:56:28Z</time>
      </trkpt>
      <trkpt lat="45.66467" lon="5.72942">
        <ele>490</ele>
        <time>2018-09-02T13:56:28Z</time>
      </trkpt>
      <trkpt lat="45.6646" lon="5.72936">
        <ele>490</ele>
        <time>2018-09-02T13:56:28Z</time>
      </trkpt>
      <trkpt lat="45.66448" lon="5.72942">
        <ele>495</ele>
        <time>2018-09-02T13:57:44Z</time>
      </trkpt>
      <trkpt lat="45.66447" lon="5.72943">
        <ele>495</ele>
        <time>2018-09-02T13:57:44Z</time>
      </trkpt>
      <trkpt lat="45.6644" lon="5.72947">
        <ele>495</ele>
        <time>2018-09-02T13:57:44Z</time>
      </trkpt>
      <trkpt lat="45.66433" lon="5.72947">
        <ele>495</ele>
        <time>2018-09-02T13:57:44Z</time>
      </trkpt>
      <trkpt lat="45.66427" lon="5.72945">
        <ele>495</ele>
        <time>2018-09-02T13:57:44Z</time>
      </trkpt>
      <trkpt lat="45.66422" lon="5.72939">
        <ele>495</ele>
        <time>2018-09-02T13:58:00Z</time>
      </trkpt>
      <trkpt lat="45.66418" lon="5.72934">
        <ele>495</ele>
        <time>2018-09-02T13:58:00Z</time>
      </trkpt>
      <trkpt lat="45.66413" lon="5.72929">
        <ele>495</ele>
        <time>2018-09-02T13:58:00Z</time>
      </trkpt>
      <trkpt lat="45.66409" lon="5.72923">
        <ele>495</ele>
        <time>2018-09-02T13:58:00Z</time>
      </trkpt>
      <trkpt lat="45.66407" lon="5.72916">
        <ele>495</ele>
        <time>2018-09-02T13:58:16Z</time>
      </trkpt>
      <trkpt lat="45.66405" lon="5.72908">
        <ele>495</ele>
        <time>2018-09-02T13:58:16Z</time>
      </trkpt>
      <trkpt lat="45.66402" lon="5.729">
        <ele>495</ele>
        <time>2018-09-02T13:58:16Z</time>
      </trkpt>
      <trkpt lat="45.66399" lon="5.72894">
        <ele>495</ele>
        <time>2018-09-02T13:58:16Z</time>
      </trkpt>
      <trkpt lat="45.66395" lon="5.72887">
        <ele>495</ele>
        <time>2018-09-02T13:58:32Z</time>
      </trkpt>
      <trkpt lat="45.66393" lon="5.7288">
        <ele>495</ele>
        <time>2018-09-02T13:58:32Z</time>
      </trkpt>
      <trkpt lat="45.66388" lon="5.72874">
        <ele>497</ele>
        <time>2018-09-02T13:58:32Z</time>
      </trkpt>
      <trkpt lat="45.66383" lon="5.7287">
        <ele>497</ele>
        <time>2018-09-02T13:58:32Z</time>
      </trkpt>
      <trkpt lat="45.66378" lon="5.72867">
        <ele>497</ele>
        <time>2018-09-02T13:58:48Z</time>
      </trkpt>
      <trkpt lat="45.66373" lon="5.72863">
        <ele>505</ele>
        <time>2018-09-02T13:58:48Z</time>
      </trkpt>
      <trkpt lat="45.66368" lon="5.7286">
        <ele>505</ele>
        <time>2018-09-02T13:58:48Z</time>
      </trkpt>
      <trkpt lat="45.66364" lon="5.72856">
        <ele>505</ele>
        <time>2018-09-02T13:58:48Z</time>
      </trkpt>
      <trkpt lat="45.66359" lon="5.72853">
        <ele>505</ele>
        <time>2018-09-02T13:59:04Z</time>
      </trkpt>
      <trkpt lat="45.66354" lon="5.72851">
        <ele>505</ele>
        <time>2018-09-02T13:59:04Z</time>
      </trkpt>
      <trkpt lat="45.6635" lon="5.72849">
        <ele>505</ele>
        <time>2018-09-02T13:59:04Z</time>
      </trkpt>
      <trkpt lat="45.66346" lon="5.72847">
        <ele>505</ele>
        <time>2018-09-02T13:59:04Z</time>
      </trkpt>
      <trkpt lat="45.66344" lon="5.72845">
        <ele>505</ele>
        <time>2018-09-02T13:59:20Z</time>
      </trkpt>
      <trkpt lat="45.6634" lon="5.72844">
        <ele>505</ele>
        <time>2018-09-02T13:59:20Z</time>
      </trkpt>
      <trkpt lat="45.66339" lon="5.72843">
        <ele>505</ele>
        <time>2018-09-02T13:59:20Z</time>
      </trkpt>
      <trkpt lat="45.66335" lon="5.72839">
        <ele>505</ele>
        <time>2018-09-02T13:59:20Z</time>
      </trkpt>
      <trkpt lat="45.66331" lon="5.72836">
        <ele>505</ele>
        <time>2018-09-02T13:59:36Z</time>
      </trkpt>
      <trkpt lat="45.66324" lon="5.72831">
        <ele>505</ele>
        <time>2018-09-02T13:59:36Z</time>
      </trkpt>
      <trkpt lat="45.66317" lon="5.72824">
        <ele>505</ele>
        <time>2018-09-02T13:59:36Z</time>
      </trkpt>
      <trkpt lat="45.66306" lon="5.72818">
        <ele>505</ele>
        <time>2018-09-02T13:59:36Z</time>
      </trkpt>
      <trkpt lat="45.66297" lon="5.72811">
        <ele>505</ele>
        <time>2018-09-02T13:59:52Z</time>
      </trkpt>
      <trkpt lat="45.6629" lon="5.72806">
        <ele>512</ele>
        <time>2018-09-02T13:59:52Z</time>
      </trkpt>
      <trkpt lat="45.66282" lon="5.72802">
        <ele>512</ele>
        <time>2018-09-02T13:59:52Z</time>
      </trkpt>
      <trkpt lat="45.66269" lon="5.72795">
        <ele>512</ele>
        <time>2018-09-02T13:59:52Z</time>
      </trkpt>
      <trkpt lat="45.66263" lon="5.7279">
        <ele>527</ele>
        <time>2018-09-02T14:00:08Z</time>
      </trkpt>
      <trkpt lat="45.66257" lon="5.72786">
        <ele>527</ele>
        <time>2018-09-02T14:00:08Z</time>
      </trkpt>
      <trkpt lat="45.6625" lon="5.72782">
        <ele>527</ele>
        <time>2018-09-02T14:00:08Z</time>
      </trkpt>
      <trkpt lat="45.66244" lon="5.72779">
        <ele>527</ele>
        <time>2018-09-02T14:00:08Z</time>
      </trkpt>
      <trkpt lat="45.66238" lon="5.72774">
        <ele>527</ele>
        <time>2018-09-02T14:00:24Z</time>
      </trkpt>
      <trkpt lat="45.6623" lon="5.72759">
        <ele>527</ele>
        <time>2018-09-02T14:00:24Z</time>
      </trkpt>
      <trkpt lat="45.66221" lon="5.72738">
        <ele>527</ele>
        <time>2018-09-02T14:00:24Z</time>
      </trkpt>
      <trkpt lat="45.66208" lon="5.72716">
        <ele>523</ele>
        <time>2018-09-02T14:00:24Z</time>
      </trkpt>
      <trkpt lat="45.66202" lon="5.72694">
        <ele>531</ele>
        <time>2018-09-02T14:00:40Z</time>
      </trkpt>
      <trkpt lat="45.66199" lon="5.72668">
        <ele>531</ele>
        <time>2018-09-02T14:00:40Z</time>
      </trkpt>
      <trkpt lat="45.66204" lon="5.72638">
        <ele>531</ele>
        <time>2018-09-02T14:00:40Z</time>
      </trkpt>
      <trkpt lat="45.66217" lon="5.72614">
        <ele>545</ele>
        <time>2018-09-02T14:00:40Z</time>
      </trkpt>
      <trkpt lat="45.66239" lon="5.72606">
        <ele>545</ele>
        <time>2018-09-02T14:00:56Z</time>
      </trkpt>
      <trkpt lat="45.66262" lon="5.72597">
        <ele>545</ele>
        <time>2018-09-02T14:00:56Z</time>
      </trkpt>
      <trkpt lat="45.6628" lon="5.72583">
        <ele>545</ele>
        <time>2018-09-02T14:00:56Z</time>
      </trkpt>
      <trkpt lat="45.66295" lon="5.72563">
        <ele>538</ele>
        <time>2018-09-02T14:00:56Z</time>
      </trkpt>
      <trkpt lat="45.66311" lon="5.72546">
        <ele>538</ele>
        <time>2018-09-02T14:01:12Z</time>
      </trkpt>
      <trkpt lat="45.66326" lon="5.72514">
        <ele>548</ele>
        <time>2018-09-02T14:01:12Z</time>
      </trkpt>
      <trkpt lat="45.66339" lon="5.72479">
        <ele>548</ele>
        <time>2018-09-02T14:01:12Z</time>
      </trkpt>
      <trkpt lat="45.6634" lon="5.72448">
        <ele>555</ele>
        <time>2018-09-02T14:01:12Z</time>
      </trkpt>
      <trkpt lat="45.66339" lon="5.72421">
        <ele>555</ele>
        <time>2018-09-02T14:01:28Z</time>
      </trkpt>
      <trkpt lat="45.66345" lon="5.72405">
        <ele>555</ele>
        <time>2018-09-02T14:01:28Z</time>
      </trkpt>
      <trkpt lat="45.66356" lon="5.72394">
        <ele>555</ele>
        <time>2018-09-02T14:01:28Z</time>
      </trkpt>
      <trkpt lat="45.66359" lon="5.72392">
        <ele>555</ele>
        <time>2018-09-02T14:01:28Z</time>
      </trkpt>
      <trkpt lat="45.66362" lon="5.72388">
        <ele>555</ele>
        <time>2018-09-02T14:01:48Z</time>
      </trkpt>
      <trkpt lat="45.66366" lon="5.7239">
        <ele>555</ele>
        <time>2018-09-02T14:01:48Z</time>
      </trkpt>
      <trkpt lat="45.66366" lon="5.72391">
        <ele>555</ele>
        <time>2018-09-02T14:01:48Z</time>
      </trkpt>
      <trkpt lat="45.66368" lon="5.72393">
        <ele>555</ele>
        <time>2018-09-02T14:01:48Z</time>
      </trkpt>
      <trkpt lat="45.6637" lon="5.72395">
        <ele>555</ele>
        <time>2018-09-02T14:01:48Z</time>
      </trkpt>
      <trkpt lat="45.66376" lon="5.72398">
        <ele>549</ele>
        <time>2018-09-02T14:02:04Z</time>
      </trkpt>
      <trkpt lat="45.66383" lon="5.72403">
        <ele>549</ele>
        <time>2018-09-02T14:02:04Z</time>
      </trkpt>
      <trkpt lat="45.66388" lon="5.72406">
        <ele>549</ele>
        <time>2018-09-02T14:02:04Z</time>
      </trkpt>
      <trkpt lat="45.66401" lon="5.7241">
        <ele>549</ele>
        <time>2018-09-02T14:02:04Z</time>
      </trkpt>
      <trkpt lat="45.66413" lon="5.72416">
        <ele>549</ele>
        <time>2018-09-02T14:02:20Z</time>
      </trkpt>
      <trkpt lat="45.66418" lon="5.72417">
        <ele>549</ele>
        <time>2018-09-02T14:02:20Z</time>
      </trkpt>
      <trkpt lat="45.66421" lon="5.72418">
        <ele>549</ele>
        <time>2018-09-02T14:02:20Z</time>
      </trkpt>
      <trkpt lat="45.66427" lon="5.72416">
        <ele>549</ele>
        <time>2018-09-02T14:02:20Z</time>
      </trkpt>
      <trkpt lat="45.66433" lon="5.72416">
        <ele>549</ele>
        <time>2018-09-02T14:02:36Z</time>
      </trkpt>
      <trkpt lat="45.66439" lon="5.72419">
        <ele>549</ele>
        <time>2018-09-02T14:02:36Z</time>
      </trkpt>
      <trkpt lat="45.66445" lon="5.7242">
        <ele>549</ele>
        <time>2018-09-02T14:02:36Z</time>
      </trkpt>
      <trkpt lat="45.66452" lon="5.72418">
        <ele>549</ele>
        <time>2018-09-02T14:02:36Z</time>
      </trkpt>
      <trkpt lat="45.66463" lon="5.72417">
        <ele>539</ele>
        <time>2018-09-02T14:02:52Z</time>
      </trkpt>
      <trkpt lat="45.66475" lon="5.72405">
        <ele>539</ele>
        <time>2018-09-02T14:02:52Z</time>
      </trkpt>
      <trkpt lat="45.66489" lon="5.72387">
        <ele>539</ele>
        <time>2018-09-02T14:02:52Z</time>
      </trkpt>
      <trkpt lat="45.66508" lon="5.72359">
        <ele>547</ele>
        <time>2018-09-02T14:02:52Z</time>
      </trkpt>
      <trkpt lat="45.66525" lon="5.72342">
        <ele>547</ele>
        <time>2018-09-02T14:03:08Z</time>
      </trkpt>
      <trkpt lat="45.66534" lon="5.7232">
        <ele>547</ele>
        <time>2018-09-02T14:03:08Z</time>
      </trkpt>
      <trkpt lat="45.66533" lon="5.72298">
        <ele>547</ele>
        <time>2018-09-02T14:03:08Z</time>
      </trkpt>
      <trkpt lat="45.66534" lon="5.72289">
        <ele>551</ele>
        <time>2018-09-02T14:03:08Z</time>
      </trkpt>
      <trkpt lat="45.66535" lon="5.72284">
        <ele>551</ele>
        <time>2018-09-02T14:03:24Z</time>
      </trkpt>
      <trkpt lat="45.66532" lon="5.72276">
        <ele>551</ele>
        <time>2018-09-02T14:03:24Z</time>
      </trkpt>
      <trkpt lat="45.6653" lon="5.72269">
        <ele>551</ele>
        <time>2018-09-02T14:03:24Z</time>
      </trkpt>
      <trkpt lat="45.66523" lon="5.72259">
        <ele>551</ele>
        <time>2018-09-02T14:03:24Z</time>
      </trkpt>
      <trkpt lat="45.66518" lon="5.72252">
        <ele>551</ele>
        <time>2018-09-02T14:03:40Z</time>
      </trkpt>
      <trkpt lat="45.66515" lon="5.72246">
        <ele>551</ele>
        <time>2018-09-02T14:03:40Z</time>
      </trkpt>
      <trkpt lat="45.66514" lon="5.72239">
        <ele>551</ele>
        <time>2018-09-02T14:03:40Z</time>
      </trkpt>
      <trkpt lat="45.66515" lon="5.72231">
        <ele>551</ele>
        <time>2018-09-02T14:03:40Z</time>
      </trkpt>
      <trkpt lat="45.66517" lon="5.72223">
        <ele>551</ele>
        <time>2018-09-02T14:03:56Z</time>
      </trkpt>
      <trkpt lat="45.66517" lon="5.72214">
        <ele>551</ele>
        <time>2018-09-02T14:03:56Z</time>
      </trkpt>
      <trkpt lat="45.66521" lon="5.72204">
        <ele>554</ele>
        <time>2018-09-02T14:03:56Z</time>
      </trkpt>
      <trkpt lat="45.66528" lon="5.72183">
        <ele>554</ele>
        <time>2018-09-02T14:03:56Z</time>
      </trkpt>
      <trkpt lat="45.66532" lon="5.72161">
        <ele>554</ele>
        <time>2018-09-02T14:04:12Z</time>
      </trkpt>
      <trkpt lat="45.66529" lon="5.72138">
        <ele>554</ele>
        <time>2018-09-02T14:04:12Z</time>
      </trkpt>
      <trkpt lat="45.66525" lon="5.72117">
        <ele>557</ele>
        <time>2018-09-02T14:04:12Z</time>
      </trkpt>
      <trkpt lat="45.66514" lon="5.72101">
        <ele>557</ele>
        <time>2018-09-02T14:04:12Z</time>
      </trkpt>
      <trkpt lat="45.66505" lon="5.72092">
        <ele>557</ele>
        <time>2018-09-02T14:04:28Z</time>
      </trkpt>
      <trkpt lat="45.665" lon="5.72086">
        <ele>557</ele>
        <time>2018-09-02T14:04:28Z</time>
      </trkpt>
      <trkpt lat="45.66496" lon="5.72083">
        <ele>557</ele>
        <time>2018-09-02T14:04:28Z</time>
      </trkpt>
      <trkpt lat="45.66493" lon="5.72078">
        <ele>557</ele>
        <time>2018-09-02T14:04:28Z</time>
      </trkpt>
      <trkpt lat="45.66494" lon="5.72071">
        <ele>557</ele>
        <time>2018-09-02T14:04:44Z</time>
      </trkpt>
      <trkpt lat="45.66492" lon="5.72064">
        <ele>557</ele>
        <time>2018-09-02T14:04:44Z</time>
      </trkpt>
      <trkpt lat="45.66488" lon="5.72057">
        <ele>557</ele>
        <time>2018-09-02T14:04:44Z</time>
      </trkpt>
      <trkpt lat="45.66484" lon="5.72049">
        <ele>557</ele>
        <time>2018-09-02T14:04:44Z</time>
      </trkpt>
      <trkpt lat="45.66477" lon="5.7205">
        <ele>557</ele>
        <time>2018-09-02T14:05:12Z</time>
      </trkpt>
      <trkpt lat="45.66475" lon="5.72051">
        <ele>557</ele>
        <time>2018-09-02T14:05:12Z</time>
      </trkpt>
      <trkpt lat="45.66475" lon="5.72051">
        <ele>557</ele>
        <time>2018-09-02T14:05:12Z</time>
      </trkpt>
      <trkpt lat="45.66475" lon="5.72052">
        <ele>557</ele>
        <time>2018-09-02T14:05:12Z</time>
      </trkpt>
      <trkpt lat="45.66468" lon="5.7205">
        <ele>557</ele>
        <time>2018-09-02T14:05:12Z</time>
      </trkpt>
      <trkpt lat="45.66452" lon="5.72036">
        <ele>572</ele>
        <time>2018-09-02T14:05:28Z</time>
      </trkpt>
      <trkpt lat="45.66428" lon="5.7202">
        <ele>572</ele>
        <time>2018-09-02T14:05:28Z</time>
      </trkpt>
      <trkpt lat="45.66406" lon="5.72009">
        <ele>572</ele>
        <time>2018-09-02T14:05:28Z</time>
      </trkpt>
      <trkpt lat="45.66391" lon="5.71988">
        <ele>572</ele>
        <time>2018-09-02T14:05:28Z</time>
      </trkpt>
      <trkpt lat="45.66379" lon="5.71973">
        <ele>572</ele>
        <time>2018-09-02T14:05:44Z</time>
      </trkpt>
      <trkpt lat="45.66366" lon="5.71961">
        <ele>586</ele>
        <time>2018-09-02T14:05:44Z</time>
      </trkpt>
      <trkpt lat="45.66359" lon="5.71954">
        <ele>587</ele>
        <time>2018-09-02T14:05:44Z</time>
      </trkpt>
      <trkpt lat="45.66354" lon="5.71945">
        <ele>587</ele>
        <time>2018-09-02T14:05:44Z</time>
      </trkpt>
      <trkpt lat="45.66354" lon="5.71935">
        <ele>587</ele>
        <time>2018-09-02T14:06:04Z</time>
      </trkpt>
      <trkpt lat="45.66355" lon="5.71931">
        <ele>587</ele>
        <time>2018-09-02T14:06:04Z</time>
      </trkpt>
      <trkpt lat="45.66355" lon="5.71929">
        <ele>587</ele>
        <time>2018-09-02T14:06:04Z</time>
      </trkpt>
      <trkpt lat="45.66354" lon="5.71926">
        <ele>587</ele>
        <time>2018-09-02T14:06:04Z</time>
      </trkpt>
      <trkpt lat="45.66352" lon="5.71918">
        <ele>587</ele>
        <time>2018-09-02T14:06:04Z</time>
      </trkpt>
      <trkpt lat="45.66354" lon="5.71913">
        <ele>587</ele>
        <time>2018-09-02T14:06:20Z</time>
      </trkpt>
      <trkpt lat="45.66357" lon="5.7191">
        <ele>587</ele>
        <time>2018-09-02T14:06:20Z</time>
      </trkpt>
      <trkpt lat="45.66362" lon="5.71906">
        <ele>587</ele>
        <time>2018-09-02T14:06:20Z</time>
      </trkpt>
      <trkpt lat="45.66365" lon="5.71903">
        <ele>587</ele>
        <time>2018-09-02T14:06:20Z</time>
      </trkpt>
      <trkpt lat="45.66368" lon="5.71897">
        <ele>587</ele>
        <time>2018-09-02T14:06:36Z</time>
      </trkpt>
      <trkpt lat="45.66374" lon="5.71893">
        <ele>587</ele>
        <time>2018-09-02T14:06:36Z</time>
      </trkpt>
      <trkpt lat="45.6638" lon="5.71892">
        <ele>575</ele>
        <time>2018-09-02T14:06:36Z</time>
      </trkpt>
      <trkpt lat="45.66387" lon="5.71889">
        <ele>575</ele>
        <time>2018-09-02T14:06:36Z</time>
      </trkpt>
      <trkpt lat="45.66398" lon="5.7188">
        <ele>575</ele>
        <time>2018-09-02T14:06:52Z</time>
      </trkpt>
      <trkpt lat="45.66406" lon="5.71869">
        <ele>579</ele>
        <time>2018-09-02T14:06:52Z</time>
      </trkpt>
      <trkpt lat="45.66409" lon="5.71852">
        <ele>579</ele>
        <time>2018-09-02T14:06:52Z</time>
      </trkpt>
      <trkpt lat="45.6641" lon="5.7184">
        <ele>579</ele>
        <time>2018-09-02T14:06:52Z</time>
      </trkpt>
      <trkpt lat="45.66409" lon="5.71831">
        <ele>579</ele>
        <time>2018-09-02T14:07:08Z</time>
      </trkpt>
      <trkpt lat="45.66407" lon="5.71824">
        <ele>579</ele>
        <time>2018-09-02T14:07:08Z</time>
      </trkpt>
      <trkpt lat="45.66408" lon="5.71816">
        <ele>579</ele>
        <time>2018-09-02T14:07:08Z</time>
      </trkpt>
      <trkpt lat="45.66407" lon="5.71809">
        <ele>579</ele>
        <time>2018-09-02T14:07:08Z</time>
      </trkpt>
      <trkpt lat="45.66408" lon="5.71804">
        <ele>579</ele>
        <time>2018-09-02T14:07:24Z</time>
      </trkpt>
      <trkpt lat="45.66408" lon="5.71796">
        <ele>579</ele>
        <time>2018-09-02T14:07:24Z</time>
      </trkpt>
      <trkpt lat="45.6641" lon="5.71787">
        <ele>584</ele>
        <time>2018-09-02T14:07:24Z</time>
      </trkpt>
      <trkpt lat="45.66411" lon="5.71777">
        <ele>584</ele>
        <time>2018-09-02T14:07:24Z</time>
      </trkpt>
      <trkpt lat="45.66417" lon="5.71763">
        <ele>584</ele>
        <time>2018-09-02T14:07:40Z</time>
      </trkpt>
      <trkpt lat="45.66424" lon="5.71755">
        <ele>584</ele>
        <time>2018-09-02T14:07:40Z</time>
      </trkpt>
      <trkpt lat="45.66429" lon="5.71749">
        <ele>584</ele>
        <time>2018-09-02T14:07:40Z</time>
      </trkpt>
      <trkpt lat="45.66432" lon="5.71744">
        <ele>584</ele>
        <time>2018-09-02T14:07:40Z</time>
      </trkpt>
      <trkpt lat="45.66437" lon="5.71743">
        <ele>584</ele>
        <time>2018-09-02T14:07:56Z</time>
      </trkpt>
      <trkpt lat="45.66444" lon="5.71748">
        <ele>584</ele>
        <time>2018-09-02T14:07:56Z</time>
      </trkpt>
      <trkpt lat="45.66449" lon="5.71753">
        <ele>584</ele>
        <time>2018-09-02T14:07:56Z</time>
      </trkpt>
      <trkpt lat="45.66455" lon="5.7176">
        <ele>584</ele>
        <time>2018-09-02T14:07:56Z</time>
      </trkpt>
      <trkpt lat="45.66463" lon="5.71765">
        <ele>572</ele>
        <time>2018-09-02T14:08:12Z</time>
      </trkpt>
      <trkpt lat="45.66467" lon="5.71768">
        <ele>572</ele>
        <time>2018-09-02T14:08:12Z</time>
      </trkpt>
      <trkpt lat="45.66471" lon="5.7177">
        <ele>572</ele>
        <time>2018-09-02T14:08:12Z</time>
      </trkpt>
      <trkpt lat="45.66475" lon="5.71775">
        <ele>572</ele>
        <time>2018-09-02T14:08:12Z</time>
      </trkpt>
      <trkpt lat="45.6648" lon="5.71781">
        <ele>572</ele>
        <time>2018-09-02T14:08:28Z</time>
      </trkpt>
      <trkpt lat="45.66486" lon="5.71785">
        <ele>572</ele>
        <time>2018-09-02T14:08:28Z</time>
      </trkpt>
      <trkpt lat="45.66491" lon="5.71789">
        <ele>572</ele>
        <time>2018-09-02T14:08:28Z</time>
      </trkpt>
      <trkpt lat="45.66497" lon="5.71792">
        <ele>568</ele>
        <time>2018-09-02T14:08:28Z</time>
      </trkpt>
      <trkpt lat="45.66503" lon="5.71796">
        <ele>568</ele>
        <time>2018-09-02T14:08:44Z</time>
      </trkpt>
      <trkpt lat="45.66507" lon="5.71801">
        <ele>568</ele>
        <time>2018-09-02T14:08:44Z</time>
      </trkpt>
      <trkpt lat="45.6651" lon="5.71803">
        <ele>568</ele>
        <time>2018-09-02T14:08:44Z</time>
      </trkpt>
      <trkpt lat="45.66511" lon="5.71806">
        <ele>568</ele>
        <time>2018-09-02T14:08:44Z</time>
      </trkpt>
      <trkpt lat="45.66517" lon="5.71805">
        <ele>568</ele>
        <time>2018-09-02T14:09:00Z</time>
      </trkpt>
      <trkpt lat="45.66525" lon="5.71804">
        <ele>568</ele>
        <time>2018-09-02T14:09:00Z</time>
      </trkpt>
      <trkpt lat="45.66533" lon="5.71805">
        <ele>568</ele>
        <time>2018-09-02T14:09:00Z</time>
      </trkpt>
      <trkpt lat="45.66538" lon="5.71802">
        <ele>568</ele>
        <time>2018-09-02T14:09:00Z</time>
      </trkpt>
      <trkpt lat="45.6654" lon="5.71799">
        <ele>568</ele>
        <time>2018-09-02T14:09:16Z</time>
      </trkpt>
      <trkpt lat="45.66545" lon="5.71799">
        <ele>567</ele>
        <time>2018-09-02T14:09:16Z</time>
      </trkpt>
      <trkpt lat="45.6655" lon="5.71798">
        <ele>567</ele>
        <time>2018-09-02T14:09:16Z</time>
      </trkpt>
      <trkpt lat="45.66553" lon="5.71794">
        <ele>567</ele>
        <time>2018-09-02T14:09:16Z</time>
      </trkpt>
      <trkpt lat="45.66557" lon="5.71792">
        <ele>567</ele>
        <time>2018-09-02T14:09:32Z</time>
      </trkpt>
      <trkpt lat="45.6656" lon="5.71791">
        <ele>570</ele>
        <time>2018-09-02T14:09:32Z</time>
      </trkpt>
      <trkpt lat="45.66565" lon="5.71787">
        <ele>570</ele>
        <time>2018-09-02T14:09:32Z</time>
      </trkpt>
      <trkpt lat="45.66572" lon="5.71784">
        <ele>570</ele>
        <time>2018-09-02T14:09:32Z</time>
      </trkpt>
      <trkpt lat="45.66582" lon="5.71782">
        <ele>570</ele>
        <time>2018-09-02T14:09:48Z</time>
      </trkpt>
      <trkpt lat="45.66589" lon="5.71781">
        <ele>570</ele>
        <time>2018-09-02T14:09:48Z</time>
      </trkpt>
      <trkpt lat="45.66597" lon="5.7178">
        <ele>570</ele>
        <time>2018-09-02T14:09:48Z</time>
      </trkpt>
      <trkpt lat="45.66605" lon="5.71782">
        <ele>570</ele>
        <time>2018-09-02T14:09:48Z</time>
      </trkpt>
      <trkpt lat="45.66613" lon="5.71785">
        <ele>570</ele>
        <time>2018-09-02T14:10:04Z</time>
      </trkpt>
      <trkpt lat="45.66621" lon="5.71791">
        <ele>570</ele>
        <time>2018-09-02T14:10:04Z</time>
      </trkpt>
      <trkpt lat="45.66632" lon="5.71794">
        <ele>574</ele>
        <time>2018-09-02T14:10:04Z</time>
      </trkpt>
      <trkpt lat="45.66637" lon="5.71795">
        <ele>574</ele>
        <time>2018-09-02T14:10:04Z</time>
      </trkpt>
      <trkpt lat="45.66644" lon="5.71797">
        <ele>574</ele>
        <time>2018-09-02T14:10:20Z</time>
      </trkpt>
      <trkpt lat="45.66649" lon="5.718">
        <ele>574</ele>
        <time>2018-09-02T14:10:20Z</time>
      </trkpt>
      <trkpt lat="45.66654" lon="5.71804">
        <ele>574</ele>
        <time>2018-09-02T14:10:20Z</time>
      </trkpt>
      <trkpt lat="45.66659" lon="5.71808">
        <ele>574</ele>
        <time>2018-09-02T14:10:20Z</time>
      </trkpt>
      <trkpt lat="45.66661" lon="5.71809">
        <ele>574</ele>
        <time>2018-09-02T14:10:36Z</time>
      </trkpt>
      <trkpt lat="45.66665" lon="5.71809">
        <ele>574</ele>
        <time>2018-09-02T14:10:36Z</time>
      </trkpt>
      <trkpt lat="45.6667" lon="5.71802">
        <ele>574</ele>
        <time>2018-09-02T14:10:36Z</time>
      </trkpt>
      <trkpt lat="45.66668" lon="5.71793">
        <ele>574</ele>
        <time>2018-09-02T14:10:36Z</time>
      </trkpt>
      <trkpt lat="45.66666" lon="5.7179">
        <ele>580</ele>
        <time>2018-09-02T14:10:52Z</time>
      </trkpt>
      <trkpt lat="45.66666" lon="5.71785">
        <ele>580</ele>
        <time>2018-09-02T14:10:52Z</time>
      </trkpt>
      <trkpt lat="45.66666" lon="5.7178">
        <ele>580</ele>
        <time>2018-09-02T14:10:52Z</time>
      </trkpt>
      <trkpt lat="45.66662" lon="5.71768">
        <ele>580</ele>
        <time>2018-09-02T14:10:52Z</time>
      </trkpt>
      <trkpt lat="45.66661" lon="5.71755">
        <ele>580</ele>
        <time>2018-09-02T14:11:08Z</time>
      </trkpt>
      <trkpt lat="45.66662" lon="5.71745">
        <ele>580</ele>
        <time>2018-09-02T14:11:08Z</time>
      </trkpt>
      <trkpt lat="45.66661" lon="5.71737">
        <ele>580</ele>
        <time>2018-09-02T14:11:08Z</time>
      </trkpt>
      <trkpt lat="45.6666" lon="5.71733">
        <ele>580</ele>
        <time>2018-09-02T14:11:08Z</time>
      </trkpt>
      <trkpt lat="45.66658" lon="5.71727">
        <ele>580</ele>
        <time>2018-09-02T14:11:24Z</time>
      </trkpt>
      <trkpt lat="45.66655" lon="5.7172">
        <ele>580</ele>
        <time>2018-09-02T14:11:24Z</time>
      </trkpt>
      <trkpt lat="45.66651" lon="5.71711">
        <ele>580</ele>
        <time>2018-09-02T14:11:24Z</time>
      </trkpt>
      <trkpt lat="45.66649" lon="5.71706">
        <ele>573</ele>
        <time>2018-09-02T14:11:24Z</time>
      </trkpt>
      <trkpt lat="45.66648" lon="5.71703">
        <ele>573</ele>
        <time>2018-09-02T14:11:40Z</time>
      </trkpt>
      <trkpt lat="45.66647" lon="5.717">
        <ele>573</ele>
        <time>2018-09-02T14:11:40Z</time>
      </trkpt>
      <trkpt lat="45.66646" lon="5.71692">
        <ele>573</ele>
        <time>2018-09-02T14:11:40Z</time>
      </trkpt>
      <trkpt lat="45.66644" lon="5.71686">
        <ele>573</ele>
        <time>2018-09-02T14:11:40Z</time>
      </trkpt>
      <trkpt lat="45.66641" lon="5.71678">
        <ele>573</ele>
        <time>2018-09-02T14:11:56Z</time>
      </trkpt>
      <trkpt lat="45.66638" lon="5.7167">
        <ele>573</ele>
        <time>2018-09-02T14:11:56Z</time>
      </trkpt>
      <trkpt lat="45.66636" lon="5.7166">
        <ele>573</ele>
        <time>2018-09-02T14:11:56Z</time>
      </trkpt>
      <trkpt lat="45.66633" lon="5.71652">
        <ele>573</ele>
        <time>2018-09-02T14:11:56Z</time>
      </trkpt>
      <trkpt lat="45.66629" lon="5.71645">
        <ele>573</ele>
        <time>2018-09-02T14:12:12Z</time>
      </trkpt>
      <trkpt lat="45.66622" lon="5.71639">
        <ele>568</ele>
        <time>2018-09-02T14:12:12Z</time>
      </trkpt>
      <trkpt lat="45.66617" lon="5.7163">
        <ele>568</ele>
        <time>2018-09-02T14:12:12Z</time>
      </trkpt>
      <trkpt lat="45.66614" lon="5.71626">
        <ele>568</ele>
        <time>2018-09-02T14:12:12Z</time>
      </trkpt>
      <trkpt lat="45.6661" lon="5.71621">
        <ele>561</ele>
        <time>2018-09-02T14:12:28Z</time>
      </trkpt>
      <trkpt lat="45.66606" lon="5.71615">
        <ele>561</ele>
        <time>2018-09-02T14:12:28Z</time>
      </trkpt>
      <trkpt lat="45.66602" lon="5.7161">
        <ele>561</ele>
        <time>2018-09-02T14:12:28Z</time>
      </trkpt>
      <trkpt lat="45.66598" lon="5.71608">
        <ele>561</ele>
        <time>2018-09-02T14:12:28Z</time>
      </trkpt>
      <trkpt lat="45.66593" lon="5.71603">
        <ele>561</ele>
        <time>2018-09-02T14:12:44Z</time>
      </trkpt>
      <trkpt lat="45.66587" lon="5.71598">
        <ele>561</ele>
        <time>2018-09-02T14:12:44Z</time>
      </trkpt>
      <trkpt lat="45.6658" lon="5.71593">
        <ele>561</ele>
        <time>2018-09-02T14:12:44Z</time>
      </trkpt>
      <trkpt lat="45.66573" lon="5.71591">
        <ele>561</ele>
        <time>2018-09-02T14:12:44Z</time>
      </trkpt>
      <trkpt lat="45.66561" lon="5.71587">
        <ele>561</ele>
        <time>2018-09-02T14:13:00Z</time>
      </trkpt>
      <trkpt lat="45.66547" lon="5.71582">
        <ele>561</ele>
        <time>2018-09-02T14:13:00Z</time>
      </trkpt>
      <trkpt lat="45.66531" lon="5.71574">
        <ele>577</ele>
        <time>2018-09-02T14:13:00Z</time>
      </trkpt>
      <trkpt lat="45.665" lon="5.71549">
        <ele>577</ele>
        <time>2018-09-02T14:13:00Z</time>
      </trkpt>
      <trkpt lat="45.66488" lon="5.71524">
        <ele>570</ele>
        <time>2018-09-02T14:13:16Z</time>
      </trkpt>
      <trkpt lat="45.66471" lon="5.71505">
        <ele>570</ele>
        <time>2018-09-02T14:13:16Z</time>
      </trkpt>
      <trkpt lat="45.66453" lon="5.71494">
        <ele>593</ele>
        <time>2018-09-02T14:13:16Z</time>
      </trkpt>
      <trkpt lat="45.6643" lon="5.71492">
        <ele>593</ele>
        <time>2018-09-02T14:13:16Z</time>
      </trkpt>
      <trkpt lat="45.66408" lon="5.71484">
        <ele>593</ele>
        <time>2018-09-02T14:13:32Z</time>
      </trkpt>
      <trkpt lat="45.66392" lon="5.71462">
        <ele>593</ele>
        <time>2018-09-02T14:13:32Z</time>
      </trkpt>
      <trkpt lat="45.66379" lon="5.71445">
        <ele>582</ele>
        <time>2018-09-02T14:13:32Z</time>
      </trkpt>
      <trkpt lat="45.66372" lon="5.71451">
        <ele>593</ele>
        <time>2018-09-02T14:13:32Z</time>
      </trkpt>
      <trkpt lat="45.66369" lon="5.71451">
        <ele>593</ele>
        <time>2018-09-02T14:13:48Z</time>
      </trkpt>
      <trkpt lat="45.66364" lon="5.71449">
        <ele>593</ele>
        <time>2018-09-02T14:13:48Z</time>
      </trkpt>
      <trkpt lat="45.66359" lon="5.71447">
        <ele>593</ele>
        <time>2018-09-02T14:13:48Z</time>
      </trkpt>
      <trkpt lat="45.66355" lon="5.71446">
        <ele>593</ele>
        <time>2018-09-02T14:13:48Z</time>
      </trkpt>
      <trkpt lat="45.6635" lon="5.71445">
        <ele>593</ele>
        <time>2018-09-02T14:14:04Z</time>
      </trkpt>
      <trkpt lat="45.66345" lon="5.71444">
        <ele>593</ele>
        <time>2018-09-02T14:14:04Z</time>
      </trkpt>
      <trkpt lat="45.66338" lon="5.71441">
        <ele>593</ele>
        <time>2018-09-02T14:14:04Z</time>
      </trkpt>
      <trkpt lat="45.66332" lon="5.7144">
        <ele>593</ele>
        <time>2018-09-02T14:14:04Z</time>
      </trkpt>
      <trkpt lat="45.66327" lon="5.71438">
        <ele>593</ele>
        <time>2018-09-02T14:14:20Z</time>
      </trkpt>
      <trkpt lat="45.66316" lon="5.71432">
        <ele>593</ele>
        <time>2018-09-02T14:14:20Z</time>
      </trkpt>
      <trkpt lat="45.663" lon="5.71416">
        <ele>593</ele>
        <time>2018-09-02T14:14:20Z</time>
      </trkpt>
      <trkpt lat="45.66288" lon="5.71409">
        <ele>602</ele>
        <time>2018-09-02T14:14:20Z</time>
      </trkpt>
      <trkpt lat="45.66272" lon="5.71406">
        <ele>602</ele>
        <time>2018-09-02T14:14:36Z</time>
      </trkpt>
      <trkpt lat="45.66259" lon="5.71389">
        <ele>602</ele>
        <time>2018-09-02T14:14:36Z</time>
      </trkpt>
      <trkpt lat="45.6624" lon="5.71376">
        <ele>602</ele>
        <time>2018-09-02T14:14:36Z</time>
      </trkpt>
      <trkpt lat="45.66224" lon="5.7136">
        <ele>606</ele>
        <time>2018-09-02T14:14:36Z</time>
      </trkpt>
      <trkpt lat="45.66212" lon="5.71345">
        <ele>606</ele>
        <time>2018-09-02T14:14:52Z</time>
      </trkpt>
      <trkpt lat="45.66201" lon="5.71336">
        <ele>617</ele>
        <time>2018-09-02T14:14:52Z</time>
      </trkpt>
      <trkpt lat="45.66181" lon="5.71332">
        <ele>617</ele>
        <time>2018-09-02T14:14:52Z</time>
      </trkpt>
      <trkpt lat="45.66161" lon="5.71325">
        <ele>617</ele>
        <time>2018-09-02T14:14:52Z</time>
      </trkpt>
      <trkpt lat="45.66145" lon="5.71311">
        <ele>617</ele>
        <time>2018-09-02T14:15:08Z</time>
      </trkpt>
      <trkpt lat="45.66128" lon="5.71308">
        <ele>617</ele>
        <time>2018-09-02T14:15:08Z</time>
      </trkpt>
      <trkpt lat="45.66111" lon="5.7131">
        <ele>623</ele>
        <time>2018-09-02T14:15:08Z</time>
      </trkpt>
      <trkpt lat="45.66096" lon="5.713">
        <ele>623</ele>
        <time>2018-09-02T14:15:08Z</time>
      </trkpt>
      <trkpt lat="45.66083" lon="5.71289">
        <ele>623</ele>
        <time>2018-09-02T14:15:24Z</time>
      </trkpt>
      <trkpt lat="45.66075" lon="5.71291">
        <ele>623</ele>
        <time>2018-09-02T14:15:24Z</time>
      </trkpt>
      <trkpt lat="45.66071" lon="5.71298">
        <ele>623</ele>
        <time>2018-09-02T14:15:24Z</time>
      </trkpt>
      <trkpt lat="45.66065" lon="5.71305">
        <ele>623</ele>
        <time>2018-09-02T14:15:24Z</time>
      </trkpt>
      <trkpt lat="45.66058" lon="5.71311">
        <ele>623</ele>
        <time>2018-09-02T14:15:40Z</time>
      </trkpt>
      <trkpt lat="45.66051" lon="5.71315">
        <ele>623</ele>
        <time>2018-09-02T14:15:40Z</time>
      </trkpt>
      <trkpt lat="45.66048" lon="5.71318">
        <ele>623</ele>
        <time>2018-09-02T14:15:40Z</time>
      </trkpt>
      <trkpt lat="45.66042" lon="5.71325">
        <ele>623</ele>
        <time>2018-09-02T14:15:40Z</time>
      </trkpt>
      <trkpt lat="45.66036" lon="5.7133">
        <ele>632</ele>
        <time>2018-09-02T14:15:56Z</time>
      </trkpt>
      <trkpt lat="45.66035" lon="5.71334">
        <ele>632</ele>
        <time>2018-09-02T14:15:56Z</time>
      </trkpt>
      <trkpt lat="45.66032" lon="5.7134">
        <ele>632</ele>
        <time>2018-09-02T14:15:56Z</time>
      </trkpt>
      <trkpt lat="45.66032" lon="5.71345">
        <ele>632</ele>
        <time>2018-09-02T14:15:56Z</time>
      </trkpt>
      <trkpt lat="45.66031" lon="5.7135">
        <ele>632</ele>
        <time>2018-09-02T14:16:12Z</time>
      </trkpt>
      <trkpt lat="45.66029" lon="5.71356">
        <ele>632</ele>
        <time>2018-09-02T14:16:12Z</time>
      </trkpt>
      <trkpt lat="45.66026" lon="5.71368">
        <ele>632</ele>
        <time>2018-09-02T14:16:12Z</time>
      </trkpt>
      <trkpt lat="45.66023" lon="5.71381">
        <ele>635</ele>
        <time>2018-09-02T14:16:12Z</time>
      </trkpt>
      <trkpt lat="45.66021" lon="5.71387">
        <ele>635</ele>
        <time>2018-09-02T14:16:28Z</time>
      </trkpt>
      <trkpt lat="45.6602" lon="5.71395">
        <ele>635</ele>
        <time>2018-09-02T14:16:28Z</time>
      </trkpt>
      <trkpt lat="45.66017" lon="5.71405">
        <ele>635</ele>
        <time>2018-09-02T14:16:28Z</time>
      </trkpt>
      <trkpt lat="45.66014" lon="5.7142">
        <ele>635</ele>
        <time>2018-09-02T14:16:28Z</time>
      </trkpt>
      <trkpt lat="45.6601" lon="5.71426">
        <ele>635</ele>
        <time>2018-09-02T14:16:44Z</time>
      </trkpt>
      <trkpt lat="45.66004" lon="5.7143">
        <ele>635</ele>
        <time>2018-09-02T14:16:44Z</time>
      </trkpt>
      <trkpt lat="45.65992" lon="5.71423">
        <ele>635</ele>
        <time>2018-09-02T14:16:44Z</time>
      </trkpt>
      <trkpt lat="45.65975" lon="5.71404">
        <ele>635</ele>
        <time>2018-09-02T14:16:44Z</time>
      </trkpt>
      <trkpt lat="45.65964" lon="5.71371">
        <ele>632</ele>
        <time>2018-09-02T14:17:00Z</time>
      </trkpt>
      <trkpt lat="45.65947" lon="5.71344">
        <ele>640</ele>
        <time>2018-09-02T14:17:00Z</time>
      </trkpt>
      <trkpt lat="45.65938" lon="5.7132">
        <ele>640</ele>
        <time>2018-09-02T14:17:00Z</time>
      </trkpt>
      <trkpt lat="45.65924" lon="5.71292">
        <ele>640</ele>
        <time>2018-09-02T14:17:00Z</time>
      </trkpt>
      <trkpt lat="45.65914" lon="5.71263">
        <ele>640</ele>
        <time>2018-09-02T14:17:16Z</time>
      </trkpt>
      <trkpt lat="45.65902" lon="5.71236">
        <ele>640</ele>
        <time>2018-09-02T14:17:16Z</time>
      </trkpt>
      <trkpt lat="45.65883" lon="5.71208">
        <ele>639</ele>
        <time>2018-09-02T14:17:16Z</time>
      </trkpt>
      <trkpt lat="45.65875" lon="5.71187">
        <ele>647</ele>
        <time>2018-09-02T14:17:16Z</time>
      </trkpt>
      <trkpt lat="45.65866" lon="5.71172">
        <ele>647</ele>
        <time>2018-09-02T14:17:32Z</time>
      </trkpt>
      <trkpt lat="45.6586" lon="5.71178">
        <ele>647</ele>
        <time>2018-09-02T14:17:32Z</time>
      </trkpt>
      <trkpt lat="45.65859" lon="5.71182">
        <ele>647</ele>
        <time>2018-09-02T14:17:32Z</time>
      </trkpt>
      <trkpt lat="45.65855" lon="5.71185">
        <ele>647</ele>
        <time>2018-09-02T14:17:32Z</time>
      </trkpt>
      <trkpt lat="45.65852" lon="5.71189">
        <ele>647</ele>
        <time>2018-09-02T14:17:48Z</time>
      </trkpt>
      <trkpt lat="45.65848" lon="5.71193">
        <ele>647</ele>
        <time>2018-09-02T14:17:48Z</time>
      </trkpt>
      <trkpt lat="45.65844" lon="5.71195">
        <ele>647</ele>
        <time>2018-09-02T14:17:48Z</time>
      </trkpt>
      <trkpt lat="45.65839" lon="5.71196">
        <ele>647</ele>
        <time>2018-09-02T14:17:48Z</time>
      </trkpt>
      <trkpt lat="45.65833" lon="5.712">
        <ele>647</ele>
        <time>2018-09-02T14:18:04Z</time>
      </trkpt>
      <trkpt lat="45.65829" lon="5.7121">
        <ele>650</ele>
        <time>2018-09-02T14:18:04Z</time>
      </trkpt>
      <trkpt lat="45.6583" lon="5.71221">
        <ele>650</ele>
        <time>2018-09-02T14:18:04Z</time>
      </trkpt>
      <trkpt lat="45.65832" lon="5.71229">
        <ele>650</ele>
        <time>2018-09-02T14:18:04Z</time>
      </trkpt>
      <trkpt lat="45.65834" lon="5.71236">
        <ele>650</ele>
        <time>2018-09-02T14:18:20Z</time>
      </trkpt>
      <trkpt lat="45.65833" lon="5.71243">
        <ele>650</ele>
        <time>2018-09-02T14:18:20Z</time>
      </trkpt>
      <trkpt lat="45.65834" lon="5.7125">
        <ele>650</ele>
        <time>2018-09-02T14:18:20Z</time>
      </trkpt>
      <trkpt lat="45.65835" lon="5.71257">
        <ele>650</ele>
        <time>2018-09-02T14:18:20Z</time>
      </trkpt>
      <trkpt lat="45.65836" lon="5.71264">
        <ele>650</ele>
        <time>2018-09-02T14:18:36Z</time>
      </trkpt>
      <trkpt lat="45.65837" lon="5.71273">
        <ele>650</ele>
        <time>2018-09-02T14:18:36Z</time>
      </trkpt>
      <trkpt lat="45.65837" lon="5.71278">
        <ele>650</ele>
        <time>2018-09-02T14:18:36Z</time>
      </trkpt>
      <trkpt lat="45.65839" lon="5.7128">
        <ele>650</ele>
        <time>2018-09-02T14:18:36Z</time>
      </trkpt>
      <trkpt lat="45.65837" lon="5.71282">
        <ele>650</ele>
        <time>2018-09-02T14:18:52Z</time>
      </trkpt>
      <trkpt lat="45.6584" lon="5.71286">
        <ele>650</ele>
        <time>2018-09-02T14:18:52Z</time>
      </trkpt>
      <trkpt lat="45.65843" lon="5.7129">
        <ele>650</ele>
        <time>2018-09-02T14:18:52Z</time>
      </trkpt>
      <trkpt lat="45.65847" lon="5.71295">
        <ele>654</ele>
        <time>2018-09-02T14:18:52Z</time>
      </trkpt>
      <trkpt lat="45.65851" lon="5.71301">
        <ele>654</ele>
        <time>2018-09-02T14:19:08Z</time>
      </trkpt>
      <trkpt lat="45.65854" lon="5.7131">
        <ele>654</ele>
        <time>2018-09-02T14:19:08Z</time>
      </trkpt>
      <trkpt lat="45.65859" lon="5.7132">
        <ele>654</ele>
        <time>2018-09-02T14:19:08Z</time>
      </trkpt>
      <trkpt lat="45.65861" lon="5.71327">
        <ele>654</ele>
        <time>2018-09-02T14:19:08Z</time>
      </trkpt>
      <trkpt lat="45.65863" lon="5.71334">
        <ele>654</ele>
        <time>2018-09-02T14:19:24Z</time>
      </trkpt>
      <trkpt lat="45.65866" lon="5.7134">
        <ele>654</ele>
        <time>2018-09-02T14:19:24Z</time>
      </trkpt>
      <trkpt lat="45.65868" lon="5.71347">
        <ele>654</ele>
        <time>2018-09-02T14:19:24Z</time>
      </trkpt>
      <trkpt lat="45.65871" lon="5.71354">
        <ele>654</ele>
        <time>2018-09-02T14:19:24Z</time>
      </trkpt>
      <trkpt lat="45.65876" lon="5.71361">
        <ele>640</ele>
        <time>2018-09-02T14:19:40Z</time>
      </trkpt>
      <trkpt lat="45.6588" lon="5.71366">
        <ele>640</ele>
        <time>2018-09-02T14:19:40Z</time>
      </trkpt>
      <trkpt lat="45.65883" lon="5.71368">
        <ele>640</ele>
        <time>2018-09-02T14:19:40Z</time>
      </trkpt>
      <trkpt lat="45.65887" lon="5.7137">
        <ele>640</ele>
        <time>2018-09-02T14:19:40Z</time>
      </trkpt>
      <trkpt lat="45.65891" lon="5.71374">
        <ele>640</ele>
        <time>2018-09-02T14:19:56Z</time>
      </trkpt>
      <trkpt lat="45.65895" lon="5.7138">
        <ele>647</ele>
        <time>2018-09-02T14:19:56Z</time>
      </trkpt>
      <trkpt lat="45.65898" lon="5.71387">
        <ele>647</ele>
        <time>2018-09-02T14:19:56Z</time>
      </trkpt>
      <trkpt lat="45.659" lon="5.71397">
        <ele>647</ele>
        <time>2018-09-02T14:19:56Z</time>
      </trkpt>
      <trkpt lat="45.65902" lon="5.71405">
        <ele>647</ele>
        <time>2018-09-02T14:20:12Z</time>
      </trkpt>
      <trkpt lat="45.65902" lon="5.71417">
        <ele>647</ele>
        <time>2018-09-02T14:20:12Z</time>
      </trkpt>
      <trkpt lat="45.65895" lon="5.71428">
        <ele>647</ele>
        <time>2018-09-02T14:20:12Z</time>
      </trkpt>
      <trkpt lat="45.65892" lon="5.71438">
        <ele>647</ele>
        <time>2018-09-02T14:20:12Z</time>
      </trkpt>
      <trkpt lat="45.65893" lon="5.71457">
        <ele>647</ele>
        <time>2018-09-02T14:20:44Z</time>
      </trkpt>
      <trkpt lat="45.65894" lon="5.7146">
        <ele>656</ele>
        <time>2018-09-02T14:20:44Z</time>
      </trkpt>
      <trkpt lat="45.65897" lon="5.71467">
        <ele>656</ele>
        <time>2018-09-02T14:20:44Z</time>
      </trkpt>
      <trkpt lat="45.65897" lon="5.71473">
        <ele>656</ele>
        <time>2018-09-02T14:20:44Z</time>
      </trkpt>
      <trkpt lat="45.65897" lon="5.71477">
        <ele>656</ele>
        <time>2018-09-02T14:20:44Z</time>
      </trkpt>
      <trkpt lat="45.65897" lon="5.71482">
        <ele>656</ele>
        <time>2018-09-02T14:21:00Z</time>
      </trkpt>
      <trkpt lat="45.65899" lon="5.7149">
        <ele>656</ele>
        <time>2018-09-02T14:21:00Z</time>
      </trkpt>
      <trkpt lat="45.659" lon="5.71492">
        <ele>656</ele>
        <time>2018-09-02T14:21:00Z</time>
      </trkpt>
      <trkpt lat="45.65902" lon="5.71498">
        <ele>656</ele>
        <time>2018-09-02T14:21:00Z</time>
      </trkpt>
      <trkpt lat="45.65905" lon="5.71504">
        <ele>656</ele>
        <time>2018-09-02T14:21:16Z</time>
      </trkpt>
      <trkpt lat="45.65907" lon="5.7151">
        <ele>656</ele>
        <time>2018-09-02T14:21:16Z</time>
      </trkpt>
      <trkpt lat="45.6591" lon="5.71519">
        <ele>656</ele>
        <time>2018-09-02T14:21:16Z</time>
      </trkpt>
      <trkpt lat="45.65911" lon="5.71528">
        <ele>656</ele>
        <time>2018-09-02T14:21:16Z</time>
      </trkpt>
      <trkpt lat="45.65909" lon="5.71529">
        <ele>656</ele>
        <time>2018-09-02T14:21:32Z</time>
      </trkpt>
      <trkpt lat="45.65906" lon="5.71531">
        <ele>656</ele>
        <time>2018-09-02T14:21:32Z</time>
      </trkpt>
      <trkpt lat="45.65902" lon="5.71531">
        <ele>656</ele>
        <time>2018-09-02T14:21:32Z</time>
      </trkpt>
      <trkpt lat="45.65897" lon="5.71533">
        <ele>656</ele>
        <time>2018-09-02T14:21:32Z</time>
      </trkpt>
      <trkpt lat="45.6589" lon="5.71533">
        <ele>656</ele>
        <time>2018-09-02T14:21:48Z</time>
      </trkpt>
      <trkpt lat="45.6588" lon="5.71536">
        <ele>656</ele>
        <time>2018-09-02T14:21:48Z</time>
      </trkpt>
      <trkpt lat="45.65864" lon="5.71536">
        <ele>673</ele>
        <time>2018-09-02T14:21:48Z</time>
      </trkpt>
      <trkpt lat="45.65846" lon="5.71522">
        <ele>673</ele>
        <time>2018-09-02T14:21:48Z</time>
      </trkpt>
      <trkpt lat="45.6583" lon="5.71501">
        <ele>673</ele>
        <time>2018-09-02T14:22:04Z</time>
      </trkpt>
      <trkpt lat="45.65809" lon="5.71466">
        <ele>673</ele>
        <time>2018-09-02T14:22:04Z</time>
      </trkpt>
      <trkpt lat="45.65792" lon="5.71448">
        <ele>663</ele>
        <time>2018-09-02T14:22:04Z</time>
      </trkpt>
      <trkpt lat="45.65778" lon="5.71434">
        <ele>680</ele>
        <time>2018-09-02T14:22:04Z</time>
      </trkpt>
      <trkpt lat="45.65767" lon="5.71425">
        <ele>680</ele>
        <time>2018-09-02T14:22:20Z</time>
      </trkpt>
      <trkpt lat="45.65761" lon="5.71422">
        <ele>680</ele>
        <time>2018-09-02T14:22:20Z</time>
      </trkpt>
      <trkpt lat="45.65759" lon="5.71422">
        <ele>680</ele>
        <time>2018-09-02T14:22:20Z</time>
      </trkpt>
      <trkpt lat="45.65757" lon="5.71417">
        <ele>680</ele>
        <time>2018-09-02T14:22:20Z</time>
      </trkpt>
      <trkpt lat="45.65756" lon="5.71411">
        <ele>680</ele>
        <time>2018-09-02T14:22:36Z</time>
      </trkpt>
      <trkpt lat="45.65752" lon="5.71406">
        <ele>680</ele>
        <time>2018-09-02T14:22:36Z</time>
      </trkpt>
      <trkpt lat="45.65747" lon="5.71403">
        <ele>680</ele>
        <time>2018-09-02T14:22:36Z</time>
      </trkpt>
      <trkpt lat="45.65739" lon="5.71395">
        <ele>680</ele>
        <time>2018-09-02T14:22:36Z</time>
      </trkpt>
      <trkpt lat="45.65729" lon="5.71385">
        <ele>680</ele>
        <time>2018-09-02T14:22:52Z</time>
      </trkpt>
      <trkpt lat="45.65722" lon="5.71377">
        <ele>680</ele>
        <time>2018-09-02T14:22:52Z</time>
      </trkpt>
      <trkpt lat="45.65715" lon="5.71363">
        <ele>670</ele>
        <time>2018-09-02T14:22:52Z</time>
      </trkpt>
      <trkpt lat="45.65698" lon="5.71347">
        <ele>690</ele>
        <time>2018-09-02T14:22:52Z</time>
      </trkpt>
      <trkpt lat="45.65677" lon="5.71322">
        <ele>690</ele>
        <time>2018-09-02T14:23:08Z</time>
      </trkpt>
      <trkpt lat="45.65665" lon="5.71304">
        <ele>690</ele>
        <time>2018-09-02T14:23:08Z</time>
      </trkpt>
      <trkpt lat="45.65647" lon="5.7128">
        <ele>682</ele>
        <time>2018-09-02T14:23:08Z</time>
      </trkpt>
      <trkpt lat="45.65631" lon="5.71257">
        <ele>682</ele>
        <time>2018-09-02T14:23:08Z</time>
      </trkpt>
      <trkpt lat="45.65611" lon="5.71248">
        <ele>700</ele>
        <time>2018-09-02T14:23:24Z</time>
      </trkpt>
      <trkpt lat="45.65593" lon="5.71244">
        <ele>700</ele>
        <time>2018-09-02T14:23:24Z</time>
      </trkpt>
      <trkpt lat="45.6558" lon="5.7125">
        <ele>700</ele>
        <time>2018-09-02T14:23:24Z</time>
      </trkpt>
      <trkpt lat="45.65573" lon="5.71254">
        <ele>700</ele>
        <time>2018-09-02T14:23:24Z</time>
      </trkpt>
      <trkpt lat="45.65565" lon="5.71256">
        <ele>700</ele>
        <time>2018-09-02T14:23:40Z</time>
      </trkpt>
      <trkpt lat="45.65561" lon="5.71256">
        <ele>700</ele>
        <time>2018-09-02T14:23:40Z</time>
      </trkpt>
      <trkpt lat="45.65548" lon="5.71256">
        <ele>700</ele>
        <time>2018-09-02T14:23:40Z</time>
      </trkpt>
      <trkpt lat="45.65541" lon="5.71257">
        <ele>716</ele>
        <time>2018-09-02T14:23:40Z</time>
      </trkpt>
      <trkpt lat="45.65537" lon="5.71259">
        <ele>716</ele>
        <time>2018-09-02T14:24:00Z</time>
      </trkpt>
      <trkpt lat="45.65532" lon="5.7126">
        <ele>716</ele>
        <time>2018-09-02T14:24:00Z</time>
      </trkpt>
      <trkpt lat="45.65529" lon="5.7126">
        <ele>716</ele>
        <time>2018-09-02T14:24:00Z</time>
      </trkpt>
      <trkpt lat="45.65529" lon="5.71259">
        <ele>716</ele>
        <time>2018-09-02T14:24:00Z</time>
      </trkpt>
      <trkpt lat="45.65525" lon="5.71259">
        <ele>716</ele>
        <time>2018-09-02T14:24:00Z</time>
      </trkpt>
      <trkpt lat="45.65523" lon="5.71261">
        <ele>716</ele>
        <time>2018-09-02T14:24:16Z</time>
      </trkpt>
      <trkpt lat="45.65519" lon="5.71263">
        <ele>716</ele>
        <time>2018-09-02T14:24:16Z</time>
      </trkpt>
      <trkpt lat="45.65512" lon="5.71267">
        <ele>716</ele>
        <time>2018-09-02T14:24:16Z</time>
      </trkpt>
      <trkpt lat="45.65505" lon="5.7127">
        <ele>716</ele>
        <time>2018-09-02T14:24:16Z</time>
      </trkpt>
      <trkpt lat="45.65498" lon="5.71271">
        <ele>716</ele>
        <time>2018-09-02T14:24:32Z</time>
      </trkpt>
      <trkpt lat="45.65492" lon="5.71271">
        <ele>716</ele>
        <time>2018-09-02T14:24:32Z</time>
      </trkpt>
      <trkpt lat="45.65483" lon="5.71267">
        <ele>716</ele>
        <time>2018-09-02T14:24:32Z</time>
      </trkpt>
      <trkpt lat="45.65477" lon="5.71264">
        <ele>716</ele>
        <time>2018-09-02T14:24:32Z</time>
      </trkpt>
      <trkpt lat="45.65475" lon="5.71262">
        <ele>716</ele>
        <time>2018-09-02T14:24:48Z</time>
      </trkpt>
      <trkpt lat="45.65472" lon="5.71259">
        <ele>716</ele>
        <time>2018-09-02T14:24:48Z</time>
      </trkpt>
      <trkpt lat="45.65468" lon="5.71253">
        <ele>716</ele>
        <time>2018-09-02T14:24:48Z</time>
      </trkpt>
      <trkpt lat="45.65462" lon="5.71249">
        <ele>716</ele>
        <time>2018-09-02T14:24:48Z</time>
      </trkpt>
      <trkpt lat="45.65452" lon="5.71245">
        <ele>739</ele>
        <time>2018-09-02T14:25:04Z</time>
      </trkpt>
      <trkpt lat="45.65445" lon="5.71247">
        <ele>739</ele>
        <time>2018-09-02T14:25:04Z</time>
      </trkpt>
      <trkpt lat="45.65434" lon="5.71243">
        <ele>739</ele>
        <time>2018-09-02T14:25:04Z</time>
      </trkpt>
      <trkpt lat="45.65431" lon="5.71244">
        <ele>739</ele>
        <time>2018-09-02T14:25:04Z</time>
      </trkpt>
      <trkpt lat="45.65428" lon="5.71246">
        <ele>739</ele>
        <time>2018-09-02T14:25:20Z</time>
      </trkpt>
      <trkpt lat="45.65426" lon="5.71247">
        <ele>739</ele>
        <time>2018-09-02T14:25:20Z</time>
      </trkpt>
      <trkpt lat="45.6542" lon="5.71249">
        <ele>739</ele>
        <time>2018-09-02T14:25:20Z</time>
      </trkpt>
      <trkpt lat="45.65414" lon="5.71252">
        <ele>739</ele>
        <time>2018-09-02T14:25:20Z</time>
      </trkpt>
      <trkpt lat="45.65408" lon="5.71256">
        <ele>739</ele>
        <time>2018-09-02T14:25:36Z</time>
      </trkpt>
      <trkpt lat="45.65401" lon="5.71257">
        <ele>739</ele>
        <time>2018-09-02T14:25:36Z</time>
      </trkpt>
      <trkpt lat="45.65394" lon="5.71256">
        <ele>739</ele>
        <time>2018-09-02T14:25:36Z</time>
      </trkpt>
      <trkpt lat="45.65389" lon="5.71255">
        <ele>739</ele>
        <time>2018-09-02T14:25:36Z</time>
      </trkpt>
      <trkpt lat="45.65384" lon="5.71254">
        <ele>739</ele>
        <time>2018-09-02T14:25:52Z</time>
      </trkpt>
      <trkpt lat="45.65381" lon="5.71255">
        <ele>739</ele>
        <time>2018-09-02T14:25:52Z</time>
      </trkpt>
      <trkpt lat="45.65376" lon="5.71254">
        <ele>739</ele>
        <time>2018-09-02T14:25:52Z</time>
      </trkpt>
      <trkpt lat="45.65372" lon="5.71256">
        <ele>746</ele>
        <time>2018-09-02T14:25:52Z</time>
      </trkpt>
      <trkpt lat="45.65368" lon="5.71257">
        <ele>746</ele>
        <time>2018-09-02T14:26:08Z</time>
      </trkpt>
      <trkpt lat="45.65364" lon="5.71256">
        <ele>746</ele>
        <time>2018-09-02T14:26:08Z</time>
      </trkpt>
      <trkpt lat="45.65359" lon="5.71255">
        <ele>746</ele>
        <time>2018-09-02T14:26:08Z</time>
      </trkpt>
      <trkpt lat="45.65355" lon="5.71254">
        <ele>746</ele>
        <time>2018-09-02T14:26:08Z</time>
      </trkpt>
      <trkpt lat="45.6535" lon="5.71256">
        <ele>746</ele>
        <time>2018-09-02T14:26:24Z</time>
      </trkpt>
      <trkpt lat="45.65345" lon="5.71259">
        <ele>746</ele>
        <time>2018-09-02T14:26:24Z</time>
      </trkpt>
      <trkpt lat="45.65339" lon="5.71261">
        <ele>746</ele>
        <time>2018-09-02T14:26:24Z</time>
      </trkpt>
      <trkpt lat="45.65333" lon="5.71262">
        <ele>746</ele>
        <time>2018-09-02T14:26:24Z</time>
      </trkpt>
      <trkpt lat="45.65329" lon="5.71264">
        <ele>746</ele>
        <time>2018-09-02T14:26:40Z</time>
      </trkpt>
      <trkpt lat="45.65322" lon="5.71268">
        <ele>746</ele>
        <time>2018-09-02T14:26:40Z</time>
      </trkpt>
      <trkpt lat="45.65315" lon="5.71272">
        <ele>746</ele>
        <time>2018-09-02T14:26:40Z</time>
      </trkpt>
      <trkpt lat="45.65309" lon="5.71274">
        <ele>746</ele>
        <time>2018-09-02T14:26:40Z</time>
      </trkpt>
      <trkpt lat="45.65304" lon="5.71277">
        <ele>746</ele>
        <time>2018-09-02T14:26:56Z</time>
      </trkpt>
      <trkpt lat="45.65298" lon="5.71281">
        <ele>746</ele>
        <time>2018-09-02T14:26:56Z</time>
      </trkpt>
      <trkpt lat="45.65292" lon="5.71283">
        <ele>746</ele>
        <time>2018-09-02T14:26:56Z</time>
      </trkpt>
      <trkpt lat="45.65286" lon="5.71286">
        <ele>741</ele>
        <time>2018-09-02T14:26:56Z</time>
      </trkpt>
      <trkpt lat="45.6528" lon="5.7129">
        <ele>741</ele>
        <time>2018-09-02T14:27:12Z</time>
      </trkpt>
      <trkpt lat="45.65275" lon="5.71292">
        <ele>741</ele>
        <time>2018-09-02T14:27:12Z</time>
      </trkpt>
      <trkpt lat="45.65272" lon="5.71293">
        <ele>743</ele>
        <time>2018-09-02T14:27:12Z</time>
      </trkpt>
      <trkpt lat="45.65268" lon="5.71297">
        <ele>743</ele>
        <time>2018-09-02T14:27:12Z</time>
      </trkpt>
      <trkpt lat="45.65264" lon="5.71301">
        <ele>743</ele>
        <time>2018-09-02T14:27:28Z</time>
      </trkpt>
      <trkpt lat="45.65259" lon="5.71301">
        <ele>743</ele>
        <time>2018-09-02T14:27:28Z</time>
      </trkpt>
      <trkpt lat="45.65257" lon="5.71301">
        <ele>743</ele>
        <time>2018-09-02T14:27:28Z</time>
      </trkpt>
      <trkpt lat="45.65254" lon="5.713">
        <ele>743</ele>
        <time>2018-09-02T14:27:28Z</time>
      </trkpt>
      <trkpt lat="45.65247" lon="5.71298">
        <ele>743</ele>
        <time>2018-09-02T14:27:44Z</time>
      </trkpt>
      <trkpt lat="45.65239" lon="5.71298">
        <ele>743</ele>
        <time>2018-09-02T14:27:44Z</time>
      </trkpt>
      <trkpt lat="45.65232" lon="5.71302">
        <ele>743</ele>
        <time>2018-09-02T14:27:44Z</time>
      </trkpt>
      <trkpt lat="45.65227" lon="5.71305">
        <ele>743</ele>
        <time>2018-09-02T14:27:44Z</time>
      </trkpt>
      <trkpt lat="45.65218" lon="5.71312">
        <ele>743</ele>
        <time>2018-09-02T14:28:00Z</time>
      </trkpt>
      <trkpt lat="45.65212" lon="5.71321">
        <ele>743</ele>
        <time>2018-09-02T14:28:00Z</time>
      </trkpt>
      <trkpt lat="45.65206" lon="5.71324">
        <ele>740</ele>
        <time>2018-09-02T14:28:00Z</time>
      </trkpt>
      <trkpt lat="45.65199" lon="5.71321">
        <ele>740</ele>
        <time>2018-09-02T14:28:00Z</time>
      </trkpt>
      <trkpt lat="45.65191" lon="5.71315">
        <ele>740</ele>
        <time>2018-09-02T14:28:16Z</time>
      </trkpt>
      <trkpt lat="45.65186" lon="5.71307">
        <ele>740</ele>
        <time>2018-09-02T14:28:16Z</time>
      </trkpt>
      <trkpt lat="45.65182" lon="5.71298">
        <ele>740</ele>
        <time>2018-09-02T14:28:16Z</time>
      </trkpt>
      <trkpt lat="45.65179" lon="5.7129">
        <ele>740</ele>
        <time>2018-09-02T14:28:16Z</time>
      </trkpt>
      <trkpt lat="45.65176" lon="5.71285">
        <ele>740</ele>
        <time>2018-09-02T14:28:32Z</time>
      </trkpt>
      <trkpt lat="45.65171" lon="5.7128">
        <ele>740</ele>
        <time>2018-09-02T14:28:32Z</time>
      </trkpt>
      <trkpt lat="45.65164" lon="5.71278">
        <ele>740</ele>
        <time>2018-09-02T14:28:32Z</time>
      </trkpt>
      <trkpt lat="45.65153" lon="5.7128">
        <ele>740</ele>
        <time>2018-09-02T14:28:32Z</time>
      </trkpt>
      <trkpt lat="45.65152" lon="5.71284">
        <ele>740</ele>
        <time>2018-09-02T14:28:48Z</time>
      </trkpt>
      <trkpt lat="45.65155" lon="5.71289">
        <ele>740</ele>
        <time>2018-09-02T14:28:48Z</time>
      </trkpt>
      <trkpt lat="45.65156" lon="5.71294">
        <ele>740</ele>
        <time>2018-09-02T14:28:48Z</time>
      </trkpt>
      <trkpt lat="45.65157" lon="5.71298">
        <ele>740</ele>
        <time>2018-09-02T14:28:48Z</time>
      </trkpt>
      <trkpt lat="45.65162" lon="5.71302">
        <ele>740</ele>
        <time>2018-09-02T14:29:04Z</time>
      </trkpt>
      <trkpt lat="45.65162" lon="5.7131">
        <ele>740</ele>
        <time>2018-09-02T14:29:04Z</time>
      </trkpt>
      <trkpt lat="45.65163" lon="5.71329">
        <ele>740</ele>
        <time>2018-09-02T14:29:04Z</time>
      </trkpt>
      <trkpt lat="45.65163" lon="5.71354">
        <ele>740</ele>
        <time>2018-09-02T14:29:04Z</time>
      </trkpt>
      <trkpt lat="45.6516" lon="5.71377">
        <ele>740</ele>
        <time>2018-09-02T14:29:20Z</time>
      </trkpt>
      <trkpt lat="45.65144" lon="5.71399">
        <ele>740</ele>
        <time>2018-09-02T14:29:20Z</time>
      </trkpt>
      <trkpt lat="45.65132" lon="5.71413">
        <ele>740</ele>
        <time>2018-09-02T14:29:20Z</time>
      </trkpt>
      <trkpt lat="45.65123" lon="5.71425">
        <ele>739</ele>
        <time>2018-09-02T14:29:20Z</time>
      </trkpt>
      <trkpt lat="45.6512" lon="5.7143">
        <ele>739</ele>
        <time>2018-09-02T14:29:36Z</time>
      </trkpt>
      <trkpt lat="45.65117" lon="5.71435">
        <ele>739</ele>
        <time>2018-09-02T14:29:36Z</time>
      </trkpt>
      <trkpt lat="45.6511" lon="5.71446">
        <ele>739</ele>
        <time>2018-09-02T14:29:36Z</time>
      </trkpt>
      <trkpt lat="45.65105" lon="5.71461">
        <ele>740</ele>
        <time>2018-09-02T14:29:36Z</time>
      </trkpt>
      <trkpt lat="45.65098" lon="5.71481">
        <ele>740</ele>
        <time>2018-09-02T14:29:52Z</time>
      </trkpt>
      <trkpt lat="45.65089" lon="5.71496">
        <ele>740</ele>
        <time>2018-09-02T14:29:52Z</time>
      </trkpt>
      <trkpt lat="45.65084" lon="5.71506">
        <ele>740</ele>
        <time>2018-09-02T14:29:52Z</time>
      </trkpt>
      <trkpt lat="45.65082" lon="5.71515">
        <ele>740</ele>
        <time>2018-09-02T14:29:52Z</time>
      </trkpt>
      <trkpt lat="45.65082" lon="5.71523">
        <ele>740</ele>
        <time>2018-09-02T14:30:08Z</time>
      </trkpt>
      <trkpt lat="45.65085" lon="5.71527">
        <ele>740</ele>
        <time>2018-09-02T14:30:08Z</time>
      </trkpt>
      <trkpt lat="45.65087" lon="5.71532">
        <ele>740</ele>
        <time>2018-09-02T14:30:08Z</time>
      </trkpt>
      <trkpt lat="45.65084" lon="5.71543">
        <ele>741</ele>
        <time>2018-09-02T14:30:08Z</time>
      </trkpt>
      <trkpt lat="45.65077" lon="5.71545">
        <ele>741</ele>
        <time>2018-09-02T14:30:24Z</time>
      </trkpt>
      <trkpt lat="45.65076" lon="5.71556">
        <ele>741</ele>
        <time>2018-09-02T14:30:24Z</time>
      </trkpt>
      <trkpt lat="45.65075" lon="5.71562">
        <ele>741</ele>
        <time>2018-09-02T14:30:24Z</time>
      </trkpt>
      <trkpt lat="45.65074" lon="5.71567">
        <ele>741</ele>
        <time>2018-09-02T14:30:24Z</time>
      </trkpt>
      <trkpt lat="45.6507" lon="5.71572">
        <ele>741</ele>
        <time>2018-09-02T14:30:40Z</time>
      </trkpt>
      <trkpt lat="45.65066" lon="5.71579">
        <ele>741</ele>
        <time>2018-09-02T14:30:40Z</time>
      </trkpt>
      <trkpt lat="45.65059" lon="5.71585">
        <ele>741</ele>
        <time>2018-09-02T14:30:40Z</time>
      </trkpt>
      <trkpt lat="45.65054" lon="5.7159">
        <ele>741</ele>
        <time>2018-09-02T14:30:40Z</time>
      </trkpt>
      <trkpt lat="45.65052" lon="5.71597">
        <ele>741</ele>
        <time>2018-09-02T14:30:56Z</time>
      </trkpt>
      <trkpt lat="45.65046" lon="5.716">
        <ele>741</ele>
        <time>2018-09-02T14:30:56Z</time>
      </trkpt>
      <trkpt lat="45.65039" lon="5.71604">
        <ele>742</ele>
        <time>2018-09-02T14:30:56Z</time>
      </trkpt>
      <trkpt lat="45.65031" lon="5.71612">
        <ele>742</ele>
        <time>2018-09-02T14:30:56Z</time>
      </trkpt>
      <trkpt lat="45.65025" lon="5.71622">
        <ele>742</ele>
        <time>2018-09-02T14:31:12Z</time>
      </trkpt>
      <trkpt lat="45.65016" lon="5.71634">
        <ele>740</ele>
        <time>2018-09-02T14:31:12Z</time>
      </trkpt>
      <trkpt lat="45.6501" lon="5.71644">
        <ele>740</ele>
        <time>2018-09-02T14:31:12Z</time>
      </trkpt>
      <trkpt lat="45.65006" lon="5.71649">
        <ele>740</ele>
        <time>2018-09-02T14:31:12Z</time>
      </trkpt>
      <trkpt lat="45.65003" lon="5.71655">
        <ele>740</ele>
        <time>2018-09-02T14:31:28Z</time>
      </trkpt>
      <trkpt lat="45.64998" lon="5.7166">
        <ele>740</ele>
        <time>2018-09-02T14:31:28Z</time>
      </trkpt>
      <trkpt lat="45.64991" lon="5.71663">
        <ele>740</ele>
        <time>2018-09-02T14:31:28Z</time>
      </trkpt>
      <trkpt lat="45.64984" lon="5.71669">
        <ele>740</ele>
        <time>2018-09-02T14:31:28Z</time>
      </trkpt>
      <trkpt lat="45.64978" lon="5.71681">
        <ele>740</ele>
        <time>2018-09-02T14:31:44Z</time>
      </trkpt>
      <trkpt lat="45.64975" lon="5.7169">
        <ele>740</ele>
        <time>2018-09-02T14:31:44Z</time>
      </trkpt>
      <trkpt lat="45.64971" lon="5.71699">
        <ele>740</ele>
        <time>2018-09-02T14:31:44Z</time>
      </trkpt>
      <trkpt lat="45.64967" lon="5.71708">
        <ele>740</ele>
        <time>2018-09-02T14:31:44Z</time>
      </trkpt>
      <trkpt lat="45.64965" lon="5.7172">
        <ele>734</ele>
        <time>2018-09-02T14:32:00Z</time>
      </trkpt>
      <trkpt lat="45.64961" lon="5.71731">
        <ele>734</ele>
        <time>2018-09-02T14:32:00Z</time>
      </trkpt>
      <trkpt lat="45.64958" lon="5.71738">
        <ele>727</ele>
        <time>2018-09-02T14:32:00Z</time>
      </trkpt>
      <trkpt lat="45.64954" lon="5.71744">
        <ele>727</ele>
        <time>2018-09-02T14:32:00Z</time>
      </trkpt>
      <trkpt lat="45.6495" lon="5.71747">
        <ele>727</ele>
        <time>2018-09-02T14:32:16Z</time>
      </trkpt>
      <trkpt lat="45.64947" lon="5.71752">
        <ele>727</ele>
        <time>2018-09-02T14:32:16Z</time>
      </trkpt>
      <trkpt lat="45.64948" lon="5.71766">
        <ele>727</ele>
        <time>2018-09-02T14:32:16Z</time>
      </trkpt>
      <trkpt lat="45.64946" lon="5.7178">
        <ele>727</ele>
        <time>2018-09-02T14:32:16Z</time>
      </trkpt>
      <trkpt lat="45.64944" lon="5.71786">
        <ele>727</ele>
        <time>2018-09-02T14:32:32Z</time>
      </trkpt>
      <trkpt lat="45.64941" lon="5.71792">
        <ele>727</ele>
        <time>2018-09-02T14:32:32Z</time>
      </trkpt>
      <trkpt lat="45.64939" lon="5.71799">
        <ele>721</ele>
        <time>2018-09-02T14:32:32Z</time>
      </trkpt>
      <trkpt lat="45.64936" lon="5.71806">
        <ele>721</ele>
        <time>2018-09-02T14:32:32Z</time>
      </trkpt>
      <trkpt lat="45.64932" lon="5.71812">
        <ele>721</ele>
        <time>2018-09-02T14:32:52Z</time>
      </trkpt>
      <trkpt lat="45.64928" lon="5.71813">
        <ele>721</ele>
        <time>2018-09-02T14:32:52Z</time>
      </trkpt>
      <trkpt lat="45.64924" lon="5.71814">
        <ele>721</ele>
        <time>2018-09-02T14:32:52Z</time>
      </trkpt>
      <trkpt lat="45.64924" lon="5.71814">
        <ele>721</ele>
        <time>2018-09-02T14:32:52Z</time>
      </trkpt>
      <trkpt lat="45.64922" lon="5.71816">
        <ele>721</ele>
        <time>2018-09-02T14:32:52Z</time>
      </trkpt>
      <trkpt lat="45.6492" lon="5.71815">
        <ele>721</ele>
        <time>2018-09-02T14:33:08Z</time>
      </trkpt>
      <trkpt lat="45.64919" lon="5.71809">
        <ele>721</ele>
        <time>2018-09-02T14:33:08Z</time>
      </trkpt>
      <trkpt lat="45.64918" lon="5.71799">
        <ele>721</ele>
        <time>2018-09-02T14:33:08Z</time>
      </trkpt>
      <trkpt lat="45.64916" lon="5.71788">
        <ele>727</ele>
        <time>2018-09-02T14:33:08Z</time>
      </trkpt>
      <trkpt lat="45.64913" lon="5.7178">
        <ele>727</ele>
        <time>2018-09-02T14:33:24Z</time>
      </trkpt>
      <trkpt lat="45.64912" lon="5.71771">
        <ele>727</ele>
        <time>2018-09-02T14:33:24Z</time>
      </trkpt>
      <trkpt lat="45.64911" lon="5.71761">
        <ele>727</ele>
        <time>2018-09-02T14:33:24Z</time>
      </trkpt>
      <trkpt lat="45.6491" lon="5.71754">
        <ele>727</ele>
        <time>2018-09-02T14:33:24Z</time>
      </trkpt>
      <trkpt lat="45.64909" lon="5.7175">
        <ele>727</ele>
        <time>2018-09-02T14:33:40Z</time>
      </trkpt>
      <trkpt lat="45.64908" lon="5.71749">
        <ele>727</ele>
        <time>2018-09-02T14:33:40Z</time>
      </trkpt>
      <trkpt lat="45.64904" lon="5.71745">
        <ele>727</ele>
        <time>2018-09-02T14:33:40Z</time>
      </trkpt>
      <trkpt lat="45.649" lon="5.71741">
        <ele>727</ele>
        <time>2018-09-02T14:33:40Z</time>
      </trkpt>
      <trkpt lat="45.64898" lon="5.71736">
        <ele>727</ele>
        <time>2018-09-02T14:33:56Z</time>
      </trkpt>
      <trkpt lat="45.64894" lon="5.71731">
        <ele>727</ele>
        <time>2018-09-02T14:33:56Z</time>
      </trkpt>
      <trkpt lat="45.6489" lon="5.71729">
        <ele>727</ele>
        <time>2018-09-02T14:33:56Z</time>
      </trkpt>
      <trkpt lat="45.64887" lon="5.71726">
        <ele>727</ele>
        <time>2018-09-02T14:33:56Z</time>
      </trkpt>
      <trkpt lat="45.64883" lon="5.71721">
        <ele>727</ele>
        <time>2018-09-02T14:34:12Z</time>
      </trkpt>
      <trkpt lat="45.64878" lon="5.71718">
        <ele>727</ele>
        <time>2018-09-02T14:34:12Z</time>
      </trkpt>
      <trkpt lat="45.64872" lon="5.71717">
        <ele>722</ele>
        <time>2018-09-02T14:34:12Z</time>
      </trkpt>
      <trkpt lat="45.6487" lon="5.71715">
        <ele>722</ele>
        <time>2018-09-02T14:34:12Z</time>
      </trkpt>
      <trkpt lat="45.64867" lon="5.7172">
        <ele>722</ele>
        <time>2018-09-02T14:34:28Z</time>
      </trkpt>
      <trkpt lat="45.64862" lon="5.7173">
        <ele>722</ele>
        <time>2018-09-02T14:34:28Z</time>
      </trkpt>
      <trkpt lat="45.64855" lon="5.71739">
        <ele>722</ele>
        <time>2018-09-02T14:34:28Z</time>
      </trkpt>
      <trkpt lat="45.64852" lon="5.71743">
        <ele>722</ele>
        <time>2018-09-02T14:34:28Z</time>
      </trkpt>
      <trkpt lat="45.64848" lon="5.71746">
        <ele>722</ele>
        <time>2018-09-02T14:34:44Z</time>
      </trkpt>
      <trkpt lat="45.64844" lon="5.7175">
        <ele>722</ele>
        <time>2018-09-02T14:34:44Z</time>
      </trkpt>
      <trkpt lat="45.64841" lon="5.71753">
        <ele>722</ele>
        <time>2018-09-02T14:34:44Z</time>
      </trkpt>
      <trkpt lat="45.64835" lon="5.71758">
        <ele>722</ele>
        <time>2018-09-02T14:34:44Z</time>
      </trkpt>
      <trkpt lat="45.64828" lon="5.7177">
        <ele>722</ele>
        <time>2018-09-02T14:35:00Z</time>
      </trkpt>
      <trkpt lat="45.64826" lon="5.71782">
        <ele>722</ele>
        <time>2018-09-02T14:35:00Z</time>
      </trkpt>
      <trkpt lat="45.64824" lon="5.71789">
        <ele>722</ele>
        <time>2018-09-02T14:35:00Z</time>
      </trkpt>
      <trkpt lat="45.64821" lon="5.71796">
        <ele>715</ele>
        <time>2018-09-02T14:35:00Z</time>
      </trkpt>
      <trkpt lat="45.64817" lon="5.71802">
        <ele>715</ele>
        <time>2018-09-02T14:35:16Z</time>
      </trkpt>
      <trkpt lat="45.6481" lon="5.71805">
        <ele>715</ele>
        <time>2018-09-02T14:35:16Z</time>
      </trkpt>
      <trkpt lat="45.64803" lon="5.71809">
        <ele>715</ele>
        <time>2018-09-02T14:35:16Z</time>
      </trkpt>
      <trkpt lat="45.64798" lon="5.71814">
        <ele>715</ele>
        <time>2018-09-02T14:35:16Z</time>
      </trkpt>
      <trkpt lat="45.64793" lon="5.71817">
        <ele>715</ele>
        <time>2018-09-02T14:35:32Z</time>
      </trkpt>
      <trkpt lat="45.64788" lon="5.71824">
        <ele>720</ele>
        <time>2018-09-02T14:35:32Z</time>
      </trkpt>
      <trkpt lat="45.64782" lon="5.71833">
        <ele>720</ele>
        <time>2018-09-02T14:35:32Z</time>
      </trkpt>
      <trkpt lat="45.64776" lon="5.71841">
        <ele>720</ele>
        <time>2018-09-02T14:35:32Z</time>
      </trkpt>
      <trkpt lat="45.64769" lon="5.71849">
        <ele>720</ele>
        <time>2018-09-02T14:35:48Z</time>
      </trkpt>
      <trkpt lat="45.6476" lon="5.71859">
        <ele>720</ele>
        <time>2018-09-02T14:35:48Z</time>
      </trkpt>
      <trkpt lat="45.64756" lon="5.71866">
        <ele>720</ele>
        <time>2018-09-02T14:35:48Z</time>
      </trkpt>
      <trkpt lat="45.64753" lon="5.71874">
        <ele>720</ele>
        <time>2018-09-02T14:35:48Z</time>
      </trkpt>
      <trkpt lat="45.64749" lon="5.7188">
        <ele>712</ele>
        <time>2018-09-02T14:36:04Z</time>
      </trkpt>
      <trkpt lat="45.64743" lon="5.71883">
        <ele>712</ele>
        <time>2018-09-02T14:36:04Z</time>
      </trkpt>
      <trkpt lat="45.64736" lon="5.71886">
        <ele>712</ele>
        <time>2018-09-02T14:36:04Z</time>
      </trkpt>
      <trkpt lat="45.64729" lon="5.71889">
        <ele>712</ele>
        <time>2018-09-02T14:36:04Z</time>
      </trkpt>
      <trkpt lat="45.64723" lon="5.71892">
        <ele>712</ele>
        <time>2018-09-02T14:36:20Z</time>
      </trkpt>
      <trkpt lat="45.64716" lon="5.71892">
        <ele>712</ele>
        <time>2018-09-02T14:36:20Z</time>
      </trkpt>
      <trkpt lat="45.6471" lon="5.7189">
        <ele>712</ele>
        <time>2018-09-02T14:36:20Z</time>
      </trkpt>
      <trkpt lat="45.64703" lon="5.71886">
        <ele>716</ele>
        <time>2018-09-02T14:36:20Z</time>
      </trkpt>
      <trkpt lat="45.64696" lon="5.7188">
        <ele>716</ele>
        <time>2018-09-02T14:36:36Z</time>
      </trkpt>
      <trkpt lat="45.64685" lon="5.71877">
        <ele>716</ele>
        <time>2018-09-02T14:36:36Z</time>
      </trkpt>
      <trkpt lat="45.64676" lon="5.71877">
        <ele>716</ele>
        <time>2018-09-02T14:36:36Z</time>
      </trkpt>
      <trkpt lat="45.64674" lon="5.7188">
        <ele>716</ele>
        <time>2018-09-02T14:36:36Z</time>
      </trkpt>
      <trkpt lat="45.64673" lon="5.71884">
        <ele>716</ele>
        <time>2018-09-02T14:36:52Z</time>
      </trkpt>
      <trkpt lat="45.64672" lon="5.71884">
        <ele>716</ele>
        <time>2018-09-02T14:36:52Z</time>
      </trkpt>
      <trkpt lat="45.64667" lon="5.71885">
        <ele>716</ele>
        <time>2018-09-02T14:36:52Z</time>
      </trkpt>
      <trkpt lat="45.64661" lon="5.71888">
        <ele>716</ele>
        <time>2018-09-02T14:36:52Z</time>
      </trkpt>
      <trkpt lat="45.64655" lon="5.71893">
        <ele>716</ele>
        <time>2018-09-02T14:37:08Z</time>
      </trkpt>
      <trkpt lat="45.64653" lon="5.71895">
        <ele>716</ele>
        <time>2018-09-02T14:37:08Z</time>
      </trkpt>
      <trkpt lat="45.64648" lon="5.71898">
        <ele>716</ele>
        <time>2018-09-02T14:37:08Z</time>
      </trkpt>
      <trkpt lat="45.64641" lon="5.71901">
        <ele>716</ele>
        <time>2018-09-02T14:37:08Z</time>
      </trkpt>
      <trkpt lat="45.64637" lon="5.71904">
        <ele>716</ele>
        <time>2018-09-02T14:37:24Z</time>
      </trkpt>
      <trkpt lat="45.64633" lon="5.71906">
        <ele>716</ele>
        <time>2018-09-02T14:37:24Z</time>
      </trkpt>
      <trkpt lat="45.64628" lon="5.71908">
        <ele>716</ele>
        <time>2018-09-02T14:37:24Z</time>
      </trkpt>
      <trkpt lat="45.64623" lon="5.71915">
        <ele>723</ele>
        <time>2018-09-02T14:37:24Z</time>
      </trkpt>
      <trkpt lat="45.64612" lon="5.71931">
        <ele>723</ele>
        <time>2018-09-02T14:37:40Z</time>
      </trkpt>
      <trkpt lat="45.646" lon="5.71948">
        <ele>723</ele>
        <time>2018-09-02T14:37:40Z</time>
      </trkpt>
      <trkpt lat="45.64578" lon="5.71951">
        <ele>723</ele>
        <time>2018-09-02T14:37:40Z</time>
      </trkpt>
      <trkpt lat="45.64556" lon="5.71948">
        <ele>723</ele>
        <time>2018-09-02T14:37:40Z</time>
      </trkpt>
      <trkpt lat="45.64538" lon="5.71947">
        <ele>730</ele>
        <time>2018-09-02T14:37:56Z</time>
      </trkpt>
      <trkpt lat="45.6453" lon="5.7195">
        <ele>730</ele>
        <time>2018-09-02T14:37:56Z</time>
      </trkpt>
      <trkpt lat="45.64525" lon="5.71952">
        <ele>730</ele>
        <time>2018-09-02T14:37:56Z</time>
      </trkpt>
      <trkpt lat="45.64518" lon="5.71955">
        <ele>730</ele>
        <time>2018-09-02T14:37:56Z</time>
      </trkpt>
      <trkpt lat="45.64512" lon="5.71956">
        <ele>730</ele>
        <time>2018-09-02T14:38:12Z</time>
      </trkpt>
      <trkpt lat="45.64505" lon="5.71956">
        <ele>730</ele>
        <time>2018-09-02T14:38:12Z</time>
      </trkpt>
      <trkpt lat="45.64498" lon="5.71956">
        <ele>730</ele>
        <time>2018-09-02T14:38:12Z</time>
      </trkpt>
      <trkpt lat="45.64489" lon="5.71956">
        <ele>730</ele>
        <time>2018-09-02T14:38:12Z</time>
      </trkpt>
      <trkpt lat="45.64482" lon="5.7196">
        <ele>716</ele>
        <time>2018-09-02T14:38:28Z</time>
      </trkpt>
      <trkpt lat="45.64477" lon="5.71965">
        <ele>716</ele>
        <time>2018-09-02T14:38:28Z</time>
      </trkpt>
      <trkpt lat="45.64469" lon="5.71968">
        <ele>716</ele>
        <time>2018-09-02T14:38:28Z</time>
      </trkpt>
      <trkpt lat="45.64464" lon="5.7197">
        <ele>716</ele>
        <time>2018-09-02T14:38:28Z</time>
      </trkpt>
      <trkpt lat="45.64459" lon="5.71967">
        <ele>716</ele>
        <time>2018-09-02T14:38:44Z</time>
      </trkpt>
      <trkpt lat="45.64453" lon="5.71968">
        <ele>719</ele>
        <time>2018-09-02T14:38:44Z</time>
      </trkpt>
      <trkpt lat="45.64441" lon="5.71974">
        <ele>719</ele>
        <time>2018-09-02T14:38:44Z</time>
      </trkpt>
      <trkpt lat="45.6443" lon="5.71975">
        <ele>719</ele>
        <time>2018-09-02T14:38:44Z</time>
      </trkpt>
      <trkpt lat="45.64425" lon="5.71975">
        <ele>719</ele>
        <time>2018-09-02T14:39:00Z</time>
      </trkpt>
      <trkpt lat="45.6442" lon="5.71975">
        <ele>719</ele>
        <time>2018-09-02T14:39:00Z</time>
      </trkpt>
      <trkpt lat="45.64415" lon="5.71975">
        <ele>719</ele>
        <time>2018-09-02T14:39:00Z</time>
      </trkpt>
      <trkpt lat="45.6441" lon="5.71976">
        <ele>719</ele>
        <time>2018-09-02T14:39:00Z</time>
      </trkpt>
      <trkpt lat="45.64405" lon="5.71978">
        <ele>719</ele>
        <time>2018-09-02T14:39:16Z</time>
      </trkpt>
      <trkpt lat="45.644" lon="5.7198">
        <ele>719</ele>
        <time>2018-09-02T14:39:16Z</time>
      </trkpt>
      <trkpt lat="45.64396" lon="5.71985">
        <ele>719</ele>
        <time>2018-09-02T14:39:16Z</time>
      </trkpt>
      <trkpt lat="45.64391" lon="5.71988">
        <ele>719</ele>
        <time>2018-09-02T14:39:16Z</time>
      </trkpt>
      <trkpt lat="45.64385" lon="5.71989">
        <ele>719</ele>
        <time>2018-09-02T14:39:32Z</time>
      </trkpt>
      <trkpt lat="45.64378" lon="5.71984">
        <ele>719</ele>
        <time>2018-09-02T14:39:32Z</time>
      </trkpt>
      <trkpt lat="45.64374" lon="5.71977">
        <ele>720</ele>
        <time>2018-09-02T14:39:32Z</time>
      </trkpt>
      <trkpt lat="45.6437" lon="5.71972">
        <ele>720</ele>
        <time>2018-09-02T14:39:32Z</time>
      </trkpt>
      <trkpt lat="45.64366" lon="5.71968">
        <ele>720</ele>
        <time>2018-09-02T14:39:48Z</time>
      </trkpt>
      <trkpt lat="45.64362" lon="5.71966">
        <ele>720</ele>
        <time>2018-09-02T14:39:48Z</time>
      </trkpt>
      <trkpt lat="45.64358" lon="5.71962">
        <ele>720</ele>
        <time>2018-09-02T14:39:48Z</time>
      </trkpt>
      <trkpt lat="45.64356" lon="5.71956">
        <ele>730</ele>
        <time>2018-09-02T14:39:48Z</time>
      </trkpt>
      <trkpt lat="45.64353" lon="5.71951">
        <ele>730</ele>
        <time>2018-09-02T14:40:04Z</time>
      </trkpt>
      <trkpt lat="45.64349" lon="5.71945">
        <ele>730</ele>
        <time>2018-09-02T14:40:04Z</time>
      </trkpt>
      <trkpt lat="45.64344" lon="5.7194">
        <ele>730</ele>
        <time>2018-09-02T14:40:04Z</time>
      </trkpt>
      <trkpt lat="45.6434" lon="5.71935">
        <ele>730</ele>
        <time>2018-09-02T14:40:04Z</time>
      </trkpt>
      <trkpt lat="45.64338" lon="5.71927">
        <ele>730</ele>
        <time>2018-09-02T14:40:20Z</time>
      </trkpt>
      <trkpt lat="45.64338" lon="5.7192">
        <ele>730</ele>
        <time>2018-09-02T14:40:20Z</time>
      </trkpt>
      <trkpt lat="45.6434" lon="5.71914">
        <ele>730</ele>
        <time>2018-09-02T14:40:20Z</time>
      </trkpt>
      <trkpt lat="45.64338" lon="5.71909">
        <ele>730</ele>
        <time>2018-09-02T14:40:20Z</time>
      </trkpt>
      <trkpt lat="45.64335" lon="5.71903">
        <ele>730</ele>
        <time>2018-09-02T14:40:36Z</time>
      </trkpt>
      <trkpt lat="45.6433" lon="5.71899">
        <ele>730</ele>
        <time>2018-09-02T14:40:36Z</time>
      </trkpt>
      <trkpt lat="45.64324" lon="5.71896">
        <ele>730</ele>
        <time>2018-09-02T14:40:36Z</time>
      </trkpt>
      <trkpt lat="45.64313" lon="5.71882">
        <ele>730</ele>
        <time>2018-09-02T14:40:36Z</time>
      </trkpt>
      <trkpt lat="45.64302" lon="5.71875">
        <ele>739</ele>
        <time>2018-09-02T14:40:52Z</time>
      </trkpt>
      <trkpt lat="45.64289" lon="5.71871">
        <ele>737</ele>
        <time>2018-09-02T14:40:52Z</time>
      </trkpt>
      <trkpt lat="45.64287" lon="5.7187">
        <ele>737</ele>
        <time>2018-09-02T14:40:52Z</time>
      </trkpt>
      <trkpt lat="45.64285" lon="5.71872">
        <ele>737</ele>
        <time>2018-09-02T14:40:52Z</time>
      </trkpt>
      <trkpt lat="45.64283" lon="5.71875">
        <ele>737</ele>
        <time>2018-09-02T14:41:08Z</time>
      </trkpt>
      <trkpt lat="45.64281" lon="5.71876">
        <ele>727</ele>
        <time>2018-09-02T14:41:08Z</time>
      </trkpt>
      <trkpt lat="45.64275" lon="5.71876">
        <ele>727</ele>
        <time>2018-09-02T14:41:08Z</time>
      </trkpt>
      <trkpt lat="45.6427" lon="5.71876">
        <ele>727</ele>
        <time>2018-09-02T14:41:08Z</time>
      </trkpt>
      <trkpt lat="45.64264" lon="5.71877">
        <ele>727</ele>
        <time>2018-09-02T14:41:24Z</time>
      </trkpt>
      <trkpt lat="45.64259" lon="5.71878">
        <ele>727</ele>
        <time>2018-09-02T14:41:24Z</time>
      </trkpt>
      <trkpt lat="45.64254" lon="5.7188">
        <ele>727</ele>
        <time>2018-09-02T14:41:24Z</time>
      </trkpt>
      <trkpt lat="45.64248" lon="5.71883">
        <ele>727</ele>
        <time>2018-09-02T14:41:24Z</time>
      </trkpt>
      <trkpt lat="45.64237" lon="5.71882">
        <ele>727</ele>
        <time>2018-09-02T14:41:40Z</time>
      </trkpt>
      <trkpt lat="45.64232" lon="5.71884">
        <ele>727</ele>
        <time>2018-09-02T14:41:40Z</time>
      </trkpt>
      <trkpt lat="45.6423" lon="5.71885">
        <ele>727</ele>
        <time>2018-09-02T14:41:40Z</time>
      </trkpt>
      <trkpt lat="45.64226" lon="5.71886">
        <ele>727</ele>
        <time>2018-09-02T14:41:40Z</time>
      </trkpt>
      <trkpt lat="45.64222" lon="5.71888">
        <ele>727</ele>
        <time>2018-09-02T14:41:56Z</time>
      </trkpt>
      <trkpt lat="45.64217" lon="5.71888">
        <ele>727</ele>
        <time>2018-09-02T14:41:56Z</time>
      </trkpt>
      <trkpt lat="45.64212" lon="5.7189">
        <ele>727</ele>
        <time>2018-09-02T14:41:56Z</time>
      </trkpt>
      <trkpt lat="45.6421" lon="5.71894">
        <ele>727</ele>
        <time>2018-09-02T14:41:56Z</time>
      </trkpt>
      <trkpt lat="45.64205" lon="5.71896">
        <ele>724</ele>
        <time>2018-09-02T14:42:12Z</time>
      </trkpt>
      <trkpt lat="45.64199" lon="5.71897">
        <ele>724</ele>
        <time>2018-09-02T14:42:12Z</time>
      </trkpt>
      <trkpt lat="45.64191" lon="5.71897">
        <ele>724</ele>
        <time>2018-09-02T14:42:12Z</time>
      </trkpt>
      <trkpt lat="45.64181" lon="5.71898">
        <ele>724</ele>
        <time>2018-09-02T14:42:12Z</time>
      </trkpt>
      <trkpt lat="45.64172" lon="5.71897">
        <ele>724</ele>
        <time>2018-09-02T14:42:28Z</time>
      </trkpt>
      <trkpt lat="45.64166" lon="5.71898">
        <ele>724</ele>
        <time>2018-09-02T14:42:28Z</time>
      </trkpt>
      <trkpt lat="45.64161" lon="5.71898">
        <ele>724</ele>
        <time>2018-09-02T14:42:28Z</time>
      </trkpt>
      <trkpt lat="45.64156" lon="5.71896">
        <ele>724</ele>
        <time>2018-09-02T14:42:28Z</time>
      </trkpt>
      <trkpt lat="45.64151" lon="5.71894">
        <ele>724</ele>
        <time>2018-09-02T14:42:44Z</time>
      </trkpt>
      <trkpt lat="45.64145" lon="5.71892">
        <ele>724</ele>
        <time>2018-09-02T14:42:44Z</time>
      </trkpt>
      <trkpt lat="45.64141" lon="5.71891">
        <ele>724</ele>
        <time>2018-09-02T14:42:44Z</time>
      </trkpt>
      <trkpt lat="45.6413" lon="5.71888">
        <ele>724</ele>
        <time>2018-09-02T14:42:44Z</time>
      </trkpt>
      <trkpt lat="45.64121" lon="5.71886">
        <ele>725</ele>
        <time>2018-09-02T14:43:00Z</time>
      </trkpt>
      <trkpt lat="45.64114" lon="5.71885">
        <ele>725</ele>
        <time>2018-09-02T14:43:00Z</time>
      </trkpt>
      <trkpt lat="45.64107" lon="5.71882">
        <ele>725</ele>
        <time>2018-09-02T14:43:00Z</time>
      </trkpt>
      <trkpt lat="45.64101" lon="5.71879">
        <ele>725</ele>
        <time>2018-09-02T14:43:00Z</time>
      </trkpt>
      <trkpt lat="45.64096" lon="5.71875">
        <ele>725</ele>
        <time>2018-09-02T14:43:16Z</time>
      </trkpt>
      <trkpt lat="45.6409" lon="5.7187">
        <ele>737</ele>
        <time>2018-09-02T14:43:16Z</time>
      </trkpt>
      <trkpt lat="45.64085" lon="5.71866">
        <ele>737</ele>
        <time>2018-09-02T14:43:16Z</time>
      </trkpt>
      <trkpt lat="45.64079" lon="5.71864">
        <ele>737</ele>
        <time>2018-09-02T14:43:16Z</time>
      </trkpt>
      <trkpt lat="45.64074" lon="5.71864">
        <ele>737</ele>
        <time>2018-09-02T14:43:32Z</time>
      </trkpt>
      <trkpt lat="45.64069" lon="5.71864">
        <ele>737</ele>
        <time>2018-09-02T14:43:32Z</time>
      </trkpt>
      <trkpt lat="45.64064" lon="5.71866">
        <ele>737</ele>
        <time>2018-09-02T14:43:32Z</time>
      </trkpt>
      <trkpt lat="45.64059" lon="5.71868">
        <ele>737</ele>
        <time>2018-09-02T14:43:32Z</time>
      </trkpt>
      <trkpt lat="45.64055" lon="5.7187">
        <ele>737</ele>
        <time>2018-09-02T14:43:48Z</time>
      </trkpt>
      <trkpt lat="45.6405" lon="5.7187">
        <ele>737</ele>
        <time>2018-09-02T14:43:48Z</time>
      </trkpt>
      <trkpt lat="45.64043" lon="5.71868">
        <ele>737</ele>
        <time>2018-09-02T14:43:48Z</time>
      </trkpt>
      <trkpt lat="45.64036" lon="5.71859">
        <ele>736</ele>
        <time>2018-09-02T14:43:48Z</time>
      </trkpt>
      <trkpt lat="45.64033" lon="5.71842">
        <ele>736</ele>
        <time>2018-09-02T14:44:04Z</time>
      </trkpt>
      <trkpt lat="45.6403" lon="5.71831">
        <ele>736</ele>
        <time>2018-09-02T14:44:04Z</time>
      </trkpt>
      <trkpt lat="45.64027" lon="5.71825">
        <ele>736</ele>
        <time>2018-09-02T14:44:04Z</time>
      </trkpt>
      <trkpt lat="45.64025" lon="5.71818">
        <ele>736</ele>
        <time>2018-09-02T14:44:04Z</time>
      </trkpt>
      <trkpt lat="45.64023" lon="5.7181">
        <ele>736</ele>
        <time>2018-09-02T14:44:20Z</time>
      </trkpt>
      <trkpt lat="45.64021" lon="5.71804">
        <ele>736</ele>
        <time>2018-09-02T14:44:20Z</time>
      </trkpt>
      <trkpt lat="45.64017" lon="5.71799">
        <ele>736</ele>
        <time>2018-09-02T14:44:20Z</time>
      </trkpt>
      <trkpt lat="45.64015" lon="5.71794">
        <ele>736</ele>
        <time>2018-09-02T14:44:20Z</time>
      </trkpt>
      <trkpt lat="45.64012" lon="5.7179">
        <ele>747</ele>
        <time>2018-09-02T14:44:36Z</time>
      </trkpt>
      <trkpt lat="45.64008" lon="5.71784">
        <ele>747</ele>
        <time>2018-09-02T14:44:36Z</time>
      </trkpt>
      <trkpt lat="45.64004" lon="5.71778">
        <ele>747</ele>
        <time>2018-09-02T14:44:36Z</time>
      </trkpt>
      <trkpt lat="45.64001" lon="5.71774">
        <ele>747</ele>
        <time>2018-09-02T14:44:36Z</time>
      </trkpt>
      <trkpt lat="45.63997" lon="5.7177">
        <ele>747</ele>
        <time>2018-09-02T14:44:52Z</time>
      </trkpt>
      <trkpt lat="45.63992" lon="5.71765">
        <ele>747</ele>
        <time>2018-09-02T14:44:52Z</time>
      </trkpt>
      <trkpt lat="45.63987" lon="5.71761">
        <ele>747</ele>
        <time>2018-09-02T14:44:52Z</time>
      </trkpt>
      <trkpt lat="45.63982" lon="5.71757">
        <ele>747</ele>
        <time>2018-09-02T14:44:52Z</time>
      </trkpt>
      <trkpt lat="45.63978" lon="5.71752">
        <ele>747</ele>
        <time>2018-09-02T14:45:08Z</time>
      </trkpt>
      <trkpt lat="45.63971" lon="5.71744">
        <ele>747</ele>
        <time>2018-09-02T14:45:08Z</time>
      </trkpt>
      <trkpt lat="45.63963" lon="5.71737">
        <ele>747</ele>
        <time>2018-09-02T14:45:08Z</time>
      </trkpt>
      <trkpt lat="45.63958" lon="5.71732">
        <ele>746</ele>
        <time>2018-09-02T14:45:08Z</time>
      </trkpt>
      <trkpt lat="45.63953" lon="5.71727">
        <ele>746</ele>
        <time>2018-09-02T14:45:24Z</time>
      </trkpt>
      <trkpt lat="45.63948" lon="5.71722">
        <ele>746</ele>
        <time>2018-09-02T14:45:24Z</time>
      </trkpt>
      <trkpt lat="45.63943" lon="5.71718">
        <ele>746</ele>
        <time>2018-09-02T14:45:24Z</time>
      </trkpt>
      <trkpt lat="45.63938" lon="5.71713">
        <ele>746</ele>
        <time>2018-09-02T14:45:24Z</time>
      </trkpt>
      <trkpt lat="45.63934" lon="5.71711">
        <ele>746</ele>
        <time>2018-09-02T14:45:40Z</time>
      </trkpt>
      <trkpt lat="45.63928" lon="5.71709">
        <ele>746</ele>
        <time>2018-09-02T14:45:40Z</time>
      </trkpt>
      <trkpt lat="45.63924" lon="5.71707">
        <ele>757</ele>
        <time>2018-09-02T14:45:40Z</time>
      </trkpt>
      <trkpt lat="45.6392" lon="5.71705">
        <ele>757</ele>
        <time>2018-09-02T14:45:40Z</time>
      </trkpt>
      <trkpt lat="45.63915" lon="5.71704">
        <ele>757</ele>
        <time>2018-09-02T14:45:56Z</time>
      </trkpt>
      <trkpt lat="45.63911" lon="5.71702">
        <ele>757</ele>
        <time>2018-09-02T14:45:56Z</time>
      </trkpt>
      <trkpt lat="45.63906" lon="5.71698">
        <ele>757</ele>
        <time>2018-09-02T14:45:56Z</time>
      </trkpt>
      <trkpt lat="45.63901" lon="5.71695">
        <ele>757</ele>
        <time>2018-09-02T14:45:56Z</time>
      </trkpt>
      <trkpt lat="45.63896" lon="5.7169">
        <ele>757</ele>
        <time>2018-09-02T14:46:12Z</time>
      </trkpt>
      <trkpt lat="45.63891" lon="5.71687">
        <ele>757</ele>
        <time>2018-09-02T14:46:12Z</time>
      </trkpt>
      <trkpt lat="45.63885" lon="5.71684">
        <ele>757</ele>
        <time>2018-09-02T14:46:12Z</time>
      </trkpt>
      <trkpt lat="45.6388" lon="5.71683">
        <ele>757</ele>
        <time>2018-09-02T14:46:12Z</time>
      </trkpt>
      <trkpt lat="45.63875" lon="5.71682">
        <ele>760</ele>
        <time>2018-09-02T14:46:28Z</time>
      </trkpt>
      <trkpt lat="45.63869" lon="5.71682">
        <ele>760</ele>
        <time>2018-09-02T14:46:28Z</time>
      </trkpt>
      <trkpt lat="45.63864" lon="5.71686">
        <ele>760</ele>
        <time>2018-09-02T14:46:28Z</time>
      </trkpt>
      <trkpt lat="45.63854" lon="5.71689">
        <ele>760</ele>
        <time>2018-09-02T14:46:28Z</time>
      </trkpt>
      <trkpt lat="45.63846" lon="5.71689">
        <ele>760</ele>
        <time>2018-09-02T14:46:44Z</time>
      </trkpt>
      <trkpt lat="45.63838" lon="5.71685">
        <ele>760</ele>
        <time>2018-09-02T14:46:44Z</time>
      </trkpt>
      <trkpt lat="45.63833" lon="5.71675">
        <ele>760</ele>
        <time>2018-09-02T14:46:44Z</time>
      </trkpt>
      <trkpt lat="45.6383" lon="5.71664">
        <ele>760</ele>
        <time>2018-09-02T14:46:44Z</time>
      </trkpt>
      <trkpt lat="45.63827" lon="5.71656">
        <ele>760</ele>
        <time>2018-09-02T14:47:00Z</time>
      </trkpt>
      <trkpt lat="45.63825" lon="5.71649">
        <ele>760</ele>
        <time>2018-09-02T14:47:00Z</time>
      </trkpt>
      <trkpt lat="45.63823" lon="5.71643">
        <ele>760</ele>
        <time>2018-09-02T14:47:00Z</time>
      </trkpt>
      <trkpt lat="45.63822" lon="5.71636">
        <ele>760</ele>
        <time>2018-09-02T14:47:00Z</time>
      </trkpt>
      <trkpt lat="45.6382" lon="5.7163">
        <ele>760</ele>
        <time>2018-09-02T14:47:16Z</time>
      </trkpt>
      <trkpt lat="45.6382" lon="5.71623">
        <ele>768</ele>
        <time>2018-09-02T14:47:16Z</time>
      </trkpt>
      <trkpt lat="45.6382" lon="5.71616">
        <ele>768</ele>
        <time>2018-09-02T14:47:16Z</time>
      </trkpt>
      <trkpt lat="45.6382" lon="5.71608">
        <ele>768</ele>
        <time>2018-09-02T14:47:16Z</time>
      </trkpt>
      <trkpt lat="45.63817" lon="5.71604">
        <ele>768</ele>
        <time>2018-09-02T14:47:32Z</time>
      </trkpt>
      <trkpt lat="45.63814" lon="5.716">
        <ele>768</ele>
        <time>2018-09-02T14:47:32Z</time>
      </trkpt>
      <trkpt lat="45.63811" lon="5.71596">
        <ele>768</ele>
        <time>2018-09-02T14:47:32Z</time>
      </trkpt>
      <trkpt lat="45.63808" lon="5.71593">
        <ele>768</ele>
        <time>2018-09-02T14:47:32Z</time>
      </trkpt>
      <trkpt lat="45.63805" lon="5.7159">
        <ele>768</ele>
        <time>2018-09-02T14:47:48Z</time>
      </trkpt>
      <trkpt lat="45.63799" lon="5.71588">
        <ele>768</ele>
        <time>2018-09-02T14:47:48Z</time>
      </trkpt>
      <trkpt lat="45.63791" lon="5.71584">
        <ele>766</ele>
        <time>2018-09-02T14:47:48Z</time>
      </trkpt>
      <trkpt lat="45.63783" lon="5.71579">
        <ele>766</ele>
        <time>2018-09-02T14:47:48Z</time>
      </trkpt>
      <trkpt lat="45.63777" lon="5.71575">
        <ele>766</ele>
        <time>2018-09-02T14:48:04Z</time>
      </trkpt>
      <trkpt lat="45.63772" lon="5.71571">
        <ele>766</ele>
        <time>2018-09-02T14:48:04Z</time>
      </trkpt>
      <trkpt lat="45.63762" lon="5.71567">
        <ele>766</ele>
        <time>2018-09-02T14:48:04Z</time>
      </trkpt>
      <trkpt lat="45.63757" lon="5.71563">
        <ele>766</ele>
        <time>2018-09-02T14:48:04Z</time>
      </trkpt>
      <trkpt lat="45.63754" lon="5.71558">
        <ele>766</ele>
        <time>2018-09-02T14:48:20Z</time>
      </trkpt>
      <trkpt lat="45.63755" lon="5.71551">
        <ele>766</ele>
        <time>2018-09-02T14:48:20Z</time>
      </trkpt>
      <trkpt lat="45.63756" lon="5.71545">
        <ele>766</ele>
        <time>2018-09-02T14:48:20Z</time>
      </trkpt>
      <trkpt lat="45.63757" lon="5.71538">
        <ele>772</ele>
        <time>2018-09-02T14:48:20Z</time>
      </trkpt>
      <trkpt lat="45.63758" lon="5.7153">
        <ele>772</ele>
        <time>2018-09-02T14:48:36Z</time>
      </trkpt>
      <trkpt lat="45.63759" lon="5.71522">
        <ele>772</ele>
        <time>2018-09-02T14:48:36Z</time>
      </trkpt>
      <trkpt lat="45.6376" lon="5.71514">
        <ele>772</ele>
        <time>2018-09-02T14:48:36Z</time>
      </trkpt>
      <trkpt lat="45.6376" lon="5.71507">
        <ele>772</ele>
        <time>2018-09-02T14:48:36Z</time>
      </trkpt>
      <trkpt lat="45.63759" lon="5.71499">
        <ele>772</ele>
        <time>2018-09-02T14:48:52Z</time>
      </trkpt>
      <trkpt lat="45.63758" lon="5.71492">
        <ele>772</ele>
        <time>2018-09-02T14:48:52Z</time>
      </trkpt>
      <trkpt lat="45.63758" lon="5.71489">
        <ele>772</ele>
        <time>2018-09-02T14:48:52Z</time>
      </trkpt>
      <trkpt lat="45.63758" lon="5.71485">
        <ele>772</ele>
        <time>2018-09-02T14:48:52Z</time>
      </trkpt>
      <trkpt lat="45.63757" lon="5.71475">
        <ele>772</ele>
        <time>2018-09-02T14:49:08Z</time>
      </trkpt>
      <trkpt lat="45.63756" lon="5.71465">
        <ele>772</ele>
        <time>2018-09-02T14:49:08Z</time>
      </trkpt>
      <trkpt lat="45.63753" lon="5.71456">
        <ele>778</ele>
        <time>2018-09-02T14:49:08Z</time>
      </trkpt>
      <trkpt lat="45.63747" lon="5.71446">
        <ele>778</ele>
        <time>2018-09-02T14:49:08Z</time>
      </trkpt>
      <trkpt lat="45.63743" lon="5.71436">
        <ele>778</ele>
        <time>2018-09-02T14:49:24Z</time>
      </trkpt>
      <trkpt lat="45.6374" lon="5.71427">
        <ele>778</ele>
        <time>2018-09-02T14:49:24Z</time>
      </trkpt>
      <trkpt lat="45.63739" lon="5.71417">
        <ele>778</ele>
        <time>2018-09-02T14:49:24Z</time>
      </trkpt>
      <trkpt lat="45.63738" lon="5.7141">
        <ele>778</ele>
        <time>2018-09-02T14:49:24Z</time>
      </trkpt>
      <trkpt lat="45.63737" lon="5.71404">
        <ele>778</ele>
        <time>2018-09-02T14:49:40Z</time>
      </trkpt>
      <trkpt lat="45.63735" lon="5.71398">
        <ele>778</ele>
        <time>2018-09-02T14:49:40Z</time>
      </trkpt>
      <trkpt lat="45.63735" lon="5.71393">
        <ele>778</ele>
        <time>2018-09-02T14:49:40Z</time>
      </trkpt>
      <trkpt lat="45.63735" lon="5.71387">
        <ele>778</ele>
        <time>2018-09-02T14:49:40Z</time>
      </trkpt>
      <trkpt lat="45.63733" lon="5.7138">
        <ele>778</ele>
        <time>2018-09-02T14:49:56Z</time>
      </trkpt>
      <trkpt lat="45.6373" lon="5.71373">
        <ele>789</ele>
        <time>2018-09-02T14:49:56Z</time>
      </trkpt>
      <trkpt lat="45.63729" lon="5.71369">
        <ele>789</ele>
        <time>2018-09-02T14:49:56Z</time>
      </trkpt>
      <trkpt lat="45.63726" lon="5.71367">
        <ele>789</ele>
        <time>2018-09-02T14:49:56Z</time>
      </trkpt>
      <trkpt lat="45.63723" lon="5.71366">
        <ele>789</ele>
        <time>2018-09-02T14:50:16Z</time>
      </trkpt>
      <trkpt lat="45.63722" lon="5.71366">
        <ele>789</ele>
        <time>2018-09-02T14:50:16Z</time>
      </trkpt>
      <trkpt lat="45.63721" lon="5.71364">
        <ele>789</ele>
        <time>2018-09-02T14:50:16Z</time>
      </trkpt>
      <trkpt lat="45.63717" lon="5.71357">
        <ele>789</ele>
        <time>2018-09-02T14:50:16Z</time>
      </trkpt>
      <trkpt lat="45.63713" lon="5.71349">
        <ele>789</ele>
        <time>2018-09-02T14:50:16Z</time>
      </trkpt>
      <trkpt lat="45.63708" lon="5.71343">
        <ele>791</ele>
        <time>2018-09-02T14:50:32Z</time>
      </trkpt>
      <trkpt lat="45.63705" lon="5.71338">
        <ele>791</ele>
        <time>2018-09-02T14:50:32Z</time>
      </trkpt>
      <trkpt lat="45.637" lon="5.71337">
        <ele>791</ele>
        <time>2018-09-02T14:50:32Z</time>
      </trkpt>
      <trkpt lat="45.63696" lon="5.71337">
        <ele>791</ele>
        <time>2018-09-02T14:50:32Z</time>
      </trkpt>
      <trkpt lat="45.63693" lon="5.71338">
        <ele>791</ele>
        <time>2018-09-02T14:50:52Z</time>
      </trkpt>
      <trkpt lat="45.63692" lon="5.71338">
        <ele>791</ele>
        <time>2018-09-02T14:50:52Z</time>
      </trkpt>
      <trkpt lat="45.63691" lon="5.71337">
        <ele>791</ele>
        <time>2018-09-02T14:50:52Z</time>
      </trkpt>
      <trkpt lat="45.63687" lon="5.71338">
        <ele>791</ele>
        <time>2018-09-02T14:50:52Z</time>
      </trkpt>
      <trkpt lat="45.63683" lon="5.71338">
        <ele>791</ele>
        <time>2018-09-02T14:50:52Z</time>
      </trkpt>
      <trkpt lat="45.6368" lon="5.71341">
        <ele>791</ele>
        <time>2018-09-02T14:51:08Z</time>
      </trkpt>
      <trkpt lat="45.63678" lon="5.71344">
        <ele>791</ele>
        <time>2018-09-02T14:51:08Z</time>
      </trkpt>
      <trkpt lat="45.63676" lon="5.71347">
        <ele>791</ele>
        <time>2018-09-02T14:51:08Z</time>
      </trkpt>
      <trkpt lat="45.6367" lon="5.71346">
        <ele>791</ele>
        <time>2018-09-02T14:51:08Z</time>
      </trkpt>
      <trkpt lat="45.63665" lon="5.7134">
        <ele>791</ele>
        <time>2018-09-02T14:51:24Z</time>
      </trkpt>
      <trkpt lat="45.63661" lon="5.71334">
        <ele>791</ele>
        <time>2018-09-02T14:51:24Z</time>
      </trkpt>
      <trkpt lat="45.63655" lon="5.71325">
        <ele>791</ele>
        <time>2018-09-02T14:51:24Z</time>
      </trkpt>
      <trkpt lat="45.63651" lon="5.71315">
        <ele>791</ele>
        <time>2018-09-02T14:51:24Z</time>
      </trkpt>
      <trkpt lat="45.63649" lon="5.71308">
        <ele>791</ele>
        <time>2018-09-02T14:51:40Z</time>
      </trkpt>
      <trkpt lat="45.63647" lon="5.71299">
        <ele>791</ele>
        <time>2018-09-02T14:51:40Z</time>
      </trkpt>
      <trkpt lat="45.63644" lon="5.71292">
        <ele>791</ele>
        <time>2018-09-02T14:51:40Z</time>
      </trkpt>
      <trkpt lat="45.6364" lon="5.71286">
        <ele>808</ele>
        <time>2018-09-02T14:51:40Z</time>
      </trkpt>
      <trkpt lat="45.63637" lon="5.71283">
        <ele>808</ele>
        <time>2018-09-02T14:51:56Z</time>
      </trkpt>
      <trkpt lat="45.63633" lon="5.7128">
        <ele>808</ele>
        <time>2018-09-02T14:51:56Z</time>
      </trkpt>
      <trkpt lat="45.63631" lon="5.71277">
        <ele>808</ele>
        <time>2018-09-02T14:51:56Z</time>
      </trkpt>
      <trkpt lat="45.63629" lon="5.71274">
        <ele>808</ele>
        <time>2018-09-02T14:51:56Z</time>
      </trkpt>
      <trkpt lat="45.63625" lon="5.71274">
        <ele>809</ele>
        <time>2018-09-02T14:52:12Z</time>
      </trkpt>
      <trkpt lat="45.6362" lon="5.71272">
        <ele>809</ele>
        <time>2018-09-02T14:52:12Z</time>
      </trkpt>
      <trkpt lat="45.63615" lon="5.71266">
        <ele>809</ele>
        <time>2018-09-02T14:52:12Z</time>
      </trkpt>
      <trkpt lat="45.63611" lon="5.7126">
        <ele>809</ele>
        <time>2018-09-02T14:52:12Z</time>
      </trkpt>
      <trkpt lat="45.63607" lon="5.71253">
        <ele>809</ele>
        <time>2018-09-02T14:52:28Z</time>
      </trkpt>
      <trkpt lat="45.63602" lon="5.71248">
        <ele>809</ele>
        <time>2018-09-02T14:52:28Z</time>
      </trkpt>
      <trkpt lat="45.63597" lon="5.71244">
        <ele>809</ele>
        <time>2018-09-02T14:52:28Z</time>
      </trkpt>
      <trkpt lat="45.63592" lon="5.71241">
        <ele>809</ele>
        <time>2018-09-02T14:52:28Z</time>
      </trkpt>
      <trkpt lat="45.63587" lon="5.71237">
        <ele>809</ele>
        <time>2018-09-02T14:52:44Z</time>
      </trkpt>
      <trkpt lat="45.63581" lon="5.71235">
        <ele>809</ele>
        <time>2018-09-02T14:52:44Z</time>
      </trkpt>
      <trkpt lat="45.63573" lon="5.71235">
        <ele>809</ele>
        <time>2018-09-02T14:52:44Z</time>
      </trkpt>
      <trkpt lat="45.63563" lon="5.71236">
        <ele>809</ele>
        <time>2018-09-02T14:52:44Z</time>
      </trkpt>
      <trkpt lat="45.63558" lon="5.71236">
        <ele>809</ele>
        <time>2018-09-02T14:53:04Z</time>
      </trkpt>
      <trkpt lat="45.63556" lon="5.71237">
        <ele>809</ele>
        <time>2018-09-02T14:53:04Z</time>
      </trkpt>
      <trkpt lat="45.63556" lon="5.7124">
        <ele>809</ele>
        <time>2018-09-02T14:53:04Z</time>
      </trkpt>
      <trkpt lat="45.63551" lon="5.71237">
        <ele>809</ele>
        <time>2018-09-02T14:53:04Z</time>
      </trkpt>
      <trkpt lat="45.63547" lon="5.71237">
        <ele>809</ele>
        <time>2018-09-02T14:53:04Z</time>
      </trkpt>
      <trkpt lat="45.63543" lon="5.71239">
        <ele>809</ele>
        <time>2018-09-02T14:53:20Z</time>
      </trkpt>
      <trkpt lat="45.63538" lon="5.71241">
        <ele>806</ele>
        <time>2018-09-02T14:53:20Z</time>
      </trkpt>
      <trkpt lat="45.63531" lon="5.7124">
        <ele>806</ele>
        <time>2018-09-02T14:53:20Z</time>
      </trkpt>
      <trkpt lat="45.63526" lon="5.71242">
        <ele>806</ele>
        <time>2018-09-02T14:53:20Z</time>
      </trkpt>
      <trkpt lat="45.63522" lon="5.71245">
        <ele>806</ele>
        <time>2018-09-02T14:53:36Z</time>
      </trkpt>
      <trkpt lat="45.6352" lon="5.71248">
        <ele>806</ele>
        <time>2018-09-02T14:53:36Z</time>
      </trkpt>
      <trkpt lat="45.63518" lon="5.7125">
        <ele>806</ele>
        <time>2018-09-02T14:53:36Z</time>
      </trkpt>
      <trkpt lat="45.63513" lon="5.71254">
        <ele>806</ele>
        <time>2018-09-02T14:53:36Z</time>
      </trkpt>
      <trkpt lat="45.63508" lon="5.71265">
        <ele>806</ele>
        <time>2018-09-02T14:53:52Z</time>
      </trkpt>
      <trkpt lat="45.63505" lon="5.71266">
        <ele>806</ele>
        <time>2018-09-02T14:53:52Z</time>
      </trkpt>
      <trkpt lat="45.63503" lon="5.71267">
        <ele>806</ele>
        <time>2018-09-02T14:53:52Z</time>
      </trkpt>
      <trkpt lat="45.63493" lon="5.7127">
        <ele>806</ele>
        <time>2018-09-02T14:53:52Z</time>
      </trkpt>
      <trkpt lat="45.63484" lon="5.7127">
        <ele>806</ele>
        <time>2018-09-02T14:54:08Z</time>
      </trkpt>
      <trkpt lat="45.63476" lon="5.71271">
        <ele>806</ele>
        <time>2018-09-02T14:54:08Z</time>
      </trkpt>
      <trkpt lat="45.63469" lon="5.71272">
        <ele>806</ele>
        <time>2018-09-02T14:54:08Z</time>
      </trkpt>
      <trkpt lat="45.63464" lon="5.71276">
        <ele>806</ele>
        <time>2018-09-02T14:54:08Z</time>
      </trkpt>
      <trkpt lat="45.63457" lon="5.71281">
        <ele>799</ele>
        <time>2018-09-02T14:54:24Z</time>
      </trkpt>
      <trkpt lat="45.6345" lon="5.71286">
        <ele>799</ele>
        <time>2018-09-02T14:54:24Z</time>
      </trkpt>
      <trkpt lat="45.63441" lon="5.71289">
        <ele>799</ele>
        <time>2018-09-02T14:54:24Z</time>
      </trkpt>
      <trkpt lat="45.63436" lon="5.71294">
        <ele>795</ele>
        <time>2018-09-02T14:54:24Z</time>
      </trkpt>
      <trkpt lat="45.6343" lon="5.71297">
        <ele>795</ele>
        <time>2018-09-02T14:54:40Z</time>
      </trkpt>
      <trkpt lat="45.63425" lon="5.71305">
        <ele>795</ele>
        <time>2018-09-02T14:54:40Z</time>
      </trkpt>
      <trkpt lat="45.6342" lon="5.71309">
        <ele>795</ele>
        <time>2018-09-02T14:54:40Z</time>
      </trkpt>
      <trkpt lat="45.63415" lon="5.71315">
        <ele>795</ele>
        <time>2018-09-02T14:54:40Z</time>
      </trkpt>
      <trkpt lat="45.63409" lon="5.71318">
        <ele>795</ele>
        <time>2018-09-02T14:54:56Z</time>
      </trkpt>
      <trkpt lat="45.63405" lon="5.71324">
        <ele>795</ele>
        <time>2018-09-02T14:54:56Z</time>
      </trkpt>
      <trkpt lat="45.63403" lon="5.71329">
        <ele>795</ele>
        <time>2018-09-02T14:54:56Z</time>
      </trkpt>
      <trkpt lat="45.63398" lon="5.71334">
        <ele>795</ele>
        <time>2018-09-02T14:54:56Z</time>
      </trkpt>
      <trkpt lat="45.63392" lon="5.71341">
        <ele>795</ele>
        <time>2018-09-02T14:55:12Z</time>
      </trkpt>
      <trkpt lat="45.63377" lon="5.71343">
        <ele>795</ele>
        <time>2018-09-02T14:55:12Z</time>
      </trkpt>
      <trkpt lat="45.63365" lon="5.71337">
        <ele>784</ele>
        <time>2018-09-02T14:55:12Z</time>
      </trkpt>
      <trkpt lat="45.63356" lon="5.71331">
        <ele>784</ele>
        <time>2018-09-02T14:55:12Z</time>
      </trkpt>
      <trkpt lat="45.63349" lon="5.71326">
        <ele>784</ele>
        <time>2018-09-02T14:55:28Z</time>
      </trkpt>
      <trkpt lat="45.63342" lon="5.71324">
        <ele>784</ele>
        <time>2018-09-02T14:55:28Z</time>
      </trkpt>
      <trkpt lat="45.63337" lon="5.71327">
        <ele>784</ele>
        <time>2018-09-02T14:55:28Z</time>
      </trkpt>
      <trkpt lat="45.63333" lon="5.71332">
        <ele>784</ele>
        <time>2018-09-02T14:55:28Z</time>
      </trkpt>
      <trkpt lat="45.63331" lon="5.71338">
        <ele>784</ele>
        <time>2018-09-02T14:55:44Z</time>
      </trkpt>
      <trkpt lat="45.63328" lon="5.71342">
        <ele>784</ele>
        <time>2018-09-02T14:55:44Z</time>
      </trkpt>
      <trkpt lat="45.63326" lon="5.71347">
        <ele>784</ele>
        <time>2018-09-02T14:55:44Z</time>
      </trkpt>
      <trkpt lat="45.63324" lon="5.71352">
        <ele>784</ele>
        <time>2018-09-02T14:55:44Z</time>
      </trkpt>
      <trkpt lat="45.6332" lon="5.71357">
        <ele>784</ele>
        <time>2018-09-02T14:56:00Z</time>
      </trkpt>
      <trkpt lat="45.63317" lon="5.71366">
        <ele>784</ele>
        <time>2018-09-02T14:56:00Z</time>
      </trkpt>
      <trkpt lat="45.63314" lon="5.71375">
        <ele>783</ele>
        <time>2018-09-02T14:56:00Z</time>
      </trkpt>
      <trkpt lat="45.6331" lon="5.71384">
        <ele>783</ele>
        <time>2018-09-02T14:56:00Z</time>
      </trkpt>
      <trkpt lat="45.63309" lon="5.71393">
        <ele>783</ele>
        <time>2018-09-02T14:56:16Z</time>
      </trkpt>
      <trkpt lat="45.6331" lon="5.714">
        <ele>783</ele>
        <time>2018-09-02T14:56:16Z</time>
      </trkpt>
      <trkpt lat="45.63311" lon="5.71407">
        <ele>783</ele>
        <time>2018-09-02T14:56:16Z</time>
      </trkpt>
      <trkpt lat="45.63312" lon="5.71413">
        <ele>783</ele>
        <time>2018-09-02T14:56:16Z</time>
      </trkpt>
      <trkpt lat="45.63313" lon="5.7142">
        <ele>783</ele>
        <time>2018-09-02T14:56:32Z</time>
      </trkpt>
      <trkpt lat="45.63313" lon="5.71426">
        <ele>783</ele>
        <time>2018-09-02T14:56:32Z</time>
      </trkpt>
      <trkpt lat="45.63315" lon="5.71431">
        <ele>783</ele>
        <time>2018-09-02T14:56:32Z</time>
      </trkpt>
      <trkpt lat="45.63317" lon="5.71439">
        <ele>783</ele>
        <time>2018-09-02T14:56:32Z</time>
      </trkpt>
      <trkpt lat="45.6332" lon="5.71449">
        <ele>783</ele>
        <time>2018-09-02T14:56:48Z</time>
      </trkpt>
      <trkpt lat="45.63323" lon="5.71461">
        <ele>782</ele>
        <time>2018-09-02T14:56:48Z</time>
      </trkpt>
      <trkpt lat="45.63326" lon="5.71468">
        <ele>782</ele>
        <time>2018-09-02T14:56:48Z</time>
      </trkpt>
      <trkpt lat="45.63328" lon="5.71472">
        <ele>782</ele>
        <time>2018-09-02T14:56:48Z</time>
      </trkpt>
      <trkpt lat="45.6333" lon="5.71477">
        <ele>782</ele>
        <time>2018-09-02T14:57:04Z</time>
      </trkpt>
      <trkpt lat="45.63332" lon="5.71487">
        <ele>782</ele>
        <time>2018-09-02T14:57:04Z</time>
      </trkpt>
      <trkpt lat="45.63333" lon="5.71495">
        <ele>782</ele>
        <time>2018-09-02T14:57:04Z</time>
      </trkpt>
      <trkpt lat="45.63334" lon="5.71504">
        <ele>782</ele>
        <time>2018-09-02T14:57:04Z</time>
      </trkpt>
      <trkpt lat="45.63334" lon="5.71514">
        <ele>782</ele>
        <time>2018-09-02T14:57:20Z</time>
      </trkpt>
      <trkpt lat="45.63335" lon="5.71519">
        <ele>782</ele>
        <time>2018-09-02T14:57:20Z</time>
      </trkpt>
      <trkpt lat="45.63334" lon="5.71523">
        <ele>782</ele>
        <time>2018-09-02T14:57:20Z</time>
      </trkpt>
      <trkpt lat="45.63333" lon="5.71528">
        <ele>782</ele>
        <time>2018-09-02T14:57:20Z</time>
      </trkpt>
      <trkpt lat="45.63332" lon="5.71538">
        <ele>782</ele>
        <time>2018-09-02T14:57:36Z</time>
      </trkpt>
      <trkpt lat="45.6333" lon="5.71545">
        <ele>779</ele>
        <time>2018-09-02T14:57:36Z</time>
      </trkpt>
      <trkpt lat="45.63333" lon="5.71549">
        <ele>779</ele>
        <time>2018-09-02T14:57:36Z</time>
      </trkpt>
      <trkpt lat="45.63333" lon="5.71554">
        <ele>779</ele>
        <time>2018-09-02T14:57:36Z</time>
      </trkpt>
      <trkpt lat="45.63332" lon="5.71561">
        <ele>779</ele>
        <time>2018-09-02T14:57:52Z</time>
      </trkpt>
      <trkpt lat="45.63334" lon="5.71572">
        <ele>779</ele>
        <time>2018-09-02T14:57:52Z</time>
      </trkpt>
      <trkpt lat="45.63336" lon="5.71582">
        <ele>779</ele>
        <time>2018-09-02T14:57:52Z</time>
      </trkpt>
      <trkpt lat="45.63339" lon="5.71594">
        <ele>779</ele>
        <time>2018-09-02T14:57:52Z</time>
      </trkpt>
      <trkpt lat="45.63338" lon="5.71603">
        <ele>779</ele>
        <time>2018-09-02T14:58:08Z</time>
      </trkpt>
      <trkpt lat="45.63335" lon="5.71612">
        <ele>779</ele>
        <time>2018-09-02T14:58:08Z</time>
      </trkpt>
      <trkpt lat="45.63334" lon="5.7162">
        <ele>779</ele>
        <time>2018-09-02T14:58:08Z</time>
      </trkpt>
      <trkpt lat="45.63335" lon="5.71629">
        <ele>772</ele>
        <time>2018-09-02T14:58:08Z</time>
      </trkpt>
      <trkpt lat="45.63332" lon="5.71661">
        <ele>772</ele>
        <time>2018-09-02T14:58:40Z</time>
      </trkpt>
      <trkpt lat="45.63333" lon="5.71662">
        <ele>772</ele>
        <time>2018-09-02T14:58:40Z</time>
      </trkpt>
      <trkpt lat="45.63334" lon="5.7167">
        <ele>772</ele>
        <time>2018-09-02T14:58:40Z</time>
      </trkpt>
      <trkpt lat="45.63334" lon="5.71677">
        <ele>772</ele>
        <time>2018-09-02T14:58:40Z</time>
      </trkpt>
      <trkpt lat="45.63333" lon="5.71685">
        <ele>772</ele>
        <time>2018-09-02T14:58:40Z</time>
      </trkpt>
      <trkpt lat="45.63333" lon="5.71699">
        <ele>772</ele>
        <time>2018-09-02T14:58:56Z</time>
      </trkpt>
      <trkpt lat="45.63334" lon="5.71709">
        <ele>759</ele>
        <time>2018-09-02T14:58:56Z</time>
      </trkpt>
      <trkpt lat="45.63334" lon="5.7172">
        <ele>759</ele>
        <time>2018-09-02T14:58:56Z</time>
      </trkpt>
      <trkpt lat="45.63332" lon="5.71732">
        <ele>759</ele>
        <time>2018-09-02T14:58:56Z</time>
      </trkpt>
      <trkpt lat="45.63331" lon="5.71744">
        <ele>759</ele>
        <time>2018-09-02T14:59:12Z</time>
      </trkpt>
      <trkpt lat="45.6333" lon="5.71753">
        <ele>759</ele>
        <time>2018-09-02T14:59:12Z</time>
      </trkpt>
      <trkpt lat="45.63326" lon="5.7176">
        <ele>759</ele>
        <time>2018-09-02T14:59:12Z</time>
      </trkpt>
      <trkpt lat="45.63323" lon="5.71768">
        <ele>759</ele>
        <time>2018-09-02T14:59:12Z</time>
      </trkpt>
      <trkpt lat="45.63322" lon="5.71777">
        <ele>759</ele>
        <time>2018-09-02T14:59:28Z</time>
      </trkpt>
      <trkpt lat="45.63319" lon="5.71786">
        <ele>759</ele>
        <time>2018-09-02T14:59:28Z</time>
      </trkpt>
      <trkpt lat="45.63313" lon="5.71792">
        <ele>739</ele>
        <time>2018-09-02T14:59:28Z</time>
      </trkpt>
      <trkpt lat="45.63308" lon="5.718">
        <ele>739</ele>
        <time>2018-09-02T14:59:28Z</time>
      </trkpt>
      <trkpt lat="45.63303" lon="5.71806">
        <ele>739</ele>
        <time>2018-09-02T14:59:44Z</time>
      </trkpt>
      <trkpt lat="45.633" lon="5.71812">
        <ele>739</ele>
        <time>2018-09-02T14:59:44Z</time>
      </trkpt>
      <trkpt lat="45.63296" lon="5.71818">
        <ele>739</ele>
        <time>2018-09-02T14:59:44Z</time>
      </trkpt>
      <trkpt lat="45.63292" lon="5.71825">
        <ele>739</ele>
        <time>2018-09-02T14:59:44Z</time>
      </trkpt>
      <trkpt lat="45.63289" lon="5.71833">
        <ele>741</ele>
        <time>2018-09-02T15:00:00Z</time>
      </trkpt>
      <trkpt lat="45.63287" lon="5.71841">
        <ele>741</ele>
        <time>2018-09-02T15:00:00Z</time>
      </trkpt>
      <trkpt lat="45.63283" lon="5.71849">
        <ele>741</ele>
        <time>2018-09-02T15:00:00Z</time>
      </trkpt>
      <trkpt lat="45.63279" lon="5.71857">
        <ele>741</ele>
        <time>2018-09-02T15:00:00Z</time>
      </trkpt>
      <trkpt lat="45.63275" lon="5.71862">
        <ele>741</ele>
        <time>2018-09-02T15:00:16Z</time>
      </trkpt>
      <trkpt lat="45.63271" lon="5.71867">
        <ele>741</ele>
        <time>2018-09-02T15:00:16Z</time>
      </trkpt>
      <trkpt lat="45.63267" lon="5.71872">
        <ele>741</ele>
        <time>2018-09-02T15:00:16Z</time>
      </trkpt>
      <trkpt lat="45.63266" lon="5.71874">
        <ele>741</ele>
        <time>2018-09-02T15:00:16Z</time>
      </trkpt>
      <trkpt lat="45.63265" lon="5.71876">
        <ele>728</ele>
        <time>2018-09-02T15:00:32Z</time>
      </trkpt>
      <trkpt lat="45.63262" lon="5.71882">
        <ele>728</ele>
        <time>2018-09-02T15:00:32Z</time>
      </trkpt>
      <trkpt lat="45.63259" lon="5.7189">
        <ele>728</ele>
        <time>2018-09-02T15:00:32Z</time>
      </trkpt>
      <trkpt lat="45.63256" lon="5.71897">
        <ele>728</ele>
        <time>2018-09-02T15:00:32Z</time>
      </trkpt>
      <trkpt lat="45.63252" lon="5.71903">
        <ele>728</ele>
        <time>2018-09-02T15:00:48Z</time>
      </trkpt>
      <trkpt lat="45.63248" lon="5.7191">
        <ele>728</ele>
        <time>2018-09-02T15:00:48Z</time>
      </trkpt>
      <trkpt lat="45.63244" lon="5.71918">
        <ele>728</ele>
        <time>2018-09-02T15:00:48Z</time>
      </trkpt>
      <trkpt lat="45.63239" lon="5.71924">
        <ele>728</ele>
        <time>2018-09-02T15:00:48Z</time>
      </trkpt>
      <trkpt lat="45.63234" lon="5.71929">
        <ele>728</ele>
        <time>2018-09-02T15:01:04Z</time>
      </trkpt>
      <trkpt lat="45.6323" lon="5.71935">
        <ele>728</ele>
        <time>2018-09-02T15:01:04Z</time>
      </trkpt>
      <trkpt lat="45.63225" lon="5.71941">
        <ele>728</ele>
        <time>2018-09-02T15:01:04Z</time>
      </trkpt>
      <trkpt lat="45.63218" lon="5.71944">
        <ele>728</ele>
        <time>2018-09-02T15:01:04Z</time>
      </trkpt>
      <trkpt lat="45.63211" lon="5.7195">
        <ele>728</ele>
        <time>2018-09-02T15:01:20Z</time>
      </trkpt>
      <trkpt lat="45.63207" lon="5.71956">
        <ele>741</ele>
        <time>2018-09-02T15:01:20Z</time>
      </trkpt>
      <trkpt lat="45.63203" lon="5.71961">
        <ele>728</ele>
        <time>2018-09-02T15:01:20Z</time>
      </trkpt>
      <trkpt lat="45.63198" lon="5.71965">
        <ele>728</ele>
        <time>2018-09-02T15:01:20Z</time>
      </trkpt>
      <trkpt lat="45.63195" lon="5.71969">
        <ele>728</ele>
        <time>2018-09-02T15:01:36Z</time>
      </trkpt>
      <trkpt lat="45.63192" lon="5.71973">
        <ele>728</ele>
        <time>2018-09-02T15:01:36Z</time>
      </trkpt>
      <trkpt lat="45.63189" lon="5.71976">
        <ele>728</ele>
        <time>2018-09-02T15:01:36Z</time>
      </trkpt>
      <trkpt lat="45.63184" lon="5.71982">
        <ele>728</ele>
        <time>2018-09-02T15:01:36Z</time>
      </trkpt>
      <trkpt lat="45.63181" lon="5.71988">
        <ele>728</ele>
        <time>2018-09-02T15:01:52Z</time>
      </trkpt>
      <trkpt lat="45.63179" lon="5.71996">
        <ele>728</ele>
        <time>2018-09-02T15:01:52Z</time>
      </trkpt>
      <trkpt lat="45.63175" lon="5.72">
        <ele>728</ele>
        <time>2018-09-02T15:01:52Z</time>
      </trkpt>
      <trkpt lat="45.6317" lon="5.72005">
        <ele>728</ele>
        <time>2018-09-02T15:01:52Z</time>
      </trkpt>
      <trkpt lat="45.63162" lon="5.7201">
        <ele>728</ele>
        <time>2018-09-02T15:02:08Z</time>
      </trkpt>
      <trkpt lat="45.63154" lon="5.72015">
        <ele>728</ele>
        <time>2018-09-02T15:02:08Z</time>
      </trkpt>
      <trkpt lat="45.63147" lon="5.72019">
        <ele>728</ele>
        <time>2018-09-02T15:02:08Z</time>
      </trkpt>
      <trkpt lat="45.6314" lon="5.72022">
        <ele>728</ele>
        <time>2018-09-02T15:02:08Z</time>
      </trkpt>
      <trkpt lat="45.63134" lon="5.72026">
        <ele>728</ele>
        <time>2018-09-02T15:02:24Z</time>
      </trkpt>
      <trkpt lat="45.6313" lon="5.7203">
        <ele>728</ele>
        <time>2018-09-02T15:02:24Z</time>
      </trkpt>
      <trkpt lat="45.63124" lon="5.72033">
        <ele>734</ele>
        <time>2018-09-02T15:02:24Z</time>
      </trkpt>
      <trkpt lat="45.63112" lon="5.72037">
        <ele>734</ele>
        <time>2018-09-02T15:02:24Z</time>
      </trkpt>
      <trkpt lat="45.63097" lon="5.72037">
        <ele>734</ele>
        <time>2018-09-02T15:02:40Z</time>
      </trkpt>
      <trkpt lat="45.6309" lon="5.72038">
        <ele>734</ele>
        <time>2018-09-02T15:02:40Z</time>
      </trkpt>
      <trkpt lat="45.63083" lon="5.72043">
        <ele>715</ele>
        <time>2018-09-02T15:02:40Z</time>
      </trkpt>
      <trkpt lat="45.63077" lon="5.72047">
        <ele>715</ele>
        <time>2018-09-02T15:02:40Z</time>
      </trkpt>
      <trkpt lat="45.63072" lon="5.72052">
        <ele>715</ele>
        <time>2018-09-02T15:02:56Z</time>
      </trkpt>
      <trkpt lat="45.63066" lon="5.72051">
        <ele>715</ele>
        <time>2018-09-02T15:02:56Z</time>
      </trkpt>
      <trkpt lat="45.63058" lon="5.72054">
        <ele>715</ele>
        <time>2018-09-02T15:02:56Z</time>
      </trkpt>
      <trkpt lat="45.63052" lon="5.72057">
        <ele>715</ele>
        <time>2018-09-02T15:02:56Z</time>
      </trkpt>
      <trkpt lat="45.6305" lon="5.7206">
        <ele>715</ele>
        <time>2018-09-02T15:03:12Z</time>
      </trkpt>
      <trkpt lat="45.63045" lon="5.72061">
        <ele>715</ele>
        <time>2018-09-02T15:03:12Z</time>
      </trkpt>
      <trkpt lat="45.63041" lon="5.72063">
        <ele>721</ele>
        <time>2018-09-02T15:03:12Z</time>
      </trkpt>
      <trkpt lat="45.63038" lon="5.72067">
        <ele>721</ele>
        <time>2018-09-02T15:03:12Z</time>
      </trkpt>
      <trkpt lat="45.63034" lon="5.72069">
        <ele>721</ele>
        <time>2018-09-02T15:03:28Z</time>
      </trkpt>
      <trkpt lat="45.63033" lon="5.72072">
        <ele>721</ele>
        <time>2018-09-02T15:03:28Z</time>
      </trkpt>
      <trkpt lat="45.63029" lon="5.72074">
        <ele>721</ele>
        <time>2018-09-02T15:03:28Z</time>
      </trkpt>
      <trkpt lat="45.63025" lon="5.7208">
        <ele>721</ele>
        <time>2018-09-02T15:03:28Z</time>
      </trkpt>
      <trkpt lat="45.63019" lon="5.72088">
        <ele>721</ele>
        <time>2018-09-02T15:03:44Z</time>
      </trkpt>
      <trkpt lat="45.63016" lon="5.72094">
        <ele>721</ele>
        <time>2018-09-02T15:03:44Z</time>
      </trkpt>
      <trkpt lat="45.63013" lon="5.721">
        <ele>721</ele>
        <time>2018-09-02T15:03:44Z</time>
      </trkpt>
      <trkpt lat="45.63009" lon="5.72105">
        <ele>721</ele>
        <time>2018-09-02T15:03:44Z</time>
      </trkpt>
      <trkpt lat="45.63005" lon="5.72112">
        <ele>721</ele>
        <time>2018-09-02T15:04:00Z</time>
      </trkpt>
      <trkpt lat="45.63001" lon="5.72118">
        <ele>721</ele>
        <time>2018-09-02T15:04:00Z</time>
      </trkpt>
      <trkpt lat="45.62996" lon="5.72121">
        <ele>721</ele>
        <time>2018-09-02T15:04:00Z</time>
      </trkpt>
      <trkpt lat="45.62994" lon="5.72125">
        <ele>701</ele>
        <time>2018-09-02T15:04:00Z</time>
      </trkpt>
      <trkpt lat="45.6299" lon="5.72129">
        <ele>701</ele>
        <time>2018-09-02T15:04:16Z</time>
      </trkpt>
      <trkpt lat="45.62988" lon="5.72136">
        <ele>701</ele>
        <time>2018-09-02T15:04:16Z</time>
      </trkpt>
      <trkpt lat="45.62985" lon="5.72141">
        <ele>701</ele>
        <time>2018-09-02T15:04:16Z</time>
      </trkpt>
      <trkpt lat="45.62983" lon="5.72147">
        <ele>701</ele>
        <time>2018-09-02T15:04:16Z</time>
      </trkpt>
      <trkpt lat="45.6298" lon="5.72155">
        <ele>701</ele>
        <time>2018-09-02T15:04:32Z</time>
      </trkpt>
      <trkpt lat="45.62975" lon="5.72161">
        <ele>701</ele>
        <time>2018-09-02T15:04:32Z</time>
      </trkpt>
      <trkpt lat="45.62971" lon="5.72167">
        <ele>701</ele>
        <time>2018-09-02T15:04:32Z</time>
      </trkpt>
      <trkpt lat="45.62969" lon="5.72174">
        <ele>701</ele>
        <time>2018-09-02T15:04:32Z</time>
      </trkpt>
      <trkpt lat="45.62965" lon="5.72177">
        <ele>701</ele>
        <time>2018-09-02T15:04:48Z</time>
      </trkpt>
      <trkpt lat="45.62963" lon="5.72182">
        <ele>701</ele>
        <time>2018-09-02T15:04:48Z</time>
      </trkpt>
      <trkpt lat="45.62959" lon="5.72187">
        <ele>701</ele>
        <time>2018-09-02T15:04:48Z</time>
      </trkpt>
      <trkpt lat="45.62958" lon="5.72193">
        <ele>711</ele>
        <time>2018-09-02T15:04:48Z</time>
      </trkpt>
      <trkpt lat="45.62954" lon="5.72198">
        <ele>711</ele>
        <time>2018-09-02T15:05:04Z</time>
      </trkpt>
      <trkpt lat="45.62951" lon="5.72204">
        <ele>711</ele>
        <time>2018-09-02T15:05:04Z</time>
      </trkpt>
      <trkpt lat="45.62947" lon="5.72211">
        <ele>694</ele>
        <time>2018-09-02T15:05:04Z</time>
      </trkpt>
      <trkpt lat="45.62943" lon="5.72218">
        <ele>694</ele>
        <time>2018-09-02T15:05:04Z</time>
      </trkpt>
      <trkpt lat="45.62938" lon="5.72226">
        <ele>694</ele>
        <time>2018-09-02T15:05:20Z</time>
      </trkpt>
      <trkpt lat="45.62935" lon="5.72232">
        <ele>694</ele>
        <time>2018-09-02T15:05:20Z</time>
      </trkpt>
      <trkpt lat="45.62932" lon="5.72238">
        <ele>694</ele>
        <time>2018-09-02T15:05:20Z</time>
      </trkpt>
      <trkpt lat="45.6293" lon="5.72243">
        <ele>694</ele>
        <time>2018-09-02T15:05:20Z</time>
      </trkpt>
      <trkpt lat="45.6293" lon="5.7225">
        <ele>694</ele>
        <time>2018-09-02T15:05:36Z</time>
      </trkpt>
      <trkpt lat="45.62928" lon="5.72259">
        <ele>694</ele>
        <time>2018-09-02T15:05:36Z</time>
      </trkpt>
      <trkpt lat="45.62924" lon="5.7227">
        <ele>694</ele>
        <time>2018-09-02T15:05:36Z</time>
      </trkpt>
      <trkpt lat="45.62921" lon="5.7228">
        <ele>694</ele>
        <time>2018-09-02T15:05:36Z</time>
      </trkpt>
      <trkpt lat="45.62918" lon="5.72287">
        <ele>694</ele>
        <time>2018-09-02T15:05:52Z</time>
      </trkpt>
      <trkpt lat="45.62915" lon="5.72295">
        <ele>680</ele>
        <time>2018-09-02T15:05:52Z</time>
      </trkpt>
      <trkpt lat="45.6291" lon="5.72304">
        <ele>680</ele>
        <time>2018-09-02T15:05:52Z</time>
      </trkpt>
      <trkpt lat="45.62907" lon="5.72315">
        <ele>680</ele>
        <time>2018-09-02T15:05:52Z</time>
      </trkpt>
      <trkpt lat="45.62902" lon="5.72324">
        <ele>680</ele>
        <time>2018-09-02T15:06:08Z</time>
      </trkpt>
      <trkpt lat="45.62897" lon="5.72332">
        <ele>680</ele>
        <time>2018-09-02T15:06:08Z</time>
      </trkpt>
      <trkpt lat="45.62894" lon="5.72338">
        <ele>680</ele>
        <time>2018-09-02T15:06:08Z</time>
      </trkpt>
      <trkpt lat="45.6289" lon="5.72344">
        <ele>680</ele>
        <time>2018-09-02T15:06:08Z</time>
      </trkpt>
      <trkpt lat="45.62886" lon="5.72351">
        <ele>680</ele>
        <time>2018-09-02T15:06:24Z</time>
      </trkpt>
      <trkpt lat="45.62884" lon="5.72357">
        <ele>680</ele>
        <time>2018-09-02T15:06:24Z</time>
      </trkpt>
      <trkpt lat="45.62882" lon="5.72363">
        <ele>680</ele>
        <time>2018-09-02T15:06:24Z</time>
      </trkpt>
      <trkpt lat="45.62878" lon="5.72371">
        <ele>680</ele>
        <time>2018-09-02T15:06:24Z</time>
      </trkpt>
      <trkpt lat="45.62875" lon="5.72379">
        <ele>677</ele>
        <time>2018-09-02T15:06:40Z</time>
      </trkpt>
      <trkpt lat="45.62868" lon="5.72392">
        <ele>677</ele>
        <time>2018-09-02T15:06:40Z</time>
      </trkpt>
      <trkpt lat="45.62862" lon="5.72402">
        <ele>677</ele>
        <time>2018-09-02T15:06:40Z</time>
      </trkpt>
      <trkpt lat="45.62856" lon="5.72411">
        <ele>677</ele>
        <time>2018-09-02T15:06:40Z</time>
      </trkpt>
      <trkpt lat="45.62849" lon="5.72419">
        <ele>677</ele>
        <time>2018-09-02T15:06:56Z</time>
      </trkpt>
      <trkpt lat="45.62841" lon="5.72425">
        <ele>677</ele>
        <time>2018-09-02T15:06:56Z</time>
      </trkpt>
      <trkpt lat="45.62836" lon="5.72434">
        <ele>677</ele>
        <time>2018-09-02T15:06:56Z</time>
      </trkpt>
      <trkpt lat="45.62829" lon="5.72441">
        <ele>677</ele>
        <time>2018-09-02T15:06:56Z</time>
      </trkpt>
      <trkpt lat="45.62825" lon="5.72446">
        <ele>677</ele>
        <time>2018-09-02T15:07:12Z</time>
      </trkpt>
      <trkpt lat="45.6282" lon="5.7245">
        <ele>677</ele>
        <time>2018-09-02T15:07:12Z</time>
      </trkpt>
      <trkpt lat="45.62814" lon="5.72453">
        <ele>677</ele>
        <time>2018-09-02T15:07:12Z</time>
      </trkpt>
      <trkpt lat="45.62807" lon="5.72455">
        <ele>677</ele>
        <time>2018-09-02T15:07:12Z</time>
      </trkpt>
      <trkpt lat="45.62798" lon="5.72458">
        <ele>677</ele>
        <time>2018-09-02T15:07:28Z</time>
      </trkpt>
      <trkpt lat="45.62787" lon="5.72462">
        <ele>675</ele>
        <time>2018-09-02T15:07:28Z</time>
      </trkpt>
      <trkpt lat="45.62775" lon="5.72469">
        <ele>675</ele>
        <time>2018-09-02T15:07:28Z</time>
      </trkpt>
      <trkpt lat="45.62763" lon="5.72475">
        <ele>675</ele>
        <time>2018-09-02T15:07:28Z</time>
      </trkpt>
      <trkpt lat="45.62756" lon="5.72477">
        <ele>675</ele>
        <time>2018-09-02T15:07:44Z</time>
      </trkpt>
      <trkpt lat="45.6275" lon="5.72481">
        <ele>675</ele>
        <time>2018-09-02T15:07:44Z</time>
      </trkpt>
      <trkpt lat="45.62744" lon="5.72485">
        <ele>675</ele>
        <time>2018-09-02T15:07:44Z</time>
      </trkpt>
      <trkpt lat="45.62738" lon="5.72489">
        <ele>675</ele>
        <time>2018-09-02T15:07:44Z</time>
      </trkpt>
      <trkpt lat="45.62732" lon="5.72493">
        <ele>675</ele>
        <time>2018-09-02T15:08:00Z</time>
      </trkpt>
      <trkpt lat="45.62727" lon="5.72496">
        <ele>675</ele>
        <time>2018-09-02T15:08:00Z</time>
      </trkpt>
      <trkpt lat="45.62723" lon="5.72499">
        <ele>675</ele>
        <time>2018-09-02T15:08:00Z</time>
      </trkpt>
      <trkpt lat="45.62718" lon="5.72501">
        <ele>675</ele>
        <time>2018-09-02T15:08:00Z</time>
      </trkpt>
      <trkpt lat="45.62711" lon="5.72505">
        <ele>675</ele>
        <time>2018-09-02T15:08:16Z</time>
      </trkpt>
      <trkpt lat="45.62705" lon="5.7251">
        <ele>686</ele>
        <time>2018-09-02T15:08:16Z</time>
      </trkpt>
      <trkpt lat="45.62701" lon="5.72516">
        <ele>686</ele>
        <time>2018-09-02T15:08:16Z</time>
      </trkpt>
      <trkpt lat="45.62697" lon="5.72519">
        <ele>686</ele>
        <time>2018-09-02T15:08:16Z</time>
      </trkpt>
      <trkpt lat="45.62693" lon="5.72523">
        <ele>686</ele>
        <time>2018-09-02T15:08:32Z</time>
      </trkpt>
      <trkpt lat="45.62689" lon="5.72527">
        <ele>686</ele>
        <time>2018-09-02T15:08:32Z</time>
      </trkpt>
      <trkpt lat="45.62685" lon="5.72533">
        <ele>686</ele>
        <time>2018-09-02T15:08:32Z</time>
      </trkpt>
      <trkpt lat="45.62682" lon="5.72537">
        <ele>686</ele>
        <time>2018-09-02T15:08:32Z</time>
      </trkpt>
      <trkpt lat="45.62679" lon="5.72541">
        <ele>686</ele>
        <time>2018-09-02T15:08:48Z</time>
      </trkpt>
      <trkpt lat="45.62675" lon="5.72545">
        <ele>669</ele>
        <time>2018-09-02T15:08:48Z</time>
      </trkpt>
      <trkpt lat="45.62669" lon="5.72549">
        <ele>669</ele>
        <time>2018-09-02T15:08:48Z</time>
      </trkpt>
      <trkpt lat="45.62664" lon="5.72553">
        <ele>669</ele>
        <time>2018-09-02T15:08:48Z</time>
      </trkpt>
      <trkpt lat="45.62659" lon="5.72559">
        <ele>669</ele>
        <time>2018-09-02T15:09:04Z</time>
      </trkpt>
      <trkpt lat="45.62656" lon="5.72567">
        <ele>669</ele>
        <time>2018-09-02T15:09:04Z</time>
      </trkpt>
      <trkpt lat="45.62649" lon="5.72572">
        <ele>669</ele>
        <time>2018-09-02T15:09:04Z</time>
      </trkpt>
      <trkpt lat="45.62642" lon="5.72577">
        <ele>669</ele>
        <time>2018-09-02T15:09:04Z</time>
      </trkpt>
      <trkpt lat="45.62636" lon="5.72582">
        <ele>669</ele>
        <time>2018-09-02T15:09:20Z</time>
      </trkpt>
      <trkpt lat="45.62634" lon="5.72586">
        <ele>669</ele>
        <time>2018-09-02T15:09:20Z</time>
      </trkpt>
      <trkpt lat="45.6263" lon="5.72587">
        <ele>669</ele>
        <time>2018-09-02T15:09:20Z</time>
      </trkpt>
      <trkpt lat="45.62627" lon="5.72591">
        <ele>669</ele>
        <time>2018-09-02T15:09:20Z</time>
      </trkpt>
      <trkpt lat="45.62623" lon="5.72595">
        <ele>679</ele>
        <time>2018-09-02T15:09:36Z</time>
      </trkpt>
      <trkpt lat="45.62617" lon="5.72597">
        <ele>679</ele>
        <time>2018-09-02T15:09:36Z</time>
      </trkpt>
      <trkpt lat="45.62611" lon="5.72598">
        <ele>679</ele>
        <time>2018-09-02T15:09:36Z</time>
      </trkpt>
      <trkpt lat="45.62605" lon="5.72601">
        <ele>679</ele>
        <time>2018-09-02T15:09:36Z</time>
      </trkpt>
      <trkpt lat="45.626" lon="5.72604">
        <ele>679</ele>
        <time>2018-09-02T15:09:52Z</time>
      </trkpt>
      <trkpt lat="45.62596" lon="5.72608">
        <ele>679</ele>
        <time>2018-09-02T15:09:52Z</time>
      </trkpt>
      <trkpt lat="45.6259" lon="5.72614">
        <ele>679</ele>
        <time>2018-09-02T15:09:52Z</time>
      </trkpt>
      <trkpt lat="45.62583" lon="5.72618">
        <ele>679</ele>
        <time>2018-09-02T15:09:52Z</time>
      </trkpt>
      <trkpt lat="45.62576" lon="5.72622">
        <ele>679</ele>
        <time>2018-09-02T15:10:08Z</time>
      </trkpt>
      <trkpt lat="45.62568" lon="5.72625">
        <ele>659</ele>
        <time>2018-09-02T15:10:08Z</time>
      </trkpt>
      <trkpt lat="45.62562" lon="5.72628">
        <ele>659</ele>
        <time>2018-09-02T15:10:08Z</time>
      </trkpt>
      <trkpt lat="45.62557" lon="5.72632">
        <ele>659</ele>
        <time>2018-09-02T15:10:08Z</time>
      </trkpt>
      <trkpt lat="45.6256" lon="5.72634">
        <ele>659</ele>
        <time>2018-09-02T15:10:24Z</time>
      </trkpt>
      <trkpt lat="45.62564" lon="5.72633">
        <ele>659</ele>
        <time>2018-09-02T15:10:24Z</time>
      </trkpt>
      <trkpt lat="45.62569" lon="5.72631">
        <ele>659</ele>
        <time>2018-09-02T15:10:24Z</time>
      </trkpt>
      <trkpt lat="45.62573" lon="5.72629">
        <ele>659</ele>
        <time>2018-09-02T15:10:24Z</time>
      </trkpt>
      <trkpt lat="45.62587" lon="5.72625">
        <ele>659</ele>
        <time>2018-09-02T15:10:56Z</time>
      </trkpt>
      <trkpt lat="45.6259" lon="5.72626">
        <ele>659</ele>
        <time>2018-09-02T15:10:56Z</time>
      </trkpt>
      <trkpt lat="45.62596" lon="5.72625">
        <ele>659</ele>
        <time>2018-09-02T15:10:56Z</time>
      </trkpt>
      <trkpt lat="45.62603" lon="5.72624">
        <ele>679</ele>
        <time>2018-09-02T15:10:56Z</time>
      </trkpt>
      <trkpt lat="45.62609" lon="5.72624">
        <ele>679</ele>
        <time>2018-09-02T15:10:56Z</time>
      </trkpt>
      <trkpt lat="45.62614" lon="5.72623">
        <ele>679</ele>
        <time>2018-09-02T15:11:12Z</time>
      </trkpt>
      <trkpt lat="45.6262" lon="5.72621">
        <ele>679</ele>
        <time>2018-09-02T15:11:12Z</time>
      </trkpt>
      <trkpt lat="45.62625" lon="5.7262">
        <ele>669</ele>
        <time>2018-09-02T15:11:12Z</time>
      </trkpt>
      <trkpt lat="45.62631" lon="5.72619">
        <ele>669</ele>
        <time>2018-09-02T15:11:12Z</time>
      </trkpt>
      <trkpt lat="45.62637" lon="5.72618">
        <ele>669</ele>
        <time>2018-09-02T15:11:28Z</time>
      </trkpt>
      <trkpt lat="45.62644" lon="5.72618">
        <ele>669</ele>
        <time>2018-09-02T15:11:28Z</time>
      </trkpt>
      <trkpt lat="45.62651" lon="5.72616">
        <ele>669</ele>
        <time>2018-09-02T15:11:28Z</time>
      </trkpt>
      <trkpt lat="45.62656" lon="5.72618">
        <ele>669</ele>
        <time>2018-09-02T15:11:28Z</time>
      </trkpt>
      <trkpt lat="45.62654" lon="5.72625">
        <ele>653</ele>
        <time>2018-09-02T15:11:44Z</time>
      </trkpt>
      <trkpt lat="45.62648" lon="5.72626">
        <ele>653</ele>
        <time>2018-09-02T15:11:44Z</time>
      </trkpt>
      <trkpt lat="45.62645" lon="5.72631">
        <ele>653</ele>
        <time>2018-09-02T15:11:44Z</time>
      </trkpt>
      <trkpt lat="45.62641" lon="5.72631">
        <ele>653</ele>
        <time>2018-09-02T15:11:44Z</time>
      </trkpt>
      <trkpt lat="45.62635" lon="5.72642">
        <ele>653</ele>
        <time>2018-09-02T15:12:12Z</time>
      </trkpt>
      <trkpt lat="45.62635" lon="5.72644">
        <ele>653</ele>
        <time>2018-09-02T15:12:12Z</time>
      </trkpt>
      <trkpt lat="45.62635" lon="5.72644">
        <ele>653</ele>
        <time>2018-09-02T15:12:12Z</time>
      </trkpt>
      <trkpt lat="45.62634" lon="5.72646">
        <ele>653</ele>
        <time>2018-09-02T15:12:12Z</time>
      </trkpt>
      <trkpt lat="45.62632" lon="5.72651">
        <ele>653</ele>
        <time>2018-09-02T15:12:12Z</time>
      </trkpt>
    </trkseg>
  </trk>
</gpx>